# Wetter Temperatur Luftdruck Luftfeuchtigkeit Sichtweite Windgeschwindigkeit Windrichtung Zeit
1 Clouds 14 1012 84 0 0.45 118 19:59 17.10.2019
2 Clouds 15 1012 83 0 2.03 175.342 19:41 17.10.2019
3 Clouds 15 1012 83 0 0.45 125 19:20 17.10.2019
4 Clouds 15 1012 83 0 0.45 125 19:20 17.10.2019
5 Clouds 15 1012 82 0 0.89 166 18:58 17.10.2019
6 Clouds 16 1012 82 0 0.45 174 18:38 17.10.2019
7 Clouds 16 1012 81 0 2.26 224.534 18:20 17.10.2019
8 Clouds 16 1012 81 0 2.26 224.534 18:20 17.10.2019
9 Clouds 17 1012 75 0 3.024 223 17:43 17.10.2019
10 Clouds 17 1012 73 0 3.024 223 17:24 17.10.2019
11 Clouds 17 1011 71 0 0.89 184 16:58 17.10.2019
12 Clouds 18 1012 70 0 1.79 188 16:40 17.10.2019
13 Clouds 18 1012 70 0 1.79 188 16:40 17.10.2019
14 Clouds 18 1012 67 0 1.34 180 16:19 17.10.2019
15 -273 0 0 0 0 0 15:57 17.10.2019
16 Clouds 18 1012 65 0 3.024 223 15:38 17.10.2019
17 Clouds 18 1012 63 0 0.45 193 15:20 17.10.2019
18 Clouds 18 1012 64 0 0.89 200 14:56 17.10.2019
19 Clouds 18 1012 64 0 2.24 277 14:38 17.10.2019
20 Clouds 18 1012 69 0 0.45 164 14:19 17.10.2019
21 Clouds 18 1012 62 0 0.45 40 13:40 17.10.2019
22 Clouds 18 1012 64 0 1.34 204 13:20 17.10.2019
23 Clouds 17 1012 66 0 2.24 190 12:58 17.10.2019
24 Clouds 16 1012 68 0 1.79 170 12:37 17.10.2019
25 Clouds 16 1012 69 0 1.79 188 12:19 17.10.2019
26 Clouds 16 1012 70 0 1.34 190 11:55 17.10.2019
27 Clouds 16 1012 70 0 3.731 216 11:37 17.10.2019
28 Clouds 15 1012 72 0 0.89 181 11:18 17.10.2019
29 Clouds 15 1012 77 0 2.68 132 10:41 17.10.2019
30 Clouds 15 1012 74 0 1.34 174 10:19 17.10.2019
31 Clouds 15 1012 76 0 1.34 177 09:57 17.10.2019
32 Clouds 14 1012 79 0 4.649 225 09:38 17.10.2019
33 Clouds 14 1011 79 0 1.34 187 09:19 17.10.2019
34 Clouds 14 1011 81 0 1.34 163 08:49 17.10.2019
35 Clouds 13 1011 83 0 1.79 145 08:27 17.10.2019
36 Clouds 13 1011 84 0 1.34 188 07:59 17.10.2019
37 Clouds 13 1010 85 0 1.79 157 07:41 17.10.2019
38 Clouds 13 1010 86 0 1.34 153 07:21 17.10.2019
39 Clouds 13 1010 87 0 1.34 197 06:55 17.10.2019
40 Clouds 13 1010 87 0 1.34 197 06:37 17.10.2019
41 Clouds 13 1010 87 0 0.45 156 06:18 17.10.2019
42 Clouds 13 1010 87 0 1.34 170 05:40 17.10.2019
43 Clouds 13 1011 87 0 1.34 172 05:19 17.10.2019
44 Clouds 13 1011 86 0 1.79 152 04:48 17.10.2019
45 Clouds 14 1011 85 0 1.34 157 03:46 17.10.2019
46 Clouds 13 1011 85 0 0.45 159 02:32 17.10.2019
47 Clouds 13 1011 85 0 1.79 176 00:42 17.10.2019
48 Clouds 13 1011 85 0 0.89 153 00:21 17.10.2019
49 Clouds 13 1011 85 0 0.45 162 23:59 16.10.2019
50 Clouds 13 1011 84 0 0.89 114 23:41 16.10.2019
51 Clouds 13 1011 85 0 1.34 169 23:19 16.10.2019
52 Clouds 13 1011 86 0 1.34 170 22:54 16.10.2019
53 Clouds 13 1011 84 0 0.89 166 22:36 16.10.2019
54 Clouds 13 1011 84 0 1.34 164 22:18 16.10.2019
55 Clouds 13 1011 84 0 1.34 211 21:54 16.10.2019
56 Clouds 13 1011 84 0 4.216 219 21:36 16.10.2019
57 Clouds 13 1011 84 0 0.89 118 21:18 16.10.2019
58 -273 0 0 0 0 0 20:56 16.10.2019
59 Clouds 13 1011 84 0 0.89 176 20:38 16.10.2019
60 Clouds 12 1011 85 0 1.79 169 20:19 16.10.2019
61 Clouds 13 1011 86 0 0.45 148 19:42 16.10.2019
62 Clouds 13 1011 88 0 0.45 187 19:21 16.10.2019
63 Clouds 13 1011 88 0 0.45 187 19:21 16.10.2019
64 Clouds 13 1011 88 0 3.779 209 18:59 16.10.2019
65 Clouds 13 1011 88 0 2.24 200 18:39 16.10.2019
66 Clouds 13 1010 87 0 0.45 249 18:19 16.10.2019
67 Clouds 14 1010 85 0 4.142 232 17:56 16.10.2019
68 Clouds 14 1010 82 0 1.34 186 17:37 16.10.2019
69 Clouds 14 1010 81 0 0.45 157 17:19 16.10.2019
70 Clouds 15 1008 77 0 0.45 210 16:58 16.10.2019
71 Clouds 15 1010 78 0 1.34 267 16:38 16.10.2019
72 Clouds 15 1010 78 0 0.45 241 16:20 16.10.2019
73 Clouds 15 1010 77 0 1.79 214 15:55 16.10.2019
74 Clouds 15 1010 77 0 0.45 39 15:54 16.10.2019
75 Clouds 15 1010 77 0 0.45 39 15:54 16.10.2019
76 Clouds 15 1010 77 0 0.45 39 15:54 16.10.2019
77 Clouds 14 1010 84 0 1.79 162 15:36 16.10.2019
78 Rain 14 1010 85 0 0.45 141 15:18 16.10.2019
79 Rain 14 1010 85 0 0.89 272 15:18 16.10.2019
80 Rain 14 1010 85 0 0.89 272 15:18 16.10.2019
81 Rain 13 1010 86 0 2.24 191 14:55 16.10.2019
82 Rain 13 1010 86 0 2.68 201 14:36 16.10.2019
83 Rain 13 1010 88 0 3.827 243 14:18 16.10.2019
84 Rain 13 1010 90 0 1.34 180 13:42 16.10.2019
85 Rain 13 1011 89 0 0.45 203 13:23 16.10.2019
86 Rain 12 1005 95 0 3.827 243 12:57 16.10.2019
87 Rain 12 1010 88 0 3.827 243 12:39 16.10.2019
88 Rain 12 1010 88 0 5.587 251 12:18 16.10.2019
89 Rain 12 1010 86 0 5.587 251 11:42 16.10.2019
90 Rain 12 1010 86 0 0.45 256 11:18 16.10.2019
91 Rain 12 1009 83 0 1.34 249 10:39 16.10.2019
92 Rain 13 1009 82 0 2.68 272 10:20 16.10.2019
93 -273 0 0 0 0 0 09:56 16.10.2019
94 Rain 13 1009 83 0 1.79 243 09:38 16.10.2019
95 Rain 14 1009 85 0 1.79 238 09:19 16.10.2019
96 Rain 14 1008 87 0 1.79 245 08:43 16.10.2019
97 Rain 14 1008 90 0 1.34 217 08:24 16.10.2019
98 Rain 14 1007 91 0 0.45 225 07:46 16.10.2019
99 Rain 14 1007 91 0 1.79 286 07:25 16.10.2019
100 Rain 14 1007 91 0 1.79 210 07:25 16.10.2019
101 Rain 14 1007 91 0 1.34 228 06:59 16.10.2019
102 Rain 14 1007 91 0 1.34 232 06:39 16.10.2019
103 Clouds 14 1006 90 0 9.543 277 05:48 16.10.2019
104 Clouds 13 1005 85 0 9.543 277 03:26 16.10.2019
105 Clouds 13 1004 90 0 0.45 276 02:49 16.10.2019
106 Clouds 13 1004 90 0 3.874 253 01:19 16.10.2019
107 Clouds 13 1004 89 0 3.874 253 00:50 16.10.2019
108 Clouds 13 1004 88 0 1.03 153 00:28 16.10.2019
109 Clouds 13 1004 88 0 1.03 153 23:41 15.10.2019
110 Clouds 13 1004 88 0 1.03 153 23:22 15.10.2019
111 Clouds 14 1004 88 0 1.03 153 22:56 15.10.2019
112 Clouds 14 1004 88 0 1.03 153 22:56 15.10.2019
113 Clouds 14 1005 87 0 1.03 153 22:38 15.10.2019
114 Clouds 15 1005 87 0 1.03 153 22:20 15.10.2019
115 Clouds 15 1005 87 0 1.03 153 21:56 15.10.2019
116 -273 0 0 0 0 0 21:56 15.10.2019
117 Clouds 15 1005 87 0 0.771 153 21:38 15.10.2019
118 Clouds 15 1005 86 0 1.87 61 21:20 15.10.2019
119 Clouds 16 1005 85 0 1.87 61 20:57 15.10.2019
120 Clouds 16 1005 84 0 1.87 61 20:39 15.10.2019
121 Clouds 17 1005 83 0 1.87 61 20:20 15.10.2019
122 Clouds 17 1005 81 0 1.87 61 19:59 15.10.2019
123 Clouds 17 1005 79 0 1.87 61 19:40 15.10.2019
124 Clouds 17 1005 78 0 1.87 61 19:40 15.10.2019
125 Clouds 17 1005 78 0 1.87 61 19:20 15.10.2019
126 Clouds 18 1000 77 0 1.87 61 18:55 15.10.2019
127 Clouds 18 1005 75 0 1.87 61 18:36 15.10.2019
128 Clouds 19 1004 75 0 1.832 97 18:18 15.10.2019
129 Clouds 20 1001 72 0 1.832 97 17:41 15.10.2019
130 Clouds 20 1001 72 0 1.832 97 17:41 15.10.2019
131 Clouds 21 1004 70 0 1.832 97 17:20 15.10.2019
132 Clouds 21 1004 70 0 1.832 97 17:20 15.10.2019
133 Clouds 22 1005 66 0 1.832 97 16:58 15.10.2019
134 Clouds 22 1004 64 0 1.832 97 16:39 15.10.2019
135 Clouds 22 1005 61 0 0.89 145 16:20 15.10.2019
136 -273 0 0 0 0 0 15:55 15.10.2019
137 Clouds 23 1005 57 0 1.79 87 15:37 15.10.2019
138 Clouds 23 1005 57 0 0.45 166 15:19 15.10.2019
139 Clouds 23 1005 56 0 1.34 203 14:38 15.10.2019
140 Clouds 23 1005 56 0 1.34 203 14:38 15.10.2019
141 Clouds 22 1005 59 0 1.34 166 14:20 15.10.2019
142 Clouds 23 1005 60 0 0.45 16 13:59 15.10.2019
143 Clouds 22 1006 63 0 0.89 170 13:40 15.10.2019
144 Clouds 22 1006 64 0 1.79 164 13:20 15.10.2019
145 Clouds 21 1006 67 0 1.34 98 12:44 15.10.2019
146 Clouds 20 1006 68 0 1.34 93 12:22 15.10.2019
147 Clouds 19 1006 75 0 1.826 173 11:58 15.10.2019
148 Clouds 19 1006 76 0 0.89 117 11:40 15.10.2019
149 Clouds 18 1007 80 0 1.826 173 11:19 15.10.2019
150 Clouds 16 1007 84 0 0.89 87 10:46 15.10.2019
151 Clouds 15 1007 88 0 0.45 88 10:24 15.10.2019
152 Clouds 14 1007 88 0 0.45 146 09:59 15.10.2019
153 Clouds 14 1008 88 0 1.51 165.623 09:40 15.10.2019
154 Clouds 13 1007 87 0 2.79 140.916 09:21 15.10.2019
155 Clouds 13 1008 85 0 0.89 142 08:57 15.10.2019
156 Clouds 12 1007 90 0 0.45 160 08:39 15.10.2019
157 Clouds 12 1007 90 0 2.88 137.394 08:19 15.10.2019
158 Clouds 11 1007 90 0 2.88 137.394 07:43 15.10.2019
159 Clouds 11 1007 90 0 2.88 137.394 07:43 15.10.2019
160 Clouds 11 1007 90 0 2.88 137.394 07:22 15.10.2019
161 Clouds 12 1007 90 0 2.88 137.394 06:56 15.10.2019
162 Clouds 12 1008 90 0 2.88 137.394 06:37 15.10.2019
163 Clouds 12 1008 90 0 0.45 128 05:56 15.10.2019
164 Clouds 12 1008 90 0 2.83 142.887 05:36 15.10.2019
165 Clouds 12 1008 89 0 0.45 93 04:48 15.10.2019
166 Clouds 13 1009 89 0 2.83 142.887 04:18 15.10.2019
167 Clouds 13 1009 89 0 2.83 142.887 03:34 15.10.2019
168 Clouds 13 1010 88 0 2.68 125.577 01:52 15.10.2019
169 Clouds 14 1010 88 0 2.7 131.461 01:31 15.10.2019
170 Clouds 14 1010 88 0 2.7 131.461 00:59 15.10.2019
171 Clouds 14 1010 88 0 2.32 110.455 00:25 15.10.2019
172 Clouds 15 1010 88 0 2.32 110.455 23:58 14.10.2019
173 Clouds 15 1010 87 0 2.32 110.455 23:37 14.10.2019
174 Clouds 15 1010 87 0 2.32 110.455 23:37 14.10.2019
175 Clouds 15 1010 87 0 2.32 110.455 23:18 14.10.2019
176 Clouds 15 1011 86 0 2.32 110.455 22:39 14.10.2019
177 Clouds 16 1011 86 0 2.32 110.455 22:20 14.10.2019
178 Clouds 16 1011 85 0 2.32 110.455 21:58 14.10.2019
179 Clouds 16 1011 84 0 2.32 110.455 21:39 14.10.2019
180 Clouds 16 1011 83 0 3.74 95.128 21:21 14.10.2019
181 Clouds 17 1011 82 0 3.73 83.68 20:57 14.10.2019
182 Clouds 17 1011 82 0 3.73 83.68 20:57 14.10.2019
183 Clouds 17 1011 81 0 3.73 83.68 20:38 14.10.2019
184 Clouds 17 1011 81 0 3.73 83.68 20:38 14.10.2019
185 Clouds 18 1011 80 0 3.73 83.68 20:19 14.10.2019
186 Clear 18 1012 79 0 3.647 113 19:44 14.10.2019
187 Clear 18 1012 78 0 3.647 113 19:25 14.10.2019
188 -273 0 0 0 0 0 18:59 14.10.2019
189 Clouds 19 1012 74 0 3.73 83.68 18:40 14.10.2019
190 Clouds 20 1012 73 0 0.45 112 18:21 14.10.2019
191 Clouds 20 1012 69 0 0.45 59 17:59 14.10.2019
192 Clouds 21 1011 63 0 3.32 96.9 17:41 14.10.2019
193 Clouds 22 1012 61 0 0.45 36 17:22 14.10.2019
194 Clouds 22 1013 58 0 0.45 45 16:45 14.10.2019
195 Clouds 23 1013 58 0 1.34 98 16:22 14.10.2019
196 Clouds 23 1013 58 0 0.89 100 15:59 14.10.2019
197 Clouds 23 1013 58 0 0.45 91 15:40 14.10.2019
198 Clouds 23 1014 59 0 0.45 331 15:21 14.10.2019
199 Clouds 22 1014 59 0 0.89 81 14:44 14.10.2019
200 Clouds 21 1014 59 0 1.34 11 14:25 14.10.2019
201 Clouds 22 1014 60 0 1.34 46 13:57 14.10.2019
202 Clouds 21 1015 61 0 0.89 57 13:39 14.10.2019
203 Clouds 21 1015 61 0 0.45 346 13:20 14.10.2019
204 Clouds 21 1015 61 0 1.41 61.451 12:41 14.10.2019
205 Clouds 21 1015 62 0 1.84 281.365 12:20 14.10.2019
206 Clouds 19 1015 65 0 0.45 307 11:55 14.10.2019
207 Clouds 20 1015 67 0 1.34 335 11:36 14.10.2019
208 Clouds 20 1015 69 0 1.84 281.365 11:18 14.10.2019
209 Clouds 18 1015 72 0 1.84 281.365 10:43 14.10.2019
210 Clouds 18 1015 73 0 1.84 281.365 10:21 14.10.2019
211 Clouds 17 1015 76 0 1.84 281.365 09:59 14.10.2019
212 Clouds 17 1015 76 0 1.84 281.365 09:59 14.10.2019
213 Clouds 17 1015 78 0 1.84 281.365 09:38 14.10.2019
214 Clouds 17 1015 78 0 1.84 281.365 09:38 14.10.2019
215 Clouds 16 1015 78 0 2.92 267.941 09:20 14.10.2019
216 Clouds 15 1015 79 0 2.92 267.941 08:48 14.10.2019
217 Clouds 15 1014 83 0 2.92 267.941 08:23 14.10.2019
218 Clouds 15 1014 83 0 2.92 267.941 07:44 14.10.2019
219 Clouds 15 1014 82 0 2.92 267.941 07:22 14.10.2019
220 -273 0 0 0 0 0 06:56 14.10.2019
221 Clouds 16 1013 80 0 2.92 267.941 06:28 14.10.2019
222 Clouds 16 1013 80 0 3.78 253.68 05:53 14.10.2019
223 Clouds 17 1012 76 0 0.45 200 04:53 14.10.2019
224 Clouds 18 1012 73 0 0.45 121 03:49 14.10.2019
225 Clouds 18 1012 73 0 0.45 173 03:22 14.10.2019
226 Clouds 18 1012 71 0 0.89 201 01:56 14.10.2019
227 Clouds 18 1011 74 0 1.34 173 01:18 14.10.2019
228 Clouds 18 1011 74 0 0.45 133 00:41 14.10.2019
229 Clouds 18 1011 74 0 4.85 221.565 00:18 14.10.2019
230 Clouds 17 1011 73 0 0.45 190 23:40 13.10.2019
231 Clouds 18 1011 72 0 1.34 183 23:19 13.10.2019
232 Clouds 18 1010 73 0 0.89 187 22:56 13.10.2019
233 Clouds 19 1010 73 0 4.85 221.565 22:38 13.10.2019
234 Clouds 18 1010 73 0 0.89 262 22:19 13.10.2019
235 Clouds 19 1010 75 0 0.89 211 21:56 13.10.2019
236 Clouds 19 1010 74 0 4.85 221.565 21:36 13.10.2019
237 Clouds 19 1010 74 0 4.85 221.565 21:36 13.10.2019
238 Rain 19 1010 73 0 0.45 164 21:18 13.10.2019
239 Rain 18 1010 74 0 0.45 180 21:18 13.10.2019
240 Rain 19 1009 73 0 1.34 169 20:56 13.10.2019
241 Clouds 19 1010 75 0 0.45 108 20:37 13.10.2019
242 Clouds 19 1010 74 0 4.78 194.67 20:18 13.10.2019
243 Clouds 19 1010 72 0 0.89 193 19:54 13.10.2019
244 Clouds 19 1010 72 0 0.89 193 19:54 13.10.2019
245 Clouds 19 1009 71 0 0.89 174 19:36 13.10.2019
246 Clouds 19 1010 70 0 0.45 236 19:36 13.10.2019
247 Clouds 19 1010 70 0 1.34 156 19:18 13.10.2019
248 Clouds 20 1009 69 0 0.45 126 18:40 13.10.2019
249 Clouds 21 1010 67 0 0.89 167 18:21 13.10.2019
250 Clouds 21 1009 64 0 0.45 141 17:59 13.10.2019
251 Clouds 21 1010 63 0 1.34 194 17:41 13.10.2019
252 Clouds 21 1009 63 0 0.45 152 17:41 13.10.2019
253 Clouds 22 1010 63 0 4.3 177.387 17:23 13.10.2019
254 Clouds 22 1010 65 0 1.34 142 16:44 13.10.2019
255 Clouds 22 1010 62 0 3.58 180 16:20 13.10.2019
256 Clouds 22 1011 62 0 0.45 131 15:58 13.10.2019
257 Clouds 22 1011 62 0 0.45 131 15:58 13.10.2019
258 Clouds 23 1006 62 0 4.3 177.387 15:39 13.10.2019
259 Clouds 23 1006 62 0 4.3 177.387 15:39 13.10.2019
260 Clouds 23 1011 63 0 1.34 148 15:20 13.10.2019
261 Clouds 23 1011 64 0 0.89 200 14:58 13.10.2019
262 Clouds 23 1011 62 0 2.42 231.318 14:40 13.10.2019
263 Clouds 23 1011 59 0 0.89 150 14:21 13.10.2019
264 Clouds 23 1012 57 0 2.68 84 13:58 13.10.2019
265 Clouds 23 1012 58 0 2.68 122 13:38 13.10.2019
266 Clouds 22 1012 56 0 1.34 167 13:20 13.10.2019
267 Clouds 22 1012 57 0 1.34 128 12:56 13.10.2019
268 Clouds 22 1012 63 0 1.34 162 12:38 13.10.2019
269 Clear 21 1012 64 0 1.34 167 12:18 13.10.2019
270 Clear 21 1012 67 0 2.68 155 11:55 13.10.2019
271 Clear 21 1012 68 0 2.68 135 11:55 13.10.2019
272 Clear 21 1012 68 0 1.79 177 11:37 13.10.2019
273 Clear 21 1012 68 0 1.79 177 11:37 13.10.2019
274 Clear 21 1012 70 0 1.34 139 11:18 13.10.2019
275 Clear 19 1012 74 0 1.79 169 10:41 13.10.2019
276 Clear 18 1013 77 0 2.24 197 10:23 13.10.2019
277 -273 0 0 0 0 0 09:56 13.10.2019
278 Clear 16 1012 79 0 1.34 359 09:37 13.10.2019
279 Clouds 15 1012 80 0 0.45 163 09:19 13.10.2019
280 Clouds 14 1012 86 0 0.89 142 08:42 13.10.2019
281 Clouds 14 1012 88 0 0.45 136 08:21 13.10.2019
282 Clouds 13 1012 88 0 1.49 186.357 07:46 13.10.2019
283 Clouds 13 1011 88 0 0.89 145 07:23 13.10.2019
284 Clouds 14 1011 88 0 1.49 186.357 06:42 13.10.2019
285 Clouds 14 1011 87 0 2.05 210.993 05:49 13.10.2019
286 Clouds 14 1011 85 0 2.05 210.993 04:52 13.10.2019
287 Clouds 14 1011 84 0 2.05 210.993 04:32 13.10.2019
288 Clouds 15 1011 81 0 2.34 218.468 02:42 13.10.2019
289 Clouds 15 1011 79 0 0.45 181 02:18 13.10.2019
290 Clouds 16 1012 79 0 2.34 218.468 01:31 13.10.2019
291 Clouds 16 1012 79 0 3.27 232.695 01:31 13.10.2019
292 Clouds 16 1011 79 0 3.27 232.695 00:50 13.10.2019
293 Clouds 15 1011 81 0 2.75 231.984 00:22 13.10.2019
294 Clouds 15 1011 81 0 2.75 231.984 23:58 12.10.2019
295 Clouds 15 1011 80 0 2.75 231.984 23:39 12.10.2019
296 Clouds 15 1011 79 0 1.34 166 23:21 12.10.2019
297 Clouds 16 1011 77 0 1.34 211 22:58 12.10.2019
298 Clouds 15 1011 77 0 0.45 208 22:38 12.10.2019
299 Clouds 15 1011 78 0 2.75 231.984 22:20 12.10.2019
300 Clouds 15 1011 77 0 0.45 155 21:55 12.10.2019
301 Clouds 15 1011 76 0 0.45 145 21:37 12.10.2019
302 Clouds 16 1011 75 0 0.45 166 21:19 12.10.2019
303 Clouds 16 1011 75 0 0.45 166 21:19 12.10.2019
304 Clouds 16 1011 78 0 2.85 215.356 20:43 12.10.2019
305 Clouds 15 1011 78 0 2.85 215.356 20:25 12.10.2019
306 Clouds 16 1011 79 0 2.85 215.356 19:40 12.10.2019
307 Clouds 16 1011 78 0 2.85 215.356 19:22 12.10.2019
308 Clouds 16 1011 77 0 2.85 215.356 19:22 12.10.2019
309 Clouds 17 1011 76 0 2.85 215.356 18:59 12.10.2019
310 Clouds 17 1011 75 0 2.85 215.356 18:41 12.10.2019
311 Clouds 18 1011 74 0 3.3 239.645 18:23 12.10.2019
312 Clouds 19 1011 63 0 3.3 239.645 17:45 12.10.2019
313 Clouds 19 1011 58 0 3.3 239.645 17:20 12.10.2019
314 Clouds 20 1011 55 0 3.3 239.645 16:56 12.10.2019
315 Clouds 20 1011 53 0 3.3 239.645 16:38 12.10.2019
316 Clouds 20 1011 53 0 3.3 239.645 16:18 12.10.2019
317 Clouds 20 1011 51 0 0.45 318 15:44 12.10.2019
318 Clouds 20 1011 51 0 1.34 324 15:25 12.10.2019
319 Clouds 20 1011 51 0 1.34 324 15:25 12.10.2019
320 Clouds 20 1010 50 0 1.34 322 14:59 12.10.2019
321 Clouds 20 1010 51 0 2.24 225 14:38 12.10.2019
322 Clouds 20 1010 51 0 1.34 252 14:19 12.10.2019
323 Clouds 20 1010 50 0 6.34 254.717 13:45 12.10.2019
324 Clouds 20 1010 49 0 0.45 321 13:27 12.10.2019
325 Clouds 20 1010 53 0 1.34 286 12:55 12.10.2019
326 Clouds 19 1010 57 0 0.45 345 12:36 12.10.2019
327 Clouds 19 1010 61 0 0.45 280 12:18 12.10.2019
328 Clouds 19 1010 65 0 1.34 272 11:40 12.10.2019
329 Clouds 18 1010 67 0 1.34 136 11:22 12.10.2019
330 Clouds 17 1010 70 0 2.24 250 10:56 12.10.2019
331 Clouds 16 1009 73 0 1.34 126 10:37 12.10.2019
332 Clouds 16 1009 74 0 2.68 212 10:19 12.10.2019
333 -273 0 0 0 0 0 09:56 12.10.2019
334 Clouds 15 1009 75 0 1.34 169 09:37 12.10.2019
335 Clouds 15 1009 74 0 4.98 228.593 09:19 12.10.2019
336 Clouds 14 1008 77 0 2.24 228 08:42 12.10.2019
337 Clouds 14 1009 80 0 0.45 149 08:23 12.10.2019
338 Clouds 14 1008 83 0 0.45 225 07:40 12.10.2019
339 Clouds 14 1008 83 0 2.68 214 07:22 12.10.2019
340 Clouds 14 1008 81 0 1.34 156 05:54 12.10.2019
341 Clouds 14 1008 80 0 4.02 177 05:25 12.10.2019
342 Clouds 14 1009 79 0 1.34 201 04:31 12.10.2019
343 Clouds 15 1009 78 0 1.34 183 03:46 12.10.2019
344 Clouds 15 1009 80 0 1.79 229 02:37 12.10.2019
345 Clouds 15 1009 78 0 0.89 174 01:31 12.10.2019
346 Clouds 15 1009 77 0 2.68 183 00:54 12.10.2019
347 Clouds 15 1010 76 0 5.94 231.471 00:35 12.10.2019
348 Clouds 15 1010 74 0 1.34 195 23:54 11.10.2019
349 Clouds 15 1009 74 0 0.89 149 23:36 11.10.2019
350 Clouds 15 1010 74 0 1.79 170 23:18 11.10.2019
351 Clouds 15 1010 74 0 2.24 193 22:37 11.10.2019
352 Clouds 15 1010 74 0 1.34 248 22:19 11.10.2019
353 Clouds 15 1010 75 0 2.24 194 21:42 11.10.2019
354 Clouds 15 1010 75 0 2.24 211 21:21 11.10.2019
355 Clouds 15 1010 76 0 1.79 183 21:21 11.10.2019
356 Clouds 14 1010 75 0 1.34 211 20:57 11.10.2019
357 Clouds 14 1010 75 0 1.34 224 20:38 11.10.2019
358 Clouds 14 1010 75 0 1.34 181 20:20 11.10.2019
359 Clouds 14 1010 75 0 0.45 64 19:55 11.10.2019
360 Clouds 14 1010 75 0 0.45 232 19:37 11.10.2019
361 Clouds 14 1010 77 0 0.89 183 19:18 11.10.2019
362 Clouds 14 1010 76 0 1.34 104 19:18 11.10.2019
363 Clouds 14 1010 76 0 1.34 104 19:18 11.10.2019
364 Clouds 14 1010 76 0 1.34 104 19:18 11.10.2019
365 Clouds 14 1011 78 0 0.45 160 18:56 11.10.2019
366 Clouds 15 1011 77 0 2.24 186 18:37 11.10.2019
367 Clouds 15 1011 77 0 2.24 232 18:18 11.10.2019
368 Clouds 15 1012 74 0 1.34 149 17:55 11.10.2019
369 Clouds 15 1011 74 0 1.79 222 17:36 11.10.2019
370 Clouds 16 1012 73 0 1.34 203 17:18 11.10.2019
371 Clouds 16 1012 70 0 5.97 224.919 16:40 11.10.2019
372 -273 0 0 0 0 0 16:20 11.10.2019
373 Clouds 16 1012 69 0 2.68 231 16:20 11.10.2019
374 Clouds 16 1012 68 0 1.34 214 15:58 11.10.2019
375 Clouds 16 1012 68 0 0.45 124 15:38 11.10.2019
376 Clouds 16 1012 67 0 0.89 231 15:19 11.10.2019
377 Clouds 16 1012 65 0 1.79 160 14:47 11.10.2019
378 Clouds 16 1012 63 0 1.34 207 14:29 11.10.2019
379 Clouds 16 1012 65 0 1.79 208 13:56 11.10.2019
380 Clouds 16 1013 66 0 0.45 129 13:37 11.10.2019
381 Clouds 16 1013 67 0 2.68 193 13:19 11.10.2019
382 Clouds 15 1013 68 0 0.45 156 12:56 11.10.2019
383 Clouds 15 1013 68 0 3.13 201 12:38 11.10.2019
384 Clouds 14 1013 68 0 0.45 138 12:18 11.10.2019
385 Clouds 14 1013 72 0 0.89 81 11:41 11.10.2019
386 Clouds 14 1014 72 0 1.79 248 11:22 11.10.2019
387 Clouds 14 1014 72 0 1.79 248 11:22 11.10.2019
388 Clouds 14 1014 71 0 6.54 233.586 10:58 11.10.2019
389 Clouds 13 1014 71 0 1.34 238 10:40 11.10.2019
390 Clouds 13 1014 72 0 2.24 190 10:22 11.10.2019
391 Clouds 12 1014 75 0 6.54 233.586 09:56 11.10.2019
392 Clouds 12 1014 77 0 0.45 359 09:37 11.10.2019
393 Clouds 12 1013 78 0 1.79 163 09:19 11.10.2019
394 Clouds 11 1013 79 0 4.91 215.686 08:55 11.10.2019
395 Clouds 11 1013 80 0 4.91 215.686 08:36 11.10.2019
396 Clouds 11 1013 80 0 2.24 359 08:18 11.10.2019
397 Clouds 11 1013 81 0 2.68 359 07:44 11.10.2019
398 Clouds 11 1013 81 0 4.02 167 07:25 11.10.2019
399 Clouds 11 1014 82 0 4.91 215.686 06:48 11.10.2019
400 Clouds 11 1014 83 0 4.76 218.6 06:23 11.10.2019
401 Clouds 11 1014 81 0 4.76 218.6 05:39 11.10.2019
402 Clouds 11 1015 81 0 4.76 218.6 04:59 11.10.2019
403 Clouds 10 1015 82 0 4.76 218.6 04:25 11.10.2019
404 Clouds 10 1015 87 0 4.29 228.251 02:40 11.10.2019
405 Clouds 9 1015 87 0 0.45 238 00:51 11.10.2019
406 Clouds 9 1015 88 0 0.89 186 00:29 11.10.2019
407 Clouds 10 1015 88 0 4.51 242.612 23:46 10.10.2019
408 Clouds 10 1015 87 0 4.51 242.612 23:23 10.10.2019
409 Clouds 10 1015 86 0 0.45 164 22:58 10.10.2019
410 Clouds 10 1015 86 0 0.45 153 22:39 10.10.2019
411 Clouds 10 1015 86 0 4.51 242.612 22:21 10.10.2019
412 Clouds 10 1015 88 0 4.51 242.612 21:58 10.10.2019
413 Clouds 10 1014 87 0 4.51 242.612 21:40 10.10.2019
414 Clouds 10 1014 87 0 4.32 248.408 21:21 10.10.2019
415 Rain 10 1014 85 0 0.45 193 20:57 10.10.2019
416 Rain 10 1014 84 0 4.56 242.181 20:38 10.10.2019
417 Rain 10 1014 84 0 4.56 242.181 20:18 10.10.2019
418 Rain 11 1014 81 0 4.56 242.181 19:54 10.10.2019
419 Rain 11 1014 79 0 4.56 242.181 19:36 10.10.2019
420 Rain 12 1013 75 0 0.45 84 19:18 10.10.2019
421 Rain 12 1008 75 0 4.56 242.181 18:41 10.10.2019
422 Rain 13 1013 71 0 0.89 210 18:20 10.10.2019
423 Rain 13 1011 69 0 2.68 238 17:55 10.10.2019
424 Rain 14 1012 68 0 1.79 314 17:37 10.10.2019
425 Rain 14 1012 67 0 1.34 258 17:18 10.10.2019
426 Rain 13 1012 68 0 6.26 255 16:47 10.10.2019
427 Rain 14 1012 64 0 2.68 191 16:26 10.10.2019
428 Rain 14 1007 71 0 1.34 81 15:58 10.10.2019
429 Rain 14 1012 70 0 2.24 255 15:38 10.10.2019
430 Rain 14 1012 66 0 2.68 212 15:20 10.10.2019
431 Rain 14 1012 62 0 3.13 253 14:55 10.10.2019
432 Rain 15 1012 60 0 3.58 239 14:36 10.10.2019
433 Rain 15 1011 59 0 0.45 246 14:18 10.10.2019
434 Rain 14 1011 59 0 1.79 177 13:46 10.10.2019
435 Clouds 14 1011 64 0 1.79 131 13:27 10.10.2019
436 Clouds 14 1006 65 0 1.79 78 12:59 10.10.2019
437 Clouds 14 1011 58 0 2.68 252 12:40 10.10.2019
438 Clouds 14 1010 61 0 1.34 294 12:20 10.10.2019
439 Clouds 14 1010 66 0 2.24 317 11:58 10.10.2019
440 Clouds 13 1010 66 0 1.34 208 11:38 10.10.2019
441 Clouds 12 1010 72 0 0.45 301 11:19 10.10.2019
442 Clouds 12 1009 76 0 1.79 267 10:45 10.10.2019
443 Clouds 11 1009 78 0 0.45 218 10:26 10.10.2019
444 Clouds 11 1009 85 0 5.98 258.064 09:58 10.10.2019
445 Clouds 10 1009 85 0 0.45 194 09:39 10.10.2019
446 Clouds 10 1008 87 0 0.45 191 09:21 10.10.2019
447 Clouds 10 1008 89 0 4.9 248.02 08:57 10.10.2019
448 Clouds 9 1008 90 0 4.9 248.02 08:38 10.10.2019
449 Clouds 9 1007 91 0 4.9 248.02 08:18 10.10.2019
450 Clouds 9 1008 90 0 4.9 248.02 07:45 10.10.2019
451 Clouds 9 1007 90 0 4.9 248.02 07:22 10.10.2019
452 Clouds 9 1007 89 0 4.9 248.02 06:48 10.10.2019
453 Clouds 9 1007 89 0 4.9 248.02 06:29 10.10.2019
454 Rain 9 1007 88 0 5.71 252.038 05:28 10.10.2019
455 Rain 10 1006 87 0 5.71 252.038 04:48 10.10.2019
456 Rain 10 1006 86 0 1.34 155 04:26 10.10.2019
457 Clouds 10 1006 90 0 4.89 244.346 01:46 10.10.2019
458 Clouds 10 1006 90 0 5.04 239.789 01:26 10.10.2019
459 Clouds 10 1005 88 0 0.45 117 00:54 10.10.2019
460 Rain 10 1005 88 0 4.61 250.916 00:23 10.10.2019
461 Rain 10 1005 88 0 4.61 250.916 23:40 09.10.2019
462 Rain 10 1005 88 0 4.61 250.916 23:22 09.10.2019
463 Rain 10 1005 89 0 4.61 250.916 22:59 09.10.2019
464 Rain 10 1005 88 0 4.61 250.916 22:40 09.10.2019
465 Rain 11 1005 87 0 0.89 170 22:22 09.10.2019
466 Rain 11 1005 87 0 4.61 250.916 21:41 09.10.2019
467 Rain 11 1005 87 0 4.85 255.136 21:21 09.10.2019
468 Rain 11 1005 86 0 4.33 237.172 20:56 09.10.2019
469 Rain 11 1005 86 0 4.33 237.172 20:38 09.10.2019
470 Rain 11 1005 84 0 4.33 237.172 20:19 09.10.2019
471 Rain 11 1005 85 0 4.33 237.172 19:58 09.10.2019
472 Rain 12 1005 82 0 2.68 359 19:40 09.10.2019
473 Rain 12 1005 81 0 4.33 237.172 19:22 09.10.2019
474 Rain 12 1005 81 0 4.33 237.172 19:22 09.10.2019
475 Rain 13 1005 81 0 4.33 237.172 18:38 09.10.2019
476 Rain 13 1005 80 0 3.72 228.021 18:20 09.10.2019
477 Rain 14 1005 78 0 3.72 228.021 17:58 09.10.2019
478 Rain 14 1005 78 0 3.72 228.021 17:58 09.10.2019
479 Rain 15 1005 75 0 0.45 172 17:39 09.10.2019
480 Rain 15 1005 67 0 3.72 228.021 17:21 09.10.2019
481 Rain 15 1005 65 0 3.13 359 16:56 09.10.2019
482 Rain 15 1005 65 0 2.68 359 16:56 09.10.2019
483 Rain 15 1006 66 0 3.72 228.021 16:37 09.10.2019
484 Rain 16 1006 65 0 3.72 228.021 16:19 09.10.2019
485 Rain 16 1006 64 0 3.72 228.021 15:55 09.10.2019
486 Rain 16 1006 61 0 3.72 228.021 15:37 09.10.2019
487 Rain 16 1006 62 0 5.41 235.459 15:18 09.10.2019
488 Rain 16 1006 62 0 5.41 235.459 14:44 09.10.2019
489 Rain 16 1006 62 0 5.41 235.459 14:44 09.10.2019
490 Rain 16 1007 61 0 5.41 235.459 14:19 09.10.2019
491 Rain 17 1007 61 0 1.79 174 13:59 09.10.2019
492 Rain 16 1007 58 0 5.41 235.459 13:38 09.10.2019
493 Rain 16 1007 59 0 4.34 236.804 13:18 09.10.2019
494 Rain 16 1007 61 0 4.34 236.804 12:44 09.10.2019
495 Rain 16 1007 62 0 4.34 236.804 12:44 09.10.2019
496 Clouds 15 1007 65 0 5.08 236.698 12:23 09.10.2019
497 Clouds 15 1008 70 0 2.24 359 11:58 09.10.2019
498 Clouds 15 1008 73 0 5.08 236.698 11:40 09.10.2019
499 Clouds 15 1008 75 0 5.08 236.698 11:20 09.10.2019
500 Clouds 14 1008 79 0 5.08 236.698 10:59 09.10.2019
501 Clouds 13 1008 80 0 3.13 191 10:40 09.10.2019
502 Clouds 13 1008 83 0 0.89 139 10:19 09.10.2019
503 Clouds 13 1008 83 0 1.34 155 10:19 09.10.2019
504 Clouds 12 1008 86 0 1.79 157 09:43 09.10.2019
505 Clouds 11 1008 82 0 0.45 210 09:20 09.10.2019
506 Clouds 11 1008 83 0 0.45 225 08:58 09.10.2019
507 Clouds 10 1004 94 0 4.71 239.491 08:39 09.10.2019
508 Clouds 9 1008 91 0 0.45 194 08:19 09.10.2019
509 Clouds 10 1008 91 0 1.79 95 08:19 09.10.2019
510 Clouds 9 1008 91 0 4.71 239.491 07:47 09.10.2019
511 Clouds 9 1008 91 0 0.89 173 07:25 09.10.2019
512 Clouds 9 1003 90 0 4.71 239.491 06:57 09.10.2019
513 Clouds 9 1003 90 0 4.71 239.491 06:35 09.10.2019
514 Clear 9 1007 91 0 4.68 241.771 05:52 09.10.2019
515 Clear 10 1007 91 0 4.68 241.771 04:56 09.10.2019
516 Clear 10 1006 91 0 1.34 194 03:47 09.10.2019
517 Rain 10 1006 90 0 3.84 249.088 02:27 09.10.2019
518 Rain 11 1006 90 0 3.84 249.088 01:39 09.10.2019
519 Rain 11 1006 90 0 4.59 245.211 01:18 09.10.2019
520 Rain 12 1006 89 0 4.59 245.211 00:41 09.10.2019
521 Rain 12 1006 89 0 0.45 201 00:23 09.10.2019
522 Rain 12 1005 88 0 5.17 244.401 23:58 08.10.2019
523 Rain 12 1005 88 0 5.17 244.401 23:38 08.10.2019
524 Rain 12 1005 88 0 5.17 244.401 23:18 08.10.2019
525 Rain 12 1005 88 0 5.17 244.401 22:55 08.10.2019
526 Rain 12 1005 88 0 5.17 244.401 22:36 08.10.2019
527 Rain 12 1005 88 0 5.17 244.401 22:18 08.10.2019
528 Rain 12 1005 88 0 5.17 244.401 21:55 08.10.2019
529 Rain 12 1005 87 0 5.17 244.401 21:36 08.10.2019
530 Rain 13 1005 87 0 3.12 225.845 21:18 08.10.2019
531 Rain 13 1005 87 0 0.45 119 20:55 08.10.2019
532 Rain 13 1005 87 0 1.34 359 20:36 08.10.2019
533 Rain 13 1005 86 0 3.9 228.1 20:18 08.10.2019
534 Rain 13 1005 87 0 3.9 228.1 19:42 08.10.2019
535 Rain 13 1005 86 0 0.45 177 19:24 08.10.2019
536 Rain 13 1005 86 0 3.9 228.1 18:59 08.10.2019
537 Rain 13 1005 86 0 3.9 228.1 18:41 08.10.2019
538 Clouds 13 1005 85 0 3.75 253.238 18:22 08.10.2019
539 Clouds 14 1005 83 0 3.75 253.238 17:57 08.10.2019
540 Clouds 14 1005 80 0 3.75 253.238 17:39 08.10.2019
541 Clouds 14 1005 79 0 1.34 157 17:18 08.10.2019
542 Clouds 14 1005 80 0 1.79 156 16:55 08.10.2019
543 Clouds 14 1005 78 0 0.89 193 16:37 08.10.2019
544 Clouds 14 1006 77 0 0.89 102 16:18 08.10.2019
545 Clouds 14 1006 80 0 3.13 234 15:38 08.10.2019
546 Rain 14 1005 80 0 1.34 279 15:20 08.10.2019
547 Rain 14 1006 81 0 3.58 232 14:55 08.10.2019
548 Rain 14 1006 83 0 0.45 219 14:37 08.10.2019
549 Rain 13 1006 83 0 0.89 84 14:19 08.10.2019
550 Rain 13 1006 82 0 4.95 253.789 13:55 08.10.2019
551 Rain 13 1006 82 0 2.68 245 13:37 08.10.2019
552 Rain 13 1001 92 0 4.92 250.778 13:18 08.10.2019
553 Rain 13 1006 84 0 4.92 250.778 13:18 08.10.2019
554 Rain 13 1001 92 0 4.92 250.778 13:18 08.10.2019
555 Rain 12 1001 97 0 4.92 250.778 12:41 08.10.2019
556 Rain 12 1006 85 0 1.34 167 12:20 08.10.2019
557 Rain 11 1001 97 0 4.25 215.578 11:58 08.10.2019
558 Rain 12 1006 86 0 1.34 190 11:39 08.10.2019
559 Rain 11 1006 86 0 4.25 215.578 11:21 08.10.2019
560 Rain 11 1006 87 0 0.45 115 10:42 08.10.2019
561 Rain 11 1007 88 0 1.79 148 10:23 08.10.2019
562 Rain 10 1007 88 0 2.24 191 09:59 08.10.2019
563 Rain 10 1007 89 0 3.58 183 09:40 08.10.2019
564 Rain 10 1007 89 0 1.79 125 09:22 08.10.2019
565 Rain 10 1008 89 0 1.79 215 08:45 08.10.2019
566 Rain 10 1008 88 0 0.45 115 08:25 08.10.2019
567 Rain 9 1009 88 0 1.79 200 07:58 08.10.2019
568 Rain 9 1009 87 0 0.45 93 07:40 08.10.2019
569 Rain 9 1009 87 0 0.89 201 07:19 08.10.2019
570 Rain 9 1010 86 0 3.51 203.523 06:46 08.10.2019
571 Clouds 9 1010 85 0 3.47 177.276 06:23 08.10.2019
572 Clouds 8 1011 85 0 0.45 145 05:43 08.10.2019
573 Clouds 8 1011 85 0 0.45 177 05:43 08.10.2019
574 Clouds 8 1011 85 0 0.89 83 05:19 08.10.2019
575 Clouds 7 1013 84 0 0.45 160 03:32 08.10.2019
576 Clouds 6 1013 84 0 1.34 170 02:44 08.10.2019
577 Clouds 6 1013 84 0 1.34 74 02:25 08.10.2019
578 Clouds 6 1014 83 0 4.13 171.842 01:42 08.10.2019
579 Clouds 5 1015 84 0 0.89 81 00:57 08.10.2019
580 Clouds 5 1015 85 0 2.48 171.203 00:25 08.10.2019
581 Clouds 5 1016 85 0 2.48 171.203 23:58 07.10.2019
582 Clouds 5 1016 85 0 2.48 171.203 23:38 07.10.2019
583 Clouds 5 1012 95 0 2.48 171.203 23:19 07.10.2019
584 Clouds 5 1017 87 0 2.48 171.203 22:55 07.10.2019
585 Clouds 5 1017 86 0 2.48 171.203 22:37 07.10.2019
586 Clouds 5 1018 86 0 2.48 171.203 22:19 07.10.2019
587 Clouds 5 1018 87 0 2.48 171.203 21:55 07.10.2019
588 Clouds 5 1018 87 0 2.48 171.203 21:37 07.10.2019
589 Clouds 5 1018 87 0 2.08 148.539 21:18 07.10.2019
590 Clouds 6 1018 87 0 1.98 144.934 20:56 07.10.2019
591 Clouds 6 1018 86 0 1.98 144.934 20:38 07.10.2019
592 Clouds 6 1018 86 0 1.98 144.934 20:18 07.10.2019
593 Clouds 7 1018 84 0 1.98 144.934 19:54 07.10.2019
594 Clouds 7 1018 83 0 1.98 144.934 19:36 07.10.2019
595 Clouds 8 1018 81 0 1.98 144.934 19:18 07.10.2019
596 Clouds 9 1018 76 0 1.98 144.934 18:42 07.10.2019
597 Clouds 9 1018 73 0 2.1 174.991 18:19 07.10.2019
598 Clouds 10 1019 69 0 2.1 174.991 17:59 07.10.2019
599 Clouds 11 1019 68 0 2.1 174.991 17:41 07.10.2019
600 Clouds 11 1019 62 0 2.1 174.991 17:19 07.10.2019
601 Clouds 11 1019 57 0 1.79 163 16:55 07.10.2019
602 Clouds 11 1019 55 0 2.1 174.991 16:37 07.10.2019
603 Clouds 12 1019 52 0 2.1 174.991 16:18 07.10.2019
604 Clouds 12 1020 53 0 1.79 207 15:41 07.10.2019
605 Clouds 12 1020 53 0 1.79 207 15:41 07.10.2019
606 Clear 12 1020 52 0 2.2 151.178 15:22 07.10.2019
607 Clear 12 1020 51 0 2.2 151.178 14:42 07.10.2019
608 Clear 12 1020 53 0 0.45 169 14:23 07.10.2019
609 Clear 12 1020 55 0 0.45 143 13:59 07.10.2019
610 Clear 12 1020 56 0 0.45 150 13:40 07.10.2019
611 Clear 12 1021 58 0 0.89 197 13:18 07.10.2019
612 Clear 12 1021 59 0 2.24 129 12:54 07.10.2019
613 Clear 11 1021 62 0 1.34 166 12:36 07.10.2019
614 Clear 11 1021 62 0 0.45 143 12:36 07.10.2019
615 Clear 9 1022 65 0 2.24 90 12:18 07.10.2019
616 Clear 9 1021 72 0 0.89 172 11:56 07.10.2019
617 Clear 9 1021 75 0 1.45 107.607 11:36 07.10.2019
618 Clear 9 1021 75 0 0.45 36 11:18 07.10.2019
619 Clear 7 1021 82 0 1.45 107.607 10:40 07.10.2019
620 Clear 7 1021 85 0 1.45 107.607 10:20 07.10.2019
621 Clear 4 1021 87 0 1.45 107.607 09:42 07.10.2019
622 Clouds 3 1017 95 0 1.73 96.559 09:23 07.10.2019
623 Clouds 3 1021 83 0 1.73 96.559 08:55 07.10.2019
624 Clouds 2 1020 91 0 1.57 93.647 08:37 07.10.2019
625 Clouds 1 1020 90 0 1.57 93.647 08:18 07.10.2019
626 Clouds 0 1020 91 0 1.57 93.647 07:40 07.10.2019
627 Clouds 1 1020 91 0 1.57 93.647 07:20 07.10.2019
628 Clouds 1 1020 91 0 1.57 93.647 06:44 07.10.2019
629 Clear 1 1020 91 0 2.13 73.703 06:23 07.10.2019
630 Clear 2 1020 91 0 2.13 73.703 05:42 07.10.2019
631 Clear 2 1019 92 0 2.13 73.703 05:21 07.10.2019
632 Clear 2 1019 92 0 2.13 73.703 04:23 07.10.2019
633 Clear 3 1019 91 0 2.13 73.703 03:44 07.10.2019
634 Clouds 3 1019 91 0 2.38 79.355 03:19 07.10.2019
635 Clouds 3 1018 91 0 2.38 79.355 02:20 07.10.2019
636 Clouds 3 1018 91 0 2.38 79.355 02:20 07.10.2019
637 Clouds 4 1018 91 0 2.38 79.355 01:50 07.10.2019
638 Clouds 4 1018 90 0 2.68 80.966 01:21 07.10.2019
639 Clouds 5 1018 90 0 2.68 80.966 00:39 07.10.2019
640 Clouds 5 1018 89 0 3.36 88.125 00:20 07.10.2019
641 Clouds 5 1018 88 0 3.36 88.125 23:42 06.10.2019
642 Clouds 5 1018 88 0 3.36 88.125 23:42 06.10.2019
643 Clouds 6 1018 86 0 3.36 88.125 23:21 06.10.2019
644 Clouds 6 1014 78 0 3.36 88.125 22:59 06.10.2019
645 Clouds 6 1017 83 0 1.34 25 22:41 06.10.2019
646 Clouds 7 1017 83 0 0.45 15 22:22 06.10.2019
647 Clouds 7 1017 81 0 3.36 88.125 21:58 06.10.2019
648 Clouds 7 1017 80 0 3.36 88.125 21:38 06.10.2019
649 Clouds 7 1017 81 0 3.36 88.125 21:38 06.10.2019
650 Clouds 7 1017 79 0 3.22 96.153 21:19 06.10.2019
651 Clouds 7 1017 80 0 1.34 359 20:58 06.10.2019
652 Clouds 7 1017 80 0 3.22 96.153 20:58 06.10.2019
653 Clouds 7 1017 79 0 3.27 95.55 20:40 06.10.2019
654 Clouds 7 1017 80 0 3.27 95.55 20:40 06.10.2019
655 Clouds 7 1017 79 0 3.27 95.55 20:21 06.10.2019
656 Clouds 7 1016 78 0 3.27 95.55 19:57 06.10.2019
657 Clouds 7 1016 78 0 3.27 95.55 19:57 06.10.2019
658 Clouds 8 1017 79 0 3.27 95.55 19:37 06.10.2019
659 Clouds 8 1015 80 0 3.27 95.55 19:19 06.10.2019
660 Clouds 8 1017 81 0 3.27 95.55 18:57 06.10.2019
661 Clouds 9 1017 79 0 3.27 95.55 18:38 06.10.2019
662 Clouds 9 1017 77 0 2.68 359 18:19 06.10.2019
663 Clouds 9 1017 76 0 3.62 109.456 17:57 06.10.2019
664 Clouds 10 1017 74 0 3.62 109.456 17:39 06.10.2019
665 Clouds 10 1017 73 0 3.62 109.456 17:19 06.10.2019
666 Clouds 10 1018 64 0 2.24 100 16:42 06.10.2019
667 Clouds 10 1018 64 0 3.62 109.456 16:24 06.10.2019
668 Clouds 11 1018 69 0 3.62 109.456 15:58 06.10.2019
669 Clouds 11 1017 59 0 0.89 187 15:39 06.10.2019
670 Clouds 11 1018 64 0 3.13 359 15:18 06.10.2019
671 Clouds 10 1019 69 0 1.79 359 14:43 06.10.2019
672 Clouds 10 1019 69 0 1.79 78 14:24 06.10.2019
673 Clouds 10 1019 82 0 4.1 124.109 13:58 06.10.2019
674 Clouds 9 1019 85 0 0.89 359 13:39 06.10.2019
675 Clouds 9 1020 87 0 1.34 359 13:20 06.10.2019
676 Clouds 9 1020 87 0 1.34 359 13:20 06.10.2019
677 Clouds 8 1020 88 0 4.4 127.373 12:57 06.10.2019
678 Clouds 9 1020 89 0 4.4 127.373 12:39 06.10.2019
679 Clouds 8 1020 89 0 3.28 115.236 12:20 06.10.2019
680 Clouds 8 1020 89 0 3.28 115.236 12:20 06.10.2019
681 Clouds 8 1020 88 0 3.28 115.236 11:57 06.10.2019
682 Clouds 7 1020 88 0 3.28 115.236 11:38 06.10.2019
683 Clouds 6 1021 88 0 3.28 115.236 11:20 06.10.2019
684 Clouds 6 1021 89 0 3.28 115.236 10:44 06.10.2019
685 Clouds 6 1021 90 0 3.28 115.236 10:44 06.10.2019
686 Clouds 5 1017 97 0 3.28 115.236 10:26 06.10.2019
687 Clouds 5 1021 92 0 0.45 47 09:58 06.10.2019
688 Clouds 5 1021 93 0 0.45 28 09:39 06.10.2019
689 Clouds 4 1017 10 0 1.79 104.021 09:18 06.10.2019
690 Clouds 4 1017 10 0 1.79 104.021 08:43 06.10.2019
691 Clouds 4 1021 94 0 1.72 102.699 08:21 06.10.2019
692 Clouds 4 1021 94 0 0.89 329 07:56 06.10.2019
693 Clouds 4 1021 94 0 0.45 1 07:56 06.10.2019
694 Clouds 3 1021 94 0 1.72 102.699 07:33 06.10.2019
695 Clouds 2 1017 10 0 1.79 79.649 06:23 06.10.2019
696 Clouds 3 1021 93 0 1.79 79.649 05:35 06.10.2019
697 Clouds 3 1021 93 0 1.79 79.649 04:26 06.10.2019
698 Clear 4 1021 93 0 1.84 64.577 02:46 06.10.2019
699 Clear 4 1021 93 0 1.84 64.577 02:27 06.10.2019
700 Clear 5 1021 92 0 1.84 64.577 01:46 06.10.2019
701 Clear 5 1021 92 0 2.07 67.542 01:27 06.10.2019
702 Clear 6 1021 92 0 2.07 67.542 00:57 06.10.2019
703 Clear 6 1021 92 0 2.07 67.542 00:57 06.10.2019
704 Clear 5 1021 92 0 2.07 67.542 00:28 06.10.2019
705 Clear 6 1021 92 0 2.02 66.161 23:45 05.10.2019
706 Clear 6 1021 91 0 2.02 66.161 23:23 05.10.2019
707 Clear 6 1021 91 0 2.02 66.161 22:59 05.10.2019
708 Clear 7 1021 91 0 2.02 66.161 22:40 05.10.2019
709 Clear 7 1021 91 0 2.02 66.161 22:21 05.10.2019
710 Clear 7 1021 90 0 2.02 66.161 21:57 05.10.2019
711 Clear 7 1020 89 0 2.02 66.161 21:39 05.10.2019
712 Clear 8 1020 88 0 0.45 352 21:21 05.10.2019
713 Clear 8 1020 84 0 2.44 43.37 20:56 05.10.2019
714 Clear 8 1016 95 0 1.83 58.337 20:38 05.10.2019
715 Clear 8 1020 83 0 0.45 325 20:38 05.10.2019
716 Clear 8 1020 85 0 0.45 232 20:19 05.10.2019
717 Clear 8 1019 88 0 0.45 303 19:40 05.10.2019
718 Clear 8 1019 87 0 1.83 58.337 19:22 05.10.2019
719 Clear 9 1019 79 0 0.89 348 18:57 05.10.2019
720 Clear 9 1019 80 0 0.45 325 18:39 05.10.2019
721 Rain 10 1018 74 0 0.89 21 18:20 05.10.2019
722 Rain 10 1018 76 0 0.45 331 17:56 05.10.2019
723 Rain 11 1017 71 0 0.45 56 17:37 05.10.2019
724 Rain 11 1017 71 0 3.15 40.151 17:19 05.10.2019
725 Rain 12 1017 64 0 1.79 352 16:42 05.10.2019
726 Rain 12 1017 65 0 2.68 346 16:22 05.10.2019
727 Rain 12 1017 64 0 1.34 353 15:58 05.10.2019
728 Rain 12 1016 66 0 1.34 311 15:40 05.10.2019
729 Rain 12 1016 66 0 1.34 346 15:21 05.10.2019
730 Rain 12 1016 67 0 2.24 0 14:58 05.10.2019
731 Rain 12 1016 67 0 2.24 0 14:58 05.10.2019
732 Rain 11 1016 67 0 1.34 336 14:40 05.10.2019
733 Rain 11 1016 69 0 2.24 346 14:20 05.10.2019
734 Rain 11 1015 68 0 1.79 325 13:42 05.10.2019
735 Rain 11 1015 69 0 1.79 359 13:23 05.10.2019
736 Rain 11 1015 69 0 2.24 325 12:57 05.10.2019
737 Rain 11 1015 69 0 1.79 321 12:39 05.10.2019
738 Clouds 10 1014 67 0 3.58 276 12:18 05.10.2019
739 Clouds 10 1014 77 0 1.79 332 11:39 05.10.2019
740 Clouds 9 1013 79 0 1.79 348 11:19 05.10.2019
741 Clouds 9 1013 81 0 2.68 308 10:54 05.10.2019
742 Clouds 9 1013 85 0 3.58 344 10:36 05.10.2019
743 Clouds 9 1012 87 0 1.79 338 10:18 05.10.2019
744 Clouds 9 1011 89 0 3.13 348 09:39 05.10.2019
745 Rain 9 1011 90 0 1.79 355 09:20 05.10.2019
746 Rain 8 1010 92 0 1.34 359 08:41 05.10.2019
747 Rain 8 1010 92 0 0.45 322 08:21 05.10.2019
748 Rain 8 1009 91 0 1.79 11 07:58 05.10.2019
749 Rain 8 1009 91 0 4.92 321 07:38 05.10.2019
750 Rain 8 1008 91 0 2.68 336 07:19 05.10.2019
751 Rain 8 1007 91 0 1.79 355 06:29 05.10.2019
752 Rain 8 1007 91 0 4.47 16 05:59 05.10.2019
753 Rain 8 1005 100 0 2.68 7 04:44 05.10.2019
754 Rain 9 1004 100 0 2.68 327 03:30 05.10.2019
755 Rain 9 1004 95 0 3.58 56 01:59 05.10.2019
756 Rain 9 1004 94 0 0.89 21 01:24 05.10.2019
757 Rain 9 1004 93 0 1.79 26 00:46 05.10.2019
758 Rain 9 1004 93 0 0.89 45 00:27 05.10.2019
759 Rain 9 1004 93 0 1.79 83 23:55 04.10.2019
760 Rain 9 1004 93 0 0.89 62 23:37 04.10.2019
761 Rain 9 1004 94 0 1.34 87 23:18 04.10.2019
762 Rain 9 1004 94 0 3.13 88 22:41 04.10.2019
763 Rain 9 1004 93 0 1.34 90 22:23 04.10.2019
764 Rain 9 1005 93 0 2.24 76 21:58 04.10.2019
765 Rain 9 1005 93 0 4.69 95.873 21:40 04.10.2019
766 Rain 9 1005 92 0 0.89 87 21:21 04.10.2019
767 Rain 9 1005 92 0 3.13 60 20:58 04.10.2019
768 Rain 9 1005 92 0 2.24 81 20:39 04.10.2019
769 Rain 9 1005 91 0 1.34 90 20:21 04.10.2019
770 Rain 9 1005 91 0 0.89 91 19:55 04.10.2019
771 Rain 9 1005 91 0 1.34 94 19:37 04.10.2019
772 Rain 9 1005 91 0 1.34 28 19:18 04.10.2019
773 Rain 10 1006 89 0 4.01 122.236 18:40 04.10.2019
774 Rain 10 1006 88 0 1.79 98 18:20 04.10.2019
775 Rain 10 1006 88 0 0.45 112 17:59 04.10.2019
776 Rain 10 1006 87 0 1.34 193 17:39 04.10.2019
777 Rain 11 1006 87 0 0.45 169 17:21 04.10.2019
778 Rain 11 1006 87 0 2.03 183.596 16:57 04.10.2019
779 Rain 11 1006 87 0 2.24 146 16:39 04.10.2019
780 Rain 11 1006 87 0 2.24 146 16:39 04.10.2019
781 Rain 12 1006 82 0 0.45 78 16:18 04.10.2019
782 Rain 12 1006 75 0 1.79 66 15:56 04.10.2019
783 Rain 12 1003 91 0 2.03 183.596 15:37 04.10.2019
784 Rain 12 1007 69 0 1.34 166 15:19 04.10.2019
785 Rain 13 1007 69 0 2.68 156 14:55 04.10.2019
786 Rain 13 1007 69 0 2.68 156 14:55 04.10.2019
787 Rain 13 1007 72 0 3.07 202.611 14:36 04.10.2019
788 Rain 13 1008 71 0 1.79 198 14:18 04.10.2019
789 Rain 13 1008 73 0 1.34 136 13:43 04.10.2019
790 Rain 13 1008 74 0 0.89 109 13:21 04.10.2019
791 Rain 13 1009 75 0 0.45 166 12:47 04.10.2019
792 Rain 13 1009 75 0 0.89 179 12:29 04.10.2019
793 Rain 11 1008 81 0 0.45 113 11:59 04.10.2019
794 Rain 11 1006 87 0 2.78 146.98 11:41 04.10.2019
795 Rain 11 1010 80 0 0.45 139 11:20 04.10.2019
796 Rain 11 1010 80 0 0.45 139 11:20 04.10.2019
797 Rain 11 1010 80 0 0.45 139 11:20 04.10.2019
798 Rain 10 1010 84 0 1.34 191 10:41 04.10.2019
799 Rain 10 1010 85 0 0.45 166 10:21 04.10.2019
800 Rain 10 1011 87 0 1.34 162 09:50 04.10.2019
801 Rain 10 1011 87 0 0.45 87 09:31 04.10.2019
802 Clouds 9 1007 92 0 1.45 163.486 08:57 04.10.2019
803 Clouds 9 1011 91 0 0.89 156 08:38 04.10.2019
804 Clouds 9 1011 91 0 0.45 155 08:38 04.10.2019
805 Clouds 9 1011 91 0 1.45 163.486 08:20 04.10.2019
806 Clouds 9 1012 92 0 1.45 163.486 07:46 04.10.2019
807 Clouds 8 1012 92 0 0.45 146 07:23 04.10.2019
808 Clouds 8 1012 92 0 1.45 163.486 06:47 04.10.2019
809 Clouds 9 1012 92 0 1.92 153.154 06:27 04.10.2019
810 Clouds 8 1012 92 0 1.92 153.154 06:27 04.10.2019
811 Clouds 8 1012 91 0 1.92 153.154 05:52 04.10.2019
812 Clouds 9 1012 90 0 1.92 153.154 05:19 04.10.2019
813 Clouds 9 1013 91 0 1.92 153.154 03:56 04.10.2019
814 Clouds 9 1014 91 0 1.71 130.003 02:54 04.10.2019
815 Clouds 9 1014 91 0 1.71 130.003 02:54 04.10.2019
816 Clouds 9 1014 91 0 1.71 130.003 02:21 04.10.2019
817 Clouds 9 1014 89 0 1.71 130.003 01:43 04.10.2019
818 -273 0 0 0 0 0 01:24 04.10.2019
819 -273 0 0 0 0 0 00:24 04.10.2019
820 Clear 10 1015 86 0 1.15 114.497 23:38 03.10.2019
821 Clear 9 1015 85 0 1.15 114.497 23:19 03.10.2019
822 Clear 10 1015 84 0 1.15 114.497 22:57 03.10.2019
823 Clear 9 1011 95 0 1.15 114.497 22:39 03.10.2019
824 Clear 10 1015 83 0 1.15 114.497 22:21 03.10.2019
825 Clear 10 1015 84 0 1.15 114.497 21:56 03.10.2019
826 Clear 10 1011 88 0 1.15 114.497 21:37 03.10.2019
827 Clouds 10 1011 88 0 1.46 37.106 21:19 03.10.2019
828 Clouds 10 1011 86 0 1.46 37.106 20:57 03.10.2019
829 Clouds 10 1011 87 0 1.61 53.994 20:37 03.10.2019
830 Clouds 11 1015 82 0 1.61 53.994 20:19 03.10.2019
831 Clouds 11 1010 85 0 1.61 53.994 19:55 03.10.2019
832 Clouds 11 1010 83 0 1.61 53.994 19:36 03.10.2019
833 Clouds 11 1010 83 0 1.61 53.994 19:18 03.10.2019
834 Clouds 12 1010 73 0 1.61 53.994 18:54 03.10.2019
835 Clouds 12 1010 74 0 1.61 53.994 18:36 03.10.2019
836 Clouds 13 1014 70 0 1.34 22 18:18 03.10.2019
837 Clouds 13 1014 61 0 0.45 308 17:42 03.10.2019
838 Clouds 13 1014 57 0 2.24 320 17:21 03.10.2019
839 Clouds 14 1014 56 0 3.58 274 16:55 03.10.2019
840 Clouds 14 1014 54 0 0.45 15 16:37 03.10.2019
841 Clouds 14 1014 56 0 1.34 279 16:19 03.10.2019
842 Clouds 13 1013 62 0 2.86 326.995 15:43 03.10.2019
843 Rain 13 1014 57 0 1.79 32 15:23 03.10.2019
844 Rain 14 1014 55 0 1.79 259 14:57 03.10.2019
845 Rain 14 1014 53 0 1.34 329 14:36 03.10.2019
846 Rain 15 1014 52 0 3.58 296 14:36 03.10.2019
847 Rain 14 1014 53 0 1.34 329 14:36 03.10.2019
848 Rain 14 1014 57 0 2.24 359 14:18 03.10.2019
849 Rain 14 1014 59 0 1.79 252 13:43 03.10.2019
850 Rain 14 1014 59 0 1.34 270 13:22 03.10.2019
851 Rain 13 1014 57 0 0.45 297 12:58 03.10.2019
852 Rain 13 1014 59 0 2.68 300 12:39 03.10.2019
853 Clouds 13 1014 59 0 5.81 284 12:19 03.10.2019
854 Clouds 13 1014 61 0 4.02 290 12:19 03.10.2019
855 Clouds 12 1014 65 0 1.34 269 11:57 03.10.2019
856 Clouds 12 1014 70 0 2.68 315 11:38 03.10.2019
857 Clouds 11 1014 70 0 0.45 197 11:20 03.10.2019
858 Clouds 11 1014 74 0 1.34 344 10:55 03.10.2019
859 Clouds 11 1014 74 0 0.45 344 10:37 03.10.2019
860 Clouds 10 1014 77 0 1.79 315 10:18 03.10.2019
861 Clouds 10 1013 78 0 0.89 235 09:55 03.10.2019
862 Clouds 10 1013 82 0 0.45 342 09:37 03.10.2019
863 Clouds 9 1013 84 0 0.89 317 09:18 03.10.2019
864 Clouds 9 1013 84 0 1.34 266 08:41 03.10.2019
865 Clouds 9 1013 85 0 1.34 284 08:23 03.10.2019
866 Clouds 9 1012 88 0 1.79 205 07:41 03.10.2019
867 Clouds 9 1012 88 0 1.79 205 07:41 03.10.2019
868 Clouds 9 1012 88 0 1.79 205 07:41 03.10.2019
869 Clouds 8 1012 89 0 0.89 190 07:20 03.10.2019
870 Clouds 8 1012 91 0 0.89 321 06:52 03.10.2019
871 Clouds 8 1011 89 0 1.34 297 06:26 03.10.2019
872 Rain 9 1011 87 0 1.79 283 05:47 03.10.2019
873 Rain 9 1011 89 0 1.34 253 05:25 03.10.2019
874 Rain 9 1010 89 0 0.45 335 04:40 03.10.2019
875 Rain 9 1009 90 0 1.34 283 03:36 03.10.2019
876 Rain 9 1010 88 0 1.34 204 03:18 03.10.2019
877 Rain 9 1010 88 0 1.79 222 03:18 03.10.2019
878 Rain 9 1010 84 0 1.79 241 02:21 03.10.2019
879 Rain 9 1010 84 0 5.81 221 01:37 03.10.2019
880 Rain 9 1010 82 0 0.45 176 00:52 03.10.2019
881 Rain 8 1010 84 0 1.79 211 00:31 03.10.2019
882 Clouds 8 1010 86 0 1.34 186 23:55 02.10.2019
883 Clouds 8 1010 88 0 1.79 239 23:36 02.10.2019
884 Clouds 8 1010 89 0 0.45 195 23:18 02.10.2019
885 Clouds 8 1010 88 0 0.89 252 22:41 02.10.2019
886 Clouds 8 1010 87 0 4.97 252.469 22:20 02.10.2019
887 Clouds 8 1010 86 0 0.45 238 21:55 02.10.2019
888 Clouds 8 1010 86 0 0.45 238 21:55 02.10.2019
889 Clouds 8 1010 88 0 1.79 117 21:37 02.10.2019
890 Clear 8 1010 88 0 1.34 238 21:18 02.10.2019
891 Clouds 8 1010 89 0 1.79 236 20:55 02.10.2019
892 Clouds 9 1010 89 0 0.45 225 20:55 02.10.2019
893 -273 0 0 0 0 0 20:54 02.10.2019
894 Clouds 9 1010 89 0 0.89 253 20:36 02.10.2019
895 Clouds 9 1010 88 0 0.45 250 20:18 02.10.2019
896 Clouds 9 1009 88 0 1.34 183 19:43 02.10.2019
897 Clouds 10 1009 87 0 0.45 249 19:22 02.10.2019
898 Clouds 10 1009 84 0 0.45 315 18:58 02.10.2019
899 Clouds 11 1009 83 0 3.65 267.611 18:39 02.10.2019
900 Rain 11 1009 84 0 4.55 282.727 18:21 02.10.2019
901 Rain 12 1009 85 0 4.55 282.727 17:57 02.10.2019
902 Rain 12 1009 85 0 4.55 282.727 17:57 02.10.2019
903 Rain 12 1009 82 0 4.55 282.727 17:38 02.10.2019
904 Rain 13 1008 66 0 0.45 269 17:20 02.10.2019
905 Rain 13 1008 60 0 1.34 298 16:57 02.10.2019
906 Rain 14 1008 61 0 0.45 280 16:37 02.10.2019
907 Rain 14 1008 63 0 2.68 308 16:18 02.10.2019
908 Rain 13 1008 53 0 2.68 280 15:55 02.10.2019
909 Rain 14 1007 36 0 2.68 298 15:36 02.10.2019
910 Rain 14 1007 43 0 1.34 300 15:18 02.10.2019
911 Rain 13 1007 61 0 2.68 300 14:43 02.10.2019
912 Rain 13 1007 51 0 1.79 344 14:22 02.10.2019
913 -273 0 0 0 0 0 13:56 02.10.2019
914 Rain 13 1007 63 0 0.89 169 13:37 02.10.2019
915 Rain 13 1007 70 0 1.79 170 13:19 02.10.2019
916 Rain 13 1007 71 0 0.45 142 13:19 02.10.2019
917 Rain 12 1007 77 0 0.89 297 12:40 02.10.2019
918 Clouds 11 1006 74 0 0.89 284 12:22 02.10.2019
919 Clouds 11 1006 83 0 1.34 325 11:58 02.10.2019
920 Clouds 11 1006 84 0 0.45 304 11:40 02.10.2019
921 Clouds 10 1006 82 0 1.34 298 11:18 02.10.2019
922 Clouds 10 1005 72 0 3.74 289.2 10:38 02.10.2019
923 Clouds 10 1005 72 0 0.45 313 10:19 02.10.2019
924 Clouds 9 1004 70 0 1.34 297 09:40 02.10.2019
925 Rain 9 1004 67 0 0.45 310 09:20 02.10.2019
926 -273 0 0 0 0 0 08:56 02.10.2019
927 Rain 8 1003 42 0 0.89 307 08:37 02.10.2019
928 Rain 8 1003 40 0 1.34 290 08:19 02.10.2019
929 Rain 9 1002 81 0 0.89 303 07:39 02.10.2019
930 Rain 9 1002 80 0 0.89 311 07:21 02.10.2019
931 Rain 9 1001 79 0 0.89 301 06:54 02.10.2019
932 Rain 10 1000 78 0 3.58 348 05:56 02.10.2019
933 Rain 10 999 78 0 2.24 308 05:25 02.10.2019
934 Rain 10 999 78 0 1.79 320 05:25 02.10.2019
935 Rain 11 998 91 0 2.68 359 04:58 02.10.2019
936 Rain 12 998 88 0 1.79 328 03:53 02.10.2019
937 Rain 12 998 86 0 1.79 359 03:24 02.10.2019
938 Rain 13 999 88 0 0.45 344 02:25 02.10.2019
939 Rain 13 999 87 0 2.93 27.485 01:56 02.10.2019
940 Rain 14 999 85 0 3.43 13.505 00:52 02.10.2019
941 Rain 14 999 86 0 3.43 13.505 00:29 02.10.2019
942 Rain 14 999 87 0 2.66 357.649 23:55 01.10.2019
943 Rain 14 999 86 0 2.66 357.649 23:36 01.10.2019
944 Rain 15 999 84 0 0.45 262 23:18 01.10.2019
945 Rain 15 999 83 0 1.34 224 22:57 01.10.2019
946 Rain 15 999 83 0 2.66 357.649 22:37 01.10.2019
947 Rain 15 999 83 0 0.45 255 22:18 01.10.2019
948 Rain 16 999 80 0 2.66 357.649 21:43 01.10.2019
949 Rain 16 999 79 0 1.34 217 21:22 01.10.2019
950 Rain 17 999 77 0 0.45 234 20:58 01.10.2019
951 Rain 16 999 76 0 1.34 266 20:39 01.10.2019
952 Rain 17 999 78 0 3.63 250.967 20:20 01.10.2019
953 Rain 17 999 79 0 3.63 250.967 19:58 01.10.2019
954 Rain 17 998 79 0 3.63 250.967 19:40 01.10.2019
955 Rain 17 999 77 0 0.45 203 19:21 01.10.2019
956 Rain 17 999 76 0 1.79 195 18:56 01.10.2019
957 Rain 17 996 75 0 0.45 146 18:38 01.10.2019
958 Rain 17 999 74 0 1.79 211 18:19 01.10.2019
959 Rain 17 999 78 0 114 283 17:43 01.10.2019
960 Rain 18 999 67 0 0.89 290 17:22 01.10.2019
961 Rain 18 999 68 0 0.89 277 16:59 01.10.2019
962 Rain 18 999 68 0 0.45 200 16:41 01.10.2019
963 Rain 18 994 69 0 4.95 249.693 16:22 01.10.2019
964 Rain 18 994 69 0 4.95 249.693 16:22 01.10.2019
965 Rain 18 999 73 0 4.95 249.693 15:49 01.10.2019
966 Rain 18 999 76 0 5.79 236.862 15:25 01.10.2019
967 Rain 18 999 76 0 0.45 146 14:58 01.10.2019
968 Rain 18 999 77 0 1.79 166 14:40 01.10.2019
969 Rain 17 999 78 0 4.02 162 14:20 01.10.2019
970 Rain 17 999 79 0 2.68 197 13:56 01.10.2019
971 Rain 16 995 92 0 5.79 236.862 13:37 01.10.2019
972 Rain 16 995 92 0 5.79 236.862 13:37 01.10.2019
973 Rain 16 1000 84 0 0.45 139 13:18 01.10.2019
974 Rain 16 1000 84 0 0.45 139 13:18 01.10.2019
975 Rain 15 1000 87 0 0.45 301 12:55 01.10.2019
976 Rain 15 1000 87 0 2.68 205 12:55 01.10.2019
977 Rain 15 1001 83 0 3.13 212 12:37 01.10.2019
978 Rain 15 1000 80 0 0.45 142 12:18 01.10.2019
979 Rain 15 1000 84 0 1.34 138 11:55 01.10.2019
980 Rain 15 1002 87 0 114 243 11:36 01.10.2019
981 Rain 14 1000 82 0 0.89 228 11:18 01.10.2019
982 Rain 14 996 97 0 3.58 218.22 10:46 01.10.2019
983 Rain 14 999 92 0 2.68 0 10:28 01.10.2019
984 Rain 13 997 98 0 3.58 218.22 09:45 01.10.2019
985 Rain 13 997 98 0 3.58 218.22 09:26 01.10.2019
986 Rain 12 997 97 0 3.99 200.035 08:45 01.10.2019
987 Rain 12 1001 87 0 0.45 130 08:27 01.10.2019
988 Rain 12 998 95 0 3.99 200.035 07:56 01.10.2019
989 Rain 12 998 94 0 3.99 200.035 07:38 01.10.2019
990 Rain 12 998 91 0 3.99 200.035 07:19 01.10.2019
991 Rain 12 999 92 0 3.99 200.035 06:41 01.10.2019
992 Rain 12 1000 93 0 2.85 216.753 06:18 01.10.2019
993 Rain 12 1001 93 0 2.85 216.753 05:43 01.10.2019
994 Rain 12 1002 87 0 2.85 216.753 04:42 01.10.2019
995 Rain 11 1008 87 0 1.34 184 03:46 01.10.2019
996 Clouds 11 1004 87 0 3.85 245.557 02:20 01.10.2019
997 Clouds 11 1004 86 0 3.85 245.557 01:56 01.10.2019
998 Clouds 12 1005 87 0 3.35 238.694 00:52 01.10.2019
999 Clouds 12 1005 85 0 4.25 249.135 00:26 01.10.2019
1000 Clouds 12 1005 82 0 4.25 249.135 23:42 30.09.2019
1001 Clouds 12 1005 82 0 4.25 249.135 23:42 30.09.2019
1002 Clouds 12 1005 81 0 4.25 249.135 23:23 30.09.2019
1003 Clouds 13 1005 79 0 4.25 249.135 22:59 30.09.2019
1004 Clouds 13 1005 79 0 4.25 249.135 22:59 30.09.2019
1005 Clouds 13 1005 70 0 4.25 249.135 22:40 30.09.2019
1006 Clouds 13 1005 72 0 4.25 249.135 22:22 30.09.2019
1007 Clouds 13 1005 73 0 4.25 249.135 21:56 30.09.2019
1008 Clouds 13 1005 73 0 4.25 249.135 21:37 30.09.2019
1009 Rain 13 1005 74 0 4.44 271.715 21:19 30.09.2019
1010 Rain 14 1007 85 0 4.44 271.715 20:55 30.09.2019
1011 -273 0 0 0 0 0 20:55 30.09.2019
1012 Rain 14 1006 85 0 0.45 114 20:36 30.09.2019
1013 Rain 14 1006 85 0 0.45 114 20:36 30.09.2019
1014 Rain 14 1004 69 0 4.46 269.602 20:18 30.09.2019
1015 Rain 14 1004 70 0 4.46 269.602 19:54 30.09.2019
1016 Rain 14 1004 69 0 4.46 269.602 19:36 30.09.2019
1017 Rain 15 1004 66 0 4.46 269.602 19:18 30.09.2019
1018 Rain 15 1003 59 0 4.46 269.602 18:41 30.09.2019
1019 Rain 16 1005 78 0 0.89 205 18:21 30.09.2019
1020 Rain 16 1008 65 0 2.68 311 17:57 30.09.2019
1021 Rain 16 1008 65 0 2.68 311 17:57 30.09.2019
1022 Rain 17 1008 64 0 3.13 279 17:39 30.09.2019
1023 Rain 17 1008 62 0 3.13 324 17:20 30.09.2019
1024 Rain 17 1008 64 0 2.68 354 16:55 30.09.2019
1025 Rain 17 1003 63 0 1.79 288 16:36 30.09.2019
1026 Rain 17 1008 61 0 3.58 288 16:18 30.09.2019
1027 Rain 17 1003 62 0 8.05 0 16:18 30.09.2019
1028 Rain 17 1003 63 0 3.13 0 15:54 30.09.2019
1029 Rain 17 1001 59 0 7.14 282.738 15:36 30.09.2019
1030 Rain 16 1001 60 0 10.2 283.256 15:18 30.09.2019
1031 Rain 16 1003 69 0 7.15 0 14:54 30.09.2019
1032 Rain 17 1000 58 0 10.2 283.256 14:36 30.09.2019
1033 Rain 16 1000 63 0 10.2 283.256 14:18 30.09.2019
1034 Rain 16 999 64 0 10.2 283.256 13:43 30.09.2019
1035 Rain 16 999 60 0 10.19 279.962 13:22 30.09.2019
1036 Rain 16 999 62 0 10.19 279.962 12:57 30.09.2019
1037 Rain 16 999 64 0 10.19 279.962 12:39 30.09.2019
1038 Rain 15 998 77 0 8.81 282.068 12:19 30.09.2019
1039 Rain 15 997 77 0 8.81 282.068 11:43 30.09.2019
1040 Rain 14 998 81 0 4.92 0 11:22 30.09.2019
1041 Rain 14 997 80 0 1.79 70 10:59 30.09.2019
1042 Rain 14 996 81 0 1.79 346 10:39 30.09.2019
1043 Rain 14 995 94 0 8.81 282.068 10:19 30.09.2019
1044 Rain 14 994 93 0 8.81 282.068 09:58 30.09.2019
1045 Rain 14 994 91 0 8.81 282.068 09:39 30.09.2019
1046 Rain 14 994 91 0 8.81 282.068 09:39 30.09.2019
1047 Rain 14 993 93 0 12.35 285.334 09:19 30.09.2019
1048 Rain 15 992 83 0 2.24 176 08:46 30.09.2019
1049 Rain 15 990 95 0 9.97 268.184 08:28 30.09.2019
1050 Rain 15 988 86 0 9.97 268.184 07:44 30.09.2019
1051 Rain 15 988 86 0 9.97 268.184 07:26 30.09.2019
1052 Rain 15 988 86 0 9.97 268.184 06:50 30.09.2019
1053 Rain 15 988 86 0 9.97 268.184 06:50 30.09.2019
1054 Rain 15 988 87 0 9.97 268.184 06:32 30.09.2019
1055 Rain 15 988 94 0 4.92 245.169 05:46 30.09.2019
1056 Rain 15 988 94 0 4.92 245.169 05:46 30.09.2019
1057 Rain 16 988 88 0 4.92 245.169 03:33 30.09.2019
1058 Rain 15 988 91 0 5.8 235.612 02:46 30.09.2019
1059 Rain 16 988 90 0 6.86 241.67 01:35 30.09.2019
1060 Rain 16 989 94 0 6.86 241.67 00:42 30.09.2019
1061 Rain 17 989 95 0 5.26 225.84 00:21 30.09.2019
1062 Rain 16 990 95 0 5.26 225.84 23:46 29.09.2019
1063 Rain 16 990 88 0 5.26 225.84 23:23 29.09.2019
1064 Rain 17 990 83 0 5.26 225.84 22:59 29.09.2019
1065 Rain 16 993 85 0 0.89 0 22:40 29.09.2019
1066 Rain 16 997 73 0 3.13 248 22:22 29.09.2019
1067 Rain 16 989 80 0 5.26 225.84 21:57 29.09.2019
1068 Rain 16 989 80 0 5.26 225.84 21:37 29.09.2019
1069 Rain 17 991 80 0 4.3 221.878 21:19 29.09.2019
1070 Rain 17 992 72 0 4.3 221.878 20:45 29.09.2019
1071 Rain 17 992 74 0 4.09 221.251 20:20 29.09.2019
1072 Rain 17 992 73 0 4.09 221.251 19:59 29.09.2019
1073 Rain 17 992 73 0 4.09 221.251 19:38 29.09.2019
1074 Rain 17 993 70 0 4.09 221.251 19:19 29.09.2019
1075 Rain 17 993 70 0 4.09 221.251 19:19 29.09.2019
1076 Rain 16 993 70 0 4.09 221.251 18:56 29.09.2019
1077 Rain 17 993 69 0 4.09 221.251 18:38 29.09.2019
1078 Rain 17 993 68 0 5.37 232.895 18:19 29.09.2019
1079 Rain 17 999 66 0 3.58 286 17:59 29.09.2019
1080 Rain 17 994 70 0 5.37 232.895 17:40 29.09.2019
1081 Rain 17 994 70 0 5.37 232.895 17:40 29.09.2019
1082 Rain 17 994 83 0 5.37 232.895 17:20 29.09.2019
1083 Rain 16 995 75 0 5.37 232.895 16:59 29.09.2019
1084 Rain 16 995 73 0 5.37 232.895 16:40 29.09.2019
1085 Rain 16 995 70 0 5.37 232.895 16:19 29.09.2019
1086 Rain 16 995 75 0 5.37 232.895 15:57 29.09.2019
1087 Rain 16 996 76 0 5.37 232.895 15:37 29.09.2019
1088 Rain 16 999 84 0 0.89 112 15:18 29.09.2019
1089 Rain 16 996 85 0 3.79 197.622 14:56 29.09.2019
1090 Rain 16 997 87 0 3.79 197.622 14:37 29.09.2019
1091 Rain 16 1003 71 0 1.79 285 14:18 29.09.2019
1092 Rain 16 998 89 0 3.79 197.622 13:55 29.09.2019
1093 Rain 17 998 89 0 3.79 197.622 13:55 29.09.2019
1094 Rain 16 998 86 0 3.79 197.622 13:36 29.09.2019
1095 Rain 16 1004 74 0 1.79 220 13:18 29.09.2019
1096 Rain 16 1005 74 0 1.79 117 12:55 29.09.2019
1097 Rain 16 1005 74 0 1.79 117 12:55 29.09.2019
1098 Rain 15 999 88 0 4 181.517 12:37 29.09.2019
1099 Rain 15 1003 85 0 0.89 88 12:19 29.09.2019
1100 Rain 15 1000 89 0 3.74 206.709 11:41 29.09.2019
1101 Rain 15 1004 83 0 0.89 129 11:20 29.09.2019
1102 Rain 14 1001 91 0 3.74 206.709 10:58 29.09.2019
1103 Rain 15 1004 81 0 0.89 0 10:39 29.09.2019
1104 Rain 15 1002 83 0 3.74 206.709 10:20 29.09.2019
1105 Rain 15 1002 83 0 3.74 206.709 09:57 29.09.2019
1106 Rain 15 1002 83 0 3.74 206.709 09:39 29.09.2019
1107 Clouds 14 1002 80 0 5.17 231.634 09:19 29.09.2019
1108 Clouds 14 1002 76 0 5.17 231.634 08:43 29.09.2019
1109 Clouds 14 1003 72 0 5.54 233.018 08:22 29.09.2019
1110 Clouds 13 1005 82 0 0.45 106 07:44 29.09.2019
1111 Clouds 13 1005 80 0 0.45 0 07:44 29.09.2019
1112 Clouds 13 1003 74 0 5.54 233.018 07:26 29.09.2019
1113 Clouds 13 1003 77 0 5.54 233.018 06:50 29.09.2019
1114 Clouds 13 1003 78 0 5.43 239.154 06:22 29.09.2019
1115 Clouds 14 1010 81 0 2.68 271 04:52 29.09.2019
1116 Clouds 14 1010 81 0 3.13 225 04:24 29.09.2019
1117 Clouds 14 1005 79 0 5.43 239.154 03:42 29.09.2019
1118 Clouds 14 1005 79 0 5.53 242.16 02:25 29.09.2019
1119 Clouds 14 1005 78 0 5.53 242.16 01:45 29.09.2019
1120 Clouds 14 1005 77 0 5.33 240.065 01:20 29.09.2019
1121 Clouds 15 1011 80 0 2.68 289 00:41 29.09.2019
1122 Rain 15 1006 75 0 4.98 232.055 00:19 29.09.2019
1123 Rain 15 1006 77 0 4.98 232.055 23:40 28.09.2019
1124 Rain 15 1006 77 0 4.98 232.055 23:21 28.09.2019
1125 Rain 15 1006 80 0 4.98 232.055 22:41 28.09.2019
1126 Rain 15 1006 81 0 4.98 232.055 22:23 28.09.2019
1127 Rain 15 1006 79 0 4.98 232.055 21:59 28.09.2019
1128 Rain 15 1006 80 0 4.98 232.055 21:40 28.09.2019
1129 Rain 15 1006 82 0 3.44 235.364 21:21 28.09.2019
1130 Rain 15 1006 81 0 3.44 235.364 20:59 28.09.2019
1131 Rain 15 1006 80 0 3.84 235.598 20:41 28.09.2019
1132 Rain 15 1006 79 0 3.84 235.598 20:21 28.09.2019
1133 Rain 15 1006 78 0 3.84 235.598 19:58 28.09.2019
1134 Rain 15 1006 77 0 3.84 235.598 19:40 28.09.2019
1135 Rain 15 1006 75 0 3.84 235.598 19:22 28.09.2019
1136 Rain 15 1006 73 0 3.84 235.598 18:58 28.09.2019
1137 Rain 16 1006 72 0 3.84 235.598 18:40 28.09.2019
1138 Rain 17 1006 61 0 5.31 256.49 18:21 28.09.2019
1139 Rain 17 1006 61 0 5.31 256.49 18:21 28.09.2019
1140 Rain 17 1006 61 0 5.31 256.49 18:21 28.09.2019
1141 Rain 18 1005 64 0 5.31 256.49 17:57 28.09.2019
1142 Rain 18 1005 64 0 5.31 256.49 17:39 28.09.2019
1143 Rain 18 1011 66 0 4.02 270 17:21 28.09.2019
1144 Rain 18 1008 67 0 0.89 115 16:48 28.09.2019
1145 Rain 18 1006 60 0 5.31 256.49 16:28 28.09.2019
1146 Rain 18 1006 57 0 5.31 256.49 15:59 28.09.2019
1147 Rain 17 1011 75 0 3.58 288 15:39 28.09.2019
1148 Rain 17 1011 77 0 3.58 210 15:21 28.09.2019
1149 Rain 18 1006 71 0 6.63 251.8 14:54 28.09.2019
1150 Rain 18 1006 79 0 6.63 251.8 14:36 28.09.2019
1151 Rain 18 1006 77 0 6.63 251.8 14:18 28.09.2019
1152 Rain 18 1006 77 0 6.63 251.8 14:18 28.09.2019
1153 Rain 19 1006 76 0 6.63 251.8 13:43 28.09.2019
1154 Rain 19 1006 78 0 6.81 240.115 13:20 28.09.2019
1155 Rain 19 1006 65 0 6.81 240.115 12:55 28.09.2019
1156 Rain 18 1006 65 0 6.81 240.115 12:36 28.09.2019
1157 Rain 18 1008 67 0 0.89 175 12:18 28.09.2019
1158 Rain 18 1009 66 0 2.68 0 11:40 28.09.2019
1159 Rain 18 1006 65 0 6.25 242.443 11:20 28.09.2019
1160 Rain 18 1006 61 0 6.25 242.443 10:56 28.09.2019
1161 Rain 17 1006 64 0 6.25 242.443 10:38 28.09.2019
1162 Rain 16 1006 67 0 6.25 242.443 10:18 28.09.2019
1163 Rain 15 1008 75 0 1.34 0 09:41 28.09.2019
1164 Clouds 15 1006 82 0 3.89 229.224 09:19 28.09.2019
1165 Rain 14 1006 85 0 3.88 227.235 08:48 28.09.2019
1166 Rain 14 1006 88 0 3.88 227.235 08:29 28.09.2019
1167 Rain 13 1006 90 0 3.88 227.235 07:57 28.09.2019
1168 Rain 13 1006 91 0 3.88 227.235 07:38 28.09.2019
1169 Rain 13 1006 91 0 3.88 227.235 07:19 28.09.2019
1170 Rain 13 1005 93 0 3.88 227.235 06:40 28.09.2019
1171 Clouds 13 1005 93 0 3.11 211.571 06:21 28.09.2019
1172 Clouds 13 1005 94 0 3.11 211.571 05:37 28.09.2019
1173 Clouds 13 1005 94 0 3.11 211.571 05:18 28.09.2019
1174 Clouds 13 1006 94 0 3.11 211.571 04:31 28.09.2019
1175 Clouds 12 1006 99 0 3.11 211.571 03:42 28.09.2019
1176 Clear 12 1006 10 0 3 209.456 03:18 28.09.2019
1177 Clear 12 1011 95 0 0.45 236 02:41 28.09.2019
1178 Clear 11 1005 99 0 3 209.456 02:23 28.09.2019
1179 Clear 12 1005 10 0 3 209.456 01:43 28.09.2019
1180 Clouds 12 1011 94 0 0.89 255 01:23 28.09.2019
1181 Clouds 12 1011 95 0 0.45 274 00:48 28.09.2019
1182 Clear 12 1011 94 0 2.71 200.355 00:29 28.09.2019
1183 Clear 13 1011 93 0 0.89 266 23:39 27.09.2019
1184 Clear 13 1011 93 0 0.89 222 23:21 27.09.2019
1185 Clear 13 1006 94 0 2.71 200.355 22:57 27.09.2019
1186 Clear 13 1005 92 0 2.71 200.355 22:38 27.09.2019
1187 Clear 13 1011 93 0 2.71 200.355 22:18 27.09.2019
1188 Clear 13 1005 94 0 2.71 200.355 21:54 27.09.2019
1189 Clear 13 1005 90 0 2.71 200.355 21:36 27.09.2019
1190 Rain 13 1005 90 0 1.47 237.248 21:18 27.09.2019
1191 Rain 14 1005 88 0 1.29 210.75 20:41 27.09.2019
1192 Rain 14 1004 91 0 1.29 210.75 20:20 27.09.2019
1193 Rain 14 1004 90 0 1.29 210.75 19:59 27.09.2019
1194 Rain 15 1004 88 0 1.29 210.75 19:41 27.09.2019
1195 Rain 15 1004 86 0 1.29 210.75 19:23 27.09.2019
1196 Rain 16 1004 83 0 1.29 210.75 18:55 27.09.2019
1197 Rain 16 1004 82 0 1.29 210.75 18:37 27.09.2019
1198 Clouds 17 1004 81 0 2.42 249.311 18:19 27.09.2019
1199 Clouds 17 1010 85 0 1.34 294 17:40 27.09.2019
1200 Clouds 18 1004 65 0 2.42 249.311 17:22 27.09.2019
1201 Clouds 17 1010 85 0 0.89 304 16:59 27.09.2019
1202 Clouds 17 1009 84 0 0.45 268 16:41 27.09.2019
1203 Clouds 17 1004 82 0 2.42 249.311 16:20 27.09.2019
1204 Clouds 17 1004 82 0 2.42 249.311 16:20 27.09.2019
1205 Clouds 17 1010 93 0 0.45 69 15:57 27.09.2019
1206 Clouds 17 1010 93 0 0.45 69 15:57 27.09.2019
1207 Clouds 17 1004 72 0 2.42 249.311 15:39 27.09.2019
1208 Rain 16 1005 84 0 3.94 243.474 15:19 27.09.2019
1209 Rain 16 1005 88 0 3.94 243.474 14:56 27.09.2019
1210 Rain 16 1004 90 0 3.94 243.474 14:37 27.09.2019
1211 Rain 16 1004 92 0 3.94 243.474 14:18 27.09.2019
1212 Rain 16 1004 94 0 3.94 243.474 13:42 27.09.2019
1213 Rain 16 1009 95 0 0.89 151 13:22 27.09.2019
1214 Rain 16 1004 92 0 1.54 201.746 12:59 27.09.2019
1215 Rain 16 1005 93 0 1.54 201.746 12:41 27.09.2019
1216 Rain 16 1005 93 0 2.53 229.74 12:20 27.09.2019
1217 Rain 16 1005 93 0 2.53 229.74 12:20 27.09.2019
1218 Rain 16 1005 94 0 2.53 229.74 11:40 27.09.2019
1219 Rain 16 1005 94 0 2.53 229.74 11:40 27.09.2019
1220 Rain 16 1010 95 0 0.45 219 11:22 27.09.2019
1221 Rain 16 1005 96 0 2.53 229.74 10:58 27.09.2019
1222 Rain 16 1005 96 0 2.53 229.74 10:40 27.09.2019
1223 Rain 16 1005 98 0 2.53 229.74 10:20 27.09.2019
1224 Rain 16 1005 98 0 2.53 229.74 09:43 27.09.2019
1225 Rain 16 1005 98 0 2.48 212.965 09:22 27.09.2019
1226 Rain 16 1004 98 0 2.48 212.965 08:58 27.09.2019
1227 Rain 16 1005 98 0 3.64 215.891 08:39 27.09.2019
1228 Rain 16 1004 10 0 3.64 215.891 08:20 27.09.2019
1229 Rain 16 1004 10 0 3.64 215.891 07:46 27.09.2019
1230 Rain 16 1004 10 0 3.64 215.891 07:24 27.09.2019
1231 Rain 16 1004 10 0 3.64 215.891 06:43 27.09.2019
1232 Rain 16 1004 10 0 3.67 221.553 06:25 27.09.2019
1233 Rain 15 1007 89 0 0.45 89 05:51 27.09.2019
1234 Rain 15 1004 99 0 3.67 221.553 05:33 27.09.2019
1235 Rain 16 1005 95 0 3.67 221.553 03:56 27.09.2019
1236 Rain 15 1005 95 0 3.67 221.553 03:36 27.09.2019
1237 Clouds 15 1005 97 0 2.91 178.681 01:52 27.09.2019
1238 Rain 16 1006 96 0 3.06 183.131 01:28 27.09.2019
1239 Rain 16 1006 94 0 3.06 183.131 00:30 27.09.2019
1240 Rain 15 1012 94 0 2.97 175.164 23:56 26.09.2019
1241 Rain 15 1006 95 0 2.97 175.164 23:38 26.09.2019
1242 Rain 16 1006 95 0 2.97 175.164 23:18 26.09.2019
1243 Rain 16 1006 95 0 2.97 175.164 22:57 26.09.2019
1244 Rain 16 1006 95 0 2.97 175.164 22:39 26.09.2019
1245 Rain 16 1006 95 0 2.97 175.164 22:18 26.09.2019
1246 Rain 16 1012 93 0 0.89 140 21:57 26.09.2019
1247 Rain 16 1007 94 0 2.97 175.164 21:37 26.09.2019
1248 Rain 17 1012 92 0 0.45 248 21:19 26.09.2019
1249 Rain 17 1012 91 0 0.45 275 21:19 26.09.2019
1250 Rain 17 1012 90 0 2.19 215.151 20:58 26.09.2019
1251 Rain 17 1007 83 0 2.19 215.151 20:39 26.09.2019
1252 Rain 17 1006 79 0 2.19 215.151 20:21 26.09.2019
1253 Rain 18 1006 78 0 2.19 215.151 19:56 26.09.2019
1254 Rain 18 1006 73 0 2.19 215.151 19:37 26.09.2019
1255 Rain 19 1012 69 0 1.34 285 19:18 26.09.2019
1256 Rain 19 1006 65 0 2.19 215.151 19:18 26.09.2019
1257 Rain 19 1008 68 0 2.19 215.151 18:42 26.09.2019
1258 Rain 20 1006 60 0 1.99 218.135 18:22 26.09.2019
1259 Rain 20 1006 56 0 1.99 218.135 17:59 26.09.2019
1260 Rain 20 1006 56 0 1.99 218.135 17:59 26.09.2019
1261 Rain 21 1008 63 0 0.45 79 17:38 26.09.2019
1262 Rain 21 1006 57 0 1.99 218.135 17:19 26.09.2019
1263 Rain 21 1006 55 0 1.99 218.135 16:55 26.09.2019
1264 Rain 21 1006 54 0 1.99 218.135 16:37 26.09.2019
1265 Rain 21 1006 53 0 1.99 218.135 16:18 26.09.2019
1266 Rain 21 1006 53 0 1.99 218.135 16:18 26.09.2019
1267 Rain 21 1006 56 0 1.99 218.135 15:42 26.09.2019
1268 Rain 21 1006 57 0 3.21 212.356 15:23 26.09.2019
1269 Rain 21 1006 61 0 3.21 212.356 14:59 26.09.2019
1270 Rain 21 1011 64 0 2.68 278 14:41 26.09.2019
1271 Rain 21 1006 57 0 3.21 212.356 14:22 26.09.2019
1272 Rain 21 1006 61 0 3.21 212.356 13:57 26.09.2019
1273 Rain 21 1006 52 0 2.74 204.664 13:39 26.09.2019
1274 Rain 20 1012 71 0 2.24 183 13:19 26.09.2019
1275 Rain 19 1006 67 0 2.74 204.664 12:44 26.09.2019
1276 Clouds 19 1009 76 0 0.45 82 12:23 26.09.2019
1277 Clouds 19 1006 74 0 2.55 199.707 11:57 26.09.2019
1278 Clouds 18 1006 81 0 2.55 199.707 11:39 26.09.2019
1279 Clouds 17 1012 86 0 1.34 247 11:19 26.09.2019
1280 Clouds 17 1009 88 0 0.45 0 10:42 26.09.2019
1281 Clouds 16 1011 87 0 1.79 250 10:24 26.09.2019
1282 Clouds 15 1011 91 0 0.89 281 09:59 26.09.2019
1283 Clouds 14 1006 97 0 2.55 199.707 09:41 26.09.2019
1284 Clouds 14 1006 99 0 2.17 202.041 09:20 26.09.2019
1285 Clouds 13 1006 99 0 2.1 211.104 08:53 26.09.2019
1286 Clouds 11 1005 98 0 2.1 211.104 08:32 26.09.2019
1287 Clouds 10 1005 99 0 2.1 211.104 07:57 26.09.2019
1288 Clouds 10 1005 99 0 2.1 211.104 07:38 26.09.2019
1289 Clouds 10 1005 99 0 2.1 211.104 07:18 26.09.2019
1290 Clouds 10 1005 10 0 2.1 211.104 06:42 26.09.2019
1291 Clear 10 1005 99 0 1.97 233.188 06:23 26.09.2019
1292 Clear 10 1004 99 0 1.97 233.188 05:36 26.09.2019
1293 Clear 10 1004 98 0 1.97 233.188 04:56 26.09.2019
1294 Clouds 10 1004 99 0 2.07 252.859 02:38 26.09.2019
1295 Clouds 11 1003 99 0 2.07 252.859 01:49 26.09.2019
1296 Clouds 11 1006 89 0 2.19 254.809 01:26 26.09.2019
1297 Clouds 12 1003 98 0 2.19 254.809 00:48 26.09.2019
1298 Clouds 12 1003 98 0 2.19 254.809 00:28 26.09.2019
1299 Clouds 12 1005 90 0 1.97 220.769 23:45 25.09.2019
1300 Clouds 12 1003 97 0 1.97 220.769 23:27 25.09.2019
1301 Clouds 13 1003 95 0 1.97 220.769 22:56 25.09.2019
1302 Clouds 13 1003 95 0 1.97 220.769 22:56 25.09.2019
1303 Clouds 13 1003 95 0 1.97 220.769 22:56 25.09.2019
1304 Clouds 13 1003 94 0 1.97 220.769 22:38 25.09.2019
1305 Clouds 13 1003 94 0 1.97 220.769 22:38 25.09.2019
1306 Clouds 13 1003 97 0 1.97 220.769 22:20 25.09.2019
1307 Clouds 13 1003 97 0 1.97 220.769 22:20 25.09.2019
1308 Clouds 13 1003 97 0 1.97 220.769 21:56 25.09.2019
1309 Clouds 14 1003 97 0 1.97 220.769 21:38 25.09.2019
1310 Rain 14 1002 96 0 1.02 168.823 21:18 25.09.2019
1311 Rain 14 1002 96 0 1.02 168.823 20:56 25.09.2019
1312 Rain 14 1005 88 0 0.66 209.788 20:38 25.09.2019
1313 Rain 15 1005 85 0 0.66 209.788 20:19 25.09.2019
1314 Rain 15 1005 84 0 0.66 209.788 19:41 25.09.2019
1315 Rain 15 1002 92 0 0.66 209.788 19:41 25.09.2019
1316 Rain 16 1002 92 0 0.66 209.788 19:22 25.09.2019
1317 Rain 16 1002 91 0 0.66 209.788 18:57 25.09.2019
1318 Rain 16 1005 85 0 0.45 0 18:57 25.09.2019
1319 Rain 17 1002 88 0 0.66 209.788 18:39 25.09.2019
1320 Rain 17 1001 83 0 1.87 266.63 18:21 25.09.2019
1321 Rain 17 1001 77 0 1.87 266.63 17:58 25.09.2019
1322 Rain 17 1004 81 0 1.87 266.63 17:37 25.09.2019
1323 Rain 18 1006 72 0 114 302 17:18 25.09.2019
1324 Rain 18 1006 75 0 114 10 16:44 25.09.2019
1325 Rain 17 1004 87 0 0.45 0 16:26 25.09.2019
1326 Rain 17 1003 84 0 1.87 266.63 15:58 25.09.2019
1327 Rain 17 1001 85 0 1.87 266.63 15:40 25.09.2019
1328 Rain 17 1001 87 0 4.41 267.83 15:21 25.09.2019
1329 Rain 16 1002 93 0 4.41 267.83 14:54 25.09.2019
1330 Rain 16 1006 87 0 114 346 14:36 25.09.2019
1331 Rain 16 1003 81 0 4.41 267.83 14:18 25.09.2019
1332 Rain 16 1001 87 0 5.27 270.457 13:41 25.09.2019
1333 Rain 16 1001 88 0 5.27 270.457 13:20 25.09.2019
1334 Rain 16 1001 87 0 5.27 270.457 12:58 25.09.2019
1335 Rain 16 1001 89 0 5.27 270.457 12:39 25.09.2019
1336 Rain 16 1001 89 0 1.66 153.034 12:21 25.09.2019
1337 Rain 16 1001 92 0 1.66 153.034 11:42 25.09.2019
1338 Rain 16 1001 87 0 1.66 153.034 11:22 25.09.2019
1339 Rain 15 1001 88 0 1.66 153.034 10:58 25.09.2019
1340 Rain 15 1001 87 0 1.66 153.034 10:39 25.09.2019
1341 Rain 15 1001 88 0 1.66 153.034 10:19 25.09.2019
1342 Rain 15 1001 87 0 1.66 153.034 09:56 25.09.2019
1343 Rain 15 1001 90 0 1.66 153.034 09:36 25.09.2019
1344 Rain 15 1001 91 0 1.1 145.66 09:18 25.09.2019
1345 Rain 14 1001 95 0 1.47 183.481 08:41 25.09.2019
1346 Rain 14 1001 96 0 1.47 183.481 08:21 25.09.2019
1347 Rain 14 1001 96 0 1.47 183.481 07:56 25.09.2019
1348 Rain 14 1001 96 0 1.47 183.481 07:37 25.09.2019
1349 Rain 13 1001 95 0 1.47 183.481 07:19 25.09.2019
1350 Rain 13 1001 93 0 1.47 183.481 06:38 25.09.2019
1351 Clouds 13 1001 92 0 2.17 179.341 06:18 25.09.2019
1352 Clouds 13 1001 90 0 2.17 179.341 05:27 25.09.2019
1353 Clouds 13 1001 86 0 2.17 179.341 04:49 25.09.2019
1354 Clouds 13 1002 95 0 1.82 162.114 02:18 25.09.2019
1355 Clouds 14 1003 89 0 1.98 162.351 00:44 25.09.2019
1356 Rain 14 1003 89 0 2.27 147.979 00:24 25.09.2019
1357 Rain 15 1003 89 0 2.27 147.979 23:55 24.09.2019
1358 Rain 15 1003 87 0 2.27 147.979 23:36 24.09.2019
1359 Rain 15 1006 80 0 2.27 147.979 23:18 24.09.2019
1360 Rain 15 1004 87 0 2.27 147.979 22:39 24.09.2019
1361 Rain 15 1004 88 0 2.27 147.979 22:20 24.09.2019
1362 Rain 16 1004 87 0 2.41 162.477 21:56 24.09.2019
1363 Rain 16 1004 87 0 2.41 162.477 21:37 24.09.2019
1364 Rain 16 1004 85 0 2.96 139.09 21:19 24.09.2019
1365 Rain 16 1004 85 0 2.96 139.09 21:19 24.09.2019
1366 Rain 16 1004 77 0 2.96 139.09 20:57 24.09.2019
1367 Rain 17 1004 77 0 2.96 139.09 20:39 24.09.2019
1368 Rain 17 1004 71 0 2.96 139.09 20:20 24.09.2019
1369 Rain 18 1004 70 0 2.96 139.09 19:44 24.09.2019
1370 Rain 18 1004 69 0 2.96 139.09 19:23 24.09.2019
1371 Rain 19 1004 65 0 2.96 139.09 18:59 24.09.2019
1372 Rain 19 1004 65 0 2.96 139.09 18:41 24.09.2019
1373 Rain 19 1004 65 0 2.96 139.09 18:41 24.09.2019
1374 Rain 20 1008 64 0 3.5 138.351 18:22 24.09.2019
1375 Rain 20 1008 64 0 3.5 138.351 18:22 24.09.2019
1376 Rain 20 1004 60 0 3.5 138.351 17:58 24.09.2019
1377 Rain 20 1004 59 0 3.5 138.351 17:39 24.09.2019
1378 Rain 20 1004 59 0 3.5 138.351 17:39 24.09.2019
1379 Rain 21 1005 51 0 3.5 138.351 17:21 24.09.2019
1380 Rain 21 1005 51 0 3.5 138.351 16:59 24.09.2019
1381 Rain 22 1005 48 0 3.5 138.351 16:40 24.09.2019
1382 Rain 22 1010 61 0 114 117 16:19 24.09.2019
1383 Rain 22 1010 61 0 114 117 16:19 24.09.2019
1384 Rain 22 1009 57 0 0.45 0 15:43 24.09.2019
1385 Rain 21 1009 56 0 0.45 0 15:23 24.09.2019
1386 Rain 21 1011 62 0 0.89 112 14:58 24.09.2019
1387 Rain 22 1007 54 0 1.73 156.078 14:37 24.09.2019
1388 Rain 21 1007 54 0 1.73 156.078 14:18 24.09.2019
1389 Rain 22 1007 55 0 1.73 156.078 13:40 24.09.2019
1390 Rain 22 1008 51 0 2.29 168.847 13:21 24.09.2019
1391 Rain 21 1008 69 0 2.29 168.847 12:42 24.09.2019
1392 Clear 19 1011 71 0 0.45 70 12:21 24.09.2019
1393 Clear 19 1014 75 0 1.77 248.427 11:57 24.09.2019
1394 Clear 18 1012 77 0 1.77 248.427 11:39 24.09.2019
1395 Clear 18 1009 83 0 1.77 248.427 11:21 24.09.2019
1396 Clear 17 1010 91 0 1.77 248.427 10:40 24.09.2019
1397 Clear 17 1010 93 0 1.77 248.427 10:21 24.09.2019
1398 Clear 17 1010 93 0 1.77 248.427 09:57 24.09.2019
1399 Clear 16 1012 82 0 0.45 0 09:39 24.09.2019
1400 Clouds 16 1009 93 0 1.79 241.958 09:19 24.09.2019
1401 Clouds 15 1012 84 0 1.79 241.958 08:55 24.09.2019
1402 Clouds 15 1012 84 0 1.79 241.958 08:55 24.09.2019
1403 Clouds 15 1009 98 0 1.29 233.291 08:37 24.09.2019
1404 Clouds 15 1009 98 0 1.29 233.291 08:18 24.09.2019
1405 Clouds 15 1009 99 0 1.29 233.291 07:42 24.09.2019
1406 Clouds 15 1009 99 0 1.29 233.291 07:42 24.09.2019
1407 Clouds 15 1009 98 0 1.29 233.291 07:24 24.09.2019
1408 Clouds 15 1009 98 0 1.29 233.291 06:48 24.09.2019
1409 Clouds 15 1012 85 0 1.29 233.291 06:27 24.09.2019
1410 Clouds 15 1010 97 0 2.24 275.573 05:51 24.09.2019
1411 Clouds 15 1010 97 0 2.24 275.573 05:18 24.09.2019
1412 Clouds 15 1010 97 0 2.24 275.573 05:18 24.09.2019
1413 Clouds 15 1010 94 0 2.24 275.573 03:43 24.09.2019
1414 Clouds 15 1013 85 0 1.99 270.058 02:46 24.09.2019
1415 Clouds 15 1010 88 0 1.99 270.058 01:45 24.09.2019
1416 Clouds 15 1010 88 0 2.1 270.628 00:43 24.09.2019
1417 Clouds 15 1010 88 0 2.14 281.635 00:23 24.09.2019
1418 Clouds 15 1010 90 0 2.14 281.635 23:56 23.09.2019
1419 Clouds 15 1010 90 0 2.14 281.635 23:37 23.09.2019
1420 Clouds 15 1010 90 0 2.14 281.635 23:19 23.09.2019
1421 Clouds 15 1010 87 0 2.14 281.635 22:39 23.09.2019
1422 Clouds 15 1010 86 0 2.14 281.635 22:20 23.09.2019
1423 Clouds 16 1010 86 0 2.14 281.635 21:57 23.09.2019
1424 Clouds 16 1010 83 0 2.14 281.635 21:38 23.09.2019
1425 Rain 16 1010 84 0 2.37 279.319 21:19 23.09.2019
1426 Rain 16 1013 77 0 2.63 284.005 20:41 23.09.2019
1427 Rain 16 1013 77 0 2.63 284.005 20:41 23.09.2019
1428 Rain 17 1010 85 0 2.63 284.005 20:20 23.09.2019
1429 Rain 17 1010 85 0 2.63 284.005 20:20 23.09.2019
1430 Rain 17 1010 82 0 2.63 284.005 19:59 23.09.2019
1431 Rain 17 1010 81 0 2.63 284.005 19:39 23.09.2019
1432 Rain 18 1009 80 0 2.63 284.005 19:21 23.09.2019
1433 Rain 18 1009 77 0 2.63 284.005 18:55 23.09.2019
1434 Rain 18 1009 76 0 2.63 284.005 18:37 23.09.2019
1435 Clouds 20 1009 74 0 2.58 265.589 18:18 23.09.2019
1436 Clouds 21 1009 70 0 2.58 265.589 17:55 23.09.2019
1437 Clouds 22 1008 65 0 2.58 265.589 17:37 23.09.2019
1438 Clouds 22 1008 65 0 2.58 265.589 17:18 23.09.2019
1439 Clouds 23 1008 56 0 2.58 265.589 16:40 23.09.2019
1440 Clouds 23 1008 47 0 2.58 265.589 16:22 23.09.2019
1441 Clouds 23 1008 49 0 2.58 265.589 15:59 23.09.2019
1442 Clouds 24 1008 45 0 2.58 265.589 15:41 23.09.2019
1443 Clouds 22 1013 41 0 1.55 184.43 15:20 23.09.2019
1444 Clouds 22 1008 39 0 1.55 184.43 14:59 23.09.2019
1445 Clouds 22 1011 37 0 0.45 102 14:39 23.09.2019
1446 Clouds 22 1011 37 0 0.45 103 14:19 23.09.2019
1447 Clouds 22 1007 34 0 1.55 184.43 13:57 23.09.2019
1448 Clouds 22 1008 32 0 1.97 160.524 13:37 23.09.2019
1449 Clouds 22 1008 33 0 1.97 160.524 13:18 23.09.2019
1450 Clouds 20 1011 44 0 0.89 157 12:41 23.09.2019
1451 Clouds 19 1013 52 0 0.45 240 12:21 23.09.2019
1452 Clouds 18 1013 54 0 0.45 240 11:55 23.09.2019
1453 Clouds 18 1011 44 0 0.45 0 11:37 23.09.2019
1454 Clouds 18 1013 58 0 0.89 77 11:19 23.09.2019
1455 Clouds 17 1011 58 0 2.79 142.01 10:48 23.09.2019
1456 Clouds 16 1013 65 0 1.79 67 10:21 23.09.2019
1457 Clouds 15 1008 59 0 2.79 142.01 09:51 23.09.2019
1458 Clouds 14 1008 61 0 2.79 142.01 09:29 23.09.2019
1459 Clouds 11 1007 78 0 2.42 116.873 08:59 23.09.2019
1460 Clouds 10 1007 82 0 2.73 118.133 08:39 23.09.2019
1461 Clouds 10 1010 78 0 2.73 118.133 08:20 23.09.2019
1462 Clouds 9 1012 78 0 114 107 07:44 23.09.2019
1463 Clouds 9 1007 92 0 2.73 118.133 07:23 23.09.2019
1464 Clouds 9 1006 88 0 2.92 115.995 06:21 23.09.2019
1465 Clouds 9 1006 89 0 2.92 115.995 05:46 23.09.2019
1466 Clouds 9 1006 89 0 2.92 115.995 05:18 23.09.2019
1467 Clouds 10 1006 87 0 2.92 115.995 04:52 23.09.2019
1468 Clouds 13 1006 75 0 2.45 102.716 01:29 23.09.2019
1469 Clouds 13 1009 57 0 2.45 102.716 00:40 23.09.2019
1470 Clouds 13 1006 73 0 2.75 119.998 00:21 23.09.2019
1471 Clouds 14 1011 64 0 0.45 121 23:46 22.09.2019
1472 Clouds 14 1009 56 0 2.75 119.998 23:27 22.09.2019
1473 Clouds 14 1011 60 0 0.45 97 22:57 22.09.2019
1474 Clouds 14 1006 55 0 2.75 119.998 22:38 22.09.2019
1475 Clouds 15 1011 58 0 0.45 108 22:20 22.09.2019
1476 Clouds 16 1006 55 0 2.75 119.998 21:43 22.09.2019
1477 Clouds 16 1006 57 0 2.68 127.297 21:21 22.09.2019
1478 Clouds 17 1011 49 0 2.68 127.297 20:54 22.09.2019
1479 Clouds 18 1011 47 0 0.45 117 20:36 22.09.2019
1480 Clouds 18 1008 50 0 2.97 121.791 20:18 22.09.2019
1481 Clouds 19 1005 53 0 2.97 121.791 19:41 22.09.2019
1482 Clouds 20 1005 44 0 2.97 121.791 19:22 22.09.2019
1483 Clouds 20 1009 40 0 2.97 121.791 18:59 22.09.2019
1484 Clouds 26 1005 32 0 2.97 121.791 18:39 22.09.2019
1485 Clouds 26 1005 32 0 2.97 121.791 18:39 22.09.2019
1486 Clear 23 1005 29 0 3.65 121.686 18:19 22.09.2019
1487 Clear 24 1005 30 0 3.65 121.686 17:58 22.09.2019
1488 Clear 23 1011 36 0 1.34 101 17:40 22.09.2019
1489 Clear 24 1011 35 0 1.34 152 17:19 22.09.2019
1490 Clear 24 1011 36 0 1.79 159 16:44 22.09.2019
1491 Clear 24 1011 36 0 1.79 73 16:26 22.09.2019
1492 Clear 24 1011 37 0 1.79 66 15:56 22.09.2019
1493 Clear 24 1011 37 0 1.79 122 15:37 22.09.2019
1494 Clear 24 1009 38 0 0.89 225 15:19 22.09.2019
1495 Clear 24 1012 38 0 2.24 121 14:43 22.09.2019
1496 Clear 24 1012 41 0 1.79 108 14:25 22.09.2019
1497 Clear 24 1007 26 0 3.41 130.016 13:57 22.09.2019
1498 Clear 24 1007 27 0 3.41 130.016 13:39 22.09.2019
1499 Clear 23 1007 28 0 3.28 127.44 13:21 22.09.2019
1500 Clear 22 1013 51 0 1.79 127 12:44 22.09.2019
1501 Clear 20 1013 52 0 1.79 77 12:24 22.09.2019
1502 Clear 20 1012 43 0 0.45 0 11:56 22.09.2019
1503 Clear 20 1014 58 0 1.34 86 11:38 22.09.2019
1504 Clear 19 1012 56 0 3.47 139.23 11:38 22.09.2019
1505 Clear 19 1013 58 0 3.47 139.23 11:20 22.09.2019
1506 Clear 18 1009 41 0 3.47 139.23 10:44 22.09.2019
1507 Clear 16 1010 45 0 3.47 139.23 10:20 22.09.2019
1508 Clear 15 1015 71 0 1.34 171 09:57 22.09.2019
1509 Clear 13 1015 79 0 0.45 119 09:38 22.09.2019
1510 Clear 11 1010 77 0 2.93 133.06 09:19 22.09.2019
1511 Clear 10 1016 79 0 0.89 69 08:45 22.09.2019
1512 Clear 8 1016 81 0 0.89 162 08:24 22.09.2019
1513 Clear 8 1016 81 0 0.89 162 08:24 22.09.2019
1514 Clear 8 1011 92 0 2.78 132.737 07:55 22.09.2019
1515 Clear 8 1011 94 0 2.78 132.737 07:36 22.09.2019
1516 Clear 7 1011 93 0 2.78 132.737 07:18 22.09.2019
1517 Clear 8 1011 94 0 2.78 132.737 06:54 22.09.2019
1518 Clear 8 1011 93 0 2.35 121.378 05:30 22.09.2019
1519 Clear 9 1011 91 0 2.35 121.378 03:48 22.09.2019
1520 Clear 9 1012 89 0 2.18 126.276 02:38 22.09.2019
1521 Clear 10 1012 89 0 2.18 126.276 02:19 22.09.2019
1522 Clear 10 1013 86 0 2.2 125.077 01:20 22.09.2019
1523 Clear 10 1013 87 0 2.28 131.29 00:33 22.09.2019
1524 Clear 11 1013 84 0 2.28 131.29 23:59 21.09.2019
1525 Clear 11 1013 83 0 2.28 131.29 23:40 21.09.2019
1526 Clear 11 1014 83 0 2.28 131.29 23:20 21.09.2019
1527 Clear 12 1014 79 0 2.28 131.29 22:39 21.09.2019
1528 Clear 13 1014 79 0 2.28 131.29 22:21 21.09.2019
1529 Clear 13 1014 79 0 2.28 131.29 22:21 21.09.2019
1530 Clear 13 1014 76 0 2.28 131.29 21:55 21.09.2019
1531 Clear 13 1014 74 0 2.28 131.29 21:37 21.09.2019
1532 Clear 13 1014 73 0 2.07 121.405 21:18 21.09.2019
1533 Clear 15 1014 68 0 2.13 118.275 20:39 21.09.2019
1534 Clear 15 1020 65 0 2.13 118.275 20:21 21.09.2019
1535 Clear 16 1014 63 0 2.13 118.275 19:48 21.09.2019
1536 Clear 17 1014 54 0 2.13 118.275 19:24 21.09.2019
1537 Clear 18 1014 49 0 2.13 118.275 18:59 21.09.2019
1538 Clear 18 1018 32 0 2.13 118.275 18:37 21.09.2019
1539 Clear 20 1017 46 0 2.28 145.123 18:19 21.09.2019
1540 Clear 20 1017 43 0 2.28 145.123 17:42 21.09.2019
1541 Clear 20 1017 43 0 2.28 145.123 17:42 21.09.2019
1542 Clear 21 1018 33 0 0.45 0 17:21 21.09.2019
1543 Clear 21 1019 32 0 0.45 0 16:44 21.09.2019
1544 Clear 21 1019 32 0 0.45 0 16:44 21.09.2019
1545 Clear 21 1019 30 0 2.28 145.123 16:24 21.09.2019
1546 Clear 20 1019 31 0 0.45 0 15:59 21.09.2019
1547 Clear 21 1019 32 0 0.45 0 15:40 21.09.2019
1548 Clear 21 1019 39 0 0.45 126 15:20 21.09.2019
1549 Clear 21 1020 35 0 0.45 0 14:44 21.09.2019
1550 Clear 21 1020 35 0 0.45 0 14:44 21.09.2019
1551 Clear 21 1020 34 0 0.45 0 14:26 21.09.2019
1552 Clear 21 1017 32 0 1.79 169.38 13:43 21.09.2019
1553 Clear 21 1017 32 0 1.85 161.624 13:25 21.09.2019
1554 Clear 21 1017 32 0 1.85 161.624 13:25 21.09.2019
1555 Clear 21 1018 32 0 1.85 161.624 12:58 21.09.2019
1556 Clear 20 1022 47 0 0.89 103 12:39 21.09.2019
1557 Clear 18 1022 52 0 0.45 358 12:20 21.09.2019
1558 Clear 18 1021 46 0 0.89 0 12:20 21.09.2019
1559 Clear 17 1022 54 0 0.89 63 11:58 21.09.2019
1560 Clear 17 1022 46 0 1.69 177.86 11:39 21.09.2019
1561 Clear 16 1022 62 0 0.45 125 11:18 21.09.2019
1562 Clear 17 1019 39 0 1.69 177.86 10:40 21.09.2019
1563 Clear 15 1019 43 0 1.69 177.86 10:21 21.09.2019
1564 Clear 14 1019 59 0 1.69 177.86 09:57 21.09.2019
1565 Clear 13 1019 73 0 1.69 177.86 09:38 21.09.2019
1566 Clear 9 1019 87 0 1.25 193.859 09:19 21.09.2019
1567 Clear 7 1020 94 0 1.25 193.859 08:50 21.09.2019
1568 Clear 6 1020 94 0 1.39 182.642 08:22 21.09.2019
1569 Clear 5 1020 96 0 1.39 182.642 07:40 21.09.2019
1570 Clear 5 1020 95 0 1.39 182.642 07:20 21.09.2019
1571 Clear 4 1020 96 0 1.39 182.642 06:36 21.09.2019
1572 Clear 4 1022 84 0 0.95 203.112 05:51 21.09.2019
1573 Clear 5 1020 95 0 0.95 203.112 04:48 21.09.2019
1574 Clear 5 1020 95 0 0.95 203.112 04:48 21.09.2019
1575 Clear 5 1020 96 0 0.95 203.112 04:30 21.09.2019
1576 Clear 6 1021 94 0 1.81 221.959 02:27 21.09.2019
1577 Clear 7 1021 94 0 1.81 221.959 01:52 21.09.2019
1578 Clear 7 1021 93 0 1.81 221.959 01:33 21.09.2019
1579 Clear 7 1021 93 0 1.81 221.959 00:38 21.09.2019
1580 Clear 8 1022 93 0 1.42 253.933 00:18 21.09.2019
1581 Clear 8 1022 92 0 1.42 253.933 23:42 20.09.2019
1582 Clear 8 1022 91 0 1.42 253.933 23:22 20.09.2019
1583 Clear 9 1027 90 0 1.42 253.933 22:41 20.09.2019
1584 Clear 9 1022 88 0 1.42 253.933 22:23 20.09.2019
1585 Clear 10 1022 88 0 1.42 253.933 21:56 20.09.2019
1586 Clear 10 1027 84 0 1.42 253.933 21:37 20.09.2019
1587 Clouds 11 1022 86 0 1.42 244.123 21:18 20.09.2019
1588 Clouds 11 1022 83 0 1.42 244.123 20:55 20.09.2019
1589 Clouds 11 1022 83 0 1.22 253.323 20:37 20.09.2019
1590 Clouds 12 1022 80 0 1.22 253.323 20:18 20.09.2019
1591 Clouds 13 1022 71 0 1.22 253.323 19:42 20.09.2019
1592 Clouds 15 1022 61 0 1.22 253.323 19:21 20.09.2019
1593 Clouds 15 1022 55 0 1.22 253.323 18:57 20.09.2019
1594 Clouds 16 1026 60 0 0.45 283 18:37 20.09.2019
1595 Clouds 17 1027 51 0 2.29 290.392 18:18 20.09.2019
1596 Clouds 17 1025 51 0 0.89 0 17:45 20.09.2019
1597 Clouds 17 1028 52 0 0.89 338 17:26 20.09.2019
1598 Clouds 18 1028 51 0 0.45 35 16:43 20.09.2019
1599 Clouds 18 1028 52 0 0.89 286 16:22 20.09.2019
1600 Clouds 17 1028 52 0 1.34 25 15:59 20.09.2019
1601 Clouds 17 1028 51 0 0.45 288 15:40 20.09.2019
1602 Clouds 18 1023 40 0 2.66 308.024 15:22 20.09.2019
1603 Clouds 17 1024 44 0 2.66 308.024 14:43 20.09.2019
1604 Clouds 16 1029 55 0 0.89 323 14:20 20.09.2019
1605 Clouds 16 1029 55 0 0.89 323 14:20 20.09.2019
1606 Clouds 16 1029 56 0 0.89 293 13:57 20.09.2019
1607 Clouds 16 1029 58 0 0.89 347 13:38 20.09.2019
1608 Clouds 15 1030 61 0 1.34 0 13:20 20.09.2019
1609 Clouds 15 1025 55 0 2.49 298.511 12:38 20.09.2019
1610 Clouds 15 1030 62 0 0.89 18 12:19 20.09.2019
1611 Clouds 14 1030 63 0 1.34 335 11:50 20.09.2019
1612 Clouds 14 1025 58 0 2.92 286.148 11:25 20.09.2019
1613 Clouds 13 1025 61 0 2.92 286.148 10:58 20.09.2019
1614 Clouds 13 1030 70 0 0.89 305 10:40 20.09.2019
1615 Clouds 12 1030 74 0 0.89 28 10:21 20.09.2019
1616 Clouds 11 1025 69 0 2.92 286.148 09:38 20.09.2019
1617 Clouds 9 1025 78 0 2.59 262.155 09:19 20.09.2019
1618 Clouds 9 1025 78 0 2.59 262.155 09:19 20.09.2019
1619 Clouds 8 1024 82 0 2.59 262.155 08:47 20.09.2019
1620 Clouds 7 1025 88 0 2.59 262.155 08:28 20.09.2019
1621 Clouds 6 1024 95 0 2.59 262.155 07:51 20.09.2019
1622 Clouds 5 1025 95 0 2.58 263.861 07:29 20.09.2019
1623 Clouds 5 1024 96 0 2.58 263.861 06:59 20.09.2019
1624 Clouds 5 1024 96 0 2.58 263.861 06:40 20.09.2019
1625 Clouds 5 1024 96 0 2.58 263.861 06:40 20.09.2019
1626 Clouds 5 1024 96 0 2.06 276.383 06:18 20.09.2019
1627 Clouds 6 1029 89 0 2.06 276.383 04:31 20.09.2019
1628 Clouds 6 1029 89 0 2.06 276.383 04:31 20.09.2019
1629 Clouds 6 1025 94 0 2.06 276.383 03:27 20.09.2019
1630 Clouds 7 1025 93 0 2.2 284.616 02:18 20.09.2019
1631 Clouds 7 1025 91 0 2.2 284.616 01:39 20.09.2019
1632 Clouds 7 1025 90 0 2.18 283.302 00:36 20.09.2019
1633 Clouds 8 1025 88 0 2.31 290.896 23:48 19.09.2019
1634 Clouds 8 1025 84 0 2.31 290.896 23:28 19.09.2019
1635 Clouds 8 1025 81 0 2.31 290.896 22:59 19.09.2019
1636 Clouds 8 1025 80 0 2.31 290.896 22:40 19.09.2019
1637 Clouds 9 1024 79 0 2.31 290.896 22:21 19.09.2019
1638 Clouds 9 1025 81 0 2.31 290.896 21:57 19.09.2019
1639 Clouds 9 1024 82 0 2.31 290.896 21:38 19.09.2019
1640 Clouds 10 1024 79 0 2.03 289.978 21:19 19.09.2019
1641 Clouds 10 1029 70 0 2.03 289.978 20:57 19.09.2019
1642 Clouds 10 1029 70 0 2.03 289.978 20:57 19.09.2019
1643 Clouds 11 1024 78 0 2.03 285.553 20:38 19.09.2019
1644 Clouds 11 1024 75 0 2.03 285.553 20:19 19.09.2019
1645 Clouds 11 1024 68 0 2.03 285.553 19:54 19.09.2019
1646 Clouds 11 1024 66 0 2.03 285.553 19:36 19.09.2019
1647 Clouds 13 1024 55 0 2.03 285.553 19:18 19.09.2019
1648 Clouds 18 1023 39 0 2.03 285.553 18:41 19.09.2019
1649 Clouds 16 1028 48 0 1.34 345 18:22 19.09.2019
1650 Clouds 16 1023 37 0 3.99 314.644 17:43 19.09.2019
1651 Clouds 17 1028 46 0 1.34 41 17:24 19.09.2019
1652 Clouds 17 1028 42 0 1.79 290 16:59 19.09.2019
1653 Clouds 17 1028 44 0 1.34 30 16:40 19.09.2019
1654 Clouds 17 1023 37 0 3.99 314.644 16:20 19.09.2019
1655 Clouds 17 1029 45 0 0.89 15 15:41 19.09.2019
1656 Clouds 17 1029 43 0 1.79 9 15:22 19.09.2019
1657 Clouds 17 1024 39 0 0.89 35 14:58 19.09.2019
1658 Clouds 17 1029 45 0 1.34 249 14:39 19.09.2019
1659 Clouds 17 1024 40 0 0.89 221 14:20 19.09.2019
1660 Clouds 17 1024 39 0 4.62 318.09 13:55 19.09.2019
1661 Clouds 16 1029 48 0 1.79 46 13:36 19.09.2019
1662 Clouds 16 1024 41 0 4.66 320.841 13:18 19.09.2019
1663 Clouds 15 1029 55 0 1.34 358 12:37 19.09.2019
1664 Clear 15 1024 53 0 0.89 33 12:18 19.09.2019
1665 Clear 14 1029 65 0 1.79 6 11:41 19.09.2019
1666 Clear 13 1029 69 0 1.34 72 11:22 19.09.2019
1667 Clear 13 1029 74 0 0.45 316 10:59 19.09.2019
1668 Clear 12 1023 74 0 0.45 137 10:39 19.09.2019
1669 Clear 11 1023 77 0 0.45 121 10:21 19.09.2019
1670 Clear 11 1023 78 0 4.63 321.779 09:57 19.09.2019
1671 Clear 10 1023 65 0 4.63 321.779 09:39 19.09.2019
1672 Clear 9 1023 71 0 3.31 289.201 09:19 19.09.2019
1673 Clear 9 1023 73 0 3.94 293.323 08:50 19.09.2019
1674 Clear 8 1022 77 0 3.94 293.323 08:23 19.09.2019
1675 Clear 7 1027 92 0 3.94 293.323 07:44 19.09.2019
1676 Clear 7 1022 82 0 3.94 293.323 07:22 19.09.2019
1677 Clear 7 1022 84 0 3.94 293.323 06:57 19.09.2019
1678 Clear 6 1022 85 0 3.94 293.323 06:37 19.09.2019
1679 Clear 6 1022 84 0 3.85 285.593 06:19 19.09.2019
1680 Clear 6 1021 81 0 3.85 285.593 05:42 19.09.2019
1681 Clear 6 1021 80 0 3.85 285.593 04:19 19.09.2019
1682 Clear 7 1021 77 0 3.59 285.261 03:20 19.09.2019
1683 Clear 8 1021 72 0 3.78 284.537 01:40 19.09.2019
1684 Clear 8 1021 71 0 3.78 284.537 01:19 19.09.2019
1685 Clear 9 1021 69 0 3.78 284.537 00:43 19.09.2019
1686 Clear 9 1021 69 0 3.71 283.103 00:19 19.09.2019
1687 Clear 9 1021 68 0 3.71 283.103 23:38 18.09.2019
1688 Clear 10 1020 67 0 3.71 283.103 23:19 18.09.2019
1689 Clear 10 1020 65 0 3.71 283.103 22:39 18.09.2019
1690 Clear 10 1020 65 0 3.71 283.103 22:19 18.09.2019
1691 Clear 10 1020 64 0 3.71 283.103 21:57 18.09.2019
1692 Clear 10 1020 61 0 3.71 283.103 21:39 18.09.2019
1693 Rain 11 1020 61 0 3.65 309.964 21:18 18.09.2019
1694 Rain 11 1020 62 0 3.54 313.146 20:57 18.09.2019
1695 Rain 11 1020 60 0 3.54 313.146 20:39 18.09.2019
1696 Rain 11 1020 60 0 3.54 313.146 20:39 18.09.2019
1697 Rain 12 1024 75 0 0.89 100 20:21 18.09.2019
1698 Rain 12 1019 59 0 3.54 313.146 19:57 18.09.2019
1699 Rain 12 1019 56 0 3.54 313.146 19:38 18.09.2019
1700 Rain 13 1018 58 0 3.54 313.146 19:19 18.09.2019
1701 Rain 14 1018 55 0 3.54 313.146 18:55 18.09.2019
1702 Rain 14 1023 64 0 1.34 106 18:36 18.09.2019
1703 Rain 14 1023 64 0 1.34 106 18:36 18.09.2019
1704 Rain 14 1024 61 0 1.79 98 18:18 18.09.2019
1705 Rain 14 1023 63 0 1.34 131 17:56 18.09.2019
1706 Rain 15 1024 60 0 2.68 244 17:38 18.09.2019
1707 Rain 16 1023 49 0 2.24 150 17:18 18.09.2019
1708 Rain 16 1021 53 0 1.79 0 16:43 18.09.2019
1709 Rain 16 1018 38 0 0.89 15 16:22 18.09.2019
1710 Rain 16 1019 67 0 5.6 302.049 15:59 18.09.2019
1711 Rain 16 1019 41 0 1.34 2 15:41 18.09.2019
1712 Clouds 15 1019 80 0 5.27 301.466 15:21 18.09.2019
1713 Clouds 17 1018 44 0 5.27 301.466 14:59 18.09.2019
1714 Clouds 17 1021 48 0 2.68 0 14:40 18.09.2019
1715 Clouds 16 1021 50 0 2.68 0 14:22 18.09.2019
1716 Clouds 16 1021 49 0 1.79 0 13:59 18.09.2019
1717 Clouds 16 1018 39 0 5.27 301.466 13:40 18.09.2019
1718 Clouds 15 1021 59 0 2.24 0 13:19 18.09.2019
1719 Clouds 15 1021 59 0 2.68 0 12:53 18.09.2019
1720 Clouds 15 1021 61 0 2.68 0 12:30 18.09.2019
1721 Clouds 15 1024 61 0 0.89 282 11:57 18.09.2019
1722 Clouds 14 1021 67 0 2.68 0 11:38 18.09.2019
1723 Clouds 14 1019 64 0 0.89 337 11:19 18.09.2019
1724 Clouds 14 1019 60 0 5.83 306.84 10:40 18.09.2019
1725 Clouds 13 1019 66 0 5.83 306.84 10:21 18.09.2019
1726 Clouds 13 1019 65 0 5.83 306.84 09:58 18.09.2019
1727 Clouds 12 1018 68 0 5.83 306.84 09:38 18.09.2019
1728 Rain 11 1018 74 0 4.5 290.14 09:20 18.09.2019
1729 Clouds 10 1018 83 0 4.9 293.237 08:44 18.09.2019
1730 Clouds 10 1018 84 0 4.9 293.237 08:25 18.09.2019
1731 Clouds 9 1018 86 0 0.45 163 07:59 18.09.2019
1732 Clouds 8 1018 89 0 4.9 293.237 07:40 18.09.2019
1733 Clouds 8 1019 86 0 1.34 0 07:22 18.09.2019
1734 Clouds 8 1017 88 0 4.9 293.237 06:40 18.09.2019
1735 Clear 8 1017 86 0 4.87 284.133 05:51 18.09.2019
1736 Clear 8 1016 86 0 4.87 284.133 05:21 18.09.2019
1737 Clear 9 1016 84 0 4.89 286.087 03:23 18.09.2019
1738 Clear 9 1015 83 0 4.89 286.087 02:39 18.09.2019
1739 Clear 9 1015 78 0 5.2 282.311 01:34 18.09.2019
1740 Clear 10 1014 77 0 5.2 282.311 00:50 18.09.2019
1741 Clear 10 1014 76 0 5.8 291.158 00:25 18.09.2019
1742 Clear 10 1014 75 0 5.8 291.158 23:46 17.09.2019
1743 Clear 10 1014 73 0 0.89 152 23:23 17.09.2019
1744 Clear 10 1013 84 0 5.8 291.158 22:44 17.09.2019
1745 Clear 10 1013 84 0 5.8 291.158 22:25 17.09.2019
1746 Clear 11 1013 74 0 5.8 291.158 21:56 17.09.2019
1747 Clear 11 1013 70 0 5.8 291.158 21:37 17.09.2019
1748 Rain 11 1013 71 0 5.63 292.693 21:19 17.09.2019
1749 Rain 11 1013 71 0 5.63 292.693 21:19 17.09.2019
1750 Clouds 11 1012 69 0 5.44 290.626 20:59 17.09.2019
1751 Clouds 11 1012 71 0 5.44 290.626 20:41 17.09.2019
1752 Clouds 11 1012 70 0 5.44 290.626 20:22 17.09.2019
1753 Clouds 12 1012 71 0 5.44 290.626 19:59 17.09.2019
1754 Clouds 12 1011 72 0 5.44 290.626 19:39 17.09.2019
1755 Clouds 11 1011 72 0 5.44 290.626 19:39 17.09.2019
1756 Clouds 12 1011 77 0 5.44 290.626 19:20 17.09.2019
1757 Clouds 12 1011 81 0 5.44 290.626 18:59 17.09.2019
1758 Clouds 12 1011 81 0 5.44 290.626 18:41 17.09.2019
1759 Rain 13 1016 62 0 3.13 207 18:21 17.09.2019
1760 Rain 14 1011 61 0 9.08 300.254 17:47 17.09.2019
1761 Rain 14 1010 58 0 9.08 300.254 17:21 17.09.2019
1762 Rain 14 1015 78 0 2.68 138 16:59 17.09.2019
1763 Rain 15 1012 62 0 4.02 0 16:41 17.09.2019
1764 Rain 15 1009 63 0 9.08 300.254 16:22 17.09.2019
1765 Rain 14 1010 83 0 9.08 300.254 15:55 17.09.2019
1766 Rain 14 1010 83 0 9.08 300.254 15:55 17.09.2019
1767 Rain 15 1009 61 0 9.08 300.254 15:37 17.09.2019
1768 Rain 15 1009 61 0 7.6 281.464 15:18 17.09.2019
1769 Rain 15 1009 66 0 7.6 281.464 14:55 17.09.2019
1770 Rain 15 1009 74 0 7.6 281.464 14:55 17.09.2019
1771 Rain 15 1010 78 0 7.6 281.464 14:37 17.09.2019
1772 Rain 15 1010 79 0 7.6 281.464 14:18 17.09.2019
1773 Rain 15 1010 79 0 7.6 281.464 14:18 17.09.2019
1774 Rain 15 1010 72 0 7.6 281.464 13:41 17.09.2019
1775 Rain 15 1011 77 0 7.45 282.469 13:23 17.09.2019
1776 Rain 15 1011 65 0 7.45 282.469 12:55 17.09.2019
1777 Rain 15 1010 52 0 7.45 282.469 12:37 17.09.2019
1778 Clouds 15 1010 53 0 7.11 269.758 12:18 17.09.2019
1779 Clouds 15 1016 68 0 2.24 144 11:41 17.09.2019
1780 Clouds 15 1016 71 0 2.24 154 11:22 17.09.2019
1781 Clouds 14 1012 68 0 1.34 206 10:43 17.09.2019
1782 Clouds 14 1017 76 0 3.13 122 10:24 17.09.2019
1783 Clouds 13 1012 71 0 1.34 183 09:59 17.09.2019
1784 Clouds 13 1011 74 0 7.11 269.758 09:41 17.09.2019
1785 Clear 13 1011 77 0 4.66 261.611 09:21 17.09.2019
1786 Clear 11 1013 79 0 0.89 87 08:49 17.09.2019
1787 Clouds 11 1011 90 0 4.74 261.039 08:30 17.09.2019
1788 Clouds 10 1012 92 0 4.74 261.039 07:58 17.09.2019
1789 Clouds 10 1012 95 0 4.74 261.039 07:39 17.09.2019
1790 Clouds 10 1012 95 0 4.74 261.039 07:39 17.09.2019
1791 Clouds 10 1012 96 0 4.74 261.039 07:19 17.09.2019
1792 Clouds 10 1012 97 0 4.74 261.039 06:45 17.09.2019
1793 Clear 10 1017 96 0 0.45 121 06:20 17.09.2019
1794 Clear 10 1012 97 0 4.12 262.177 05:44 17.09.2019
1795 Clear 10 1014 84 0 0.45 67 04:29 17.09.2019
1796 Clear 10 1014 84 0 0.45 67 04:29 17.09.2019
1797 Clouds 10 1015 84 0 0.45 56 02:57 17.09.2019
1798 Clouds 10 1013 96 0 2.82 256.087 02:38 17.09.2019
1799 Clouds 10 1013 96 0 2.82 256.087 02:38 17.09.2019
1800 Clouds 11 1013 93 0 3.07 257.471 01:24 17.09.2019
1801 Clouds 12 1013 93 0 3.07 257.471 00:40 17.09.2019
1802 Clouds 12 1013 92 0 2.63 272.791 23:40 16.09.2019
1803 Clouds 12 1013 91 0 2.63 272.791 23:19 16.09.2019
1804 Clouds 12 1013 91 0 2.63 272.791 22:56 16.09.2019
1805 Clouds 12 1013 90 0 2.63 272.791 22:37 16.09.2019
1806 Clouds 12 1013 90 0 2.63 272.791 22:19 16.09.2019
1807 Clouds 12 1018 94 0 0.45 112 21:55 16.09.2019
1808 Clouds 12 1018 93 0 0.45 115 21:36 16.09.2019
1809 Rain 13 1019 93 0 0.45 103 21:18 16.09.2019
1810 Clouds 13 1013 83 0 3.15 264.988 20:40 16.09.2019
1811 Clouds 13 1013 84 0 3.15 264.988 20:21 16.09.2019
1812 Clouds 13 1013 81 0 3.15 264.988 19:57 16.09.2019
1813 Clouds 14 1013 80 0 3.15 264.988 19:39 16.09.2019
1814 Clouds 14 1013 78 0 3.15 264.988 19:19 16.09.2019
1815 Clouds 14 1013 76 0 3.15 264.988 18:47 16.09.2019
1816 Clouds 14 1013 75 0 3.15 264.988 18:28 16.09.2019
1817 Clouds 14 1013 72 0 3.56 269.855 17:58 16.09.2019
1818 Clouds 14 1013 70 0 3.56 269.855 17:39 16.09.2019
1819 Clouds 14 1013 68 0 3.56 269.855 17:21 16.09.2019
1820 Clouds 14 1013 68 0 3.56 269.855 17:21 16.09.2019
1821 Clouds 14 1013 71 0 3.56 269.855 16:55 16.09.2019
1822 Clouds 14 1013 70 0 3.56 269.855 16:37 16.09.2019
1823 Clouds 14 1013 67 0 3.56 269.855 16:18 16.09.2019
1824 Clouds 14 1013 72 0 3.56 269.855 15:55 16.09.2019
1825 Clouds 14 1018 92 0 3.56 269.855 15:37 16.09.2019
1826 Clouds 14 1018 92 0 3.56 269.855 15:37 16.09.2019
1827 Clouds 14 1013 76 0 3.74 259.216 15:18 16.09.2019
1828 Clouds 14 1014 76 0 3.74 259.216 14:42 16.09.2019
1829 Clouds 14 1014 79 0 3.74 259.216 14:22 16.09.2019
1830 Clouds 14 1014 82 0 3.74 259.216 13:57 16.09.2019
1831 Clouds 14 1014 83 0 3.74 259.216 13:38 16.09.2019
1832 Clouds 14 1015 82 0 4.4 270.351 13:20 16.09.2019
1833 Clouds 14 1017 79 0 2.68 0 12:43 16.09.2019
1834 Clouds 14 1015 79 0 3.62 259.94 12:24 16.09.2019
1835 Clouds 14 1015 79 0 3.62 259.94 11:55 16.09.2019
1836 Clouds 13 1015 79 0 3.62 259.94 11:55 16.09.2019
1837 Clouds 13 1020 88 0 0.45 95 11:37 16.09.2019
1838 Clouds 13 1020 87 0 0.89 144 11:37 16.09.2019
1839 Clouds 13 1020 89 0 0.89 121 11:19 16.09.2019
1840 Clouds 13 1015 86 0 3.62 259.94 10:38 16.09.2019
1841 Clouds 13 1015 88 0 3.62 259.94 10:19 16.09.2019
1842 Clouds 13 1021 89 0 0.89 98 09:57 16.09.2019
1843 Clouds 13 1020 90 0 0.45 101 09:38 16.09.2019
1844 Rain 13 1015 90 0 3.55 265.569 09:19 16.09.2019
1845 Rain 13 1020 91 0 3.55 265.569 08:44 16.09.2019
1846 Rain 13 1015 92 0 3.25 264.621 08:25 16.09.2019
1847 Rain 13 1015 93 0 3.25 264.621 07:56 16.09.2019
1848 Rain 13 1020 86 0 0.45 162 07:56 16.09.2019
1849 Rain 13 1015 94 0 3.25 264.621 07:37 16.09.2019
1850 Rain 13 1015 94 0 3.25 264.621 07:18 16.09.2019
1851 Rain 14 1015 94 0 3.25 264.621 06:44 16.09.2019
1852 Clouds 14 1015 92 0 3.29 274.272 06:26 16.09.2019
1853 Clouds 14 1015 91 0 3.29 274.272 05:46 16.09.2019
1854 Clouds 14 1015 87 0 3.29 274.272 05:26 16.09.2019
1855 Clouds 14 1015 79 0 3.29 274.272 04:33 16.09.2019
1856 Clouds 15 1020 84 0 0.45 182 01:57 16.09.2019
1857 Clouds 16 1015 79 0 2.87 276.442 00:44 16.09.2019
1858 Clouds 16 1015 80 0 2.87 276.442 00:25 16.09.2019
1859 Clouds 16 1015 80 0 2.87 276.442 00:25 16.09.2019
1860 Rain 17 1020 79 0 1.34 217 23:42 15.09.2019
1861 Rain 17 1015 83 0 3.87 298.616 23:21 15.09.2019
1862 Rain 17 1019 66 0 1.34 205 22:56 15.09.2019
1863 Rain 17 1014 82 0 3.87 298.616 22:36 15.09.2019
1864 Rain 17 1014 77 0 3.87 298.616 22:18 15.09.2019
1865 Rain 18 1014 77 0 3.87 298.616 21:55 15.09.2019
1866 Rain 18 1014 74 0 3.87 298.616 21:36 15.09.2019
1867 Rain 18 1014 74 0 3.87 298.616 21:36 15.09.2019
1868 Clouds 19 1014 67 0 4.48 290.602 21:18 15.09.2019
1869 Clouds 19 1019 35 0 0.89 127 20:42 15.09.2019
1870 Clouds 20 1019 34 0 0.89 153 20:24 15.09.2019
1871 Clouds 19 1017 70 0 2.68 0 19:46 15.09.2019
1872 Clouds 21 1016 60 0 2.24 0 19:26 15.09.2019
1873 Clouds 18 1019 73 0 4.15 292.903 18:55 15.09.2019
1874 Clouds 24 1013 25 0 4.15 292.903 18:36 15.09.2019
1875 Clouds 23 1016 35 0 2.68 0 18:18 15.09.2019
1876 Clouds 24 1015 32 0 1.34 3 17:41 15.09.2019
1877 Clouds 24 1019 26 0 1.34 83 17:21 15.09.2019
1878 Clouds 24 1019 28 0 0.89 135 16:56 15.09.2019
1879 Clouds 24 1015 28 0 1.79 312 16:38 15.09.2019
1880 Clouds 24 1019 27 0 1.34 159 16:20 15.09.2019
1881 Clouds 24 1020 28 0 0.89 141 15:41 15.09.2019
1882 Clouds 24 1020 28 0 1.34 152 15:21 15.09.2019
1883 Clouds 24 1016 31 0 1.79 145 14:59 15.09.2019
1884 Clouds 24 1017 30 0 0.89 331 14:41 15.09.2019
1885 Clouds 23 1021 32 0 1.34 160 14:23 15.09.2019
1886 Clouds 23 1021 35 0 1.34 207 13:48 15.09.2019
1887 Clouds 23 1015 24 0 5.98 262.007 13:26 15.09.2019
1888 Clouds 22 1015 27 0 5.98 262.007 13:00 15.09.2019
1889 Clouds 22 1015 27 0 5.98 262.007 12:40 15.09.2019
1890 Clouds 22 1015 27 0 5.98 262.007 12:40 15.09.2019
1891 Clouds 21 1022 38 0 1.34 158 12:22 15.09.2019
1892 Clouds 20 1022 43 0 2.24 209 11:54 15.09.2019
1893 Clouds 20 1018 42 0 1.34 82 11:36 15.09.2019
1894 Clouds 20 1018 45 0 0.89 100 11:18 15.09.2019
1895 Clouds 19 1016 34 0 5.56 256.957 10:41 15.09.2019
1896 Clouds 17 1018 54 0 1.34 105 10:22 15.09.2019
1897 Clouds 16 1017 55 0 5.56 256.957 09:57 15.09.2019
1898 Clouds 16 1017 55 0 5.56 256.957 09:36 15.09.2019
1899 Clouds 14 1019 70 0 0.45 85 09:18 15.09.2019
1900 Clouds 12 1023 83 0 0.89 65 08:41 15.09.2019
1901 Clouds 10 1018 81 0 3.46 241.722 08:20 15.09.2019
1902 Clouds 9 1020 73 0 0.45 225 07:47 15.09.2019
1903 Clouds 9 1020 74 0 0.45 130 06:59 15.09.2019
1904 Clouds 9 1020 74 0 0.45 130 06:59 15.09.2019
1905 Clouds 7 1018 90 0 3.46 241.722 06:31 15.09.2019
1906 Clouds 8 1021 88 0 2.16 190.174 03:24 15.09.2019
1907 Clouds 8 1021 85 0 2.16 190.174 02:23 15.09.2019
1908 Clouds 8 1022 85 0 2.16 190.174 01:38 15.09.2019
1909 Clouds 8 1022 83 0 2.41 187.417 00:58 15.09.2019
1910 Clouds 9 1023 82 0 2.41 187.417 00:39 15.09.2019
1911 Clouds 9 1023 80 0 1.61 188.854 00:19 15.09.2019
1912 Clouds 9 1024 80 0 1.61 188.854 23:57 14.09.2019
1913 Clouds 9 1024 80 0 1.61 188.854 23:39 14.09.2019
1914 Clouds 9 1024 80 0 1.61 188.854 23:19 14.09.2019
1915 Clouds 10 1024 73 0 1.61 188.854 22:58 14.09.2019
1916 Clouds 10 1024 73 0 1.61 188.854 22:38 14.09.2019
1917 Clouds 10 1024 75 0 1.61 188.854 22:19 14.09.2019
1918 Clouds 12 1025 70 0 1.61 188.854 21:40 14.09.2019
1919 Clouds 12 1025 71 0 0.35 119.927 21:21 14.09.2019
1920 Clouds 13 1025 67 0 0.35 119.927 20:59 14.09.2019
1921 Clouds 13 1025 67 0 0.35 119.927 20:59 14.09.2019
1922 Clouds 13 1025 66 0 0.79 86.881 20:40 14.09.2019
1923 Clouds 14 1025 61 0 0.79 86.881 20:22 14.09.2019
1924 Clouds 14 1025 54 0 0.79 86.881 19:51 14.09.2019
1925 Clouds 16 1025 47 0 0.79 86.881 19:23 14.09.2019
1926 Clouds 17 1030 49 0 0.79 86.881 18:59 14.09.2019
1927 Clouds 19 1025 30 0 0.79 86.881 18:40 14.09.2019
1928 Clouds 19 1028 43 0 0.45 145 18:21 14.09.2019
1929 Clouds 19 1031 39 0 0.45 225 17:58 14.09.2019
1930 Clouds 19 1029 38 0 0.42 315.766 17:39 14.09.2019
1931 Clouds 19 1030 38 0 0.42 315.766 17:21 14.09.2019
1932 Clouds 20 1030 36 0 0.45 0 16:43 14.09.2019
1933 Clouds 20 1032 41 0 0.45 205 16:21 14.09.2019
1934 Clouds 20 1032 40 0 0.45 193 15:43 14.09.2019
1935 Clouds 19 1031 40 0 0.45 63 15:24 14.09.2019
1936 Clouds 19 1033 42 0 0.45 200 14:59 14.09.2019
1937 Clouds 19 1033 43 0 0.7 352.794 14:40 14.09.2019
1938 Clouds 19 1033 45 0 0.45 241 14:19 14.09.2019
1939 Clouds 20 1028 36 0 0.7 352.794 13:47 14.09.2019
1940 Clouds 20 1034 44 0 0.86 310.76 13:22 14.09.2019
1941 Clouds 20 1034 42 0 0.45 242 13:22 14.09.2019
1942 Clouds 18 1034 50 0 0.89 250 12:48 14.09.2019
1943 Clouds 17 1035 53 0 1.16 309.894 12:26 14.09.2019
1944 Clouds 16 1035 57 0 0.45 193 11:43 14.09.2019
1945 Clouds 16 1035 55 0 0.45 210 11:21 14.09.2019
1946 Clouds 16 1034 64 0 0.45 237 10:58 14.09.2019
1947 Clouds 16 1034 68 0 1.16 309.894 10:58 14.09.2019
1948 Clouds 16 1030 40 0 1.16 309.894 10:37 14.09.2019
1949 Clouds 14 1034 77 0 1.16 309.894 10:18 14.09.2019
1950 Clouds 14 1030 59 0 1.16 309.894 09:56 14.09.2019
1951 Clouds 13 1030 69 0 1.16 309.894 09:38 14.09.2019
1952 Clear 12 1030 75 0 0.74 257.22 09:18 14.09.2019
1953 Clear 10 1030 90 0 0.91 278.228 08:44 14.09.2019
1954 Clear 9 1033 84 0 0.45 0 08:23 14.09.2019
1955 Clear 8 1030 94 0 0.91 278.228 07:45 14.09.2019
1956 Clear 7 1035 92 0 0.91 278.228 07:27 14.09.2019
1957 Clear 7 1030 94 0 0.91 278.228 06:39 14.09.2019
1958 Clear 7 1030 95 0 1.13 313.815 06:18 14.09.2019
1959 Clear 8 1030 92 0 1.13 313.815 04:55 14.09.2019
1960 Clear 10 1035 84 0 1.13 313.815 03:38 14.09.2019
1961 Clouds 10 1030 89 0 1.67 325.444 02:52 14.09.2019
1962 Clouds 10 1030 84 0 1.67 325.444 01:47 14.09.2019
1963 Clouds 11 1030 82 0 1.77 319.672 01:21 14.09.2019
1964 Clouds 11 1030 79 0 1.77 319.672 00:57 14.09.2019
1965 Clouds 12 1029 77 0 1.77 319.672 00:37 14.09.2019
1966 Clouds 12 1029 73 0 2.71 329.246 00:19 14.09.2019
1967 Clouds 13 1029 67 0 2.71 329.246 23:38 13.09.2019
1968 Clouds 13 1029 64 0 2.71 329.246 23:19 13.09.2019
1969 Clouds 13 1029 64 0 2.71 329.246 23:19 13.09.2019
1970 Clouds 14 1029 63 0 2.71 329.246 22:56 13.09.2019
1971 Clouds 14 1029 61 0 2.71 329.246 22:38 13.09.2019
1972 Clouds 14 1029 61 0 2.71 329.246 22:38 13.09.2019
1973 Clouds 15 1028 58 0 2.71 329.246 22:19 13.09.2019
1974 Clouds 16 1028 55 0 2.71 329.246 21:41 13.09.2019
1975 Clouds 16 1028 55 0 2.68 334.81 21:20 13.09.2019
1976 Clouds 17 1028 52 0 2.68 334.81 20:59 13.09.2019
1977 Clouds 17 1032 63 0 0.45 210 20:40 13.09.2019
1978 Clouds 17 1027 50 0 2.67 334.923 20:21 13.09.2019
1979 Clouds 17 1027 50 0 2.67 334.923 19:56 13.09.2019
1980 Clouds 17 1027 50 0 2.67 334.923 19:37 13.09.2019
1981 Clouds 17 1026 47 0 2.67 334.923 19:37 13.09.2019
1982 Clouds 19 1026 44 0 2.67 334.923 19:19 13.09.2019
1983 Clouds 19 1026 44 0 2.67 334.923 18:55 13.09.2019
1984 Clouds 20 1029 49 0 1.79 0 18:36 13.09.2019
1985 Clouds 20 1026 44 0 4.27 335.336 18:18 13.09.2019
1986 Clouds 21 1030 51 0 1.34 215 17:39 13.09.2019
1987 Clouds 21 1030 52 0 2.24 191 17:19 13.09.2019
1988 Clouds 21 1028 48 0 2.68 0 16:42 13.09.2019
1989 Clouds 21 1030 62 0 1.34 233 16:21 13.09.2019
1990 Clouds 22 1030 64 0 1.79 204 15:58 13.09.2019
1991 Clouds 22 1030 67 0 1.34 186 15:39 13.09.2019
1992 Rain 22 1025 45 0 5.06 337.198 15:20 13.09.2019
1993 Rain 22 1025 52 0 5.06 337.198 14:44 13.09.2019
1994 Rain 22 1024 53 0 5.06 337.198 14:22 13.09.2019
1995 Rain 21 1024 56 0 5.06 337.198 13:56 13.09.2019
1996 Rain 21 1029 68 0 1.34 173 13:37 13.09.2019
1997 Rain 21 1029 67 0 1.79 204 13:18 13.09.2019
1998 Rain 22 1023 59 0 4.16 323.873 12:41 13.09.2019
1999 Rain 21 1023 65 0 6.16 271.962 12:23 13.09.2019
2000 Rain 21 1029 74 0 1.79 153 11:56 13.09.2019
2001 Rain 20 1023 67 0 6.16 271.962 11:20 13.09.2019
2002 Rain 20 1023 66 0 6.16 271.962 10:41 13.09.2019
2003 Rain 20 1028 75 0 2.24 105 10:20 13.09.2019
2004 Rain 19 1023 72 0 6.16 271.962 09:47 13.09.2019
2005 Rain 19 1022 72 0 6.16 271.962 09:25 13.09.2019
2006 Clouds 18 1028 78 0 2.24 97 08:59 13.09.2019
2007 Clouds 18 1022 71 0 5.09 251.248 08:41 13.09.2019
2008 Clouds 18 1022 71 0 5.09 251.248 08:41 13.09.2019
2009 Clouds 17 1024 74 0 0.89 100 08:21 13.09.2019
2010 Clouds 17 1022 72 0 5.09 251.248 07:56 13.09.2019
2011 Clouds 17 1022 72 0 5.09 251.248 07:38 13.09.2019
2012 Clouds 16 1022 76 0 5.09 251.248 06:49 13.09.2019
2013 Clear 14 1026 90 0 3.68 243.984 05:50 13.09.2019
2014 Clear 14 1026 90 0 3.68 243.984 05:26 13.09.2019
2015 Clear 15 1022 80 0 3.68 243.984 03:42 13.09.2019
2016 Clouds 16 1022 80 0 3.35 243.305 02:54 13.09.2019
2017 Clouds 15 1022 80 0 3.35 243.305 02:19 13.09.2019
2018 Clouds 15 1028 82 0 1.34 61 01:35 13.09.2019
2019 Clouds 15 1025 78 0 0.45 0 01:35 13.09.2019
2020 Clouds 15 1022 90 0 3.54 244.888 00:59 13.09.2019
2021 Clouds 15 1022 88 0 3.54 244.888 00:33 13.09.2019
2022 Clouds 16 1028 78 0 0.45 84 23:46 12.09.2019
2023 Clouds 16 1022 85 0 3.23 244.427 23:23 12.09.2019
2024 Clouds 16 1022 82 0 3.23 244.427 22:56 12.09.2019
2025 Clouds 16 1022 82 0 3.23 244.427 22:38 12.09.2019
2026 Clouds 17 1025 72 0 3.23 244.427 22:20 12.09.2019
2027 Clouds 17 1022 80 0 3.23 244.427 21:55 12.09.2019
2028 Clouds 18 1022 81 0 3.23 244.427 21:36 12.09.2019
2029 Rain 18 1022 80 0 2.19 255.824 21:18 12.09.2019
2030 Clouds 19 1022 72 0 1.78 255.033 20:43 12.09.2019
2031 Clouds 19 1022 72 0 1.78 255.033 20:22 12.09.2019
2032 Clouds 20 1022 60 0 1.78 255.033 19:57 12.09.2019
2033 Clouds 20 1022 60 0 1.78 255.033 19:38 12.09.2019
2034 Clouds 20 1021 58 0 1.78 255.033 19:38 12.09.2019
2035 Clouds 21 1021 54 0 1.78 255.033 19:19 12.09.2019
2036 Clouds 21 1021 54 0 1.78 255.033 19:19 12.09.2019
2037 Clouds 22 1027 57 0 1.78 255.033 18:54 12.09.2019
2038 Clouds 22 1027 56 0 0.45 77 18:36 12.09.2019
2039 Rain 22 1027 58 0 4.24 268.904 18:18 12.09.2019
2040 Rain 23 1027 57 0 1.79 48 17:40 12.09.2019
2041 Rain 23 1027 57 0 1.79 101 17:20 12.09.2019
2042 Rain 23 1027 57 0 1.79 101 17:20 12.09.2019
2043 Rain 23 1027 57 0 4.24 268.904 16:56 12.09.2019
2044 Rain 23 1027 61 0 1.34 43 16:37 12.09.2019
2045 Rain 23 1027 60 0 0.45 161 16:19 12.09.2019
2046 Rain 23 1028 65 0 2.24 176 15:41 12.09.2019
2047 Clouds 23 1022 47 0 4.41 263.321 15:23 12.09.2019
2048 Clouds 23 1022 47 0 4.41 263.321 15:23 12.09.2019
2049 Clouds 23 1022 50 0 4.41 263.321 14:46 12.09.2019
2050 Clouds 22 1028 67 0 0.89 26 14:22 12.09.2019
2051 Clouds 22 1022 53 0 4.41 263.321 13:58 12.09.2019
2052 Clouds 21 1022 58 0 4.41 263.321 13:38 12.09.2019
2053 Clouds 22 1022 59 0 3.98 265.385 13:19 12.09.2019
2054 Clouds 21 1022 59 0 3.98 265.385 12:45 12.09.2019
2055 Clouds 20 1028 74 0 0.89 108 12:19 12.09.2019
2056 Clouds 20 1028 74 0 0.89 108 12:19 12.09.2019
2057 Clouds 20 1022 66 0 3.94 263.259 11:57 12.09.2019
2058 Clouds 20 1022 67 0 3.94 263.259 11:39 12.09.2019
2059 Clouds 20 1022 71 0 3.94 263.259 11:19 12.09.2019
2060 Clouds 19 1027 74 0 2.68 127 10:45 12.09.2019
2061 Clouds 19 1022 70 0 3.94 263.259 10:26 12.09.2019
2062 Clouds 18 1021 69 0 3.94 263.259 09:56 12.09.2019
2063 Clouds 18 1021 74 0 3.94 263.259 09:36 12.09.2019
2064 Clouds 17 1021 78 0 3.63 258.944 09:18 12.09.2019
2065 Clouds 16 1027 85 0 2.68 96 08:41 12.09.2019
2066 Clouds 16 1021 79 0 3.45 251.586 08:22 12.09.2019
2067 Clouds 15 1020 82 0 3.45 251.586 07:45 12.09.2019
2068 Clouds 15 1026 86 0 0.89 48 07:20 12.09.2019
2069 Clouds 15 1020 85 0 3.45 251.586 06:51 12.09.2019
2070 Clouds 15 1020 84 0 3.79 245.864 06:29 12.09.2019
2071 Clouds 15 1019 83 0 3.79 245.864 05:52 12.09.2019
2072 Clouds 15 1019 83 0 3.79 245.864 05:34 12.09.2019
2073 Clouds 15 1019 82 0 3.79 245.864 04:41 12.09.2019
2074 Clouds 15 1019 84 0 4.83 255.97 03:18 12.09.2019
2075 Clouds 16 1018 85 0 4.45 250.954 01:38 12.09.2019
2076 Clouds 16 1018 83 0 4.45 250.954 01:19 12.09.2019
2077 Clouds 16 1018 87 0 4.45 250.954 00:45 12.09.2019
2078 Clouds 16 1018 85 0 4.31 245.947 00:25 12.09.2019
2079 Clouds 16 1018 79 0 4.31 245.947 23:43 11.09.2019
2080 Clouds 16 1018 80 0 4.31 245.947 23:24 11.09.2019
2081 Clouds 16 1017 81 0 4.31 245.947 22:57 11.09.2019
2082 Clouds 16 1017 83 0 4.31 245.947 22:38 11.09.2019
2083 Clouds 16 1017 83 0 4.31 245.947 22:19 11.09.2019
2084 Clouds 16 1017 63 0 4.31 245.947 21:57 11.09.2019
2085 Clouds 16 1022 59 0 0.89 79 21:38 11.09.2019
2086 Clouds 16 1022 59 0 0.89 79 21:38 11.09.2019
2087 Clouds 17 1016 44 0 2.95 220.203 21:19 11.09.2019
2088 Clouds 17 1016 44 0 2.95 220.203 20:54 11.09.2019
2089 Clouds 18 1016 44 0 2.58 239.66 20:36 11.09.2019
2090 Clouds 18 1016 41 0 2.58 239.66 20:18 11.09.2019
2091 Clouds 19 1022 50 0 0.45 55 19:54 11.09.2019
2092 Clouds 19 1022 50 0 0.45 55 19:54 11.09.2019
2093 Clouds 19 1019 44 0 0.45 0 19:36 11.09.2019
2094 Clouds 20 1018 45 0 0.45 117 19:18 11.09.2019
2095 Clouds 20 1019 47 0 2.24 215 18:42 11.09.2019
2096 Clouds 21 1022 42 0 2.68 92 18:22 11.09.2019
2097 Clouds 22 1015 34 0 3.87 225.649 17:58 11.09.2019
2098 Clouds 22 1015 34 0 3.87 225.649 17:58 11.09.2019
2099 Clouds 22 1015 30 0 3.87 225.649 17:39 11.09.2019
2100 Clouds 22 1018 38 0 1.34 124 17:20 11.09.2019
2101 Clouds 23 1013 30 0 3.87 225.649 16:54 11.09.2019
2102 Clouds 22 1018 37 0 1.34 199 16:36 11.09.2019
2103 Clouds 22 1018 37 0 0.89 94 16:18 11.09.2019
2104 Clouds 22 1022 42 0 3.58 79 15:45 11.09.2019
2105 Clouds 22 1022 40 0 2.68 32 15:22 11.09.2019
2106 Clouds 22 1022 41 0 3.13 83 14:57 11.09.2019
2107 Clouds 22 1022 44 0 2.68 109 14:37 11.09.2019
2108 Clouds 22 1022 42 0 1.79 96 14:18 11.09.2019
2109 Clouds 22 1022 44 0 2.68 60 13:54 11.09.2019
2110 Clouds 22 1022 44 0 2.68 60 13:54 11.09.2019
2111 Clouds 22 1016 31 0 4.49 217.276 13:36 11.09.2019
2112 Clouds 22 1017 34 0 4.03 223.279 13:18 11.09.2019
2113 Clouds 21 1023 46 0 2.24 101 12:40 11.09.2019
2114 Clear 20 1018 47 0 1.34 100 12:21 11.09.2019
2115 -273 0 0 0 0 0 11:55 11.09.2019
2116 Clear 19 1023 51 0 2.24 131 11:36 11.09.2019
2117 Clear 19 1023 49 0 2.24 72 11:36 11.09.2019
2118 Clear 18 1019 58 0 1.34 126 11:18 11.09.2019
2119 Clear 17 1023 59 0 0.89 13 10:40 11.09.2019
2120 Clear 16 1023 64 0 1.34 101 10:21 11.09.2019
2121 Clear 15 1017 62 0 3.6 206.693 09:41 11.09.2019
2122 Clear 13 1017 72 0 2.44 201.321 09:20 11.09.2019
2123 Clear 11 1018 88 0 2.44 201.321 08:59 11.09.2019
2124 Clear 10 1018 88 0 2.26 201.103 08:39 11.09.2019
2125 Clear 8 1018 82 0 2.26 201.103 08:21 11.09.2019
2126 Clear 8 1017 94 0 2.26 201.103 07:46 11.09.2019
2127 Clear 7 1020 83 0 2.26 201.103 07:23 11.09.2019
2128 Clear 7 1017 95 0 2.26 201.103 06:54 11.09.2019
2129 Clear 7 1017 95 0 2.26 201.103 06:35 11.09.2019
2130 Clear 7 1017 94 0 1.79 219.801 05:49 11.09.2019
2131 Clear 7 1017 94 0 1.79 219.801 05:29 11.09.2019
2132 Clear 7 1017 95 0 1.79 219.801 04:51 11.09.2019
2133 Clear 7 1016 92 0 1.79 219.801 03:40 11.09.2019
2134 Clouds 8 1016 92 0 2.01 253.609 02:58 11.09.2019
2135 Clouds 8 1016 89 0 2.01 253.609 02:28 11.09.2019
2136 Clear 9 1016 86 0 2.12 257.052 01:21 11.09.2019
2137 Clear 10 1015 88 0 2.12 257.052 00:31 11.09.2019
2138 Clear 9 1015 87 0 2.54 238.831 23:58 10.09.2019
2139 Clear 10 1015 87 0 2.54 238.831 23:39 10.09.2019
2140 Clear 10 1015 89 0 2.54 238.831 23:21 10.09.2019
2141 Clear 10 1015 87 0 2.54 238.831 22:54 10.09.2019
2142 Clear 11 1015 84 0 2.54 238.831 22:36 10.09.2019
2143 Clear 11 1014 82 0 2.54 238.831 22:18 10.09.2019
2144 Clear 12 1016 63 0 2.54 238.831 21:54 10.09.2019
2145 Clear 12 1014 78 0 2.54 238.831 21:36 10.09.2019
2146 Clear 12 1014 77 0 2.75 244.479 21:18 10.09.2019
2147 Clear 14 1019 72 0 2.75 244.479 20:54 10.09.2019
2148 Clouds 14 1014 62 0 2.85 247.335 20:36 10.09.2019
2149 Clouds 15 1014 58 0 2.85 247.335 20:18 10.09.2019
2150 Clouds 16 1013 56 0 2.85 247.335 19:54 10.09.2019
2151 Clouds 17 1013 50 0 2.85 247.335 19:36 10.09.2019
2152 Clouds 17 1018 47 0 0.45 118 19:18 10.09.2019
2153 Clouds 18 1015 48 0 0.89 86 18:42 10.09.2019
2154 Clear 18 1015 47 0 0.89 69 18:22 10.09.2019
2155 Clear 19 1017 46 0 4.75 265.971 17:56 10.09.2019
2156 Clear 19 1018 42 0 1.34 140 17:38 10.09.2019
2157 Clear 19 1017 45 0 4.75 265.971 17:19 10.09.2019
2158 Clear 19 1014 43 0 0.89 243 16:56 10.09.2019
2159 Clear 19 1017 43 0 1.79 180 16:37 10.09.2019
2160 Clear 20 1014 43 0 1.34 44 16:19 10.09.2019
2161 Clear 20 1013 43 0 1.79 115 15:43 10.09.2019
2162 Clear 19 1017 42 0 3.58 94 15:22 10.09.2019
2163 Clear 19 1013 40 0 1.34 298 15:22 10.09.2019
2164 Clear 19 1017 42 0 3.58 94 15:22 10.09.2019
2165 Clear 19 1016 47 0 6.03 269.905 14:57 10.09.2019
2166 Clear 19 1011 39 0 6.03 269.905 14:38 10.09.2019
2167 Clear 19 1012 41 0 6.03 269.905 14:19 10.09.2019
2168 Clear 19 1011 40 0 6.03 269.905 13:44 10.09.2019
2169 Clear 19 1011 44 0 6.13 268.644 13:23 10.09.2019
2170 Clear 18 1016 58 0 6.13 268.644 12:52 10.09.2019
2171 Clear 18 1017 59 0 1.79 115 12:28 10.09.2019
2172 Clear 17 1016 62 0 6.26 271.338 11:59 10.09.2019
2173 Clear 17 1016 62 0 6.26 271.338 11:40 10.09.2019
2174 Clear 17 1017 64 0 1.79 157 11:22 10.09.2019
2175 Clear 16 1017 67 0 1.79 107 10:54 10.09.2019
2176 Clear 16 1011 51 0 6.26 271.338 10:36 10.09.2019
2177 Clear 15 1016 74 0 2.24 78 10:18 10.09.2019
2178 Clear 14 1011 81 0 6.26 271.338 09:41 10.09.2019
2179 Clouds 13 1010 84 0 4.99 266.066 09:20 10.09.2019
2180 Clouds 12 1010 89 0 5 265.697 08:47 10.09.2019
2181 Clouds 12 1010 90 0 5 265.697 08:29 10.09.2019
2182 Clouds 11 1010 94 0 5 265.697 07:59 10.09.2019
2183 Clouds 11 1010 94 0 5 265.697 07:41 10.09.2019
2184 Clouds 11 1010 95 0 5 265.697 07:23 10.09.2019
2185 Clouds 11 1009 96 0 5 265.697 06:40 10.09.2019
2186 Clouds 11 1009 96 0 5 265.697 06:40 10.09.2019
2187 Clouds 11 1014 92 0 0.45 217 06:20 10.09.2019
2188 Clouds 11 1013 92 0 0.89 241 04:19 10.09.2019
2189 Rain 12 1013 92 0 0.89 198 02:39 10.09.2019
2190 Rain 12 1013 92 0 4.28 272.545 02:39 10.09.2019
2191 Rain 12 1013 92 0 4.28 272.545 02:39 10.09.2019
2192 Rain 12 1013 92 0 0.89 198 02:39 10.09.2019
2193 Rain 12 1013 92 0 0.89 198 02:39 10.09.2019
2194 Rain 12 1013 93 0 1.79 232 02:20 10.09.2019
2195 Rain 12 1013 92 0 4.28 272.545 01:50 10.09.2019
2196 Rain 13 1013 92 0 0.45 122 01:50 10.09.2019
2197 Rain 13 1013 92 0 3.9 267.695 01:22 10.09.2019
2198 Rain 12 1013 92 0 3.9 267.695 00:36 10.09.2019
2199 Rain 13 1013 92 0 0.89 262 23:59 09.09.2019
2200 Rain 13 1013 92 0 1.79 225 23:40 09.09.2019
2201 Rain 13 1013 92 0 0.89 239 23:18 09.09.2019
2202 Rain 13 1013 92 0 3.01 284.041 22:55 09.09.2019
2203 Rain 13 1013 92 0 3.01 284.041 22:37 09.09.2019
2204 Rain 13 1013 92 0 3.01 284.041 22:19 09.09.2019
2205 Rain 13 1013 92 0 3.01 284.041 21:55 09.09.2019
2206 Rain 13 1013 92 0 3.01 284.041 21:55 09.09.2019
2207 Rain 13 1013 92 0 3.01 284.041 21:37 09.09.2019
2208 Rain 13 1008 96 0 3.01 284.041 21:37 09.09.2019
2209 Rain 13 1013 92 0 2.68 281.31 21:18 09.09.2019
2210 Rain 13 1013 92 0 2.68 281.31 21:18 09.09.2019
2211 Rain 13 1013 92 0 2.68 281.31 20:55 09.09.2019
2212 Rain 13 1013 92 0 4.41 299.759 20:36 09.09.2019
2213 Rain 13 1013 92 0 4.41 299.759 20:18 09.09.2019
2214 Rain 13 1012 92 0 4.41 299.759 19:56 09.09.2019
2215 Rain 13 1012 92 0 0.45 329 19:37 09.09.2019
2216 -273 0 0 0 0 0 19:19 09.09.2019
2217 Rain 13 1012 92 0 4.41 299.759 18:55 09.09.2019
2218 Rain 13 1012 92 0 4.41 299.759 18:37 09.09.2019
2219 Rain 13 1007 92 0 4.23 328.23 18:18 09.09.2019
2220 Rain 14 1012 92 0 4.23 328.23 17:56 09.09.2019
2221 Rain 14 1012 92 0 0.45 308 17:38 09.09.2019
2222 Rain 14 1011 92 0 4.23 328.23 17:20 09.09.2019
2223 Rain 14 1012 92 0 4.23 328.23 16:41 09.09.2019
2224 Rain 14 1012 92 0 4.23 328.23 16:21 09.09.2019
2225 Rain 14 1012 92 0 4.23 328.23 16:21 09.09.2019
2226 Rain 14 1012 92 0 0.45 215 15:57 09.09.2019
2227 Rain 14 1012 92 0 0.45 339 15:39 09.09.2019
2228 Rain 14 1012 92 0 3.8 327.354 15:21 09.09.2019
2229 Rain 14 1012 91 0 3.8 327.354 14:58 09.09.2019
2230 Rain 14 1012 91 0 0.89 297 14:40 09.09.2019
2231 Rain 14 1012 91 0 0.89 297 14:40 09.09.2019
2232 Rain 14 1012 91 0 2.68 289 14:21 09.09.2019
2233 Rain 14 1012 91 0 1.34 317 13:55 09.09.2019
2234 Rain 14 1012 91 0 3.8 327.354 13:37 09.09.2019
2235 Rain 14 1012 91 0 1.34 322 13:18 09.09.2019
2236 Rain 14 1012 91 0 1.34 314 12:54 09.09.2019
2237 Rain 14 1012 91 0 1.34 359 12:36 09.09.2019
2238 Rain 14 1012 90 0 2.24 321 12:18 09.09.2019
2239 Rain 14 1012 86 0 2.68 349 11:43 09.09.2019
2240 Rain 14 1013 85 0 3.35 330.654 11:20 09.09.2019
2241 Rain 14 1013 84 0 1.34 296 10:54 09.09.2019
2242 Rain 14 1013 83 0 1.34 287 10:36 09.09.2019
2243 Rain 14 1013 81 0 0.45 322 10:18 09.09.2019
2244 Rain 14 1013 82 0 0.45 331 09:46 09.09.2019
2245 Rain 14 1013 83 0 0.89 287 09:27 09.09.2019
2246 Rain 13 1013 84 0 0.45 7 08:56 09.09.2019
2247 Rain 13 1013 84 0 0.45 315 08:38 09.09.2019
2248 Rain 13 1013 86 0 0.45 344 08:19 09.09.2019
2249 Rain 13 1014 88 0 0.45 8 07:41 09.09.2019
2250 Rain 13 1014 87 0 0.45 311 07:20 09.09.2019
2251 Rain 13 1014 84 0 0.89 346 06:53 09.09.2019
2252 Clouds 13 1014 83 0 0.45 317 06:27 09.09.2019
2253 Rain 14 1015 82 0 0.45 345 03:21 09.09.2019
2254 Rain 14 1015 82 0 0.45 301 02:42 09.09.2019
2255 Rain 14 1016 83 0 1.01 63.562 01:25 09.09.2019
2256 Clouds 14 1016 79 0 1.52 79.604 00:24 09.09.2019
2257 Clouds 15 1017 77 0 1.52 79.604 23:56 08.09.2019
2258 Clouds 15 1017 77 0 0.45 100 23:56 08.09.2019
2259 Clouds 15 1017 77 0 1.52 79.604 23:38 08.09.2019
2260 Clouds 15 1017 76 0 1.52 79.604 23:19 08.09.2019
2261 Clouds 15 1017 74 0 0.45 117 22:41 08.09.2019
2262 Clouds 15 1012 67 0 1.52 79.604 22:23 08.09.2019
2263 Clouds 15 1012 66 0 1.52 79.604 22:23 08.09.2019
2264 Clouds 15 1012 65 0 1.52 79.604 21:59 08.09.2019
2265 Clouds 16 1012 64 0 1.52 79.604 21:40 08.09.2019
2266 Clouds 16 1017 58 0 1.56 75.58 21:22 08.09.2019
2267 Clouds 16 1017 57 0 1.56 75.58 20:56 08.09.2019
2268 Rain 17 1017 56 0 2.62 84.524 20:37 08.09.2019
2269 Rain 17 1017 56 0 2.62 84.524 20:37 08.09.2019
2270 Rain 17 1017 55 0 0.45 5 20:19 08.09.2019
2271 Rain 17 1017 55 0 2.62 84.524 19:56 08.09.2019
2272 Rain 17 1012 57 0 2.62 84.524 19:36 08.09.2019
2273 Rain 18 1016 53 0 1.34 54 19:18 08.09.2019
2274 Rain 19 1016 50 0 2.62 84.524 18:55 08.09.2019
2275 Rain 19 1016 53 0 0.45 231 18:36 08.09.2019
2276 Clouds 20 1017 46 0 1.34 14 18:18 08.09.2019
2277 Clouds 20 1017 44 0 2.75 44.425 17:38 08.09.2019
2278 Clouds 20 1017 44 0 2.75 44.425 17:38 08.09.2019
2279 Clouds 21 1017 43 0 2.75 44.425 17:19 08.09.2019
2280 Clouds 21 1017 42 0 2.75 44.425 16:58 08.09.2019
2281 Clouds 21 1017 40 0 0.45 5 16:40 08.09.2019
2282 Clouds 21 1017 39 0 0.45 307 16:20 08.09.2019
2283 Clouds 21 1017 39 0 0.45 250 16:20 08.09.2019
2284 Clouds 21 1017 38 0 1.34 2 15:57 08.09.2019
2285 Clouds 21 1017 38 0 2.75 44.425 15:39 08.09.2019
2286 Clouds 22 1017 39 0 0.89 280 15:20 08.09.2019
2287 Clouds 21 1017 41 0 0.45 157 14:41 08.09.2019
2288 Clouds 21 1017 41 0 0.45 298 14:22 08.09.2019
2289 Clouds 21 1017 41 0 0.45 298 14:22 08.09.2019
2290 Clouds 21 1017 39 0 1.34 200 13:58 08.09.2019
2291 Clouds 21 1018 42 0 1.34 22 13:40 08.09.2019
2292 Clouds 21 1018 42 0 1.34 294 13:40 08.09.2019
2293 Clouds 21 1018 43 0 0.89 117 13:22 08.09.2019
2294 Clouds 21 1018 47 0 0.45 11 12:59 08.09.2019
2295 Clouds 20 1018 48 0 1.34 318 12:41 08.09.2019
2296 Clouds 19 1018 49 0 0.89 38 12:22 08.09.2019
2297 Clouds 19 1018 50 0 0.56 204.918 12:22 08.09.2019
2298 Clouds 19 1018 51 0 0.45 320 11:57 08.09.2019
2299 Clouds 19 1018 54 0 0.45 160 11:38 08.09.2019
2300 Clouds 18 1019 55 0 0.89 54 11:19 08.09.2019
2301 Clouds 18 1019 55 0 0.89 54 11:19 08.09.2019
2302 Clouds 19 1018 62 0 0.56 204.918 10:55 08.09.2019
2303 Clouds 17 1018 63 0 0.56 204.918 10:36 08.09.2019
2304 Clouds 17 1018 64 0 0.56 204.918 10:18 08.09.2019
2305 Clouds 15 1013 75 0 0.56 204.918 09:38 08.09.2019
2306 Clouds 14 1013 79 0 0.75 184.113 09:19 08.09.2019
2307 Clouds 12 1016 81 0 0.75 184.113 08:56 08.09.2019
2308 Clouds 13 1018 90 0 0.47 189.24 08:36 08.09.2019
2309 Clouds 12 1013 92 0 0.47 189.24 08:18 08.09.2019
2310 Clouds 11 1018 83 0 0.47 189.24 07:38 08.09.2019
2311 Clouds 12 1018 83 0 0.47 189.24 07:38 08.09.2019
2312 Clouds 11 1018 88 0 0.47 189.24 07:20 08.09.2019
2313 Clouds 11 1018 88 0 0.47 189.24 06:45 08.09.2019
2314 Clouds 12 1018 87 0 1.01 210.224 05:57 08.09.2019
2315 Clouds 12 1018 88 0 1.01 210.224 05:35 08.09.2019
2316 Clouds 12 1018 89 0 1.01 210.224 03:53 08.09.2019
2317 Clouds 12 1018 89 0 1.44 177.536 02:54 08.09.2019
2318 Clouds 12 1018 89 0 1.44 177.536 02:26 08.09.2019
2319 Clouds 12 1018 88 0 1.44 177.536 01:39 08.09.2019
2320 Clouds 12 1018 88 0 1.94 169.898 01:18 08.09.2019
2321 Clouds 13 1018 88 0 1.94 169.898 00:42 08.09.2019
2322 Clouds 13 1018 88 0 1.61 181.171 00:23 08.09.2019
2323 Clouds 13 1019 87 0 1.61 181.171 23:38 07.09.2019
2324 Clouds 13 1019 87 0 1.61 181.171 23:19 07.09.2019
2325 Clouds 13 1019 87 0 1.61 181.171 22:57 07.09.2019
2326 Clouds 14 1018 86 0 1.61 181.171 22:38 07.09.2019
2327 Clouds 14 1018 86 0 1.61 181.171 22:19 07.09.2019
2328 Clouds 14 1018 85 0 1.61 181.171 21:42 07.09.2019
2329 Clouds 14 1018 85 0 2.2 139.328 21:23 07.09.2019
2330 Clouds 14 1018 85 0 2.2 139.328 20:57 07.09.2019
2331 Rain 14 1018 84 0 0.56 94.832 20:37 07.09.2019
2332 Rain 15 1018 84 0 0.56 94.832 20:18 07.09.2019
2333 Rain 15 1018 84 0 0.45 138 19:54 07.09.2019
2334 Rain 15 1018 84 0 0.56 94.832 19:36 07.09.2019
2335 Rain 15 1018 85 0 0.56 94.832 19:18 07.09.2019
2336 Rain 16 1018 85 0 0.45 114 18:54 07.09.2019
2337 Rain 16 1018 82 0 0.56 94.832 18:36 07.09.2019
2338 Rain 16 1018 80 0 0.89 296 18:18 07.09.2019
2339 Rain 17 1018 70 0 0.89 308 17:54 07.09.2019
2340 Rain 17 1018 66 0 3.8 259.609 17:36 07.09.2019
2341 Rain 18 1018 57 0 1.34 334 17:18 07.09.2019
2342 Rain 18 1018 51 0 2.24 286 16:42 07.09.2019
2343 Rain 19 1018 49 0 4.02 300 16:21 07.09.2019
2344 Rain 20 1018 46 0 2.68 294 15:49 07.09.2019
2345 Rain 21 1018 44 0 0.45 248 15:27 07.09.2019
2346 Rain 21 1018 40 0 3.58 313 14:58 07.09.2019
2347 Rain 21 1017 38 0 1.79 307 14:38 07.09.2019
2348 Rain 21 1012 42 0 3.56 272.8 14:20 07.09.2019
2349 Rain 21 1018 48 0 0.45 322 14:19 07.09.2019
2350 Rain 21 1017 35 0 0.89 25 13:59 07.09.2019
2351 Rain 21 1018 34 0 1.34 1 13:41 07.09.2019
2352 Clouds 20 1018 37 0 3.57 253.722 13:23 07.09.2019
2353 Clouds 20 1018 40 0 0.45 16 12:46 07.09.2019
2354 Clouds 19 1017 63 0 2.96 263.331 12:26 07.09.2019
2355 Clouds 18 1018 65 0 2.96 263.331 11:59 07.09.2019
2356 Clouds 18 1018 66 0 2.96 263.331 11:40 07.09.2019
2357 Clouds 17 1018 66 0 0.89 35 11:21 07.09.2019
2358 Clouds 18 1018 44 0 0.89 313 10:41 07.09.2019
2359 Clouds 16 1018 47 0 1.34 301 10:22 07.09.2019
2360 Clouds 16 1018 48 0 2.96 263.331 09:58 07.09.2019
2361 Clouds 16 1018 51 0 2.96 263.331 09:39 07.09.2019
2362 Clouds 13 1018 55 0 1.93 228.048 09:20 07.09.2019
2363 Clouds 12 1018 58 0 2.15 227.645 08:48 07.09.2019
2364 Clouds 12 1018 60 0 2.15 227.645 08:30 07.09.2019
2365 Clouds 11 1018 55 0 2.15 227.645 07:48 07.09.2019
2366 Clouds 10 1018 57 0 2.15 227.645 07:28 07.09.2019
2367 Clouds 10 1018 60 0 2.15 227.645 06:57 07.09.2019
2368 Clouds 10 1018 59 0 2.15 227.645 06:39 07.09.2019
2369 Clouds 9 1018 57 0 1.71 229.781 05:38 07.09.2019
2370 Clouds 9 1018 57 0 1.71 229.781 04:26 07.09.2019
2371 Clouds 10 1018 54 0 1.91 206.364 03:31 07.09.2019
2372 Clouds 10 1018 56 0 1.91 206.364 02:22 07.09.2019
2373 Clouds 10 1019 56 0 1.84 195.903 01:27 07.09.2019
2374 Clouds 11 1019 56 0 1.84 195.903 01:27 07.09.2019
2375 Clouds 11 1019 56 0 1.84 195.903 00:52 07.09.2019
2376 Clouds 11 1019 55 0 2.43 173.738 00:23 07.09.2019
2377 Clouds 11 1019 54 0 2.43 173.738 23:59 06.09.2019
2378 Clouds 11 1019 54 0 2.43 173.738 23:38 06.09.2019
2379 Clouds 11 1019 53 0 2.43 173.738 23:19 06.09.2019
2380 Clouds 12 1019 51 0 2.43 173.738 22:56 06.09.2019
2381 Clouds 12 1020 50 0 2.43 173.738 22:36 06.09.2019
2382 Clouds 13 1020 47 0 2.43 173.738 22:18 06.09.2019
2383 Clouds 13 1020 46 0 2.43 173.738 21:54 06.09.2019
2384 Clouds 13 1020 45 0 2.43 173.738 21:36 06.09.2019
2385 Clouds 13 1020 45 0 2.43 173.738 21:36 06.09.2019
2386 Clouds 14 1020 44 0 1.74 167.894 21:18 06.09.2019
2387 Clouds 15 1020 41 0 1.72 176.665 20:41 06.09.2019
2388 Clouds 16 1020 41 0 1.72 176.665 20:22 06.09.2019
2389 Clouds 16 1020 39 0 1.72 176.665 19:59 06.09.2019
2390 Clouds 17 1018 36 0 0.45 0 19:41 06.09.2019
2391 Clouds 18 1020 34 0 1.72 176.665 19:21 06.09.2019
2392 Clouds 19 1020 33 0 1.79 160 18:56 06.09.2019
2393 Clouds 20 1020 32 0 1.72 176.665 18:37 06.09.2019
2394 Clear 20 1020 32 0 0.45 133 18:19 06.09.2019
2395 Clear 20 1020 27 0 0.89 111 17:40 06.09.2019
2396 Clear 21 1021 26 0 0.45 153 17:20 06.09.2019
2397 Clear 21 1021 25 0 1.34 174 16:56 06.09.2019
2398 Clear 21 1021 25 0 1.34 215 16:38 06.09.2019
2399 Clear 20 1021 26 0 1.34 156 16:18 06.09.2019
2400 Clear 21 1021 25 0 2.68 121 15:41 06.09.2019
2401 Clear 19 1022 34 0 1.79 106 15:22 06.09.2019
2402 Clear 19 1022 34 0 1.79 106 15:22 06.09.2019
2403 Clear 19 1023 38 0 1.79 179 14:47 06.09.2019
2404 Clear 20 1023 29 0 1.34 156 14:19 06.09.2019
2405 Clear 20 1023 29 0 1.34 200 13:44 06.09.2019
2406 Clear 20 1023 30 0 0.45 191 13:24 06.09.2019
2407 Clear 20 1024 33 0 2.68 198 12:59 06.09.2019
2408 Clear 20 1024 33 0 2.68 198 12:59 06.09.2019
2409 Clear 20 1024 37 0 0.45 188 12:37 06.09.2019
2410 Clear 18 1024 38 0 1.79 250 12:18 06.09.2019
2411 Clear 17 1024 43 0 0.45 74 11:42 06.09.2019
2412 Clear 17 1025 43 0 0.45 166 11:24 06.09.2019
2413 Clear 17 1025 47 0 0.45 248 10:58 06.09.2019
2414 Clear 16 1025 49 0 0.89 200 10:39 06.09.2019
2415 Clear 16 1025 51 0 0.45 149 10:21 06.09.2019
2416 Clear 14 1020 66 0 3.81 239.485 09:40 06.09.2019
2417 Clear 13 1020 75 0 3.16 251.789 09:21 06.09.2019
2418 Clear 12 1020 81 0 3.16 251.789 08:57 06.09.2019
2419 Clear 11 1020 81 0 3.16 251.789 08:39 06.09.2019
2420 Clear 11 1020 85 0 3.16 251.789 08:39 06.09.2019
2421 Clear 10 1020 85 0 3.16 251.789 08:20 06.09.2019
2422 Clear 9 1020 93 0 3.16 251.789 07:45 06.09.2019
2423 Clear 9 1025 75 0 3.16 251.789 07:27 06.09.2019
2424 Clear 8 1025 81 0 3.16 251.789 06:56 06.09.2019
2425 Clear 8 1024 82 0 3.15 256.727 06:19 06.09.2019
2426 Clear 9 1024 81 0 0.45 258 05:41 06.09.2019
2427 Clear 9 1024 80 0 3.15 256.727 04:48 06.09.2019
2428 Clear 10 1024 79 0 3.15 256.727 03:52 06.09.2019
2429 Clear 11 1024 76 0 3.44 261.988 02:23 06.09.2019
2430 Clear 12 1023 71 0 3.25 266.133 00:44 06.09.2019
2431 Clear 13 1023 68 0 0.45 305 23:56 05.09.2019
2432 Clear 13 1022 67 0 3.64 282.785 23:38 05.09.2019
2433 Clear 13 1022 66 0 4.02 210 23:18 05.09.2019
2434 Clear 14 1022 68 0 3.64 282.785 22:43 05.09.2019
2435 Clear 14 1022 67 0 0.45 308 22:24 05.09.2019
2436 Clear 14 1021 65 0 1.79 300 21:56 05.09.2019
2437 Clear 15 1021 64 0 3.64 282.785 21:38 05.09.2019
2438 Clouds 16 1021 62 0 2.68 332 21:19 05.09.2019
2439 Clouds 16 1021 60 0 3.92 280.034 20:57 05.09.2019
2440 Clouds 16 1021 63 0 1.34 234 20:37 05.09.2019
2441 Clouds 16 1020 63 0 3.94 283.556 20:19 05.09.2019
2442 Clouds 17 1015 61 0 3.94 283.556 19:55 05.09.2019
2443 Clouds 17 1014 62 0 3.94 283.556 19:37 05.09.2019
2444 Clouds 18 1019 55 0 3.94 283.556 19:18 05.09.2019
2445 Clouds 18 1019 55 0 0.45 54 18:41 05.09.2019
2446 Rain 19 1018 54 0 1.34 314 18:21 05.09.2019
2447 Rain 19 1018 50 0 7.6 270 17:57 05.09.2019
2448 Rain 19 1018 42 0 0.45 63 17:39 05.09.2019
2449 Rain 20 1017 40 0 3.13 345 17:20 05.09.2019
2450 Rain 19 1012 47 0 6.3 283.207 16:42 05.09.2019
2451 Rain 20 1011 43 0 6.3 283.207 16:22 05.09.2019
2452 Rain 21 1016 35 0 1.34 159 15:59 05.09.2019
2453 Rain 20 1016 37 0 6.3 283.207 15:39 05.09.2019
2454 Rain 20 1016 37 0 0.89 260 15:19 05.09.2019
2455 Rain 21 1016 34 0 0.89 229 14:56 05.09.2019
2456 Rain 20 1016 37 0 0.45 49 14:38 05.09.2019
2457 Rain 20 1016 38 0 1.79 248 14:18 05.09.2019
2458 Rain 21 1016 40 0 1.34 294 13:42 05.09.2019
2459 Clouds 20 1016 41 0 1.34 239 13:19 05.09.2019
2460 Clouds 20 1015 39 0 2.24 265 12:44 05.09.2019
2461 Clouds 20 1015 41 0 5.36 252 12:26 05.09.2019
2462 Clear 20 1015 40 0 1.34 300 11:57 05.09.2019
2463 Clear 20 1015 41 0 1.34 214 11:39 05.09.2019
2464 Clear 20 1015 43 0 4.02 291 11:18 05.09.2019
2465 Clear 19 1014 43 0 1.79 217 10:41 05.09.2019
2466 Clear 19 1014 43 0 2.24 304 10:22 05.09.2019
2467 Clear 18 1014 40 0 1.34 243 09:58 05.09.2019
2468 Clear 17 1009 56 0 7.16 242.143 09:38 05.09.2019
2469 Clouds 16 1009 64 0 3.35 237.031 09:18 05.09.2019
2470 Clouds 15 1009 75 0 3.35 237.031 08:45 05.09.2019
2471 Clouds 15 1009 80 0 3.35 237.031 08:26 05.09.2019
2472 Clouds 14 1014 93 0 3.35 237.031 07:46 05.09.2019
2473 Clouds 15 1014 75 0 3.35 237.031 07:27 05.09.2019
2474 Clouds 14 1014 81 0 3.35 237.031 06:54 05.09.2019
2475 Clouds 15 1014 80 0 0.45 231 06:30 05.09.2019
2476 Clouds 14 1013 81 0 0.45 258 06:30 05.09.2019
2477 Clouds 15 1013 79 0 3.14 258.29 05:50 05.09.2019
2478 Clouds 15 1013 79 0 0.45 180 05:30 05.09.2019
2479 Clouds 16 1013 76 0 3.14 258.29 04:50 05.09.2019
2480 Clouds 16 1013 76 0 0.45 231 04:25 05.09.2019
2481 Clouds 16 1008 91 0 3.14 258.29 03:38 05.09.2019
2482 Rain 17 1013 73 0 4.05 249.795 02:51 05.09.2019
2483 Rain 17 1013 73 0 4.05 249.795 02:27 05.09.2019
2484 Rain 17 1013 69 0 1.79 241 01:37 05.09.2019
2485 Rain 18 1013 61 0 1.34 342 00:46 05.09.2019
2486 Clouds 19 1012 59 0 0.89 35 00:21 05.09.2019
2487 Clouds 19 1012 59 0 4.07 274.951 23:56 04.09.2019
2488 Clouds 18 1012 57 0 4.07 274.951 23:37 04.09.2019
2489 Clouds 18 1012 60 0 2.68 243 23:18 04.09.2019
2490 Clouds 20 1012 60 0 1.34 282 22:42 04.09.2019
2491 Clouds 20 1012 52 0 1.34 338 22:19 04.09.2019
2492 Clouds 20 1011 49 0 2.99 245.521 21:40 04.09.2019
2493 Clouds 21 1011 48 0 3.14 260.849 21:20 04.09.2019
2494 Clouds 21 1011 47 0 3.14 260.849 21:20 04.09.2019
2495 Clouds 21 1011 47 0 3.14 260.849 21:20 04.09.2019
2496 Clouds 21 1011 47 0 3.14 260.849 20:58 04.09.2019
2497 Clouds 22 1011 46 0 3.14 260.849 20:40 04.09.2019
2498 Clouds 23 1011 44 0 3.14 260.849 20:19 04.09.2019
2499 Clouds 22 1011 41 0 0.45 314 19:57 04.09.2019
2500 Clouds 22 1009 45 0 1.34 0 19:39 04.09.2019
2501 Clouds 23 1011 37 0 2.68 296 19:19 04.09.2019
2502 Clouds 19 1012 62 0 3.14 260.849 18:39 04.09.2019
2503 Clouds 25 1011 31 0 1.79 235 18:20 04.09.2019
2504 Clouds 26 1011 28 0 1.34 219 17:56 04.09.2019
2505 Clouds 26 1011 29 0 1.79 246 17:37 04.09.2019
2506 Clouds 26 1011 30 0 0.45 88 17:19 04.09.2019
2507 Clouds 26 1011 27 0 1.34 129 16:46 04.09.2019
2508 Clouds 26 1012 28 0 4.55 248.407 16:28 04.09.2019
2509 Clouds 27 1012 28 0 1.79 109 15:59 04.09.2019
2510 Clouds 26 1012 28 0 1.34 259 15:39 04.09.2019
2511 Clouds 26 1012 29 0 2.68 190 15:39 04.09.2019
2512 Clouds 25 1013 36 0 3.13 307 15:21 04.09.2019
2513 Clouds 25 1014 36 0 2.68 252 14:57 04.09.2019
2514 Clouds 25 1014 36 0 2.68 297 14:37 04.09.2019
2515 Clouds 24 1014 36 0 2.68 296 14:19 04.09.2019
2516 -273 0 0 0 0 0 13:55 04.09.2019
2517 Clouds 25 1014 31 0 1.79 183 13:36 04.09.2019
2518 Clouds 26 1015 33 0 3.12 216.888 13:18 04.09.2019
2519 Clouds 24 1015 37 0 1.34 131 12:40 04.09.2019
2520 Clouds 23 1016 47 0 1.79 120 12:22 04.09.2019
2521 Clouds 22 1016 41 0 3.13 115 11:55 04.09.2019
2522 Clouds 22 1017 43 0 1.34 86 11:37 04.09.2019
2523 Clouds 20 1017 44 0 1.79 203 11:19 04.09.2019
2524 Clouds 21 1017 50 0 1.79 135 10:44 04.09.2019
2525 Clouds 20 1018 49 0 1.79 184 10:25 04.09.2019
2526 Clouds 19 1018 45 0 2.24 166 09:57 04.09.2019
2527 Clouds 18 1013 67 0 3.47 197.976 09:39 04.09.2019
2528 Clouds 17 1014 71 0 1.84 194.783 09:18 04.09.2019
2529 Clouds 16 1019 65 0 1.84 194.783 08:41 04.09.2019
2530 Clouds 15 1019 68 0 1.84 194.783 08:23 04.09.2019
2531 Clouds 14 1019 71 0 1.84 194.783 07:56 04.09.2019
2532 Clouds 14 1019 72 0 1.84 194.783 07:34 04.09.2019
2533 Clouds 13 1019 73 0 1.34 157 06:49 04.09.2019
2534 Clouds 12 1019 73 0 2.17 226.046 06:26 04.09.2019
2535 Clouds 13 1020 76 0 2.17 226.046 04:54 04.09.2019
2536 Clouds 13 1020 78 0 2.17 226.046 04:21 04.09.2019
2537 Clouds 14 1021 77 0 2.16 245.615 02:36 04.09.2019
2538 Clouds 14 1021 77 0 2.16 245.615 02:36 04.09.2019
2539 Clouds 14 1021 78 0 2.41 251.399 00:56 04.09.2019
2540 Clouds 14 1021 78 0 2.41 251.399 00:38 04.09.2019
2541 Clouds 15 1021 77 0 2.52 243.038 00:18 04.09.2019
2542 Clouds 16 1022 76 0 2.52 243.038 23:47 03.09.2019
2543 Clouds 16 1022 75 0 2.52 243.038 23:23 03.09.2019
2544 Clouds 16 1022 73 0 2.52 243.038 22:40 03.09.2019
2545 Clouds 17 1022 72 0 2.52 243.038 22:22 03.09.2019
2546 Clouds 17 1022 70 0 2.35 244.602 21:57 03.09.2019
2547 Clouds 17 1022 69 0 2.35 244.602 21:38 03.09.2019
2548 Rain 18 1022 67 0 3.29 264.888 21:20 03.09.2019
2549 Rain 18 1022 65 0 3.29 264.888 20:55 03.09.2019
2550 Rain 19 1022 61 0 3.29 264.888 20:36 03.09.2019
2551 Rain 19 1022 59 0 3.29 264.888 20:18 03.09.2019
2552 Rain 19 1021 56 0 3.29 264.888 19:43 03.09.2019
2553 Rain 20 1021 56 0 0.45 298 19:20 03.09.2019
2554 Rain 20 1022 53 0 3.29 264.888 18:59 03.09.2019
2555 Rain 20 1022 52 0 1.34 45 18:40 03.09.2019
2556 Clouds 20 1021 50 0 2.68 218 18:20 03.09.2019
2557 Clouds 21 1022 49 0 1.79 225 17:56 03.09.2019
2558 Clouds 21 1022 48 0 0.45 298 17:38 03.09.2019
2559 Clouds 21 1022 45 0 1.34 296 17:18 03.09.2019
2560 Clouds 21 1022 43 0 0.45 300 16:43 03.09.2019
2561 Clouds 21 1022 44 0 1.79 253 16:22 03.09.2019
2562 Clouds 21 1022 42 0 0.45 290 15:57 03.09.2019
2563 Clouds 21 1022 46 0 3.58 269 15:37 03.09.2019
2564 Clouds 21 1022 45 0 2.24 214 15:19 03.09.2019
2565 Clouds 21 1022 44 0 1.34 283 14:56 03.09.2019
2566 Clouds 21 1022 42 0 2.68 198 14:37 03.09.2019
2567 Clouds 21 1022 40 0 0.45 162 14:18 03.09.2019
2568 Clouds 20 1022 38 0 1.79 236 13:55 03.09.2019
2569 Clouds 20 1022 38 0 3.58 231 13:37 03.09.2019
2570 Clouds 20 1022 37 0 2.68 284 13:18 03.09.2019
2571 Clouds 20 1022 34 0 0.45 212 12:47 03.09.2019
2572 Clouds 20 1022 34 0 1.34 263 12:29 03.09.2019
2573 Clouds 20 1022 40 0 2.24 174 11:44 03.09.2019
2574 Clouds 19 1022 35 0 1.34 270 11:25 03.09.2019
2575 Clouds 20 1022 36 0 2.68 222 10:59 03.09.2019
2576 Clouds 19 1022 38 0 1.34 201 10:40 03.09.2019
2577 Clouds 18 1022 37 0 1.79 224 10:22 03.09.2019
2578 Clouds 17 1017 52 0 4.14 244.029 09:53 03.09.2019
2579 Clouds 15 1023 64 0 0.89 294 09:33 03.09.2019
2580 Clouds 14 1022 59 0 2.63 225.848 08:58 03.09.2019
2581 Clouds 14 1022 63 0 0.45 187 08:38 03.09.2019
2582 Clouds 13 1022 64 0 0.45 170 08:19 03.09.2019
2583 Clouds 12 1022 68 0 2.63 225.848 07:43 03.09.2019
2584 Clouds 12 1022 68 0 2.63 225.848 07:43 03.09.2019
2585 Clouds 11 1022 67 0 0.45 172 07:24 03.09.2019
2586 Clouds 10 1022 71 0 2.63 225.848 06:55 03.09.2019
2587 Clouds 10 1022 72 0 2.63 225.848 06:37 03.09.2019
2588 Clouds 10 1023 70 0 2.4 213.114 03:44 03.09.2019
2589 Clear 10 1023 68 0 1.65 217.662 02:59 03.09.2019
2590 Clear 10 1023 67 0 1.65 217.662 02:38 03.09.2019
2591 Clear 10 1023 67 0 0.45 184 02:20 03.09.2019
2592 Clear 11 1023 66 0 1.65 217.662 01:43 03.09.2019
2593 Clear 11 1023 66 0 1.68 229.599 01:25 03.09.2019
2594 Clear 12 1023 65 0 1.68 229.599 00:31 03.09.2019
2595 Clear 12 1023 63 0 1.42 267.461 23:57 02.09.2019
2596 Clear 12 1023 64 0 1.42 267.461 23:57 02.09.2019
2597 Clear 13 1023 63 0 1.42 267.461 23:37 02.09.2019
2598 Clear 13 1023 63 0 1.42 267.461 23:18 02.09.2019
2599 Clear 13 1023 61 0 1.42 267.461 22:55 02.09.2019
2600 -273 0 0 0 0 0 22:55 02.09.2019
2601 -273 0 0 0 0 0 22:55 02.09.2019
2602 Clear 14 1023 60 0 0.45 273 22:36 02.09.2019
2603 Clear 14 1023 60 0 1.42 267.461 22:18 02.09.2019
2604 Clear 14 1023 59 0 1.42 267.461 21:55 02.09.2019
2605 Clear 15 1023 57 0 1.6 273.503 21:36 02.09.2019
2606 Clouds 16 1022 57 0 1.59 302.538 21:18 02.09.2019
2607 Clouds 17 1022 53 0 1.59 302.538 20:41 02.09.2019
2608 Clouds 17 1022 50 0 1.59 302.538 20:23 02.09.2019
2609 Clouds 18 1022 47 0 1.59 302.538 19:59 02.09.2019
2610 Clouds 19 1022 41 0 1.59 302.538 19:40 02.09.2019
2611 Clouds 20 1022 39 0 0.45 191 19:22 02.09.2019
2612 Clouds 20 1021 36 0 1.59 302.538 18:57 02.09.2019
2613 Clouds 20 1021 35 0 0.89 307 18:37 02.09.2019
2614 Clouds 21 1021 34 0 0.45 284 18:18 02.09.2019
2615 Clouds 21 1021 34 0 1.79 39 17:54 02.09.2019
2616 Clouds 21 1021 31 0 0.45 335 17:36 02.09.2019
2617 Clouds 21 1021 29 0 3.39 282.602 17:18 02.09.2019
2618 Clouds 21 1021 29 0 3.39 282.602 17:18 02.09.2019
2619 Clouds 22 1021 34 0 2.68 313 16:40 02.09.2019
2620 Clouds 22 1021 33 0 0.45 26 16:20 02.09.2019
2621 Clouds 22 1021 29 0 0.45 296 15:49 02.09.2019
2622 Clear 21 1021 30 0 0.45 112 15:29 02.09.2019
2623 Clear 22 1021 34 0 4.18 278.346 14:58 02.09.2019
2624 Clear 22 1021 34 0 1.34 307 14:40 02.09.2019
2625 Clear 22 1021 31 0 3.58 336 14:22 02.09.2019
2626 Clear 21 1016 35 0 4.18 278.346 13:59 02.09.2019
2627 Clear 22 1021 30 0 1.79 336 13:40 02.09.2019
2628 Clear 21 1021 36 0 0.45 217 13:22 02.09.2019
2629 Clear 20 1021 35 0 1.79 270 12:45 02.09.2019
2630 Clear 20 1021 35 0 1.79 270 12:45 02.09.2019
2631 Clear 20 1021 38 0 0.45 207 12:26 02.09.2019
2632 Clear 20 1021 41 0 0.45 297 11:59 02.09.2019
2633 Clear 20 1021 41 0 1.34 249 11:40 02.09.2019
2634 Clear 19 1021 44 0 1.34 228 11:21 02.09.2019
2635 Clear 19 1021 47 0 0.89 181 10:58 02.09.2019
2636 Clear 18 1021 50 0 0.45 224 10:39 02.09.2019
2637 Clear 18 1021 50 0 1.34 273 10:20 02.09.2019
2638 Clear 17 1021 65 0 1.34 44 09:57 02.09.2019
2639 Clear 16 1016 65 0 3.86 274.043 09:37 02.09.2019
2640 Clear 16 1016 65 0 3.86 274.043 09:18 02.09.2019
2641 Clear 15 1016 71 0 3.86 274.043 08:39 02.09.2019
2642 Clear 14 1015 79 0 3.86 274.043 08:18 02.09.2019
2643 Clear 13 1015 88 0 3.86 274.043 07:41 02.09.2019
2644 Clear 12 1020 79 0 3.86 274.043 07:21 02.09.2019
2645 Clear 12 1019 81 0 3.86 274.043 06:58 02.09.2019
2646 Clear 12 1019 82 0 0.45 246 06:39 02.09.2019
2647 Clear 12 1019 81 0 2.77 268.096 05:50 02.09.2019
2648 Clear 13 1018 80 0 2.77 268.096 05:20 02.09.2019
2649 Clear 14 1018 79 0 0.45 265 04:45 02.09.2019
2650 Clouds 15 1017 73 0 1.96 287.04 01:59 02.09.2019
2651 Clouds 16 1017 70 0 0.45 331 00:58 02.09.2019
2652 Clouds 16 1017 70 0 2.24 284.885 00:32 02.09.2019
2653 Clouds 17 1017 67 0 3.72 305.666 23:59 01.09.2019
2654 Clouds 17 1017 65 0 3.72 305.666 23:38 01.09.2019
2655 Clouds 17 1016 62 0 0.45 241 23:18 01.09.2019
2656 Clouds 18 1016 59 0 0.45 255 22:54 01.09.2019
2657 Clouds 18 1016 59 0 3.72 305.666 22:36 01.09.2019
2658 Clouds 18 1016 58 0 3.72 305.666 22:18 01.09.2019
2659 Clouds 18 1016 55 0 3.74 304.888 21:41 01.09.2019
2660 Clouds 18 1015 54 0 3.35 290.264 21:23 01.09.2019
2661 Clouds 18 1015 54 0 3.35 290.264 21:23 01.09.2019
2662 Clouds 18 1015 53 0 1.79 303 20:57 01.09.2019
2663 Clouds 18 1015 53 0 1.34 284 20:39 01.09.2019
2664 Clouds 19 1015 53 0 4.47 291 20:19 01.09.2019
2665 Clouds 20 1015 54 0 1.34 304 19:58 01.09.2019
2666 Clouds 20 1014 53 0 3.35 290.264 19:39 01.09.2019
2667 Clouds 21 1014 54 0 2.68 313 19:21 01.09.2019
2668 Clouds 22 1014 49 0 2.24 11 18:44 01.09.2019
2669 Clouds 22 1014 49 0 2.24 11 18:44 01.09.2019
2670 Clouds 23 1013 46 0 1.34 2 18:26 01.09.2019
2671 Clouds 24 1012 46 0 1.34 314 17:58 01.09.2019
2672 Clouds 24 1011 46 0 4.97 301.956 17:39 01.09.2019
2673 Clouds 24 1011 43 0 1.34 311 17:19 01.09.2019
2674 Clouds 25 1007 45 0 4.97 301.956 16:41 01.09.2019
2675 Clouds 24 1012 40 0 1.34 338 16:21 01.09.2019
2676 Clouds 24 1012 42 0 4.97 301.956 15:58 01.09.2019
2677 Clouds 24 1012 40 0 1.79 344 15:39 01.09.2019
2678 Rain 24 1012 43 0 1.34 318 15:20 01.09.2019
2679 Rain 25 1012 47 0 0.45 217 14:42 01.09.2019
2680 Rain 25 1012 45 0 1.34 359 14:22 01.09.2019
2681 Rain 26 1011 46 0 1.79 301 13:59 01.09.2019
2682 Clouds 25 1011 43 0 1.34 320 13:40 01.09.2019
2683 Clouds 25 1011 44 0 1.34 32 13:21 01.09.2019
2684 Clouds 26 1011 49 0 1.79 349 12:43 01.09.2019
2685 Rain 26 1011 46 0 3.13 341 12:25 01.09.2019
2686 Rain 26 1011 46 0 0.45 349 12:25 01.09.2019
2687 Rain 26 1011 48 0 3.58 329 11:56 01.09.2019
2688 Rain 26 1011 48 0 1.34 5 11:38 01.09.2019
2689 Rain 26 1010 49 0 1.34 232 11:18 01.09.2019
2690 Rain 26 1010 52 0 0.45 150 10:44 01.09.2019
2691 Rain 25 1010 53 0 0.45 282 10:44 01.09.2019
2692 Rain 26 1010 53 0 1.34 344 10:23 01.09.2019
2693 Rain 25 1009 48 0 0.45 334 09:47 01.09.2019
2694 Clouds 23 1004 61 0 3.28 262.656 09:26 01.09.2019
2695 Clouds 24 1004 58 0 3.28 262.656 08:56 01.09.2019
2696 Clouds 23 1008 56 0 1.79 303 08:38 01.09.2019
2697 Clouds 23 1008 57 0 3.28 262.656 08:19 01.09.2019
2698 Clouds 21 1003 70 0 3.28 262.656 07:41 01.09.2019
2699 Clouds 20 1008 65 0 0.45 176 07:20 01.09.2019
2700 Clouds 19 1007 72 0 3.28 262.656 06:38 01.09.2019
2701 Rain 19 1007 69 0 2.02 239.601 05:59 01.09.2019
2702 Rain 20 1007 67 0 2.02 239.601 04:41 01.09.2019
2703 Rain 21 1007 66 0 2.02 239.601 03:48 01.09.2019
2704 Rain 21 1007 66 0 0.45 173 03:29 01.09.2019
2705 Rain 22 1007 64 0 3.05 174.265 02:37 01.09.2019
2706 Rain 22 1007 64 0 3.05 174.265 02:37 01.09.2019
2707 Rain 22 1008 62 0 3.05 174.265 02:18 01.09.2019
2708 Rain 23 1008 58 0 2.63 162.542 01:28 01.09.2019
2709 Rain 23 1008 56 0 2.63 162.542 00:55 01.09.2019
2710 Rain 24 1008 55 0 0.45 142 00:36 01.09.2019
2711 Clear 24 1008 53 0 0.45 190 00:18 01.09.2019
2712 Clear 24 1009 52 0 0.89 139 23:40 31.08.2019
2713 Clear 25 1009 52 0 0.45 90 23:21 31.08.2019
2714 Clear 25 1009 51 0 0.45 157 22:55 31.08.2019
2715 Clear 25 1009 51 0 0.45 157 22:55 31.08.2019
2716 Clear 25 1009 50 0 3.31 150.208 22:37 31.08.2019
2717 Clear 25 1009 49 0 0.45 169 22:19 31.08.2019
2718 Clear 25 1010 48 0 0.89 105 21:42 31.08.2019
2719 Clear 26 1010 46 0 2.53 125.922 21:22 31.08.2019
2720 Clear 27 1010 44 0 2.53 125.922 20:59 31.08.2019
2721 Clear 28 1010 43 0 2.53 125.922 20:41 31.08.2019
2722 Clear 28 1010 41 0 2.53 125.922 20:22 31.08.2019
2723 Clear 29 1009 32 0 0.45 0 19:41 31.08.2019
2724 Clear 30 1010 34 0 0.45 142 19:22 31.08.2019
2725 Clear 30 1010 31 0 1.34 119 18:56 31.08.2019
2726 Clear 30 1010 30 0 2.53 125.922 18:37 31.08.2019
2727 Clear 30 1010 30 0 2.53 125.922 18:37 31.08.2019
2728 Clear 32 1010 28 0 1.34 67 18:19 31.08.2019
2729 Clear 33 1011 27 0 3.58 180 17:55 31.08.2019
2730 Clear 32 1011 26 0 1.34 22 17:36 31.08.2019
2731 Clear 32 1011 24 0 2.24 207 17:18 31.08.2019
2732 Clear 33 1012 24 0 1.34 94 16:55 31.08.2019
2733 Clear 33 1012 25 0 2.24 214 16:36 31.08.2019
2734 Clear 34 1012 25 0 0.89 162 16:18 31.08.2019
2735 Clear 33 1013 29 0 2.68 169 15:41 31.08.2019
2736 Clear 33 1013 30 0 1.79 105 15:19 31.08.2019
2737 Clear 32 1014 28 0 1.79 150 14:44 31.08.2019
2738 Clear 33 1014 29 0 1.34 111 14:26 31.08.2019
2739 Clear 33 1014 29 0 1.34 111 14:26 31.08.2019
2740 Clear 33 1014 32 0 3.58 97 13:59 31.08.2019
2741 Clear 33 1015 32 0 1.79 148 13:39 31.08.2019
2742 Clear 33 1015 36 0 0.45 142 13:21 31.08.2019
2743 Clear 33 1015 36 0 0.45 142 13:21 31.08.2019
2744 Clear 32 1015 38 0 1.34 238 12:57 31.08.2019
2745 Clear 32 1015 39 0 1.34 148 12:38 31.08.2019
2746 Clear 30 1016 41 0 1.79 109 12:19 31.08.2019
2747 Clear 29 1016 44 0 1.34 203 11:44 31.08.2019
2748 Clear 29 1016 47 0 1.34 148 11:26 31.08.2019
2749 Clear 28 1017 49 0 1.34 124 10:57 31.08.2019
2750 Clear 27 1017 48 0 2.24 104 10:39 31.08.2019
2751 Clear 26 1017 49 0 1.79 80 10:18 31.08.2019
2752 Clear 25 1017 40 0 0.45 164 09:40 31.08.2019
2753 Clear 23 1013 65 0 1.61 145.579 09:22 31.08.2019
2754 Clear 21 1013 66 0 1.61 145.579 08:59 31.08.2019
2755 Clear 21 1013 72 0 1.61 145.579 08:40 31.08.2019
2756 Clear 20 1013 76 0 1.61 145.579 08:22 31.08.2019
2757 Clear 18 1018 68 0 0.45 265 07:40 31.08.2019
2758 Clear 18 1018 72 0 1.61 145.579 07:19 31.08.2019
2759 Clear 18 1018 74 0 1.61 145.579 06:28 31.08.2019
2760 Clear 18 1018 73 0 1.15 96.208 05:55 31.08.2019
2761 Clear 18 1018 72 0 1.15 96.208 05:29 31.08.2019
2762 Clear 19 1018 71 0 1.15 96.208 04:30 31.08.2019
2763 Clear 19 1019 70 0 1.15 96.208 03:44 31.08.2019
2764 Clouds 20 1019 68 0 1.26 18.204 02:29 31.08.2019
2765 Clouds 20 1019 66 0 1.26 18.204 01:51 31.08.2019
2766 Clear 21 1019 62 0 0.45 317 01:31 31.08.2019
2767 Clear 21 1015 68 0 1.55 81.473 00:48 31.08.2019
2768 Clear 22 1020 60 0 0.45 304 00:28 31.08.2019
2769 Clear 22 1020 60 0 0.45 324 23:51 30.08.2019
2770 Clear 23 1020 60 0 0.45 303 23:21 30.08.2019
2771 Clear 22 1016 70 0 1.98 57.387 22:59 30.08.2019
2772 Clear 22 1015 65 0 1.98 57.387 22:40 30.08.2019
2773 Clear 22 1015 65 0 1.98 57.387 22:40 30.08.2019
2774 Clear 22 1015 65 0 1.98 57.387 22:21 30.08.2019
2775 Clear 22 1016 64 0 1.98 57.387 21:57 30.08.2019
2776 Clear 22 1016 64 0 1.98 57.387 21:57 30.08.2019
2777 Clear 21 1016 64 0 1.96 47.314 21:37 30.08.2019
2778 Clouds 25 1020 53 0 0.45 322 21:19 30.08.2019
2779 Clouds 25 1020 53 0 0.45 12 21:19 30.08.2019
2780 Clouds 25 1020 51 0 1.87 25.4 20:58 30.08.2019
2781 Clouds 26 1020 51 0 0.45 318 20:39 30.08.2019
2782 Clouds 26 1020 63 0 1.87 25.4 20:20 30.08.2019
2783 Clouds 26 1023 52 0 1.87 25.4 19:56 30.08.2019
2784 Clouds 27 1015 48 0 1.87 25.4 19:38 30.08.2019
2785 Clouds 27 1020 45 0 1.87 25.4 19:19 30.08.2019
2786 Clouds 28 1019 48 0 1.87 25.4 18:46 30.08.2019
2787 Clouds 28 1020 43 0 0.45 314 18:25 30.08.2019
2788 Clouds 29 1020 42 0 1.77 58.344 17:58 30.08.2019
2789 Clouds 28 1020 43 0 0.45 87 17:40 30.08.2019
2790 Clouds 28 1020 41 0 1.77 58.344 17:19 30.08.2019
2791 Clouds 28 1024 45 0 1.77 58.344 16:57 30.08.2019
2792 Clouds 29 1020 38 0 0.45 32 16:39 30.08.2019
2793 Clouds 29 1020 39 0 1.77 58.344 16:21 30.08.2019
2794 Clouds 29 1021 48 0 0.45 54 15:43 30.08.2019
2795 Clouds 28 1020 44 0 0.45 0 15:22 30.08.2019
2796 Clouds 28 1021 41 0 1.33 13.617 14:46 30.08.2019
2797 Clouds 28 1017 44 0 1.33 13.617 14:28 30.08.2019
2798 Clouds 28 1017 41 0 1.33 13.617 13:58 30.08.2019
2799 Clouds 28 1022 42 0 0.45 81 13:40 30.08.2019
2800 Clouds 28 1022 43 0 0.89 18 13:21 30.08.2019
2801 Clouds 28 1022 43 0 0.45 4 12:46 30.08.2019
2802 Clouds 27 1018 48 0 0.15 48.674 12:27 30.08.2019
2803 Clouds 27 1022 48 0 0.45 52 11:59 30.08.2019
2804 Clouds 27 1022 48 0 0.45 328 11:41 30.08.2019
2805 Clouds 26 1022 48 0 1.34 21 11:23 30.08.2019
2806 Clouds 25 1022 49 0 1.34 324 10:39 30.08.2019
2807 Clouds 25 1022 51 0 0.89 104 10:20 30.08.2019
2808 Clouds 24 1022 46 0 0.89 18 09:57 30.08.2019
2809 Clouds 23 1022 52 0 0.89 324 09:37 30.08.2019
2810 Clear 22 1018 63 0 0.7 301.789 09:18 30.08.2019
2811 Clear 21 1022 61 0 0.7 301.789 08:44 30.08.2019
2812 Clear 21 1018 70 0 0.7 301.789 08:25 30.08.2019
2813 Clear 20 1025 74 0 0.7 301.789 07:58 30.08.2019
2814 Clear 20 1022 66 0 0.7 301.789 07:38 30.08.2019
2815 Clear 19 1022 69 0 0.7 301.789 07:20 30.08.2019
2816 Clear 19 1022 71 0 0.7 301.789 06:43 30.08.2019
2817 Clouds 19 1021 70 0 1.1 279.454 06:24 30.08.2019
2818 Clouds 20 1021 68 0 1.1 279.454 05:40 30.08.2019
2819 Clouds 20 1017 78 0 1.1 279.454 03:58 30.08.2019
2820 Clouds 20 1021 81 0 1.1 279.454 03:37 30.08.2019
2821 Clouds 21 1021 64 0 0.45 303 02:49 30.08.2019
2822 Clouds 21 1021 64 0 0.89 305 02:22 30.08.2019
2823 Clouds 21 1016 69 0 1.3 338.395 00:58 30.08.2019
2824 Clouds 21 1020 64 0 0.45 339 00:27 30.08.2019
2825 Clouds 22 1020 64 0 0.89 336 23:57 29.08.2019
2826 Clouds 22 1016 67 0 1.99 323.078 23:38 29.08.2019
2827 Clouds 23 1015 67 0 1.99 323.078 23:20 29.08.2019
2828 Clouds 22 1020 79 0 1.99 323.078 22:42 29.08.2019
2829 Clouds 22 1020 76 0 1.99 323.078 22:23 29.08.2019
2830 Clear 22 1020 73 0 1.98 318.773 21:55 29.08.2019
2831 Clear 22 1020 73 0 1.98 318.773 21:55 29.08.2019
2832 Clear 24 1015 60 0 1.98 318.773 21:36 29.08.2019
2833 Rain 25 1019 58 0 1.79 327 21:18 29.08.2019
2834 Rain 25 1019 53 0 0.89 314 20:42 29.08.2019
2835 Rain 26 1019 51 0 0.45 321 20:20 29.08.2019
2836 Rain 26 1019 49 0 0.45 327 19:59 29.08.2019
2837 Rain 26 1021 54 0 2.85 303.545 19:40 29.08.2019
2838 Rain 27 1018 47 0 1.34 339 19:21 29.08.2019
2839 Rain 28 1017 42 0 2.85 303.545 18:43 29.08.2019
2840 Clear 28 1017 42 0 0.89 331 18:21 29.08.2019
2841 Clear 28 1017 41 0 4.06 290.602 17:57 29.08.2019
2842 Clear 29 1017 39 0 0.45 348 17:39 29.08.2019
2843 Clear 30 1004 37 0 4.06 290.602 17:19 29.08.2019
2844 Clear 30 1011 37 0 4.06 290.602 16:57 29.08.2019
2845 Clear 30 1017 35 0 0.45 349 16:39 29.08.2019
2846 Clear 30 1017 33 0 0.45 260 16:20 29.08.2019
2847 Clear 30 1017 34 0 0.45 322 15:39 29.08.2019
2848 Clouds 30 1017 34 0 3.47 270.248 15:21 29.08.2019
2849 Clouds 30 1017 35 0 3.47 270.248 14:50 29.08.2019
2850 Clouds 29 1018 37 0 0.45 156 14:26 29.08.2019
2851 Clouds 29 1018 40 0 0.45 47 13:59 29.08.2019
2852 Clouds 28 1018 47 0 0.45 351 13:41 29.08.2019
2853 Clouds 28 1018 44 0 3.01 267.998 13:21 29.08.2019
2854 Clouds 28 1018 38 0 1.34 297 12:59 29.08.2019
2855 Clouds 28 1018 39 0 1.79 335 12:41 29.08.2019
2856 Clouds 27 1017 39 0 3.58 301 12:22 29.08.2019
2857 Clouds 26 1018 41 0 3.58 324 11:59 29.08.2019
2858 Clouds 26 1018 43 0 3.13 291 11:40 29.08.2019
2859 Clouds 26 1018 47 0 1.79 359 11:20 29.08.2019
2860 Clouds 26 1018 47 0 1.79 359 11:20 29.08.2019
2861 -273 0 0 0 0 0 10:55 29.08.2019
2862 Clouds 24 1017 50 0 1.34 42 10:37 29.08.2019
2863 Clouds 24 1017 51 0 1.79 334 10:19 29.08.2019
2864 Clouds 23 1017 56 0 3.58 221 09:41 29.08.2019
2865 Clouds 22 1017 59 0 2.24 331 09:18 29.08.2019
2866 Clouds 21 1016 60 0 1.98 234.557 08:45 29.08.2019
2867 Clouds 20 1016 62 0 1.98 234.557 08:25 29.08.2019
2868 Clouds 19 1016 74 0 1.98 234.557 07:54 29.08.2019
2869 Clouds 18 1016 72 0 1.98 234.557 07:34 29.08.2019
2870 Clouds 17 1015 79 0 1.98 234.557 06:57 29.08.2019
2871 Clouds 17 1015 81 0 1.98 234.557 06:37 29.08.2019
2872 Clouds 17 1015 82 0 1.21 209.119 05:52 29.08.2019
2873 Clouds 17 1015 81 0 1.21 209.119 05:29 29.08.2019
2874 Clouds 18 1014 80 0 1.21 209.119 04:48 29.08.2019
2875 Clouds 18 1014 80 0 1.21 209.119 04:28 29.08.2019
2876 Rain 19 1014 75 0 1.84 224.802 01:55 29.08.2019
2877 Rain 19 1014 74 0 1.32 230.239 01:35 29.08.2019
2878 Rain 19 1014 74 0 1.32 230.239 01:35 29.08.2019
2879 Rain 19 1014 74 0 1.32 230.239 00:47 29.08.2019
2880 Rain 20 1014 73 0 0.45 164 00:24 29.08.2019
2881 Rain 20 1014 72 0 2.4 323.254 23:59 28.08.2019
2882 Rain 20 1014 71 0 2.4 323.254 23:39 28.08.2019
2883 Rain 20 1014 69 0 1.34 303 23:21 28.08.2019
2884 Rain 20 1013 71 0 2.4 323.254 22:56 28.08.2019
2885 Rain 20 1013 70 0 2.4 323.254 22:38 28.08.2019
2886 Rain 20 1013 68 0 2.4 323.254 22:18 28.08.2019
2887 Rain 21 1014 64 0 0.89 191 21:43 28.08.2019
2888 Rain 21 1014 64 0 0.45 157 21:24 28.08.2019
2889 Rain 22 1014 62 0 3.09 189.401 20:59 28.08.2019
2890 Rain 21 1013 61 0 3.09 189.401 20:40 28.08.2019
2891 Rain 21 1013 60 0 0.45 145 20:22 28.08.2019
2892 Rain 21 1013 60 0 0.45 145 20:22 28.08.2019
2893 Rain 24 1013 56 0 3.09 189.401 19:43 28.08.2019
2894 Rain 26 1013 52 0 0.89 95 19:22 28.08.2019
2895 Rain 26 1013 49 0 3.13 62 18:59 28.08.2019
2896 Rain 26 1014 51 0 0.45 167 18:40 28.08.2019
2897 Clouds 30 1014 48 0 1.79 184 18:21 28.08.2019
2898 Clouds 31 1013 38 0 0.89 124 17:39 28.08.2019
2899 Clouds 30 1003 34 0 3.13 167 17:19 28.08.2019
2900 Clouds 31 1013 34 0 1.79 181 16:55 28.08.2019
2901 Clouds 31 1013 37 0 0.89 104 16:37 28.08.2019
2902 Clouds 32 1013 34 0 1.79 155 16:18 28.08.2019
2903 Clouds 33 1008 35 0 2.7 274.561 15:38 28.08.2019
2904 Clouds 33 1008 35 0 2.7 274.561 15:38 28.08.2019
2905 Clouds 33 1008 34 0 1.91 226.887 15:20 28.08.2019
2906 Clouds 32 1013 35 0 1.34 167 14:58 28.08.2019
2907 Clouds 33 1012 30 0 0.89 166 14:40 28.08.2019
2908 Clouds 34 1013 28 0 0.45 259 14:21 28.08.2019
2909 Clouds 34 1013 28 0 0.45 274 13:59 28.08.2019
2910 Clouds 33 1013 27 0 0.45 255 13:39 28.08.2019
2911 Clouds 33 1013 29 0 0.45 177 13:20 28.08.2019
2912 Clouds 32 1013 34 0 0.45 16 12:43 28.08.2019
2913 -273 0 0 0 0 0 12:25 28.08.2019
2914 Clouds 30 1014 38 0 1.34 150 11:59 28.08.2019
2915 Clouds 30 1014 41 0 1.79 108 11:39 28.08.2019
2916 Clouds 30 1014 45 0 1.98 191.872 11:20 28.08.2019
2917 Clouds 29 1014 45 0 1.34 104 10:56 28.08.2019
2918 Clouds 29 1014 47 0 0.89 190 10:37 28.08.2019
2919 Clouds 27 1014 48 0 0.89 107 10:19 28.08.2019
2920 Clouds 25 1009 59 0 1.67 215.382 09:42 28.08.2019
2921 Clouds 24 1009 66 0 1.35 175.374 09:21 28.08.2019
2922 Clouds 22 1010 77 0 1.35 175.374 08:56 28.08.2019
2923 Clouds 22 1010 79 0 1.35 175.374 08:37 28.08.2019
2924 Clouds 21 1010 80 0 1.35 175.374 08:18 28.08.2019
2925 Clouds 21 1014 64 0 1.34 167 07:38 28.08.2019
2926 Clouds 19 1014 78 0 1.35 175.374 07:19 28.08.2019
2927 Clouds 19 1014 80 0 1.35 175.374 06:49 28.08.2019
2928 Clouds 19 1014 80 0 1.83 137.011 05:59 28.08.2019
2929 Clouds 19 1014 77 0 1.83 137.011 04:41 28.08.2019
2930 Rain 20 1014 72 0 1.07 225.717 01:58 28.08.2019
2931 Rain 21 1015 71 0 1.04 59.839 01:30 28.08.2019
2932 Rain 21 1015 71 0 1.04 59.839 00:50 28.08.2019
2933 Rain 21 1015 70 0 1.04 59.839 00:32 28.08.2019
2934 Clouds 22 1015 68 0 2.01 142.27 23:46 27.08.2019
2935 Clouds 22 1015 69 0 2.01 142.27 23:22 27.08.2019
2936 Clouds 23 1015 68 0 2.01 142.27 22:59 27.08.2019
2937 Clouds 23 1015 67 0 2.01 142.27 22:41 27.08.2019
2938 Clouds 23 1015 65 0 2.01 142.27 22:22 27.08.2019
2939 Rain 24 1015 65 0 2.07 138.21 21:57 27.08.2019
2940 Rain 24 1015 65 0 2.07 138.21 21:38 27.08.2019
2941 Rain 24 1015 65 0 2.07 138.21 21:38 27.08.2019
2942 Rain 24 1015 65 0 2.07 138.21 21:38 27.08.2019
2943 Clouds 24 1015 63 0 2.11 137.232 21:19 27.08.2019
2944 Clouds 25 1015 62 0 2.11 137.232 20:57 27.08.2019
2945 Clouds 25 1015 60 0 2.11 137.232 20:39 27.08.2019
2946 Clouds 25 1015 59 0 2.11 137.232 20:19 27.08.2019
2947 Clouds 27 1015 55 0 0.89 76 19:44 27.08.2019
2948 Clouds 27 1015 49 0 2.11 137.232 19:26 27.08.2019
2949 Clouds 27 1015 47 0 1.34 318 18:57 27.08.2019
2950 Clouds 28 1015 45 0 0.89 1 18:39 27.08.2019
2951 Clouds 29 1015 43 0 0.45 303 18:18 27.08.2019
2952 Clouds 29 1015 42 0 2.97 140.315 17:55 27.08.2019
2953 Clouds 29 1015 42 0 2.97 140.315 17:37 27.08.2019
2954 Clouds 30 1015 37 0 0.89 273 17:18 27.08.2019
2955 Clouds 31 1015 29 0 1.34 201 16:42 27.08.2019
2956 Clouds 32 1015 29 0 3.13 174 16:23 27.08.2019
2957 Clouds 32 1015 31 0 0.89 91 15:55 27.08.2019
2958 Clouds 32 1015 31 0 1.79 181 15:37 27.08.2019
2959 Clouds 32 1016 30 0 3.13 102 15:19 27.08.2019
2960 Clouds 33 1016 31 0 1.34 112 14:42 27.08.2019
2961 Clouds 33 1016 30 0 2.24 83 14:23 27.08.2019
2962 Clouds 32 1016 36 0 0.45 152 13:43 27.08.2019
2963 Clouds 32 1017 35 0 1.79 29 13:25 27.08.2019
2964 Clouds 31 1017 39 0 0.89 26 12:59 27.08.2019
2965 Clouds 31 1017 39 0 2.68 66 12:39 27.08.2019
2966 Clouds 30 1017 41 0 1.79 101 12:20 27.08.2019
2967 Clouds 29 1017 46 0 0.89 47 11:47 27.08.2019
2968 Clouds 28 1017 49 0 0.89 73 11:27 27.08.2019
2969 Clouds 28 1017 52 0 1.34 93 10:56 27.08.2019
2970 Clouds 27 1017 54 0 0.45 177 10:38 27.08.2019
2971 Clouds 26 1017 53 0 0.89 193 10:18 27.08.2019
2972 Clouds 26 1017 44 0 1.79 108 09:54 27.08.2019
2973 Clear 24 1013 56 0 2.4 140.375 09:36 27.08.2019
2974 Clear 24 1013 62 0 2.16 112.753 09:18 27.08.2019
2975 Clear 22 1013 67 0 2.16 112.753 08:41 27.08.2019
2976 Clear 21 1013 70 0 2.16 112.753 08:23 27.08.2019
2977 Clear 20 1018 65 0 2.16 112.753 07:41 27.08.2019
2978 Clear 19 1017 71 0 2.16 112.753 07:20 27.08.2019
2979 Clear 19 1017 74 0 2.16 112.753 06:58 27.08.2019
2980 Clear 18 1017 74 0 2.16 112.753 06:37 27.08.2019
2981 Rain 19 1017 74 0 2 92.518 06:18 27.08.2019
2982 Rain 19 1017 73 0 2 92.518 05:24 27.08.2019
2983 Rain 20 1017 69 0 2 92.518 03:42 27.08.2019
2984 Rain 20 1018 67 0 1.61 114.169 02:28 27.08.2019
2985 Rain 20 1018 66 0 1.61 114.169 01:45 27.08.2019
2986 Rain 21 1018 65 0 2.17 136.142 01:24 27.08.2019
2987 Rain 21 1018 65 0 2.17 136.142 00:48 27.08.2019
2988 Rain 21 1018 64 0 3.89 103.039 00:26 27.08.2019
2989 Rain 22 1018 62 0 3.89 103.039 23:40 26.08.2019
2990 Rain 23 1018 59 0 3.89 103.039 23:21 26.08.2019
2991 Rain 23 1013 59 0 3.89 103.039 22:57 26.08.2019
2992 Rain 23 1013 58 0 3.89 103.039 22:36 26.08.2019
2993 Rain 24 1018 59 0 3.89 103.039 22:18 26.08.2019
2994 Rain 24 1018 57 0 0.45 112 21:39 26.08.2019
2995 Clouds 25 1018 54 0 1.79 149 21:21 26.08.2019
2996 Clouds 26 1018 52 0 2.24 112 20:58 26.08.2019
2997 Clouds 27 1017 47 0 0.45 93 20:39 26.08.2019
2998 Clouds 27 1017 41 0 2.24 107 20:19 26.08.2019
2999 Clouds 28 1017 37 0 2.24 78 19:56 26.08.2019
3000 Clouds 29 1016 37 0 1.34 93 19:38 26.08.2019
3001 Clouds 30 1017 35 0 1.79 39 19:18 26.08.2019
3002 Clouds 30 1017 33 0 0.45 22 18:39 26.08.2019
3003 Clear 31 1017 32 0 0.89 90 18:20 26.08.2019
3004 Clear 32 1017 31 0 0.89 33 17:56 26.08.2019
3005 Clear 33 1017 27 0 1.34 59 17:38 26.08.2019
3006 Clear 33 1017 26 0 1.79 359 17:18 26.08.2019
3007 Clear 32 1017 25 0 0.45 128 16:56 26.08.2019
3008 Clear 32 1017 25 0 3.05 90.677 16:38 26.08.2019
3009 Clear 32 1017 25 0 0.45 26 16:18 26.08.2019
3010 Clear 33 1018 26 0 0.45 314 15:42 26.08.2019
3011 Clear 33 1018 26 0 0.45 342 15:22 26.08.2019
3012 Clear 32 1018 27 0 0.89 18 14:56 26.08.2019
3013 Clear 32 1018 27 0 1.34 167 14:37 26.08.2019
3014 Clear 33 1018 28 0 0.45 124 14:18 26.08.2019
3015 Clear 32 1019 30 0 3.19 99.628 13:41 26.08.2019
3016 Clear 32 1019 30 0 0.89 69 13:21 26.08.2019
3017 Clear 31 1019 30 0 2.68 159 12:45 26.08.2019
3018 Clear 30 1019 33 0 0.45 63 12:27 26.08.2019
3019 Clear 29 1019 37 0 0.45 156 11:58 26.08.2019
3020 Clear 29 1019 38 0 1.34 94 11:37 26.08.2019
3021 Clear 29 1020 39 0 0.89 353 11:19 26.08.2019
3022 Clear 28 1020 43 0 1.79 14 10:54 26.08.2019
3023 Clear 28 1020 43 0 1.79 14 10:54 26.08.2019
3024 Clear 28 1020 45 0 2.77 94.486 10:36 26.08.2019
3025 Clear 27 1020 43 0 2.77 94.486 10:18 26.08.2019
3026 Clear 25 1020 36 0 2.77 94.486 09:41 26.08.2019
3027 Clear 24 1015 50 0 1.92 94.868 09:23 26.08.2019
3028 Clear 22 1015 56 0 1.92 94.868 08:55 26.08.2019
3029 Clear 22 1015 56 0 1.92 94.868 08:55 26.08.2019
3030 Clear 22 1020 68 0 0.89 79 08:37 26.08.2019
3031 Clear 20 1015 67 0 1.92 94.868 08:19 26.08.2019
3032 Clear 20 1020 56 0 1.92 94.868 07:42 26.08.2019
3033 Clear 18 1020 69 0 1.92 94.868 07:24 26.08.2019
3034 Clear 18 1020 71 0 1.92 94.868 06:50 26.08.2019
3035 Clear 18 1019 72 0 1.76 101.941 06:25 26.08.2019
3036 Clear 18 1019 72 0 1.76 101.941 05:56 26.08.2019
3037 Clear 19 1019 69 0 1.76 101.941 04:35 26.08.2019
3038 Clear 20 1019 66 0 1.76 101.941 03:48 26.08.2019
3039 Rain 21 1019 61 0 2.28 120.813 02:19 26.08.2019
3040 Clear 22 1020 55 0 2.43 121.612 01:22 26.08.2019
3041 Clear 23 1020 53 0 2.43 121.612 00:43 26.08.2019
3042 Rain 23 1020 52 0 2.74 101.851 00:24 26.08.2019
3043 Rain 24 1020 49 0 2.74 101.851 23:44 25.08.2019
3044 Rain 24 1020 49 0 0.45 49 23:44 25.08.2019
3045 Rain 24 1020 48 0 0.45 47 23:20 25.08.2019
3046 Rain 25 1020 49 0 2.74 101.851 22:58 25.08.2019
3047 Rain 25 1020 49 0 2.74 101.851 22:39 25.08.2019
3048 Rain 25 1020 48 0 0.45 39 22:20 25.08.2019
3049 Rain 25 1019 48 0 2.74 101.851 21:58 25.08.2019
3050 Rain 26 1019 47 0 2.91 99.067 21:39 25.08.2019
3051 Clouds 26 1019 47 0 2.57 93.167 21:19 25.08.2019
3052 Clouds 28 1019 43 0 0.45 78 20:42 25.08.2019
3053 Clouds 28 1018 42 0 2.57 93.167 20:20 25.08.2019
3054 Clouds 29 1018 41 0 2.57 93.167 19:59 25.08.2019
3055 Clouds 30 1018 40 0 2.57 93.167 19:39 25.08.2019
3056 Clouds 30 1018 39 0 2.57 93.167 19:20 25.08.2019
3057 Clouds 30 1013 38 0 0.45 19 18:58 25.08.2019
3058 Clouds 30 1018 37 0 0.45 342 18:40 25.08.2019
3059 Clear 32 1015 35 0 0.45 26 18:21 25.08.2019
3060 Clear 32 1017 36 0 2.54 125.611 17:56 25.08.2019
3061 Clear 32 1018 32 0 0.45 349 17:38 25.08.2019
3062 Clear 32 1018 29 0 0.89 348 17:19 25.08.2019
3063 Clear 33 1018 28 0 1.79 94 16:40 25.08.2019
3064 Clear 33 1018 29 0 1.79 146 16:22 25.08.2019
3065 Clear 33 1018 33 0 2.54 125.611 15:47 25.08.2019
3066 Clouds 32 1018 32 0 0.89 135 15:26 25.08.2019
3067 Clouds 32 1019 30 0 2.94 120.416 14:56 25.08.2019
3068 Clouds 32 1019 32 0 1.79 131 14:38 25.08.2019
3069 Clouds 32 1019 33 0 0.89 246 14:19 25.08.2019
3070 Clouds 32 1019 36 0 0.45 98 13:43 25.08.2019
3071 Clear 31 1019 37 0 0.89 184 13:21 25.08.2019
3072 Clear 30 1019 39 0 1.34 146 12:56 25.08.2019
3073 Clear 31 1019 41 0 1.79 93 12:37 25.08.2019
3074 Clear 31 1019 41 0 1.79 93 12:37 25.08.2019
3075 Clouds 28 1020 42 0 1.34 31 12:18 25.08.2019
3076 Clouds 28 1020 45 0 0.89 111 11:54 25.08.2019
3077 Clouds 27 1020 47 0 1.79 47 11:36 25.08.2019
3078 Clouds 27 1020 47 0 0.89 28 11:18 25.08.2019
3079 Clouds 27 1020 48 0 2.76 105.149 10:40 25.08.2019
3080 Clouds 26 1020 47 0 2.76 105.149 10:20 25.08.2019
3081 Clouds 25 1020 38 0 2.76 105.149 09:56 25.08.2019
3082 Clear 23 1015 53 0 2.86 102.948 09:38 25.08.2019
3083 Clear 23 1016 56 0 3.06 95.765 09:20 25.08.2019
3084 Clear 21 1015 58 0 3.06 95.765 08:42 25.08.2019
3085 Clear 20 1015 60 0 3.06 95.765 08:22 25.08.2019
3086 Clear 19 1020 60 0 3.06 95.765 07:43 25.08.2019
3087 Clear 19 1020 68 0 3.06 95.765 07:22 25.08.2019
3088 Clear 18 1020 71 0 3.06 95.765 06:31 25.08.2019
3089 Clear 19 1020 71 0 2.43 77.785 04:53 25.08.2019
3090 Clear 19 1020 69 0 2.43 77.785 03:37 25.08.2019
3091 Clear 19 1020 66 0 2.73 81.82 02:40 25.08.2019
3092 Clear 20 1020 63 0 2.73 81.82 01:42 25.08.2019
3093 Clear 21 1021 58 0 2.7 78.957 00:41 25.08.2019
3094 Clear 22 1021 57 0 2.53 83.125 00:21 25.08.2019
3095 Clear 22 1021 57 0 2.53 83.125 23:53 24.08.2019
3096 Clear 22 1021 55 0 2.53 83.125 23:24 24.08.2019
3097 Clear 23 1021 52 0 2.53 83.125 22:58 24.08.2019
3098 Clear 23 1021 51 0 0.45 21 22:40 24.08.2019
3099 Clear 23 1021 49 0 0.45 346 22:19 24.08.2019
3100 Clear 23 1021 47 0 0.45 23 21:57 24.08.2019
3101 Clear 22 1016 50 0 2.53 83.125 21:39 24.08.2019
3102 Clouds 24 1021 45 0 0.89 47 21:20 24.08.2019
3103 Clouds 24 1021 45 0 0.89 38 21:20 24.08.2019
3104 Clouds 25 1021 44 0 0.89 31 20:57 24.08.2019
3105 Clouds 25 1021 43 0 0.45 93 20:38 24.08.2019
3106 Clouds 26 1020 41 0 1.79 64 20:18 24.08.2019
3107 Clouds 27 1020 39 0 0.89 73 19:57 24.08.2019
3108 Clouds 27 1020 38 0 0.89 83 19:38 24.08.2019
3109 Clouds 27 1020 36 0 1.34 60 19:19 24.08.2019
3110 Clouds 28 1021 34 0 0.45 94 18:45 24.08.2019
3111 Clouds 29 1020 32 0 1.34 98 18:23 24.08.2019
3112 Clouds 30 1021 31 0 0.45 94 17:46 24.08.2019
3113 Clouds 30 1021 29 0 3.58 100 17:27 24.08.2019
3114 Clouds 30 1021 30 0 0.45 69 16:56 24.08.2019
3115 Clouds 30 1021 27 0 3.58 18 16:37 24.08.2019
3116 Clouds 30 1021 30 0 3.85 92.486 16:19 24.08.2019
3117 Clouds 30 1022 29 0 1.34 60 15:44 24.08.2019
3118 Clear 30 1022 28 0 2.68 132 15:25 24.08.2019
3119 Clear 30 1022 30 0 4.02 23 14:57 24.08.2019
3120 Clear 29 1022 31 0 1.34 91 14:38 24.08.2019
3121 Clear 29 1022 30 0 1.79 112 14:18 24.08.2019
3122 Clear 29 1022 33 0 1.34 126 13:43 24.08.2019
3123 Clear 29 1023 34 0 2.24 66 13:22 24.08.2019
3124 Clear 29 1023 35 0 1.79 104 12:59 24.08.2019
3125 Clear 27 1023 35 0 1.34 5 12:40 24.08.2019
3126 Clear 27 1020 37 0 3.48 95.488 12:22 24.08.2019
3127 Clear 27 1020 37 0 3.48 95.488 12:22 24.08.2019
3128 Clear 26 1023 40 0 2.24 111 11:49 24.08.2019
3129 Clear 26 1024 41 0 2.68 102 11:31 24.08.2019
3130 Clear 26 1024 42 0 3.13 94 10:59 24.08.2019
3131 Clear 26 1024 45 0 1.79 97 10:40 24.08.2019
3132 Clear 24 1024 43 0 0.45 93 10:21 24.08.2019
3133 Clear 23 1024 41 0 1.34 14 09:42 24.08.2019
3134 Clear 21 1019 54 0 1.68 95.7 09:19 24.08.2019
3135 Clear 19 1019 65 0 1.68 95.7 08:43 24.08.2019
3136 Clear 18 1019 65 0 1.68 95.7 08:25 24.08.2019
3137 Clear 17 1024 49 0 0.89 4 07:53 24.08.2019
3138 Clear 16 1024 71 0 1.68 95.7 07:31 24.08.2019
3139 Clear 14 1024 74 0 1.68 95.7 06:58 24.08.2019
3140 Clear 13 1024 77 0 1.6 106.404 06:23 24.08.2019
3141 Clear 13 1024 74 0 0.45 318 05:40 24.08.2019
3142 Clear 15 1024 68 0 1.6 106.404 03:51 24.08.2019
3143 Clear 15 1024 67 0 1.6 106.404 03:32 24.08.2019
3144 Clear 16 1024 64 0 1.66 71.532 02:24 24.08.2019
3145 Clear 16 1024 60 0 1.49 56.768 01:30 24.08.2019
3146 Clear 17 1024 58 0 1.49 56.768 00:49 24.08.2019
3147 Clear 18 1024 55 0 1.5 97.03 00:24 24.08.2019
3148 Clear 18 1024 51 0 1.5 97.03 23:49 23.08.2019
3149 Clear 19 1024 48 0 1.5 97.03 23:24 23.08.2019
3150 Clear 19 1024 49 0 1.5 97.03 22:59 23.08.2019
3151 Clear 20 1024 46 0 1.5 97.03 22:41 23.08.2019
3152 Clear 21 1024 41 0 1.5 97.03 22:20 23.08.2019
3153 Clear 22 1019 44 0 1.24 64.555 21:38 23.08.2019
3154 Clear 23 1024 38 0 0.45 35 21:20 23.08.2019
3155 Clear 24 1024 37 0 0.45 42 20:55 23.08.2019
3156 Clear 24 1024 36 0 0.45 38 20:37 23.08.2019
3157 Clear 25 1024 34 0 0.45 15 20:18 23.08.2019
3158 Clear 26 1025 35 0 0.45 183 19:42 23.08.2019
3159 Clear 27 1023 28 0 0.45 16 19:18 23.08.2019
3160 Clear 28 1023 27 0 0.89 70 18:44 23.08.2019
3161 Clear 28 1023 26 0 2.68 80 18:26 23.08.2019
3162 Clear 29 1024 23 0 2.04 36.853 17:47 23.08.2019
3163 Clear 29 1024 22 0 2.04 36.853 17:28 23.08.2019
3164 Clear 29 1024 22 0 0.89 208 16:59 23.08.2019
3165 Clear 29 1024 21 0 2.04 36.853 16:40 23.08.2019
3166 Clear 29 1024 21 0 1.79 31 16:22 23.08.2019
3167 Clear 29 1024 20 0 2.04 36.853 15:55 23.08.2019
3168 Clear 29 1025 22 0 1.79 181 15:36 23.08.2019
3169 Clear 29 1025 21 0 1.79 15 15:18 23.08.2019
3170 Clear 29 1025 23 0 0.16 126.055 14:41 23.08.2019
3171 Clear 28 1025 25 0 0.45 16 14:21 23.08.2019
3172 Clear 29 1025 25 0 0.45 152 13:56 23.08.2019
3173 Clear 29 1026 25 0 1.79 212 13:38 23.08.2019
3174 Clear 29 1026 27 0 0.45 35 13:19 23.08.2019
3175 Clear 28 1026 27 0 1.34 101 12:57 23.08.2019
3176 Clear 26 1026 29 0 0.45 40 12:38 23.08.2019
3177 Clear 26 1026 30 0 0.89 152 12:20 23.08.2019
3178 Clear 26 1025 32 0 1.79 114 11:55 23.08.2019
3179 -273 0 0 0 0 0 11:55 23.08.2019
3180 Clear 25 1025 35 0 1.08 194.036 11:36 23.08.2019
3181 Clear 24 1026 40 0 1.34 153 11:18 23.08.2019
3182 Clear 25 1026 46 0 1.34 95 10:42 23.08.2019
3183 Clear 23 1027 45 0 1.34 169 10:21 23.08.2019
3184 Clear 21 1027 62 0 0.45 61 09:56 23.08.2019
3185 Clear 20 1022 59 0 0.91 177.103 09:38 23.08.2019
3186 Clear 19 1027 68 0 0.45 92 09:18 23.08.2019
3187 Clear 16 1021 71 0 1 178.973 08:40 23.08.2019
3188 Clear 15 1021 72 0 1 178.973 08:19 23.08.2019
3189 Clear 13 1026 75 0 0.45 148 07:43 23.08.2019
3190 Clear 14 1026 75 0 1 178.973 07:24 23.08.2019
3191 Clear 14 1026 75 0 1 178.973 07:24 23.08.2019
3192 Clear 13 1026 75 0 1 178.973 06:57 23.08.2019
3193 Clear 13 1026 77 0 1 178.973 06:38 23.08.2019
3194 Clear 11 1026 76 0 0.45 84 06:20 23.08.2019
3195 Clear 12 1026 74 0 1.41 203.748 05:34 23.08.2019
3196 Clear 12 1026 73 0 1.41 203.748 04:52 23.08.2019
3197 Clear 13 1026 69 0 1.88 167.402 03:22 23.08.2019
3198 Clear 14 1026 66 0 1.88 167.402 02:23 23.08.2019
3199 Clear 14 1026 66 0 1.88 167.402 02:23 23.08.2019
3200 Clear 14 1026 63 0 1.88 167.402 01:47 23.08.2019
3201 Clear 15 1026 62 0 1.9 170.805 00:46 23.08.2019
3202 Clear 15 1026 60 0 1.54 170.727 00:22 23.08.2019
3203 Clear 15 1025 58 0 1.54 170.727 23:50 22.08.2019
3204 Clear 16 1025 58 0 1.54 170.727 23:32 22.08.2019
3205 Clear 17 1025 57 0 1.54 170.727 22:58 22.08.2019
3206 Clear 17 1025 57 0 1.54 170.727 22:40 22.08.2019
3207 Clear 17 1025 55 0 1.54 170.727 22:22 22.08.2019
3208 Clear 18 1025 52 0 1.54 170.727 21:57 22.08.2019
3209 Clear 19 1025 49 0 1.74 160.366 21:39 22.08.2019
3210 Clear 20 1025 47 0 1.82 161.615 21:20 22.08.2019
3211 Clear 21 1025 43 0 1.82 161.615 20:57 22.08.2019
3212 Clear 21 1025 40 0 1.82 161.615 20:38 22.08.2019
3213 Clear 23 1025 37 0 1.82 161.615 20:19 22.08.2019
3214 Clear 23 1024 35 0 1.82 161.615 19:56 22.08.2019
3215 Clear 23 1024 35 0 1.82 161.615 19:55 22.08.2019
3216 Clear 23 1023 28 0 0.89 0 19:37 22.08.2019
3217 Clear 25 1024 31 0 1.82 161.615 19:19 22.08.2019
3218 Clear 25 1024 30 0 1.79 87 18:56 22.08.2019
3219 Clear 26 1024 30 0 1.34 132 18:37 22.08.2019
3220 Clear 26 1024 27 0 2.77 189.884 18:18 22.08.2019
3221 Clear 26 1025 26 0 0.45 122 17:42 22.08.2019
3222 Clear 26 1025 25 0 2.77 189.884 17:22 22.08.2019
3223 Clear 26 1025 25 0 0.89 141 16:58 22.08.2019
3224 Clear 26 1025 24 0 2.77 189.884 16:40 22.08.2019
3225 Clear 26 1025 23 0 2.77 189.884 16:21 22.08.2019
3226 Clear 26 1025 23 0 0.45 86 15:59 22.08.2019
3227 Clear 26 1025 23 0 1.34 83 15:59 22.08.2019
3228 Clear 26 1025 25 0 2.68 129 15:38 22.08.2019
3229 Clear 26 1025 24 0 1.34 80 15:38 22.08.2019
3230 Clouds 26 1026 34 0 0.89 106 15:20 22.08.2019
3231 Clouds 26 1026 34 0 0.89 106 15:20 22.08.2019
3232 Clouds 26 1026 34 0 0.45 294 14:56 22.08.2019
3233 Clouds 26 1025 25 0 0.45 173 14:38 22.08.2019
3234 Clouds 26 1026 26 0 2.68 152 14:18 22.08.2019
3235 Clouds 27 1025 26 0 0.45 163 13:55 22.08.2019
3236 Clouds 26 1026 25 0 3.61 173.884 13:36 22.08.2019
3237 Clear 26 1026 27 0 1.34 201 13:18 22.08.2019
3238 Clear 26 1027 29 0 0.45 211 12:40 22.08.2019
3239 Clear 25 1027 29 0 3.11 171.729 12:21 22.08.2019
3240 Clear 24 1027 31 0 4.02 167 11:55 22.08.2019
3241 Clear 24 1027 35 0 0.45 239 11:36 22.08.2019
3242 Clear 23 1027 37 0 1.79 66 11:18 22.08.2019
3243 Clear 23 1028 40 0 1.34 77 10:57 22.08.2019
3244 Clear 23 1028 43 0 0.89 194 10:36 22.08.2019
3245 Clear 22 1023 33 0 3.11 171.729 10:18 22.08.2019
3246 Clear 20 1023 54 0 3.23 172.758 09:40 22.08.2019
3247 Clear 18 1023 57 0 2.07 145.375 09:21 22.08.2019
3248 Clear 17 1028 61 0 2.07 145.375 08:59 22.08.2019
3249 Clear 15 1023 61 0 2.07 145.375 08:40 22.08.2019
3250 Clear 13 1023 74 0 2.07 145.375 08:21 22.08.2019
3251 Clear 12 1028 71 0 2.07 145.375 07:43 22.08.2019
3252 Clear 11 1028 77 0 2.07 145.375 07:24 22.08.2019
3253 Clear 11 1028 79 0 2.07 145.375 06:59 22.08.2019
3254 Clear 10 1028 80 0 2.07 145.375 06:41 22.08.2019
3255 Clear 10 1028 80 0 1.74 125.338 06:19 22.08.2019
3256 Clear 10 1028 77 0 1.74 125.338 04:42 22.08.2019
3257 Clouds 11 1028 74 0 1.45 134.387 02:56 22.08.2019
3258 Clouds 12 1028 73 0 1.45 134.387 02:35 22.08.2019
3259 Clouds 12 1028 70 0 1.39 151.198 01:27 22.08.2019
3260 Clouds 13 1028 68 0 1.39 151.198 00:49 22.08.2019
3261 Clouds 13 1028 67 0 1.39 151.198 00:30 22.08.2019
3262 Clouds 13 1028 67 0 1.39 151.198 00:30 22.08.2019
3263 Clouds 14 1028 65 0 0.22 110.005 23:59 21.08.2019
3264 Clouds 14 1028 65 0 0.22 110.005 23:39 21.08.2019
3265 Clouds 14 1028 64 0 0.22 110.005 23:21 21.08.2019
3266 Clouds 15 1028 62 0 0.22 110.005 22:57 21.08.2019
3267 Clouds 15 1028 61 0 0.22 110.005 22:38 21.08.2019
3268 Clouds 16 1028 61 0 0.22 110.005 22:20 21.08.2019
3269 Clouds 16 1028 57 0 0.22 110.005 21:55 21.08.2019
3270 Clouds 17 1028 57 0 1.36 146.872 21:37 21.08.2019
3271 Clear 18 1028 52 0 0.9 40.594 21:18 21.08.2019
3272 Clear 19 1027 47 0 0.45 300 20:44 21.08.2019
3273 Clear 20 1027 44 0 0.9 40.594 20:25 21.08.2019
3274 Clear 21 1027 41 0 1.34 324 19:59 21.08.2019
3275 Clear 21 1027 39 0 0.45 310 19:41 21.08.2019
3276 Clear 22 1027 36 0 0.45 11 19:23 21.08.2019
3277 Clear 22 1027 34 0 0.89 310 18:56 21.08.2019
3278 Clear 22 1027 34 0 0.45 355 18:56 21.08.2019
3279 Clear 22 1027 35 0 0.89 348 18:38 21.08.2019
3280 Clear 23 1027 33 0 2.15 310.622 18:20 21.08.2019
3281 Clear 23 1027 30 0 0.89 315 17:44 21.08.2019
3282 Clear 24 1027 28 0 1.34 231 17:21 21.08.2019
3283 Clear 24 1019 27 0 0.45 290 16:57 21.08.2019
3284 Clear 24 1027 27 0 2.15 310.622 16:39 21.08.2019
3285 Clear 25 1027 27 0 1.79 289 16:18 21.08.2019
3286 Clear 24 1027 27 0 1.79 339 15:56 21.08.2019
3287 Clear 24 1027 27 0 1.79 318 15:38 21.08.2019
3288 Clear 23 1022 28 0 1.34 28 15:18 21.08.2019
3289 Clear 24 1028 29 0 1.34 327 14:54 21.08.2019
3290 Clear 24 1028 29 0 1.34 327 14:54 21.08.2019
3291 Clear 24 1028 30 0 0.45 14 14:36 21.08.2019
3292 Clear 23 1028 33 0 0.45 203 14:18 21.08.2019
3293 Clear 23 1027 30 0 3.13 211 13:43 21.08.2019
3294 Clear 23 1028 33 0 0.45 243 13:20 21.08.2019
3295 Clear 23 1027 33 0 0.45 235 12:58 21.08.2019
3296 Clear 22 1027 34 0 1.34 322 12:40 21.08.2019
3297 Clear 21 1028 38 0 1.34 162 12:20 21.08.2019
3298 Clear 21 1028 39 0 0.89 296 11:54 21.08.2019
3299 Clear 20 1028 44 0 0.45 351 11:36 21.08.2019
3300 Clear 20 1028 47 0 1.79 222 11:18 21.08.2019
3301 Clear 20 1028 49 0 1.79 298 10:55 21.08.2019
3302 Clear 19 1028 53 0 1.79 283 10:37 21.08.2019
3303 Clear 19 1028 48 0 1.79 351 10:18 21.08.2019
3304 Clear 18 1028 68 0 0.89 6 09:41 21.08.2019
3305 Clouds 17 1023 65 0 2.86 285.517 09:22 21.08.2019
3306 Clouds 16 1028 72 0 0.45 354 08:56 21.08.2019
3307 Clouds 16 1028 74 0 0.45 11 08:37 21.08.2019
3308 Clouds 15 1023 72 0 2.86 285.517 08:19 21.08.2019
3309 Clouds 14 1027 74 0 2.86 285.517 07:39 21.08.2019
3310 Clouds 13 1027 74 0 2.86 285.517 07:20 21.08.2019
3311 Clouds 12 1027 79 0 0.45 172 06:46 21.08.2019
3312 Clouds 13 1027 80 0 2.56 273.298 06:20 21.08.2019
3313 Clouds 13 1026 77 0 2.56 273.298 05:31 21.08.2019
3314 Clouds 13 1026 76 0 2.56 273.298 04:59 21.08.2019
3315 Clouds 15 1025 68 0 1.75 269.018 02:55 21.08.2019
3316 Clouds 16 1025 64 0 0.45 241 01:42 21.08.2019
3317 Clouds 17 1024 60 0 0.45 255 00:43 21.08.2019
3318 Clouds 17 1024 59 0 0.45 239 00:22 21.08.2019
3319 Clouds 17 1024 58 0 2 275.736 23:56 20.08.2019
3320 Clouds 18 1024 57 0 2 275.736 23:38 20.08.2019
3321 Clouds 18 1024 55 0 2 275.736 23:18 20.08.2019
3322 Clouds 18 1024 54 0 0.45 276 22:55 20.08.2019
3323 Clouds 18 1023 53 0 0.45 218 22:36 20.08.2019
3324 Clouds 18 1023 54 0 2 275.736 22:18 20.08.2019
3325 Clouds 19 1023 54 0 2 275.736 21:56 20.08.2019
3326 Clouds 19 1023 54 0 1.91 274.325 21:37 20.08.2019
3327 Clouds 19 1023 52 0 1.57 235.589 21:18 20.08.2019
3328 Clouds 20 1023 47 0 1.57 235.589 20:42 20.08.2019
3329 Clouds 20 1023 47 0 1.57 235.589 20:42 20.08.2019
3330 Clouds 20 1023 47 0 1.57 235.589 20:24 20.08.2019
3331 Clouds 20 1022 44 0 1.57 235.589 19:54 20.08.2019
3332 Clouds 21 1017 43 0 1.57 235.589 19:36 20.08.2019
3333 Clouds 21 1017 43 0 1.57 235.589 19:36 20.08.2019
3334 Clouds 21 1021 39 0 0.45 339 19:18 20.08.2019
3335 Clouds 22 1022 38 0 1.79 331 18:54 20.08.2019
3336 Clouds 22 1022 39 0 0.45 300 18:54 20.08.2019
3337 Clouds 22 1022 38 0 0.89 325 18:36 20.08.2019
3338 Clouds 23 1022 37 0 1.79 318 18:18 20.08.2019
3339 Clouds 23 1022 34 0 3.2 264.589 17:39 20.08.2019
3340 Clouds 23 1022 34 0 1.34 320 17:20 20.08.2019
3341 Clouds 24 1017 35 0 3.2 264.589 16:48 20.08.2019
3342 Clouds 24 1021 44 0 3.2 264.589 16:28 20.08.2019
3343 Clouds 24 1021 44 0 3.2 264.589 15:59 20.08.2019
3344 Clouds 24 1021 43 0 3.2 264.589 15:41 20.08.2019
3345 Clouds 24 1021 42 0 3.77 263.604 15:18 20.08.2019
3346 Clouds 25 1021 36 0 3.77 263.604 14:55 20.08.2019
3347 Clouds 25 1022 35 0 0.89 301 14:37 20.08.2019
3348 Clouds 25 1022 42 0 0.45 6 14:18 20.08.2019
3349 Clouds 25 1021 34 0 0.45 282 13:55 20.08.2019
3350 Clouds 25 1022 34 0 3.26 256.216 13:36 20.08.2019
3351 Clouds 25 1022 35 0 3.26 256.216 13:18 20.08.2019
3352 Clouds 24 1022 36 0 1.34 7 12:45 20.08.2019
3353 Clouds 24 1022 45 0 0.45 90 12:24 20.08.2019
3354 Clouds 23 1022 40 0 0.89 300 11:56 20.08.2019
3355 Clouds 23 1022 40 0 0.89 317 11:38 20.08.2019
3356 Clouds 22 1022 41 0 2.24 297 11:18 20.08.2019
3357 Clouds 22 1022 40 0 0.89 324 10:56 20.08.2019
3358 Clouds 22 1022 39 0 0.89 276 10:37 20.08.2019
3359 Clouds 22 1022 36 0 2.68 294 10:18 20.08.2019
3360 Clouds 19 1021 61 0 2.99 262.117 09:41 20.08.2019
3361 Clouds 18 1021 63 0 1.81 242.286 09:22 20.08.2019
3362 Clouds 17 1016 61 0 1.81 242.286 08:43 20.08.2019
3363 Clouds 17 1016 61 0 1.81 242.286 08:43 20.08.2019
3364 Clouds 16 1016 71 0 1.81 242.286 08:24 20.08.2019
3365 Clouds 14 1016 82 0 1.81 242.286 07:58 20.08.2019
3366 Clouds 14 1021 72 0 1.81 242.286 07:40 20.08.2019
3367 Clouds 14 1021 74 0 1.81 242.286 07:22 20.08.2019
3368 Clouds 14 1020 79 0 1.81 242.286 06:48 20.08.2019
3369 Clouds 12 1020 79 0 1.67 241.915 06:22 20.08.2019
3370 Clouds 12 1020 76 0 1.67 241.915 05:48 20.08.2019
3371 Clouds 12 1015 82 0 1.67 241.915 04:56 20.08.2019
3372 Clouds 12 1020 73 0 1.67 241.915 03:28 20.08.2019
3373 Clouds 13 1020 73 0 1.76 246.789 02:32 20.08.2019
3374 Clouds 14 1019 75 0 0.45 138 01:24 20.08.2019
3375 Clouds 14 1019 73 0 1.62 237.545 00:48 20.08.2019
3376 Clouds 14 1019 72 0 1.62 237.545 00:48 20.08.2019
3377 Clouds 14 1019 72 0 1.62 237.545 00:30 20.08.2019
3378 Clouds 15 1019 71 0 1.88 242.015 23:56 19.08.2019
3379 Clouds 15 1019 69 0 1.88 242.015 23:36 19.08.2019
3380 Clouds 15 1019 69 0 1.88 242.015 23:18 19.08.2019
3381 Clouds 16 1018 67 0 1.88 242.015 22:41 19.08.2019
3382 Clouds 16 1018 66 0 1.88 242.015 22:21 19.08.2019
3383 Clouds 17 1018 64 0 1.88 242.015 21:58 19.08.2019
3384 Clouds 18 1018 61 0 1.98 226.327 21:39 19.08.2019
3385 Clouds 18 1018 61 0 2.17 220.833 21:20 19.08.2019
3386 Clouds 18 1018 61 0 2.17 220.833 21:20 19.08.2019
3387 Clouds 19 1018 59 0 2.17 220.833 20:59 19.08.2019
3388 Clouds 20 1018 51 0 2.17 220.833 20:38 19.08.2019
3389 Clouds 22 1018 46 0 0.45 279 20:20 19.08.2019
3390 Clouds 21 1017 44 0 0.45 12 19:55 19.08.2019
3391 Clouds 21 1017 44 0 0.45 12 19:55 19.08.2019
3392 Clouds 21 1017 44 0 2.17 220.833 19:37 19.08.2019
3393 Clouds 22 1017 43 0 0.45 290 19:19 19.08.2019
3394 Clouds 23 1017 39 0 0.45 355 18:44 19.08.2019
3395 Clouds 24 1017 36 0 4.22 252.273 18:26 19.08.2019
3396 Clouds 24 1017 34 0 0.45 241 17:58 19.08.2019
3397 Clouds 25 1017 32 0 0.45 232 17:40 19.08.2019
3398 Clouds 25 1017 35 0 4.22 252.273 17:20 19.08.2019
3399 Clouds 24 1017 32 0 0.45 186 16:58 19.08.2019
3400 Clouds 25 1017 32 0 2.68 184 16:37 19.08.2019
3401 Clouds 25 1017 33 0 5.36 217 16:19 19.08.2019
3402 Clouds 25 1017 36 0 0.89 155 15:55 19.08.2019
3403 Clouds 25 1017 36 0 2.24 1 15:36 19.08.2019
3404 Clouds 24 1016 37 0 1.34 283 15:18 19.08.2019
3405 Clouds 24 1016 38 0 1.34 241 14:40 19.08.2019
3406 Clouds 24 1016 37 0 1.79 207 14:21 19.08.2019
3407 Clouds 24 1016 36 0 1.34 266 13:57 19.08.2019
3408 Clouds 24 1016 37 0 5.31 252.135 13:38 19.08.2019
3409 Clouds 24 1016 38 0 3.58 228 13:19 19.08.2019
3410 Clouds 23 1016 38 0 0.45 156 12:45 19.08.2019
3411 Clouds 22 1016 40 0 4.02 246 12:24 19.08.2019
3412 Clouds 22 1015 43 0 4.89 254.471 11:59 19.08.2019
3413 Clouds 21 1015 44 0 4.89 254.471 11:39 19.08.2019
3414 Clouds 21 1015 45 0 3.58 224 11:20 19.08.2019
3415 Clouds 21 1015 52 0 0.45 260 10:55 19.08.2019
3416 Clouds 20 1015 53 0 1.79 207 10:37 19.08.2019
3417 Clouds 20 1015 47 0 2.24 263 10:18 19.08.2019
3418 Clouds 19 1010 61 0 4.89 254.471 09:43 19.08.2019
3419 Clouds 18 1015 88 0 0.89 285 09:22 19.08.2019
3420 Clouds 18 1014 84 0 3.98 250.863 08:56 19.08.2019
3421 Clouds 17 1014 85 0 3.98 250.863 08:38 19.08.2019
3422 Clouds 17 1014 88 0 3.98 250.863 08:18 19.08.2019
3423 Clouds 16 1014 88 0 3.98 250.863 07:44 19.08.2019
3424 Clouds 16 1014 89 0 3.98 250.863 07:26 19.08.2019
3425 Clouds 15 1013 89 0 3.98 250.863 06:45 19.08.2019
3426 Clouds 15 1013 89 0 2.32 229.415 06:25 19.08.2019
3427 Clouds 16 1013 88 0 2.32 229.415 04:54 19.08.2019
3428 Clouds 16 1013 88 0 2.32 229.415 04:25 19.08.2019
3429 Clouds 16 1012 88 0 1.84 251.545 03:21 19.08.2019
3430 Clouds 16 1011 88 0 1.84 251.545 02:23 19.08.2019
3431 Clouds 17 1011 87 0 1.33 255.254 01:31 19.08.2019
3432 Clouds 17 1011 86 0 1.33 255.254 00:43 19.08.2019
3433 Clouds 17 1010 87 0 2.22 276.921 00:23 19.08.2019
3434 Clouds 18 1010 86 0 2.22 276.921 23:42 18.08.2019
3435 Clouds 18 1010 86 0 0.45 320 23:21 18.08.2019
3436 Clouds 18 1009 87 0 2.22 276.921 22:56 18.08.2019
3437 Clouds 18 1009 87 0 1.34 215 22:38 18.08.2019
3438 Clouds 18 1009 87 0 2.22 276.921 22:20 18.08.2019
3439 Clouds 18 1008 87 0 2.22 276.921 21:55 18.08.2019
3440 Clouds 17 1009 91 0 2.22 276.921 21:37 18.08.2019
3441 Rain 20 1008 79 0 3.57 269.936 21:18 18.08.2019
3442 Rain 20 1008 79 0 3.57 269.936 20:43 18.08.2019
3443 Rain 20 1008 79 0 3.57 269.936 20:25 18.08.2019
3444 Rain 20 1008 79 0 3.57 269.936 19:55 18.08.2019
3445 Rain 20 1008 79 0 3.57 269.936 19:37 18.08.2019
3446 Rain 20 1008 79 0 3.57 269.936 19:19 18.08.2019
3447 Rain 20 1008 79 0 3.57 269.936 18:41 18.08.2019
3448 Rain 23 1006 71 0 5.7 248.923 18:23 18.08.2019
3449 Rain 27 1004 46 0 0.45 270 17:59 18.08.2019
3450 Rain 27 1004 46 0 0.45 270 17:41 18.08.2019
3451 Rain 27 1004 46 0 0.45 270 17:19 18.08.2019
3452 Rain 27 1004 46 0 0.45 270 16:57 18.08.2019
3453 Rain 28 1004 45 0 0.89 131 16:38 18.08.2019
3454 Rain 28 1004 44 0 1.79 159 16:20 18.08.2019
3455 Rain 27 1004 43 0 0.45 260 16:20 18.08.2019
3456 Rain 26 1005 50 0 0.45 245 15:57 18.08.2019
3457 Rain 26 1005 52 0 1.79 180 15:38 18.08.2019
3458 Clouds 26 1005 48 0 4.47 148 15:20 18.08.2019
3459 Clouds 26 1005 46 0 2.24 155 14:54 18.08.2019
3460 Clouds 25 1005 48 0 2.68 234 14:36 18.08.2019
3461 Clouds 25 1006 47 0 1.34 212 14:18 18.08.2019
3462 Clouds 24 1006 47 0 2.16 208.547 13:42 18.08.2019
3463 Clouds 20 1005 84 0 2.16 208.547 13:23 18.08.2019
3464 Clouds 20 1005 84 0 2.16 208.547 12:58 18.08.2019
3465 Clouds 20 1005 84 0 2.16 208.547 12:39 18.08.2019
3466 Rain 17 1006 96 0 2.66 159.945 12:21 18.08.2019
3467 Rain 17 1006 96 0 2.66 159.945 11:43 18.08.2019
3468 Rain 17 1006 96 0 2.66 159.945 11:23 18.08.2019
3469 Rain 17 1006 96 0 2.66 159.945 10:59 18.08.2019
3470 Rain 17 1006 96 0 2.66 159.945 10:40 18.08.2019
3471 Rain 17 1006 96 0 2.66 159.945 10:19 18.08.2019
3472 Rain 17 1006 96 0 2.66 159.945 09:45 18.08.2019
3473 Rain 17 1007 96 0 1.71 183.914 09:21 18.08.2019
3474 Rain 17 1007 96 0 1.71 183.914 08:44 18.08.2019
3475 Rain 17 1007 96 0 1.71 183.914 08:25 18.08.2019
3476 Rain 17 1007 96 0 1.71 183.914 08:25 18.08.2019
3477 Rain 17 1007 96 0 1.71 183.914 07:59 18.08.2019
3478 Rain 17 1007 96 0 1.71 183.914 07:41 18.08.2019
3479 Rain 17 1007 96 0 1.71 183.914 07:22 18.08.2019
3480 Clouds 17 1007 85 0 2.01 206.081 05:45 18.08.2019
3481 Clouds 17 1007 85 0 2.01 206.081 04:51 18.08.2019
3482 Clouds 17 1008 83 0 2.51 204.852 03:22 18.08.2019
3483 Clouds 17 1008 83 0 2.51 204.852 02:45 18.08.2019
3484 Clouds 17 1008 83 0 2.51 204.852 02:19 18.08.2019
3485 Clouds 17 1008 81 0 2.12 215.89 01:30 18.08.2019
3486 Clouds 17 1008 81 0 2.12 215.89 00:44 18.08.2019
3487 Clouds 17 1009 82 0 1.94 208.217 00:24 18.08.2019
3488 Clouds 17 1009 82 0 1.94 208.217 23:58 17.08.2019
3489 Clouds 17 1009 82 0 1.94 208.217 23:40 17.08.2019
3490 Clouds 17 1009 82 0 1.94 208.217 23:22 17.08.2019
3491 Clouds 17 1009 82 0 1.94 208.217 22:59 17.08.2019
3492 Clouds 17 1009 82 0 1.94 208.217 22:41 17.08.2019
3493 Clouds 17 1009 82 0 1.94 208.217 22:23 17.08.2019
3494 Clouds 17 1009 82 0 1.94 208.217 21:59 17.08.2019
3495 Clouds 17 1009 82 0 1.94 208.217 21:40 17.08.2019
3496 Clouds 20 1009 72 0 2.86 216.573 21:21 17.08.2019
3497 Clouds 20 1009 72 0 2.86 216.573 20:40 17.08.2019
3498 Clouds 23 1009 44 0 0.45 212 20:21 17.08.2019
3499 Clouds 24 1009 44 0 0.45 212 19:58 17.08.2019
3500 Clouds 24 1009 44 0 0.45 212 19:39 17.08.2019
3501 Clouds 24 1009 44 0 0.45 212 19:20 17.08.2019
3502 Clouds 25 1009 53 0 3.13 263 18:41 17.08.2019
3503 Clouds 25 1008 42 0 1.79 201 18:19 17.08.2019
3504 Clouds 25 1008 41 0 0.45 139 17:59 17.08.2019
3505 Clouds 25 1008 39 0 1.34 276 17:41 17.08.2019
3506 Clouds 25 1008 38 0 0.89 242 17:21 17.08.2019
3507 Clouds 26 1008 36 0 1.34 269 16:55 17.08.2019
3508 Clouds 26 1008 37 0 4.77 238.175 16:36 17.08.2019
3509 Clouds 26 1008 37 0 0.89 197 16:18 17.08.2019
3510 Clouds 26 1009 46 0 4.47 248 15:41 17.08.2019
3511 Clouds 26 1009 45 0 4.02 249 15:21 17.08.2019
3512 Clouds 26 1003 36 0 4.83 220.64 14:57 17.08.2019
3513 Clouds 26 1009 45 0 4.47 272 14:37 17.08.2019
3514 Clouds 26 1009 45 0 4.02 281 14:18 17.08.2019
3515 Clouds 25 1010 49 0 2.68 203 13:42 17.08.2019
3516 Clouds 25 1009 39 0 1.34 155 13:19 17.08.2019
3517 Clouds 25 1009 46 0 1.79 170 12:43 17.08.2019
3518 Rain 23 1005 48 0 3.94 183.233 12:20 17.08.2019
3519 Rain 23 1008 58 0 1.79 0 11:58 17.08.2019
3520 Rain 22 1011 53 0 1.34 134 11:38 17.08.2019
3521 Rain 22 1010 52 0 3.13 181 11:19 17.08.2019
3522 Rain 21 1010 52 0 1.34 142 10:40 17.08.2019
3523 Rain 21 1011 53 0 3.58 172 10:21 17.08.2019
3524 Rain 19 1011 61 0 2.24 139 09:57 17.08.2019
3525 Rain 18 1011 64 0 0.89 125 09:37 17.08.2019
3526 Clouds 18 1012 72 0 0.45 139 09:18 17.08.2019
3527 Clouds 17 1006 75 0 3.37 167.584 08:46 17.08.2019
3528 Clouds 17 1011 73 0 0.45 176 08:20 17.08.2019
3529 Clouds 16 1011 75 0 3.37 167.584 07:42 17.08.2019
3530 Clouds 16 1011 74 0 3.37 167.584 07:20 17.08.2019
3531 Clouds 16 1011 74 0 3.37 167.584 07:20 17.08.2019
3532 Clouds 15 1011 70 0 0.45 143 06:25 17.08.2019
3533 Clouds 15 1012 68 0 3.12 169.562 04:36 17.08.2019
3534 Clouds 15 1012 68 0 0.45 150 04:18 17.08.2019
3535 Clouds 14 1013 68 0 3.07 159.19 02:38 17.08.2019
3536 Clouds 14 1013 66 0 3.68 158.872 01:39 17.08.2019
3537 Clouds 14 1014 66 0 0.89 149 01:20 17.08.2019
3538 Clouds 14 1014 65 0 3.68 158.872 00:46 17.08.2019
3539 Clouds 15 1014 65 0 2.32 161.166 00:21 17.08.2019
3540 Clouds 15 1014 63 0 2.32 161.166 23:44 16.08.2019
3541 Clouds 15 1014 64 0 2.32 161.166 23:24 16.08.2019
3542 Clouds 16 1015 65 0 2.32 161.166 22:43 16.08.2019
3543 Clouds 16 1015 63 0 2.32 161.166 22:20 16.08.2019
3544 Clouds 17 1015 62 0 2.32 161.166 21:59 16.08.2019
3545 Clouds 17 1015 61 0 2.4 156.442 21:39 16.08.2019
3546 Clouds 18 1015 60 0 1.04 239.982 21:19 16.08.2019
3547 Clouds 19 1014 54 0 1.04 239.982 20:43 16.08.2019
3548 Clouds 21 1015 55 0 1.04 239.982 20:21 16.08.2019
3549 Clouds 21 1014 51 0 1.04 239.982 19:59 16.08.2019
3550 Clouds 21 1013 48 0 0.45 0 19:39 16.08.2019
3551 Clouds 22 1014 39 0 1.04 239.982 19:20 16.08.2019
3552 Clouds 22 1014 40 0 1.04 239.982 19:20 16.08.2019
3553 Clouds 23 1015 39 0 1.79 221 18:42 16.08.2019
3554 Clouds 23 1015 37 0 1.79 229 18:23 16.08.2019
3555 Clouds 23 1015 37 0 0.89 215 17:48 16.08.2019
3556 Clouds 23 1015 35 0 1.34 191 17:30 16.08.2019
3557 Clouds 23 1015 34 0 1.34 222 17:30 16.08.2019
3558 Clouds 24 1015 34 0 0.45 311 16:59 16.08.2019
3559 Clouds 23 1016 37 0 1.34 359 16:41 16.08.2019
3560 Clouds 24 1015 33 0 0.45 207 16:20 16.08.2019
3561 Clouds 24 1015 30 0 0.89 307 15:56 16.08.2019
3562 Clouds 24 1016 37 0 1.34 289 15:38 16.08.2019
3563 Rain 23 1016 36 0 0.89 42 15:20 16.08.2019
3564 Rain 23 1016 38 0 0.45 274 14:57 16.08.2019
3565 Rain 23 1016 39 0 0.45 249 14:38 16.08.2019
3566 Rain 23 1011 45 0 5.18 261.213 14:18 16.08.2019
3567 Rain 22 1016 39 0 1.34 187 13:41 16.08.2019
3568 Rain 22 1016 43 0 4.89 259.231 13:22 16.08.2019
3569 Rain 22 1016 43 0 4.89 259.231 13:22 16.08.2019
3570 Rain 22 1016 45 0 2.24 235 12:55 16.08.2019
3571 Rain 21 1016 43 0 0.45 38 12:37 16.08.2019
3572 Clouds 21 1016 44 0 0.45 252 12:18 16.08.2019
3573 Clouds 20 1017 48 0 5.26 266.676 11:41 16.08.2019
3574 Clouds 20 1017 45 0 2.24 249 11:41 16.08.2019
3575 Clouds 20 1017 53 0 0.45 228 11:23 16.08.2019
3576 Clouds 20 1016 50 0 0.45 328 10:43 16.08.2019
3577 Clouds 19 1016 49 0 1.34 249 10:22 16.08.2019
3578 Clouds 18 1011 63 0 5.26 266.676 09:56 16.08.2019
3579 Clouds 18 1011 71 0 5.26 266.676 09:37 16.08.2019
3580 Clear 18 1011 71 0 4.58 257.998 09:18 16.08.2019
3581 Clear 17 1011 84 0 4.58 257.998 08:41 16.08.2019
3582 Clear 16 1011 87 0 4.58 257.998 08:21 16.08.2019
3583 Clear 16 1011 90 0 4.58 257.998 07:53 16.08.2019
3584 Clear 15 1016 86 0 0.89 195 07:32 16.08.2019
3585 Clear 15 1015 88 0 1.79 200 06:57 16.08.2019
3586 Clear 14 1015 88 0 0.45 259 06:31 16.08.2019
3587 Clear 15 1015 88 0 4 260.429 05:41 16.08.2019
3588 Clear 15 1015 89 0 4 260.429 04:28 16.08.2019
3589 Clouds 15 1014 88 0 0.45 248 02:40 16.08.2019
3590 Clouds 15 1014 87 0 3.1 255.753 01:33 16.08.2019
3591 Clouds 15 1013 86 0 1.34 260 00:59 16.08.2019
3592 Clouds 16 1013 86 0 3.1 255.753 00:40 16.08.2019
3593 Rain 16 1013 87 0 0.45 225 00:21 16.08.2019
3594 Rain 16 1013 87 0 2.83 267.347 23:44 15.08.2019
3595 Rain 16 1013 87 0 2.83 267.347 23:22 15.08.2019
3596 Rain 16 1013 86 0 2.83 267.347 22:58 15.08.2019
3597 Rain 17 1013 86 0 0.45 255 22:39 15.08.2019
3598 Rain 17 1012 86 0 2.83 267.347 22:39 15.08.2019
3599 Rain 17 1013 86 0 1.34 270 22:39 15.08.2019
3600 Rain 17 1012 85 0 2.83 267.347 22:20 15.08.2019
3601 Rain 18 1012 84 0 2.79 274.866 21:54 15.08.2019
3602 Rain 17 1012 84 0 2.79 274.866 21:36 15.08.2019
3603 Rain 18 1012 84 0 2.53 234.991 21:18 15.08.2019
3604 Rain 19 1011 83 0 0.89 243 20:42 15.08.2019
3605 Rain 19 1011 83 0 0.89 243 20:42 15.08.2019
3606 Rain 19 1011 83 0 0.89 270 20:21 15.08.2019
3607 Rain 20 1011 80 0 2.53 234.991 19:57 15.08.2019
3608 Rain 20 1011 65 0 2.68 231 19:39 15.08.2019
3609 Rain 22 1010 55 0 0.89 198 19:20 15.08.2019
3610 Rain 22 1010 51 0 0.45 218 18:47 15.08.2019
3611 Rain 22 1010 51 0 1.34 227 18:23 15.08.2019
3612 Rain 22 1010 57 0 2.24 150 17:58 15.08.2019
3613 Rain 22 1010 56 0 1.34 162 17:38 15.08.2019
3614 Rain 22 1010 56 0 1.34 162 17:38 15.08.2019
3615 Rain 22 1010 55 0 0.45 197 17:19 15.08.2019
3616 Rain 22 1010 55 0 0.45 249 16:56 15.08.2019
3617 Rain 22 1010 55 0 4.31 213.823 16:38 15.08.2019
3618 Rain 22 1010 55 0 0.89 191 16:20 15.08.2019
3619 Rain 21 1010 52 0 1.79 200 15:38 15.08.2019
3620 Rain 21 1010 57 0 1.79 188 15:19 15.08.2019
3621 Rain 20 1010 53 0 1.79 187 14:56 15.08.2019
3622 Rain 20 1011 84 0 0.89 123 14:37 15.08.2019
3623 Rain 20 1010 55 0 2.68 143 14:18 15.08.2019
3624 Rain 19 1010 59 0 3.58 169 13:55 15.08.2019
3625 Rain 19 1011 58 0 1.79 169 13:37 15.08.2019
3626 Rain 19 1011 63 0 1.79 204 13:19 15.08.2019
3627 Rain 19 1011 68 0 1.79 177 12:40 15.08.2019
3628 Rain 19 1011 71 0 1.34 83 12:20 15.08.2019
3629 Rain 19 1011 72 0 1.34 101 11:58 15.08.2019
3630 Rain 19 1011 70 0 2.24 95 11:38 15.08.2019
3631 Rain 19 1011 70 0 2.24 95 11:38 15.08.2019
3632 Rain 18 1011 72 0 1.79 102 11:20 15.08.2019
3633 Rain 18 1011 71 0 3.58 138 10:58 15.08.2019
3634 Rain 18 1011 69 0 0.89 146 10:37 15.08.2019
3635 Rain 18 1011 66 0 1.34 135 10:18 15.08.2019
3636 Rain 17 1012 56 0 0.45 104 09:44 15.08.2019
3637 Rain 17 1012 60 0 0.45 107 09:22 15.08.2019
3638 Rain 16 1012 57 0 1.34 180 08:54 15.08.2019
3639 Rain 16 1012 59 0 1.34 170 08:36 15.08.2019
3640 Rain 15 1012 55 0 1.79 139 08:18 15.08.2019
3641 Rain 15 1013 58 0 0.45 203 07:40 15.08.2019
3642 Rain 14 1013 59 0 0.45 133 07:21 15.08.2019
3643 Rain 14 1013 59 0 0.45 101 06:52 15.08.2019
3644 Rain 14 1013 59 0 2.78 186.145 06:31 15.08.2019
3645 Clouds 14 1013 59 0 0.89 177 05:39 15.08.2019
3646 Clouds 14 1013 58 0 0.45 150 05:19 15.08.2019
3647 Clouds 13 1014 57 0 4.09 165.423 04:27 15.08.2019
3648 Clouds 13 1014 57 0 4.09 165.423 03:28 15.08.2019
3649 Clouds 12 1015 58 0 2.87 168.506 02:35 15.08.2019
3650 Clouds 12 1015 60 0 2.87 168.506 01:45 15.08.2019
3651 Clouds 12 1015 62 0 3.18 163.282 01:23 15.08.2019
3652 Clouds 12 1016 61 0 3.18 163.282 00:38 15.08.2019
3653 Clouds 12 1016 61 0 1.87 184.672 00:19 15.08.2019
3654 Clouds 13 1016 60 0 1.87 184.672 23:57 14.08.2019
3655 Clouds 13 1016 58 0 1.87 184.672 23:37 14.08.2019
3656 Clouds 13 1016 58 0 1.87 184.672 23:19 14.08.2019
3657 Clouds 14 1016 56 0 1.87 184.672 22:42 14.08.2019
3658 Clouds 15 1016 54 0 1.87 184.672 22:23 14.08.2019
3659 Clouds 15 1016 53 0 1.87 184.672 21:58 14.08.2019
3660 Clouds 16 1016 50 0 1.95 199.048 21:40 14.08.2019
3661 Clear 17 1016 50 0 2.31 228.261 21:21 14.08.2019
3662 Clear 18 1016 48 0 2.31 228.261 20:59 14.08.2019
3663 Clear 19 1016 48 0 2.31 228.261 20:41 14.08.2019
3664 Clear 20 1016 42 0 2.31 228.261 20:20 14.08.2019
3665 Clear 21 1015 38 0 0.45 218 19:56 14.08.2019
3666 Clear 17 1016 57 0 2.31 228.261 19:37 14.08.2019
3667 Clear 17 1016 57 0 2.31 228.261 19:37 14.08.2019
3668 Clear 17 1016 57 0 2.31 228.261 19:18 14.08.2019
3669 Clear 17 1016 57 0 2.31 228.261 18:56 14.08.2019
3670 Clear 17 1016 57 0 2.31 228.261 18:37 14.08.2019
3671 Clear 21 1016 39 0 3.76 264.1 18:18 14.08.2019
3672 Clear 21 1016 39 0 3.76 264.1 17:55 14.08.2019
3673 Clear 21 1016 39 0 3.76 264.1 17:36 14.08.2019
3674 Clear 21 1016 39 0 3.76 264.1 17:18 14.08.2019
3675 Clear 21 1016 39 0 3.76 264.1 16:41 14.08.2019
3676 Clear 21 1016 39 0 3.76 264.1 16:20 14.08.2019
3677 Clear 21 1016 39 0 3.76 264.1 15:44 14.08.2019
3678 Clear 21 1016 39 0 3.76 264.1 15:44 14.08.2019
3679 Clear 20 1017 40 0 4.25 268.141 15:22 14.08.2019
3680 Clear 20 1017 40 0 4.25 268.141 14:59 14.08.2019
3681 Clear 20 1017 40 0 4.25 268.141 14:39 14.08.2019
3682 Clear 20 1017 40 0 4.25 268.141 14:19 14.08.2019
3683 Clear 20 1017 40 0 4.25 268.141 14:19 14.08.2019
3684 Clear 20 1017 40 0 4.25 268.141 13:55 14.08.2019
3685 Clear 20 1017 40 0 4.25 268.141 13:37 14.08.2019
3686 Clear 21 1017 40 0 4.23 271.856 13:19 14.08.2019
3687 Clear 21 1017 40 0 4.23 271.856 12:56 14.08.2019
3688 Clear 21 1017 40 0 4.23 271.856 12:36 14.08.2019
3689 Clear 18 1017 54 0 4.39 267.413 12:18 14.08.2019
3690 Clear 18 1017 54 0 4.39 267.413 11:45 14.08.2019
3691 Clear 18 1017 54 0 4.39 267.413 11:23 14.08.2019
3692 Clear 18 1017 54 0 4.39 267.413 10:56 14.08.2019
3693 Clear 18 1017 54 0 4.39 267.413 10:37 14.08.2019
3694 Clear 18 1017 54 0 4.39 267.413 10:37 14.08.2019
3695 Clear 18 1017 54 0 4.39 267.413 10:19 14.08.2019
3696 Clear 18 1017 54 0 4.39 267.413 09:42 14.08.2019
3697 Clouds 13 1018 77 0 4.05 254.958 09:21 14.08.2019
3698 Clouds 13 1018 77 0 4.05 254.958 09:21 14.08.2019
3699 Clouds 13 1018 77 0 4.05 254.958 08:45 14.08.2019
3700 Clouds 13 1018 77 0 4.05 254.958 08:27 14.08.2019
3701 Clouds 13 1018 77 0 4.05 254.958 07:57 14.08.2019
3702 Clouds 13 1018 77 0 4.05 254.958 07:38 14.08.2019
3703 Clouds 13 1018 77 0 4.05 254.958 07:38 14.08.2019
3704 Clouds 13 1018 77 0 4.05 254.958 07:19 14.08.2019
3705 Clouds 13 1018 77 0 4.05 254.958 06:43 14.08.2019
3706 Clouds 11 1017 83 0 3.02 239.739 05:35 14.08.2019
3707 Clouds 11 1017 83 0 3.02 239.739 04:43 14.08.2019
3708 Clouds 13 1017 72 0 2.31 248.941 02:47 14.08.2019
3709 Clouds 13 1017 72 0 2.31 248.941 02:25 14.08.2019
3710 Clouds 13 1017 76 0 2.41 232.988 01:30 14.08.2019
3711 Clouds 13 1017 76 0 2.41 232.988 00:48 14.08.2019
3712 Clouds 16 1017 54 0 2.06 258.187 23:47 13.08.2019
3713 Clouds 16 1017 54 0 2.06 258.187 23:21 13.08.2019
3714 Clouds 16 1017 54 0 2.06 258.187 22:57 13.08.2019
3715 Clouds 16 1017 54 0 2.06 258.187 22:39 13.08.2019
3716 Clouds 16 1017 53 0 2.06 258.187 22:20 13.08.2019
3717 Clouds 16 1017 51 0 2.06 258.187 21:56 13.08.2019
3718 Clouds 17 1017 51 0 2.06 258.187 21:37 13.08.2019
3719 Clouds 17 1017 51 0 2.78 263.742 21:18 13.08.2019
3720 Clouds 19 1017 48 0 2.78 263.742 20:45 13.08.2019
3721 Clouds 19 1016 47 0 2.78 263.742 20:20 13.08.2019
3722 Clouds 19 1016 48 0 2.78 263.742 19:58 13.08.2019
3723 Clouds 20 1016 46 0 2.78 263.742 19:40 13.08.2019
3724 Clouds 20 1016 39 0 4.02 287 19:21 13.08.2019
3725 Clouds 21 1016 37 0 0.45 42 18:42 13.08.2019
3726 Clouds 21 1016 37 0 0.45 42 18:42 13.08.2019
3727 Clouds 22 1016 35 0 0.45 229 18:23 13.08.2019
3728 Clouds 22 1016 34 0 1.34 197 17:58 13.08.2019
3729 Clouds 22 1016 32 0 0.45 286 17:40 13.08.2019
3730 Clouds 21 1016 42 0 1.79 288 17:20 13.08.2019
3731 Clouds 22 1015 32 0 0.45 8 16:56 13.08.2019
3732 Clouds 22 1016 43 0 2.24 347 16:38 13.08.2019
3733 Clouds 22 1014 48 0 2.68 0 16:19 13.08.2019
3734 Clouds 22 1014 48 0 2.68 0 16:19 13.08.2019
3735 Clouds 22 1010 37 0 4.71 270.109 15:39 13.08.2019
3736 Clouds 22 1010 37 0 4.71 270.109 15:39 13.08.2019
3737 Rain 21 1016 45 0 1.79 321 15:20 13.08.2019
3738 Rain 21 1010 40 0 7.05 275.328 14:58 13.08.2019
3739 Rain 22 1016 39 0 1.34 320 14:38 13.08.2019
3740 Rain 22 1016 39 0 1.34 336 14:19 13.08.2019
3741 Rain 22 1016 42 0 0.45 356 14:19 13.08.2019
3742 Rain 21 1016 38 0 1.34 170 13:42 13.08.2019
3743 Rain 21 1016 38 0 4.47 166 13:23 13.08.2019
3744 Rain 21 1015 38 0 0.89 252 12:59 13.08.2019
3745 Rain 21 1015 42 0 0.89 279 12:41 13.08.2019
3746 Rain 20 1010 44 0 5.74 251.193 12:22 13.08.2019
3747 Rain 20 1016 44 0 3.58 215 11:59 13.08.2019
3748 Rain 20 1016 56 0 4.47 273 11:39 13.08.2019
3749 Rain 20 1016 47 0 3.58 256 11:20 13.08.2019
3750 Rain 19 1016 47 0 2.24 139 10:56 13.08.2019
3751 Rain 19 1016 48 0 1.34 324 10:37 13.08.2019
3752 Rain 19 1016 47 0 1.34 222 10:37 13.08.2019
3753 Rain 19 1016 45 0 0.89 272 10:19 13.08.2019
3754 -273 0 0 0 0 0 09:43 13.08.2019
3755 Clear 18 1010 65 0 4.01 246.093 09:23 13.08.2019
3756 Clear 18 1010 65 0 4.01 246.093 09:23 13.08.2019
3757 Clear 18 1010 65 0 4.01 246.093 09:23 13.08.2019
3758 Clear 17 1010 66 0 4.01 246.093 08:44 13.08.2019
3759 Clear 16 1010 70 0 4.01 246.093 08:23 13.08.2019
3760 Clear 16 1015 62 0 1.34 183 07:58 13.08.2019
3761 Clear 16 1015 62 0 1.34 183 07:58 13.08.2019
3762 Clear 15 1015 68 0 0.89 164 07:38 13.08.2019
3763 Clear 15 1015 67 0 0.45 190 07:38 13.08.2019
3764 Clear 14 1015 74 0 0.45 265 07:19 13.08.2019
3765 Clear 14 1015 79 0 4.01 246.093 06:41 13.08.2019
3766 Clear 14 1014 79 0 2.34 238.982 05:37 13.08.2019
3767 Clear 15 1014 76 0 1.34 207 03:36 13.08.2019
3768 Rain 17 1014 67 0 2.13 239.419 02:22 13.08.2019
3769 Rain 17 1014 67 0 0.45 197 01:21 13.08.2019
3770 Rain 17 1014 67 0 0.75 307.661 00:47 13.08.2019
3771 Rain 17 1014 67 0 0.75 307.661 00:47 13.08.2019
3772 Rain 17 1014 69 0 1.82 195.462 00:18 13.08.2019
3773 Rain 18 1014 67 0 0.45 262 23:41 12.08.2019
3774 Rain 18 1014 67 0 0.45 290 23:20 12.08.2019
3775 Rain 19 1014 64 0 1.34 282 22:40 12.08.2019
3776 Rain 19 1014 61 0 1.82 195.462 22:20 12.08.2019
3777 Rain 20 1014 52 0 0.89 274 21:57 12.08.2019
3778 Rain 21 1014 51 0 0.89 227 21:38 12.08.2019
3779 Clouds 21 1013 48 0 0.45 219 21:19 12.08.2019
3780 Clouds 22 1013 45 0 0.45 164 20:58 12.08.2019
3781 Clouds 22 1013 44 0 1.55 218.746 20:39 12.08.2019
3782 Clouds 22 1012 42 0 1.55 218.746 20:20 12.08.2019
3783 Clouds 23 1013 40 0 0.45 193 19:57 12.08.2019
3784 Clouds 23 1013 45 0 1.55 218.746 19:38 12.08.2019
3785 Clouds 24 1011 34 0 1.55 218.746 19:20 12.08.2019
3786 Clouds 24 1012 35 0 0.45 214 18:56 12.08.2019
3787 Clouds 24 1007 32 0 1.55 218.746 18:37 12.08.2019
3788 Clouds 25 1012 33 0 0.45 181 18:19 12.08.2019
3789 Clouds 25 1013 30 0 2.98 256.746 17:48 12.08.2019
3790 Clouds 25 1013 27 0 0.89 169 17:29 12.08.2019
3791 Clouds 25 1013 30 0 0.45 225 16:58 12.08.2019
3792 Clouds 25 1013 32 0 2.98 256.746 16:39 12.08.2019
3793 Clouds 25 1013 31 0 0.45 160 16:20 12.08.2019
3794 Clouds 25 1014 32 0 1.34 241 15:59 12.08.2019
3795 -273 0 0 0 0 0 15:41 12.08.2019
3796 Clouds 26 1014 29 0 4.31 249.229 15:21 12.08.2019
3797 Clouds 25 1014 31 0 4.31 249.229 14:58 12.08.2019
3798 Clouds 25 1014 31 0 0.89 249 14:39 12.08.2019
3799 -273 0 0 0 0 0 14:39 12.08.2019
3800 Clouds 25 1014 31 0 2.24 245 14:20 12.08.2019
3801 Clouds 25 1014 31 0 2.24 245 14:20 12.08.2019
3802 Clouds 24 1014 30 0 0.45 260 13:54 12.08.2019
3803 Clouds 24 1015 32 0 0.45 208 13:36 12.08.2019
3804 Clouds 24 1015 32 0 2.24 190 13:18 12.08.2019
3805 Clouds 24 1015 35 0 0.89 201 12:41 12.08.2019
3806 Clouds 24 1016 40 0 0.89 242 12:19 12.08.2019
3807 Clouds 23 1015 41 0 1.79 248 11:44 12.08.2019
3808 Clouds 23 1015 39 0 3.58 250 11:26 12.08.2019
3809 Clouds 23 1015 39 0 3.58 250 11:26 12.08.2019
3810 Clouds 22 1015 44 0 3.96 253.933 10:57 12.08.2019
3811 Clouds 22 1015 45 0 3.96 253.933 10:38 12.08.2019
3812 Clouds 22 1015 37 0 3.96 253.933 10:20 12.08.2019
3813 Clouds 21 1015 44 0 0.89 219 09:54 12.08.2019
3814 Clouds 20 1016 63 0 0.89 305 09:36 12.08.2019
3815 Clouds 20 1010 52 0 3.96 253.933 09:36 12.08.2019
3816 Clouds 20 1010 60 0 3.72 256.978 09:18 12.08.2019
3817 Clouds 20 1010 60 0 3.72 256.978 09:18 12.08.2019
3818 Clouds 18 1010 76 0 3.72 256.978 08:40 12.08.2019
3819 Clouds 18 1016 76 0 0.89 275 08:22 12.08.2019
3820 Clouds 18 1016 76 0 0.89 275 08:22 12.08.2019
3821 Clouds 17 1010 85 0 3.72 256.978 07:56 12.08.2019
3822 Clouds 17 1015 80 0 0.45 200 07:35 12.08.2019
3823 Clouds 16 1015 83 0 3.72 256.978 06:54 12.08.2019
3824 Rain 16 1014 83 0 2.77 248.306 06:18 12.08.2019
3825 Rain 17 1014 80 0 2.77 248.306 04:26 12.08.2019
3826 Rain 18 1014 77 0 2.12 268.347 02:43 12.08.2019
3827 Rain 20 1014 64 0 2.12 268.347 01:42 12.08.2019
3828 Rain 20 1014 59 0 1.79 236 01:18 12.08.2019
3829 Rain 21 1014 58 0 2.12 268.347 00:54 12.08.2019
3830 Rain 21 1013 60 0 2.12 268.347 00:36 12.08.2019
3831 Clouds 21 1013 58 0 2.75 307.683 00:18 12.08.2019
3832 Clouds 22 1013 54 0 0.45 232 23:39 11.08.2019
3833 Clouds 22 1013 54 0 0.45 232 23:39 11.08.2019
3834 Clouds 22 1013 53 0 1.34 219 23:19 11.08.2019
3835 Clouds 23 1013 45 0 0.45 266 22:56 11.08.2019
3836 Clouds 22 1007 45 0 2.75 307.683 22:37 11.08.2019
3837 Clouds 23 1012 43 0 2.75 307.683 22:18 11.08.2019
3838 Clouds 23 1007 41 0 2.75 307.683 21:56 11.08.2019
3839 Clouds 23 1007 39 0 2.75 307.683 21:38 11.08.2019
3840 Clouds 24 1012 38 0 1.97 312.319 21:19 11.08.2019
3841 Clouds 24 1012 38 0 1.97 312.319 21:19 11.08.2019
3842 Clouds 25 1012 34 0 1.97 312.319 20:44 11.08.2019
3843 Clouds 26 1012 32 0 0.45 310 20:23 11.08.2019
3844 Clouds 26 995 29 0 1.97 312.319 19:56 11.08.2019
3845 Clouds 27 1011 29 0 1.97 312.319 19:37 11.08.2019
3846 Clouds 27 1010 28 0 1.97 312.319 19:18 11.08.2019
3847 Clouds 27 1012 33 0 1.34 271 18:40 11.08.2019
3848 Clouds 28 1012 25 0 0.45 169 18:20 11.08.2019
3849 Clouds 29 1012 25 0 4.05 250.859 17:56 11.08.2019
3850 Clouds 29 1012 23 0 0.45 187 17:38 11.08.2019
3851 Clouds 29 1012 21 0 1.79 205 17:20 11.08.2019
3852 Clouds 29 1012 22 0 1.34 204 16:55 11.08.2019
3853 Clouds 29 1012 21 0 2.68 186 16:37 11.08.2019
3854 Clouds 29 1012 20 0 0.45 265 16:18 11.08.2019
3855 Clouds 29 1012 19 0 1.34 172 16:18 11.08.2019
3856 Clouds 29 1012 24 0 0.89 221 15:42 11.08.2019
3857 Clouds 29 1013 33 0 3.58 293 15:23 11.08.2019
3858 Clouds 29 1014 34 0 1.79 243 14:56 11.08.2019
3859 Clouds 28 1013 24 0 0.45 132 14:38 11.08.2019
3860 Clouds 28 1008 26 0 4.38 243.968 14:19 11.08.2019
3861 Clouds 28 1013 26 0 1.79 162 13:44 11.08.2019
3862 Clouds 27 1014 28 0 4.11 243.092 13:24 11.08.2019
3863 Clouds 27 1014 28 0 4.11 243.092 13:24 11.08.2019
3864 Clouds 27 1014 27 0 2.24 256 12:48 11.08.2019
3865 Clouds 26 1015 30 0 0.89 141 12:23 11.08.2019
3866 Clouds 26 1017 40 0 1.34 123 11:57 11.08.2019
3867 Clouds 26 1015 32 0 0.89 225 11:38 11.08.2019
3868 Clouds 26 1015 32 0 2.68 200 11:20 11.08.2019
3869 Clouds 25 1015 36 0 0.45 159 10:41 11.08.2019
3870 Clouds 25 1016 30 0 0.89 259 10:22 11.08.2019
3871 Clouds 25 1016 28 0 0.45 276 09:59 11.08.2019
3872 Clouds 23 1016 50 0 2.24 264 09:39 11.08.2019
3873 Clouds 22 1016 52 0 1.79 246 09:20 11.08.2019
3874 Clear 21 1011 52 0 3.82 235.778 08:48 11.08.2019
3875 Clear 21 1011 53 0 3.82 235.778 08:28 11.08.2019
3876 Clear 19 1011 62 0 3.82 235.778 07:56 11.08.2019
3877 Clear 18 1016 67 0 3.82 235.778 07:27 11.08.2019
3878 Clear 16 1016 71 0 3.82 235.778 06:45 11.08.2019
3879 Clear 16 1016 72 0 3.29 234.051 06:21 11.08.2019
3880 Clear 17 1015 71 0 3.29 234.051 04:38 11.08.2019
3881 Clear 18 1015 67 0 3.19 222.572 02:50 11.08.2019
3882 Clear 18 1015 64 0 3.19 222.572 01:53 11.08.2019
3883 Clear 18 1015 63 0 3.57 221.704 01:28 11.08.2019
3884 Clear 19 1014 61 0 3.57 221.704 00:54 11.08.2019
3885 Clear 19 1014 59 0 3.57 221.704 00:34 11.08.2019
3886 Rain 20 1014 56 0 3.65 228.258 23:49 10.08.2019
3887 Rain 21 1014 53 0 3.65 228.258 23:29 10.08.2019
3888 Rain 21 1014 51 0 3.65 228.258 22:54 10.08.2019
3889 Rain 21 1014 58 0 3.65 228.258 22:36 10.08.2019
3890 Rain 21 1013 50 0 0.89 101 22:18 10.08.2019
3891 Rain 23 1008 43 0 3.65 228.258 21:40 10.08.2019
3892 Rain 23 1013 45 0 3.35 225.786 21:21 10.08.2019
3893 Rain 23 1013 44 0 1.34 215 20:57 10.08.2019
3894 Rain 24 1012 42 0 3.35 225.786 20:39 10.08.2019
3895 Rain 24 1012 41 0 3.35 225.786 20:19 10.08.2019
3896 Rain 25 1011 37 0 3.13 248 19:44 10.08.2019
3897 Rain 25 1011 36 0 1.34 241 19:25 10.08.2019
3898 Rain 25 1012 43 0 3.13 316 18:43 10.08.2019
3899 Rain 27 1011 36 0 0.89 112 18:25 10.08.2019
3900 Rain 27 1011 37 0 2.68 235 17:57 10.08.2019
3901 Rain 27 1011 35 0 6.26 258 17:39 10.08.2019
3902 Rain 27 1011 34 0 3.13 219 17:21 10.08.2019
3903 Rain 26 1011 33 0 0.45 157 16:43 10.08.2019
3904 Rain 26 1011 34 0 1.34 188 16:25 10.08.2019
3905 Rain 26 1011 33 0 1.34 215 15:49 10.08.2019
3906 Clouds 27 1011 33 0 1.79 160 15:22 10.08.2019
3907 Clouds 27 1011 35 0 2.68 207 14:44 10.08.2019
3908 Clouds 27 1011 35 0 2.68 207 14:44 10.08.2019
3909 Clouds 27 1010 35 0 0.45 321 14:21 10.08.2019
3910 Clouds 27 1010 33 0 1.34 63 13:41 10.08.2019
3911 Rain 27 1010 34 0 1.34 224 13:20 10.08.2019
3912 Rain 27 1010 37 0 1.34 228 12:55 10.08.2019
3913 Rain 26 1010 39 0 1.79 277 12:37 10.08.2019
3914 Clouds 26 1010 38 0 3.58 122 12:19 10.08.2019
3915 Clouds 26 1010 39 0 1.34 256 11:42 10.08.2019
3916 Clouds 25 1010 41 0 3.58 219 11:22 10.08.2019
3917 Clouds 25 1010 43 0 3.58 174 10:56 10.08.2019
3918 Clouds 25 1010 49 0 0.45 256 10:37 10.08.2019
3919 Clouds 25 1010 51 0 0.89 249 10:19 10.08.2019
3920 Clouds 24 1010 56 0 2.24 273 09:43 10.08.2019
3921 Clouds 23 1010 57 0 0.45 256 09:23 10.08.2019
3922 Clouds 23 1009 63 0 1.34 258 08:55 10.08.2019
3923 Clouds 23 1009 69 0 0.45 336 08:37 10.08.2019
3924 Clouds 22 1009 73 0 5.19 254.314 08:18 10.08.2019
3925 Clouds 21 1009 89 0 1.79 221 07:43 10.08.2019
3926 Clouds 20 1008 80 0 5.19 254.314 07:19 10.08.2019
3927 Clouds 20 1008 82 0 5.19 254.314 06:43 10.08.2019
3928 Clouds 20 1007 84 0 2.54 219.566 05:46 10.08.2019
3929 Clouds 20 1007 83 0 0.45 170 05:19 10.08.2019
3930 Clouds 21 1007 81 0 1.34 164 03:51 10.08.2019
3931 Rain 21 1008 80 0 0.45 170 02:48 10.08.2019
3932 Rain 21 1007 77 0 2.45 151.675 01:56 10.08.2019
3933 Rain 21 1008 71 0 3.07 164.986 01:36 10.08.2019
3934 Rain 21 1008 70 0 3.07 164.986 01:18 10.08.2019
3935 Rain 21 1008 69 0 0.45 228 00:41 10.08.2019
3936 Rain 22 1008 69 0 6.86 133.281 00:19 10.08.2019
3937 Rain 23 1008 66 0 6.86 133.281 23:39 09.08.2019
3938 Rain 23 1008 63 0 0.45 186 23:20 09.08.2019
3939 Rain 24 1009 61 0 6.86 133.281 22:55 09.08.2019
3940 Rain 24 1009 62 0 6.86 133.281 22:37 09.08.2019
3941 Rain 24 1009 57 0 6.86 133.281 22:18 09.08.2019
3942 Rain 25 1008 52 0 6.86 133.281 21:41 09.08.2019
3943 Rain 25 1008 55 0 2.73 133.026 21:22 09.08.2019
3944 Rain 25 1008 53 0 2.73 133.026 20:58 09.08.2019
3945 Clouds 26 1008 51 0 2.86 109.621 20:39 09.08.2019
3946 Clouds 26 1008 47 0 0.45 318 20:18 09.08.2019
3947 Clouds 27 1008 43 0 2.86 109.621 19:43 09.08.2019
3948 Clouds 27 1008 39 0 0.45 118 19:23 09.08.2019
3949 Clouds 28 1008 34 0 1.34 97 18:59 09.08.2019
3950 Clouds 28 1008 35 0 2.86 109.621 18:39 09.08.2019
3951 Clouds 29 1008 34 0 0.45 94 18:20 09.08.2019
3952 Clouds 30 1008 30 0 1.34 125 17:45 09.08.2019
3953 Clouds 30 1009 30 0 0.45 157 17:25 09.08.2019
3954 Clouds 30 1009 29 0 0.89 174 16:58 09.08.2019
3955 Clouds 30 1009 29 0 1.34 160 16:38 09.08.2019
3956 Clouds 30 1009 29 0 1.79 132 16:20 09.08.2019
3957 Clouds 30 1010 30 0 1.79 248 15:55 09.08.2019
3958 Clouds 30 1010 31 0 1.34 198 15:36 09.08.2019
3959 Clouds 29 1010 31 0 1.34 163 15:18 09.08.2019
3960 Clouds 29 1010 30 0 0.89 121 14:42 09.08.2019
3961 -273 0 0 0 0 0 14:21 09.08.2019
3962 Clouds 28 1011 33 0 1.79 210 14:21 09.08.2019
3963 Clouds 29 1011 33 0 1.79 218 13:55 09.08.2019
3964 Clouds 29 1011 35 0 1.79 109 13:37 09.08.2019
3965 Clouds 29 1011 34 0 1.34 66 13:18 09.08.2019
3966 Clouds 28 1012 36 0 2.24 105 12:41 09.08.2019
3967 Clouds 27 1012 38 0 1.61 155.603 12:22 09.08.2019
3968 Clouds 26 1012 39 0 2.24 69 11:42 09.08.2019
3969 Clouds 25 1012 43 0 0.45 179 11:21 09.08.2019
3970 Clouds 25 1012 43 0 0.45 179 11:21 09.08.2019
3971 Clouds 25 1012 42 0 0.45 93 10:59 09.08.2019
3972 Clouds 25 1012 41 0 1.79 97 10:39 09.08.2019
3973 Clouds 24 1012 34 0 0.45 133 10:21 09.08.2019
3974 Clouds 23 1013 33 0 0.45 111 09:42 09.08.2019
3975 Clouds 20 1007 56 0 0.92 183.414 09:19 09.08.2019
3976 Clouds 20 1007 64 0 0.92 183.414 08:54 09.08.2019
3977 Clouds 19 1007 68 0 0.88 208.96 08:36 09.08.2019
3978 Clouds 18 1007 70 0 0.88 208.96 08:18 09.08.2019
3979 Clouds 16 1013 64 0 0.88 208.96 07:42 09.08.2019
3980 Clouds 15 1013 72 0 0.88 208.96 07:21 09.08.2019
3981 Clouds 14 1013 75 0 0.88 208.96 06:52 09.08.2019
3982 Clouds 13 1013 77 0 0.88 208.96 06:26 09.08.2019
3983 Clouds 13 1013 78 0 1.49 254.616 05:46 09.08.2019
3984 Clouds 15 1012 69 0 1.96 240.823 02:33 09.08.2019
3985 Clouds 15 1012 65 0 1.96 240.823 01:41 09.08.2019
3986 Clouds 16 1012 62 0 2.28 245.327 00:44 09.08.2019
3987 Clear 16 1012 61 0 0.45 190 00:25 09.08.2019
3988 Clear 17 1012 60 0 2.24 256.689 23:59 08.08.2019
3989 Clear 18 1011 58 0 2.24 256.689 23:38 08.08.2019
3990 Clear 18 1012 56 0 2.24 256.689 23:19 08.08.2019
3991 Clear 18 1012 56 0 2.24 256.689 22:57 08.08.2019
3992 Clear 18 1012 55 0 2.24 256.689 22:36 08.08.2019
3993 Clear 18 1012 55 0 2.24 256.689 22:36 08.08.2019
3994 Clear 18 1012 53 0 2.24 256.689 22:18 08.08.2019
3995 Clear 19 1011 50 0 2.24 256.689 21:56 08.08.2019
3996 Clear 19 1012 57 0 2.24 256.689 21:38 08.08.2019
3997 Rain 22 1011 45 0 2.51 267.255 21:20 08.08.2019
3998 Rain 23 1011 40 0 2.33 257.191 20:42 08.08.2019
3999 Rain 23 1011 38 0 2.33 257.191 20:22 08.08.2019
4000 Rain 24 1010 36 0 0.45 352 19:59 08.08.2019
4001 Rain 23 1009 48 0 2.24 0 19:40 08.08.2019
4002 Rain 25 1010 35 0 1.34 298 19:20 08.08.2019
4003 Rain 23 1009 50 0 3.13 0 18:43 08.08.2019
4004 Rain 26 1010 27 0 0.89 222 18:23 08.08.2019
4005 -273 0 0 0 0 0 17:56 08.08.2019
4006 Rain 27 1010 37 0 5.04 269.101 17:37 08.08.2019
4007 Rain 26 1011 36 0 1.34 335 17:19 08.08.2019
4008 Rain 26 1010 36 0 1.79 338 16:42 08.08.2019
4009 Rain 27 1010 36 0 1.34 270 16:24 08.08.2019
4010 Rain 27 1010 27 0 3.13 218 15:59 08.08.2019
4011 Rain 27 1010 34 0 1.34 230 15:41 08.08.2019
4012 Clear 27 1004 29 0 6.44 251.807 15:22 08.08.2019
4013 Clear 27 1010 28 0 1.79 205 14:55 08.08.2019
4014 Clear 26 1010 27 0 4.02 200 14:36 08.08.2019
4015 Clear 26 1005 31 0 6.44 251.807 14:18 08.08.2019
4016 Clear 26 1010 29 0 1.34 212 13:39 08.08.2019
4017 Clear 26 1010 30 0 0.45 138 13:20 08.08.2019
4018 Clear 25 1010 34 0 2.68 225 12:40 08.08.2019
4019 Clear 25 1010 43 0 4.02 276 12:21 08.08.2019
4020 Clear 25 1010 35 0 0.89 246 11:58 08.08.2019
4021 Clear 24 1010 38 0 0.89 269 11:39 08.08.2019
4022 Clear 24 1010 41 0 0.45 217 11:20 08.08.2019
4023 Clear 24 1010 42 0 1.79 218 10:41 08.08.2019
4024 Clear 24 1010 38 0 1.34 194 10:21 08.08.2019
4025 Clear 22 1011 63 0 2.24 258 09:52 08.08.2019
4026 Clear 22 1011 60 0 0.89 134 09:30 08.08.2019
4027 Clear 20 1010 66 0 0.89 110 08:57 08.08.2019
4028 Clear 19 1005 61 0 4.11 247.966 08:39 08.08.2019
4029 Clear 19 1005 63 0 4.11 247.966 08:19 08.08.2019
4030 Clear 17 1010 68 0 4.11 247.966 07:41 08.08.2019
4031 Clear 16 1010 76 0 4.11 247.966 07:20 08.08.2019
4032 -273 0 0 0 0 0 06:56 08.08.2019
4033 Clear 15 1010 79 0 4.11 247.966 06:37 08.08.2019
4034 Clear 14 1010 79 0 2.4 237.17 05:53 08.08.2019
4035 Clear 15 1009 78 0 2.4 237.17 05:19 08.08.2019
4036 Clear 15 1009 76 0 2.4 237.17 03:54 08.08.2019
4037 Clouds 16 1009 73 0 2.42 247.913 02:58 08.08.2019
4038 Clouds 16 1009 71 0 2.48 244.178 01:38 08.08.2019
4039 Clouds 17 1009 68 0 0.89 179 00:27 08.08.2019
4040 Clouds 17 1008 65 0 2.08 259.439 23:59 07.08.2019
4041 Clouds 18 1008 65 0 2.08 259.439 23:22 07.08.2019
4042 Clouds 18 1007 64 0 2.08 259.439 22:59 07.08.2019
4043 Clouds 18 1007 63 0 2.08 259.439 22:40 07.08.2019
4044 Clouds 19 1007 60 0 0.45 246 22:20 07.08.2019
4045 Clouds 19 1007 61 0 2.08 259.439 21:56 07.08.2019
4046 Clouds 20 1007 57 0 2.08 259.439 21:38 07.08.2019
4047 Clouds 21 1006 55 0 2.62 255.969 21:19 07.08.2019
4048 Clouds 22 1006 50 0 2.62 255.969 20:56 07.08.2019
4049 Clouds 22 1006 48 0 0.89 241 20:37 07.08.2019
4050 Clouds 23 1006 46 0 1.34 232 20:19 07.08.2019
4051 Clouds 23 1006 46 0 0.45 308 19:55 07.08.2019
4052 Clouds 23 1006 45 0 1.79 252 19:36 07.08.2019
4053 Clouds 23 1006 43 0 0.45 198 19:18 07.08.2019
4054 Clouds 24 1006 41 0 0.45 283 18:40 07.08.2019
4055 Rain 24 1005 41 0 0.45 174 18:19 07.08.2019
4056 Rain 25 1006 38 0 1.34 252 17:55 07.08.2019
4057 Rain 25 1006 38 0 2.24 238 17:37 07.08.2019
4058 Rain 25 1006 38 0 5.02 265.394 17:18 07.08.2019
4059 Rain 26 1005 39 0 1.79 289 16:56 07.08.2019
4060 Rain 26 1005 41 0 1.34 305 16:56 07.08.2019
4061 Rain 26 1006 42 0 1.79 236 16:37 07.08.2019
4062 Rain 26 1006 41 0 0.89 287 16:37 07.08.2019
4063 Rain 26 1006 41 0 1.79 328 16:19 07.08.2019
4064 Rain 26 1006 41 0 5.02 265.394 15:43 07.08.2019
4065 Rain 26 1006 54 0 2.24 263 15:21 07.08.2019
4066 Rain 25 1006 47 0 1.34 289 14:50 07.08.2019
4067 Rain 25 1006 54 0 1.79 19 14:30 07.08.2019
4068 Rain 25 1006 53 0 1.34 78 13:59 07.08.2019
4069 Rain 24 1006 57 0 1.34 156 13:40 07.08.2019
4070 Rain 24 1007 66 0 0.45 214 13:19 07.08.2019
4071 Rain 23 1007 69 0 4.63 266.418 12:57 07.08.2019
4072 Rain 23 1007 65 0 0.45 91 12:38 07.08.2019
4073 Rain 23 1007 65 0 0.45 91 12:38 07.08.2019
4074 Clouds 23 1007 63 0 2.73 233.436 12:19 07.08.2019
4075 Clouds 23 1006 59 0 2.73 233.436 11:58 07.08.2019
4076 Clouds 23 1006 58 0 0.45 270 11:40 07.08.2019
4077 Clouds 23 1006 55 0 0.45 221 11:18 07.08.2019
4078 Clouds 23 1006 60 0 2.73 233.436 10:41 07.08.2019
4079 Clouds 23 1006 60 0 0.89 222 10:20 07.08.2019
4080 Clouds 23 1006 60 0 2.73 233.436 09:59 07.08.2019
4081 Clouds 22 1006 60 0 0.89 231 09:40 07.08.2019
4082 Clouds 20 1001 68 0 1.4 147.856 09:20 07.08.2019
4083 Clouds 21 1006 63 0 1.4 147.856 08:45 07.08.2019
4084 Clouds 20 1001 72 0 1.8 171.442 08:25 07.08.2019
4085 Clouds 19 1006 67 0 0.45 117 07:51 07.08.2019
4086 Clouds 18 1006 70 0 0.45 104 07:31 07.08.2019
4087 Clouds 17 1006 74 0 1.8 171.442 06:50 07.08.2019
4088 Clouds 17 1006 72 0 1.25 147.336 06:26 07.08.2019
4089 Clouds 17 1007 71 0 1.25 147.336 05:43 07.08.2019
4090 Clouds 17 1007 74 0 1.25 147.336 04:43 07.08.2019
4091 Clouds 18 1007 72 0 0.69 245.301 03:20 07.08.2019
4092 Clouds 17 1008 69 0 0.69 245.301 02:42 07.08.2019
4093 Clouds 17 1008 78 0 0.69 245.301 01:53 07.08.2019
4094 Clouds 18 1003 71 0 1.07 251.209 01:24 07.08.2019
4095 Clouds 18 1008 68 0 1.07 251.209 00:38 07.08.2019
4096 Clouds 19 1008 65 0 2.04 272.366 00:19 07.08.2019
4097 Clouds 20 1008 63 0 2.04 272.366 23:40 06.08.2019
4098 Clouds 20 1008 62 0 0.45 297 23:21 06.08.2019
4099 Clouds 20 1008 60 0 2.04 272.366 23:21 06.08.2019
4100 Clouds 19 1003 69 0 2.04 272.366 22:56 06.08.2019
4101 Clouds 19 1003 68 0 2.04 272.366 22:37 06.08.2019
4102 Clouds 20 1003 65 0 2.04 272.366 22:18 06.08.2019
4103 Clouds 19 1003 61 0 2.04 272.366 21:40 06.08.2019
4104 Clouds 22 1008 55 0 2.45 258.887 21:21 06.08.2019
4105 Clouds 23 1008 51 0 2.45 258.887 20:54 06.08.2019
4106 Clouds 24 1008 49 0 2.65 266.47 20:36 06.08.2019
4107 Clouds 24 1008 47 0 0.45 8 20:18 06.08.2019
4108 Clouds 24 1007 43 0 1.79 0 19:41 06.08.2019
4109 Clouds 25 1002 42 0 2.65 266.47 19:23 06.08.2019
4110 Clouds 25 1006 47 0 2.24 0 18:45 06.08.2019
4111 Rain 26 1008 53 0 0.45 12 18:26 06.08.2019
4112 Rain 26 1008 52 0 1.34 350 17:59 06.08.2019
4113 Rain 27 1008 51 0 1.34 45 17:39 06.08.2019
4114 Rain 27 1008 50 0 1.34 42 17:21 06.08.2019
4115 Rain 27 1008 49 0 0.89 319 16:59 06.08.2019
4116 Rain 26 1007 45 0 5.04 264.509 16:38 06.08.2019
4117 Rain 25 1007 58 0 4.47 0 16:19 06.08.2019
4118 Rain 26 1008 47 0 2.24 320 15:57 06.08.2019
4119 Rain 26 1008 45 0 1.79 309 15:38 06.08.2019
4120 Rain 27 1008 45 0 2.24 247 15:19 06.08.2019
4121 Rain 27 1008 45 0 2.24 247 15:19 06.08.2019
4122 Rain 26 1009 46 0 2.24 294 14:43 06.08.2019
4123 Rain 27 1009 46 0 1.79 274 14:25 06.08.2019
4124 Rain 27 1009 46 0 1.34 315 13:58 06.08.2019
4125 Rain 27 1004 45 0 4.97 268.224 13:38 06.08.2019
4126 Rain 26 1009 39 0 4.53 256.934 13:20 06.08.2019
4127 Rain 28 1009 40 0 1.34 198 12:56 06.08.2019
4128 Rain 28 1009 38 0 1.34 248 12:38 06.08.2019
4129 Rain 27 1004 43 0 3.28 227.275 12:20 06.08.2019
4130 Rain 26 1010 51 0 2.24 309 11:41 06.08.2019
4131 Rain 24 1010 53 0 2.24 240 11:19 06.08.2019
4132 Rain 27 1010 43 0 0.45 183 10:42 06.08.2019
4133 Rain 25 1010 42 0 0.89 207 10:23 06.08.2019
4134 Rain 24 1010 44 0 0.89 170 09:58 06.08.2019
4135 Rain 23 1011 76 0 0.45 148 09:38 06.08.2019
4136 Clouds 22 1011 79 0 0.89 221 09:19 06.08.2019
4137 Clouds 20 1005 72 0 2.52 209.401 08:42 06.08.2019
4138 Clouds 19 1005 84 0 2.52 209.401 08:24 06.08.2019
4139 Clouds 17 1010 81 0 2.52 209.401 07:36 06.08.2019
4140 Clouds 16 1010 86 0 2.52 209.401 06:53 06.08.2019
4141 Clouds 16 1011 88 0 2.52 209.401 06:35 06.08.2019
4142 Clouds 15 1010 87 0 2.19 244.171 05:52 06.08.2019
4143 Clouds 16 1010 87 0 2.19 244.171 04:32 06.08.2019
4144 Clouds 16 1010 87 0 2.19 244.171 04:32 06.08.2019
4145 Clouds 18 1010 84 0 2.63 263.431 01:55 06.08.2019
4146 Clouds 18 1010 83 0 3.19 269.3 01:24 06.08.2019
4147 Clouds 18 1010 83 0 3.19 269.3 00:30 06.08.2019
4148 Clouds 19 1010 83 0 3.17 258.19 23:47 05.08.2019
4149 Clouds 19 1010 81 0 3.17 258.19 23:19 05.08.2019
4150 Clouds 20 1010 80 0 3.17 258.19 22:41 05.08.2019
4151 Clouds 21 1010 77 0 3.17 258.19 22:23 05.08.2019
4152 Clouds 21 1010 75 0 0.45 229 21:55 05.08.2019
4153 Clouds 21 1005 84 0 3.17 258.19 21:36 05.08.2019
4154 Rain 22 1009 61 0 4.56 243.401 21:18 05.08.2019
4155 Rain 23 1008 56 0 3.57 274.879 20:55 05.08.2019
4156 Rain 23 1009 54 0 3.57 274.879 20:37 05.08.2019
4157 Rain 24 1009 50 0 3.57 274.879 20:18 05.08.2019
4158 Rain 24 1009 55 0 1.34 262 19:43 05.08.2019
4159 Rain 25 1009 43 0 0.45 269 19:24 05.08.2019
4160 Rain 25 1009 41 0 0.45 245 18:57 05.08.2019
4161 Rain 25 1009 40 0 0.45 194 18:39 05.08.2019
4162 Rain 26 1009 39 0 0.45 160 18:19 05.08.2019
4163 Rain 26 1010 59 0 0.89 160 17:42 05.08.2019
4164 Rain 26 1009 39 0 1.34 266 17:24 05.08.2019
4165 Rain 25 1009 38 0 2.68 248 16:46 05.08.2019
4166 Rain 25 1009 45 0 2.24 164 16:26 05.08.2019
4167 Rain 25 1010 45 0 1.37 224.085 15:56 05.08.2019
4168 Rain 25 1010 43 0 1.79 163 15:37 05.08.2019
4169 Clouds 25 1010 46 0 1.34 159 15:18 05.08.2019
4170 Clouds 25 1010 47 0 3.58 100 14:39 05.08.2019
4171 Clouds 25 1010 48 0 2.24 148 14:19 05.08.2019
4172 Clouds 24 1011 58 0 1.34 124 13:44 05.08.2019
4173 Clouds 23 1005 53 0 3.12 203.741 13:22 05.08.2019
4174 Clouds 23 1006 52 0 3.12 203.741 12:49 05.08.2019
4175 Clouds 23 1011 72 0 0.89 124 12:20 05.08.2019
4176 Clouds 23 1012 64 0 0.89 193 11:48 05.08.2019
4177 Clouds 23 1012 54 0 0.45 88 11:28 05.08.2019
4178 Clouds 22 1012 53 0 0.45 53 10:59 05.08.2019
4179 Clouds 21 1012 56 0 0.45 162 10:41 05.08.2019
4180 Clouds 21 1012 58 0 0.45 141 10:21 05.08.2019
4181 Clouds 20 1012 54 0 1.34 159 09:43 05.08.2019
4182 Clouds 20 1012 63 0 1.34 115 09:25 05.08.2019
4183 Clouds 19 1011 68 0 1.79 152 08:59 05.08.2019
4184 Clouds 19 1012 69 0 0.89 95 08:41 05.08.2019
4185 Clouds 18 1013 69 0 0.45 124 08:20 05.08.2019
4186 Clouds 16 1013 73 0 3.01 153.945 07:45 05.08.2019
4187 Clouds 16 1013 76 0 3.01 153.945 07:26 05.08.2019
4188 Clouds 15 1013 77 0 2.1 161.746 06:35 05.08.2019
4189 Clouds 14 1013 79 0 0.45 124 05:52 05.08.2019
4190 Clouds 14 1013 77 0 2.1 161.746 05:20 05.08.2019
4191 Clouds 14 1014 78 0 2.1 161.746 04:27 05.08.2019
4192 Clouds 14 1014 77 0 2.1 161.746 03:38 05.08.2019
4193 Clouds 14 1014 74 0 1.92 182.651 02:36 05.08.2019
4194 Clouds 14 1014 72 0 1.73 192.748 01:35 05.08.2019
4195 Clouds 14 1014 72 0 1.73 192.748 01:35 05.08.2019
4196 Clouds 15 1015 71 0 1.73 192.748 00:43 05.08.2019
4197 Clouds 15 1015 71 0 1.32 197.569 00:24 05.08.2019
4198 Clouds 16 1015 69 0 1.32 197.569 23:59 04.08.2019
4199 Clouds 16 1015 69 0 1.32 197.569 23:40 04.08.2019
4200 Clouds 17 1015 69 0 1.32 197.569 23:20 04.08.2019
4201 Clouds 18 1015 68 0 1.32 197.569 22:56 04.08.2019
4202 Clouds 18 1015 66 0 1.32 197.569 22:37 04.08.2019
4203 Clouds 18 1015 64 0 1.32 197.569 22:19 04.08.2019
4204 Clouds 19 1015 59 0 1.32 197.569 21:43 04.08.2019
4205 Clouds 20 1015 55 0 0.7 300.05 21:20 04.08.2019
4206 Clouds 21 1014 51 0 0.45 300 20:55 04.08.2019
4207 Clouds 22 1014 49 0 0.45 305 20:37 04.08.2019
4208 Clouds 22 1014 46 0 1.34 327 20:18 04.08.2019
4209 Clouds 23 1015 43 0 1.79 324 19:42 04.08.2019
4210 Clouds 23 1015 43 0 0.89 305 19:24 04.08.2019
4211 Clouds 24 1015 41 0 1.13 309.851 18:42 04.08.2019
4212 Clouds 24 1015 38 0 0.89 345 18:21 04.08.2019
4213 Clouds 24 1015 37 0 0.89 4 17:58 04.08.2019
4214 Clouds 24 1015 36 0 1.34 314 17:40 04.08.2019
4215 Clouds 25 1015 45 0 0.45 10 17:20 04.08.2019
4216 Clouds 24 1015 36 0 0.89 311 16:42 04.08.2019
4217 Clouds 25 1010 35 0 2.28 286.894 16:24 04.08.2019
4218 Clouds 24 1015 49 0 1.34 23 15:45 04.08.2019
4219 Clouds 24 1015 49 0 0.89 290 15:23 04.08.2019
4220 Clouds 24 1016 51 0 0.45 18 14:55 04.08.2019
4221 Clouds 24 1016 40 0 0.45 95 14:37 04.08.2019
4222 Clouds 24 1017 44 0 3.36 291.047 14:19 04.08.2019
4223 Clouds 24 1017 39 0 0.89 94 13:42 04.08.2019
4224 Clouds 24 1017 36 0 1.34 12 13:23 04.08.2019
4225 Clouds 24 1016 42 0 0.89 311 12:46 04.08.2019
4226 Clouds 23 1017 56 0 1.34 38 12:27 04.08.2019
4227 Clear 22 1017 42 0 0.45 329 11:57 04.08.2019
4228 Clear 22 1017 45 0 1.34 311 11:37 04.08.2019
4229 Clear 22 1018 55 0 3.07 287.999 11:19 04.08.2019
4230 Clear 21 1017 48 0 0.45 298 10:41 04.08.2019
4231 Clear 21 1012 41 0 0.45 28 10:21 04.08.2019
4232 Clear 19 1011 57 0 1.34 327 09:45 04.08.2019
4233 Clouds 19 1017 80 0 0.89 34 09:23 04.08.2019
4234 Clouds 18 1018 76 0 3.02 285.165 08:48 04.08.2019
4235 Clouds 17 1012 73 0 3.02 285.165 08:27 04.08.2019
4236 Clouds 16 1017 89 0 0.89 359 07:52 04.08.2019
4237 Clouds 16 1017 76 0 0.45 322 07:20 04.08.2019
4238 Clouds 15 1017 81 0 3.02 285.165 06:28 04.08.2019
4239 Clouds 16 1016 80 0 2.57 292.452 04:43 04.08.2019
4240 Clouds 16 1016 74 0 0.89 313 02:47 04.08.2019
4241 Clouds 17 1016 78 0 2.45 292.492 01:44 04.08.2019
4242 Clear 17 1016 77 0 0.45 325 01:25 04.08.2019
4243 Clear 18 1016 82 0 2.37 294.063 00:41 04.08.2019
4244 Clear 18 1015 72 0 1.63 294.333 00:21 04.08.2019
4245 Clear 18 1016 70 0 0.45 215 23:41 03.08.2019
4246 Clear 19 1016 68 0 1.63 294.333 23:19 03.08.2019
4247 Clear 19 1010 74 0 1.63 294.333 22:55 03.08.2019
4248 Clear 19 1015 73 0 1.63 294.333 22:37 03.08.2019
4249 Clear 19 1015 64 0 1.63 294.333 22:18 03.08.2019
4250 Clear 20 1015 63 0 0.45 300 21:38 03.08.2019
4251 Rain 21 1015 62 0 2.54 328.534 21:19 03.08.2019
4252 Clouds 22 1014 60 0 0.89 321 20:43 03.08.2019
4253 Clouds 23 1014 58 0 1.79 283 20:23 03.08.2019
4254 Clouds 23 1014 54 0 1.46 312.727 19:43 03.08.2019
4255 Clouds 24 1014 51 0 1.46 312.727 19:25 03.08.2019
4256 Clouds 24 1014 43 0 0.45 248 18:56 03.08.2019
4257 Clouds 25 1014 41 0 0.89 304 18:28 03.08.2019
4258 Clouds 25 1014 37 0 0.89 317 17:51 03.08.2019
4259 Clouds 25 1014 40 0 2.68 329 17:22 03.08.2019
4260 Clouds 25 1014 43 0 1.34 358 16:58 03.08.2019
4261 Clouds 25 1014 42 0 0.89 11 16:38 03.08.2019
4262 Clouds 26 1014 38 0 1.34 205 16:19 03.08.2019
4263 Clouds 25 1014 40 0 2.18 349.295 15:45 03.08.2019
4264 Clouds 25 1014 40 0 2.18 349.295 15:45 03.08.2019
4265 Clear 25 1014 38 0 1.34 325 15:24 03.08.2019
4266 Clear 25 1014 45 0 2.57 359.665 14:44 03.08.2019
4267 Clear 25 1015 41 0 1.34 8 14:23 03.08.2019
4268 Clear 25 1015 39 0 1.34 307 13:57 03.08.2019
4269 Clear 25 1015 42 0 0.45 225 13:36 03.08.2019
4270 Clear 25 1015 50 0 0.89 351 13:18 03.08.2019
4271 Clear 24 1015 48 0 1.34 26 12:41 03.08.2019
4272 Clear 24 1015 46 0 2.68 353 12:23 03.08.2019
4273 Clear 24 1015 46 0 1.79 344 11:52 03.08.2019
4274 Clear 24 1014 56 0 0.89 76 11:33 03.08.2019
4275 Clear 23 1015 50 0 0.89 11 10:46 03.08.2019
4276 Clear 23 1014 45 0 0.45 291 10:24 03.08.2019
4277 Clear 22 1009 66 0 1.99 6.922 09:45 03.08.2019
4278 Clouds 20 1009 84 0 1.39 28.387 09:24 03.08.2019
4279 Clouds 18 1009 84 0 1.44 37.983 08:56 03.08.2019
4280 Clouds 17 1009 90 0 1.44 37.983 08:24 03.08.2019
4281 Clouds 16 1014 82 0 0.45 224 07:38 03.08.2019
4282 Clouds 15 1014 87 0 1.44 37.983 06:47 03.08.2019
4283 Clouds 15 1013 87 0 1.74 51.412 05:59 03.08.2019
4284 Clouds 16 1013 85 0 0.45 16 02:50 03.08.2019
4285 Clouds 16 1013 86 0 1.79 50.875 01:56 03.08.2019
4286 Clouds 17 1013 85 0 2.13 38.012 00:57 03.08.2019
4287 Clouds 17 1013 85 0 2.13 38.012 00:31 03.08.2019
4288 Rain 17 1013 84 0 0.94 91.828 23:42 02.08.2019
4289 Rain 17 1013 84 0 0.94 91.828 23:20 02.08.2019
4290 Rain 17 1013 83 0 0.94 91.828 22:57 02.08.2019
4291 Rain 18 1013 82 0 0.45 94 22:39 02.08.2019
4292 Rain 18 1013 81 0 0.45 90 22:21 02.08.2019
4293 Rain 18 1014 71 0 0.89 321 21:55 02.08.2019
4294 Rain 18 1014 71 0 1.79 336 21:37 02.08.2019
4295 Rain 19 1014 19 0 3.58 327 21:18 02.08.2019
4296 Rain 19 1014 19 0 3.58 327 21:18 02.08.2019
4297 Rain 20 1013 41 0 0.45 138 20:42 02.08.2019
4298 Rain 20 1013 35 0 0.45 104 20:22 02.08.2019
4299 Rain 21 1013 31 0 1.34 32 19:50 02.08.2019
4300 Rain 21 1013 38 0 1.79 63 19:30 02.08.2019
4301 Rain 22 1013 56 0 1.34 355 18:50 02.08.2019
4302 Rain 24 1012 43 0 1.34 63 18:32 02.08.2019
4303 Rain 24 1008 58 0 2.66 289.15 17:56 02.08.2019
4304 Rain 25 1012 38 0 2.66 289.15 17:38 02.08.2019
4305 Rain 25 1013 36 0 0.89 183 17:19 02.08.2019
4306 Rain 26 1013 37 0 0.45 273 16:39 02.08.2019
4307 Rain 26 1013 40 0 1.34 169 16:20 02.08.2019
4308 Rain 26 1013 42 0 0.45 203 15:47 02.08.2019
4309 Rain 26 1013 40 0 0.45 210 15:47 02.08.2019
4310 Rain 26 1013 40 0 1.58 266.629 15:21 02.08.2019
4311 Rain 26 1013 35 0 1.58 266.629 14:59 02.08.2019
4312 Rain 26 1008 36 0 1.58 266.629 14:40 02.08.2019
4313 Rain 26 1014 41 0 0.45 159 14:18 02.08.2019
4314 Rain 25 1014 42 0 0.89 300 13:45 02.08.2019
4315 Rain 26 1014 36 0 3.58 311 13:20 02.08.2019
4316 Rain 27 1014 35 0 0.89 1 12:43 02.08.2019
4317 Rain 25 1014 39 0 0.45 219 12:20 02.08.2019
4318 Rain 25 1014 37 0 0.45 352 11:41 02.08.2019
4319 Rain 25 1009 41 0 0.67 191.849 11:22 02.08.2019
4320 Rain 24 1014 39 0 0.45 210 10:48 02.08.2019
4321 Rain 24 1014 39 0 0.67 191.849 10:24 02.08.2019
4322 Rain 23 1014 39 0 0.67 191.849 09:57 02.08.2019
4323 Rain 21 1015 68 0 0.67 191.849 09:38 02.08.2019
4324 Rain 20 1009 55 0 0.95 281.867 09:20 02.08.2019
4325 Clear 19 1009 66 0 0.76 264.506 08:40 02.08.2019
4326 Clear 18 1009 67 0 0.76 264.506 08:18 02.08.2019
4327 Clear 18 1014 68 0 0.76 264.506 07:42 02.08.2019
4328 Clear 17 1015 69 0 0.76 264.506 07:24 02.08.2019
4329 Clear 16 1009 77 0 0.76 264.506 06:33 02.08.2019
4330 Clear 16 1014 75 0 0.83 176.597 05:44 02.08.2019
4331 Clear 17 1015 83 0 0.83 176.597 03:35 02.08.2019
4332 Clouds 16 1010 70 0 1.25 150.839 02:42 02.08.2019
4333 Clouds 17 1010 69 0 1.26 164.454 01:41 02.08.2019
4334 Clouds 18 1016 81 0 1.26 164.454 00:32 02.08.2019
4335 Clouds 18 1015 65 0 0.34 244.257 23:45 01.08.2019
4336 Clouds 19 1015 61 0 0.34 244.257 23:26 01.08.2019
4337 Clouds 19 1016 77 0 0.34 244.257 22:46 01.08.2019
4338 Clouds 19 1015 59 0 0.34 244.257 22:25 01.08.2019
4339 Clouds 20 1015 58 0 0.34 244.257 21:59 01.08.2019
4340 Clouds 20 1015 58 0 0.34 244.257 21:41 01.08.2019
4341 Clouds 21 1015 57 0 0.46 234.202 21:22 01.08.2019
4342 Clouds 22 1015 54 0 1.14 288.435 20:47 01.08.2019
4343 Clouds 23 1015 46 0 1.14 288.435 20:23 01.08.2019
4344 Clouds 24 1015 40 0 1.14 288.435 19:59 01.08.2019
4345 Clouds 24 1015 37 0 1.14 288.435 19:37 01.08.2019
4346 Clouds 24 1015 37 0 1.14 288.435 19:18 01.08.2019
4347 Clouds 25 1015 36 0 0.45 180 18:43 01.08.2019
4348 Rain 25 1015 35 0 1.34 294 18:24 01.08.2019
4349 Rain 26 1015 37 0 0.45 139 17:49 01.08.2019
4350 Rain 25 1015 35 0 1.34 307 17:30 01.08.2019
4351 Rain 25 1015 32 0 0.45 191 16:45 01.08.2019
4352 Rain 25 1010 32 0 2.26 267.114 16:23 01.08.2019
4353 Rain 26 1016 48 0 0.89 277 15:54 01.08.2019
4354 Rain 25 1014 48 0 1.34 0 15:36 01.08.2019
4355 Rain 26 1016 30 0 2.84 287.47 15:18 01.08.2019
4356 Rain 26 1016 33 0 2.84 287.47 14:41 01.08.2019
4357 Rain 25 1016 38 0 1.34 276 14:19 01.08.2019
4358 Rain 25 1016 39 0 1.34 236 13:57 01.08.2019
4359 Rain 25 1016 39 0 0.89 212 13:39 01.08.2019
4360 Rain 25 1016 37 0 1.34 266 13:20 01.08.2019
4361 Rain 25 1016 36 0 0.45 25 12:43 01.08.2019
4362 Clear 24 1016 38 0 0.45 308 12:25 01.08.2019
4363 Clear 24 1017 39 0 1.34 282 11:43 01.08.2019
4364 Clear 24 1017 57 0 0.45 44 11:24 01.08.2019
4365 Clear 24 1017 41 0 1.34 258 10:56 01.08.2019
4366 Clear 23 1017 40 0 1.79 88 10:38 01.08.2019
4367 Clear 23 1017 35 0 0.45 321 10:20 01.08.2019
4368 Clear 21 1012 47 0 1.08 312.851 09:43 01.08.2019
4369 Clouds 19 1018 79 0 0.89 286 09:23 01.08.2019
4370 Clouds 18 1012 63 0 1.58 278.653 08:47 01.08.2019
4371 Clouds 17 1018 86 0 0.45 349 08:21 01.08.2019
4372 Clouds 16 1012 84 0 1.58 278.653 07:51 01.08.2019
4373 Clouds 16 1017 79 0 1.58 278.653 07:28 01.08.2019
4374 Clouds 15 1017 82 0 1.58 278.653 06:49 01.08.2019
4375 Clouds 15 1017 83 0 1.58 278.653 06:29 01.08.2019
4376 Clouds 16 1017 82 0 2.01 289.04 05:30 01.08.2019
4377 Clouds 16 1017 69 0 1.34 329 02:35 01.08.2019
4378 Clouds 16 1017 70 0 0.89 286 00:51 01.08.2019
4379 Rain 17 1016 68 0 1.46 256.932 00:25 01.08.2019
4380 Rain 17 1016 70 0 1.46 256.932 23:44 31.07.2019
4381 Rain 17 1016 74 0 1.79 255 23:21 31.07.2019
4382 Rain 17 1016 72 0 1.46 256.932 23:21 31.07.2019
4383 Rain 17 1016 81 0 1.46 256.932 22:59 31.07.2019
4384 Rain 17 1016 80 0 1.46 256.932 22:41 31.07.2019
4385 Rain 17 1016 80 0 0.45 146 22:23 31.07.2019
4386 Rain 18 1016 78 0 1.46 256.932 21:40 31.07.2019
4387 Rain 18 1016 76 0 0.45 143 21:21 31.07.2019
4388 Rain 19 1015 72 0 1.53 294.503 20:49 31.07.2019
4389 Rain 20 1015 69 0 1.53 294.503 20:23 31.07.2019
4390 Rain 20 1014 63 0 1.34 122 19:48 31.07.2019
4391 Rain 20 1014 63 0 2.68 172 19:29 31.07.2019
4392 Rain 20 1014 62 0 2.68 169 18:55 31.07.2019
4393 Rain 19 1014 60 0 1.34 157 18:37 31.07.2019
4394 Rain 23 1014 57 0 1.29 271.602 18:18 31.07.2019
4395 Rain 23 1015 56 0 0.45 186 17:44 31.07.2019
4396 Rain 22 1014 65 0 0.45 138 17:20 31.07.2019
4397 Rain 24 1014 71 0 1.29 271.602 16:48 31.07.2019
4398 Rain 24 1014 68 0 1.34 142 16:26 31.07.2019
4399 Rain 24 1015 66 0 1.29 271.602 15:55 31.07.2019
4400 Rain 24 1015 55 0 1.34 33 15:37 31.07.2019
4401 Rain 24 1015 55 0 1.34 33 15:37 31.07.2019
4402 Rain 24 1015 56 0 0.89 11 15:18 31.07.2019
4403 Rain 24 1010 52 0 0.89 222 14:42 31.07.2019
4404 Rain 23 1015 53 0 0.45 81 14:19 31.07.2019
4405 Rain 23 1014 58 0 1.77 274.419 13:55 31.07.2019
4406 Rain 23 1015 67 0 1.77 274.419 13:36 31.07.2019
4407 Rain 22 1015 72 0 1.43 258.273 13:18 31.07.2019
4408 Rain 22 1015 72 0 1.43 258.273 13:18 31.07.2019
4409 Rain 21 1015 79 0 0.45 74 12:40 31.07.2019
4410 Clouds 21 1015 76 0 2.37 307 12:21 31.07.2019
4411 Clouds 21 1015 65 0 1.34 35 11:39 31.07.2019
4412 Clouds 21 1009 65 0 2.37 307 11:21 31.07.2019
4413 Clouds 21 1015 72 0 2.37 307 10:55 31.07.2019
4414 Clouds 21 1015 72 0 2.37 307 10:37 31.07.2019
4415 Clouds 21 1015 73 0 2.37 307 10:18 31.07.2019
4416 Clouds 21 1014 75 0 2.37 307 09:42 31.07.2019
4417 Rain 21 1014 77 0 1.25 2.792 09:23 31.07.2019
4418 Rain 21 1008 74 0 1.04 346.404 08:43 31.07.2019
4419 Rain 20 1013 76 0 0.45 148 08:23 31.07.2019
4420 Rain 20 1013 83 0 1.04 346.404 07:47 31.07.2019
4421 Rain 20 1013 84 0 1.04 346.404 07:27 31.07.2019
4422 Clouds 18 1008 79 0 2.14 265.464 05:20 31.07.2019
4423 Clouds 18 1012 79 0 2.14 265.464 03:56 31.07.2019
4424 Clear 20 1012 73 0 0.94 32.978 00:37 31.07.2019
4425 Clear 22 1012 70 0 1.73 33.021 23:49 30.07.2019
4426 Clear 22 1012 69 0 1.73 33.021 23:27 30.07.2019
4427 Clear 21 1006 70 0 1.73 33.021 22:49 30.07.2019
4428 Clear 22 1012 65 0 1.73 33.021 22:26 30.07.2019
4429 Clear 22 1006 66 0 1.73 33.021 21:59 30.07.2019
4430 Clear 23 1005 62 0 1.73 33.021 21:37 30.07.2019
4431 Clouds 24 1011 58 0 0.45 18 21:19 30.07.2019
4432 Clouds 25 1010 52 0 2.24 359 20:56 30.07.2019
4433 Clouds 26 1010 51 0 1.34 8 20:38 30.07.2019
4434 Clouds 27 1010 48 0 1.34 38 20:19 30.07.2019
4435 Clouds 27 1010 45 0 1.79 11 19:47 30.07.2019
4436 Clouds 28 1010 38 0 1.34 0 19:28 30.07.2019
4437 Clouds 28 1010 39 0 1.34 348 18:48 30.07.2019
4438 Clouds 29 1010 39 0 0.89 22 18:25 30.07.2019
4439 Clouds 29 1010 38 0 0.45 241 17:58 30.07.2019
4440 Clouds 29 1010 38 0 0.45 1 17:40 30.07.2019
4441 Clouds 29 1010 37 0 0.89 272 17:18 30.07.2019
4442 Clouds 29 1009 39 0 1.34 329 16:46 30.07.2019
4443 Clouds 29 1009 39 0 1.34 329 16:46 30.07.2019
4444 Clouds 29 1010 38 0 1.34 270 16:19 30.07.2019
4445 Clouds 29 1009 37 0 0.89 227 15:41 30.07.2019
4446 Clouds 28 1013 55 0 2.64 301.292 15:22 30.07.2019
4447 Clouds 28 1010 36 0 1.79 25 14:46 30.07.2019
4448 Clouds 27 1011 35 0 1.34 296 14:26 30.07.2019
4449 Clouds 28 1011 40 0 1.34 283 13:56 30.07.2019
4450 Clouds 28 1011 40 0 1.34 301 13:37 30.07.2019
4451 Clouds 28 1011 39 0 2.68 334 13:19 30.07.2019
4452 Clouds 27 1011 43 0 0.45 297 12:46 30.07.2019
4453 Clouds 26 1014 63 0 2.3 288.917 12:28 30.07.2019
4454 Clouds 26 1011 61 0 0.89 342 11:56 30.07.2019
4455 Clouds 25 1011 64 0 1.34 221 11:37 30.07.2019
4456 Clouds 26 1011 51 0 1.34 286 11:18 30.07.2019
4457 Clouds 24 1011 50 0 1.34 270 10:39 30.07.2019
4458 Clouds 24 1011 48 0 1.34 15 10:20 30.07.2019
4459 Clouds 22 1011 72 0 0.45 15 09:48 30.07.2019
4460 Clouds 22 1011 73 0 0.89 324 09:29 30.07.2019
4461 Clouds 21 1011 77 0 0.89 338 08:44 30.07.2019
4462 Clouds 21 1011 83 0 0.89 243 08:22 30.07.2019
4463 Clouds 21 1011 67 0 2.67 290.36 07:46 30.07.2019
4464 Clouds 21 1011 70 0 0.45 109 07:25 30.07.2019
4465 Clouds 21 1011 73 0 0.89 296 06:46 30.07.2019
4466 Clouds 21 1010 78 0 3.3 299.909 05:56 30.07.2019
4467 Clouds 21 1010 78 0 3.3 299.909 05:32 30.07.2019
4468 Rain 21 1010 77 0 3.26 296.934 01:40 30.07.2019
4469 Rain 21 1010 74 0 3.26 296.934 00:45 30.07.2019
4470 Rain 22 1010 75 0 4.05 300.748 00:20 30.07.2019
4471 Rain 22 1010 77 0 4.05 300.748 23:44 29.07.2019
4472 Rain 22 1010 76 0 4.05 300.748 23:26 29.07.2019
4473 Rain 22 1010 75 0 4.05 300.748 22:57 29.07.2019
4474 Rain 22 1010 74 0 4.05 300.748 22:38 29.07.2019
4475 Rain 22 1010 73 0 0.45 197 22:20 29.07.2019
4476 Rain 22 1010 72 0 0.45 186 21:56 29.07.2019
4477 Rain 22 1010 71 0 4.05 300.748 21:37 29.07.2019
4478 Rain 23 1010 70 0 0.45 341 21:18 29.07.2019
4479 Rain 23 1009 69 0 0.45 18 20:48 29.07.2019
4480 Rain 24 1009 65 0 4.1 275.112 20:24 29.07.2019
4481 Rain 25 1009 64 0 4.1 275.112 19:56 29.07.2019
4482 Rain 26 1009 62 0 0.89 307 19:37 29.07.2019
4483 Rain 27 1009 61 0 1.79 279 19:19 29.07.2019
4484 Rain 28 1009 57 0 1.34 11 18:42 29.07.2019
4485 Clouds 28 1009 55 0 0.45 260 18:22 29.07.2019
4486 Clouds 29 1008 51 0 0.45 260 17:52 29.07.2019
4487 Clouds 29 1009 51 0 0.89 36 17:34 29.07.2019
4488 Clouds 29 1008 48 0 0.45 301 16:59 29.07.2019
4489 Clouds 29 1008 49 0 1.79 311 16:40 29.07.2019
4490 Clouds 29 1009 50 0 0.89 23 16:22 29.07.2019
4491 Clouds 29 1009 50 0 1.34 311 15:51 29.07.2019
4492 Clouds 30 1009 51 0 0.45 339 15:32 29.07.2019
4493 Clouds 29 1009 51 0 0.89 283 14:56 29.07.2019
4494 Clouds 29 1009 49 0 3.13 290 14:37 29.07.2019
4495 Clouds 29 1009 51 0 2.68 270 14:19 29.07.2019
4496 Clouds 29 1009 52 0 3.58 303 13:41 29.07.2019
4497 Rain 29 1009 50 0 4.02 282 13:23 29.07.2019
4498 Rain 29 1009 54 0 0.89 12 12:42 29.07.2019
4499 Rain 28 1009 54 0 1.79 300 12:23 29.07.2019
4500 Rain 27 1009 56 0 0.89 18 11:44 29.07.2019
4501 Rain 27 1009 55 0 1.79 311 11:22 29.07.2019
4502 Rain 26 1008 57 0 1.34 307 10:47 29.07.2019
4503 Rain 25 1008 57 0 1.34 260 10:25 29.07.2019
4504 Rain 25 1008 62 0 2.68 308 09:51 29.07.2019
4505 Rain 24 1008 67 0 2.24 276 09:28 29.07.2019
4506 Rain 24 1007 70 0 0.45 8 08:57 29.07.2019
4507 Rain 24 1007 72 0 2.24 308 08:32 29.07.2019
4508 Rain 22 1007 74 0 0.45 266 07:59 29.07.2019
4509 Rain 22 1007 75 0 1.79 318 07:36 29.07.2019
4510 Rain 21 1006 80 0 0.45 338 06:53 29.07.2019
4511 Rain 21 1005 81 0 1.34 307 05:47 29.07.2019
4512 Rain 22 1005 67 0 2.59 300.762 04:53 29.07.2019
4513 Rain 23 1004 55 0 0.45 352 02:27 29.07.2019
4514 Rain 24 1004 61 0 0.45 122 01:45 29.07.2019
4515 Rain 24 1004 61 0 2.15 319.08 01:23 29.07.2019
4516 Rain 22 1003 64 0 2.15 319.08 00:43 29.07.2019
4517 Rain 25 1004 53 0 0.96 42.25 00:20 29.07.2019
4518 Rain 25 1003 52 0 0.45 321 23:41 28.07.2019
4519 Rain 25 1003 52 0 0.96 42.25 23:19 28.07.2019
4520 Rain 25 1007 53 0 0.96 42.25 22:41 28.07.2019
4521 Rain 26 1003 51 0 0.96 42.25 22:22 28.07.2019
4522 Rain 26 1002 51 0 0.96 42.25 21:49 28.07.2019
4523 Clouds 28 1002 50 0 1.21 64.217 21:19 28.07.2019
4524 Clouds 29 1002 44 0 0.84 191.779 20:48 28.07.2019
4525 Clouds 29 1002 41 0 0.84 191.779 20:29 28.07.2019
4526 Clouds 30 1000 39 0 0.84 191.779 19:56 28.07.2019
4527 Clouds 30 1001 38 0 0.84 191.779 19:38 28.07.2019
4528 Clouds 30 1001 36 0 1.34 118 19:19 28.07.2019
4529 Clouds 30 1001 33 0 0.45 21 18:43 28.07.2019
4530 Clouds 31 1001 34 0 0.45 21 18:24 28.07.2019
4531 Clouds 31 1001 31 0 2.68 84 17:43 28.07.2019
4532 Clouds 31 1001 32 0 0.45 204 17:22 28.07.2019
4533 Clouds 31 1001 30 0 0.89 119 16:58 28.07.2019
4534 Clouds 32 1001 30 0 1.34 118 16:39 28.07.2019
4535 Clouds 32 1000 30 0 1.34 32 16:21 28.07.2019
4536 Clouds 30 1000 33 0 1.79 67 15:43 28.07.2019
4537 Clouds 30 1000 32 0 0.89 124 15:22 28.07.2019
4538 Clouds 30 1000 32 0 2.68 87 14:38 28.07.2019
4539 Clouds 30 1001 44 0 2.24 135 14:20 28.07.2019
4540 Clouds 30 1000 35 0 4.34 86.801 13:56 28.07.2019
4541 Clouds 29 1001 35 0 2.68 91 13:37 28.07.2019
4542 Clouds 30 1000 37 0 1.79 62 13:19 28.07.2019
4543 Clouds 29 1001 38 0 0.89 7 12:41 28.07.2019
4544 Clouds 28 1000 39 0 1.34 32 12:23 28.07.2019
4545 Clouds 27 1001 42 0 1.79 78 11:49 28.07.2019
4546 Clouds 26 1001 43 0 1.79 26 11:27 28.07.2019
4547 Clouds 26 1000 46 0 3.13 102 10:43 28.07.2019
4548 Clouds 26 1000 38 0 0.45 28 10:23 28.07.2019
4549 Clouds 25 1001 40 0 2.24 80 09:59 28.07.2019
4550 Clouds 24 1001 66 0 2.24 100 09:39 28.07.2019
4551 Clouds 22 1004 67 0 3.24 81.149 09:20 28.07.2019
4552 Rain 22 1001 70 0 1.79 152 08:41 28.07.2019
4553 Rain 21 1004 70 0 3.56 72.038 08:21 28.07.2019
4554 Rain 19 1004 71 0 3.56 72.038 07:39 28.07.2019
4555 Rain 18 1001 65 0 1.79 38 06:56 28.07.2019
4556 Rain 19 1001 65 0 1.34 59 06:32 28.07.2019
4557 Rain 19 1001 64 0 0.89 8 05:19 28.07.2019
4558 Clouds 20 1001 58 0 3.54 63.913 02:25 28.07.2019
4559 Clouds 21 1001 57 0 0.89 5 01:32 28.07.2019
4560 Clouds 21 1002 56 0 0.89 359 00:52 28.07.2019
4561 Clouds 22 1002 54 0 0.45 19 00:25 28.07.2019
4562 Clouds 22 1002 51 0 1.34 8 23:52 27.07.2019
4563 Clouds 22 1002 50 0 0.89 359 23:27 27.07.2019
4564 Clouds 23 1002 47 0 0.89 49 22:44 27.07.2019
4565 Clouds 23 1002 46 0 0.45 19 22:26 27.07.2019
4566 Clouds 24 1003 42 0 3.74 58.726 21:47 27.07.2019
4567 Clouds 25 1002 40 0 3.9 67.232 21:24 27.07.2019
4568 Clouds 26 1002 37 0 0.45 52 20:57 27.07.2019
4569 Clouds 26 1002 36 0 0.45 23 20:39 27.07.2019
4570 Clouds 26 1002 34 0 0.45 14 20:19 27.07.2019
4571 Clouds 27 1002 32 0 2.68 45 19:40 27.07.2019
4572 Clouds 27 1002 32 0 0.89 70 19:21 27.07.2019
4573 Clouds 28 1002 31 0 1.79 35 18:47 27.07.2019
4574 Clear 28 1002 31 0 0.45 109 18:29 27.07.2019
4575 Clear 28 1003 31 0 1.79 112 17:51 27.07.2019
4576 Clear 29 1003 29 0 1.34 124 17:32 27.07.2019
4577 Clear 29 1003 27 0 3.13 23 16:56 27.07.2019
4578 Clear 29 1003 28 0 2.68 36 16:37 27.07.2019
4579 Clear 28 1003 31 0 2.24 78 16:18 27.07.2019
4580 Clear 29 1004 29 0 1.34 74 15:43 27.07.2019
4581 Clear 29 1004 31 0 3.58 111 15:19 27.07.2019
4582 Clear 29 1004 29 0 1.79 359 14:45 27.07.2019
4583 Clear 29 1005 29 0 1.34 31 14:26 27.07.2019
4584 Clear 28 1005 30 0 4.02 14 13:50 27.07.2019
4585 Clear 28 1005 29 0 3.13 5 13:24 27.07.2019
4586 Clear 28 1005 31 0 2.68 346 12:54 27.07.2019
4587 Clear 27 1006 33 0 4.02 91 12:36 27.07.2019
4588 Clear 27 1006 34 0 3.58 101 12:18 27.07.2019
4589 Clear 27 1006 36 0 2.24 78 11:39 27.07.2019
4590 Clear 26 1007 37 0 4.92 33 11:20 27.07.2019
4591 Clear 26 1007 38 0 2.68 5 10:41 27.07.2019
4592 Clear 26 1007 32 0 2.68 77 10:22 27.07.2019
4593 Clear 25 1007 31 0 2.68 28 09:41 27.07.2019
4594 Clear 23 1007 59 0 0.45 0 09:23 27.07.2019
4595 Clear 23 1007 60 0 2.24 103 08:49 27.07.2019
4596 Clear 23 1007 60 0 2.24 103 08:49 27.07.2019
4597 Clear 22 1008 61 0 1.79 164 08:30 27.07.2019
4598 Clear 21 1007 64 0 2.68 110 07:56 27.07.2019
4599 Clear 21 1007 50 0 1.34 86 07:33 27.07.2019
4600 Clear 19 1007 61 0 4.53 81.14 06:57 27.07.2019
4601 Clear 19 1007 61 0 4.53 81.14 06:57 27.07.2019
4602 Clear 19 1007 64 0 0.45 35 06:32 27.07.2019
4603 Clear 19 1007 66 0 3.52 89.641 05:53 27.07.2019
4604 Clear 19 1007 66 0 0.45 19 05:32 27.07.2019
4605 Clear 20 1007 68 0 0.89 54 04:35 27.07.2019
4606 Clear 20 1008 70 0 3.84 76.499 03:29 27.07.2019
4607 Clear 20 1008 68 0 0.45 14 02:41 27.07.2019
4608 Clear 21 1008 65 0 0.45 18 01:49 27.07.2019
4609 Clear 21 1008 63 0 1.34 310 01:28 27.07.2019
4610 Clear 22 1008 57 0 0.45 23 00:33 27.07.2019
4611 Clear 22 1009 54 0 1.79 19 23:58 26.07.2019
4612 Clear 23 1009 52 0 1.79 8 23:38 26.07.2019
4613 Clear 23 1009 46 0 1.34 341 23:20 26.07.2019
4614 Clear 24 1009 49 0 3.58 55 22:42 26.07.2019
4615 Clear 24 1009 47 0 5.36 18 22:23 26.07.2019
4616 Clear 20 1011 77 0 3.78 56.381 21:49 26.07.2019
4617 Clear 26 1009 36 0 1.34 15 21:20 26.07.2019
4618 Clear 28 1009 31 0 1.34 71 20:45 26.07.2019
4619 Clear 28 1009 30 0 1.79 43 20:27 26.07.2019
4620 Clear 30 1009 26 0 1.34 66 19:44 26.07.2019
4621 Clear 29 1009 25 0 3.58 359 19:26 26.07.2019
4622 Clear 30 1009 30 0 1.79 107 18:59 26.07.2019
4623 Clear 30 1009 29 0 2.24 53 18:40 26.07.2019
4624 Clear 31 1010 28 0 1.34 67 18:20 26.07.2019
4625 Clear 32 1009 25 0 3.13 77 17:48 26.07.2019
4626 Clear 32 1010 25 0 4.47 97 17:20 26.07.2019
4627 Clear 32 1011 21 0 1.34 359 16:59 26.07.2019
4628 Clear 32 1011 21 0 1.79 25 16:41 26.07.2019
4629 Clear 31 1011 20 0 2.68 359 16:21 26.07.2019
4630 Clear 32 1011 22 0 0.89 90 15:59 26.07.2019
4631 Clear 31 1011 24 0 1.79 74 15:40 26.07.2019
4632 Clouds 31 1012 25 0 1.34 63 15:20 26.07.2019
4633 Clouds 31 1012 26 0 1.79 15 14:44 26.07.2019
4634 Clouds 30 1012 26 0 3.58 344 14:23 26.07.2019
4635 Clouds 30 1013 27 0 1.79 45 13:47 26.07.2019
4636 Clouds 30 1013 28 0 2.68 49 13:28 26.07.2019
4637 Clouds 29 1013 34 0 2.24 45 12:49 26.07.2019
4638 Clouds 29 1013 36 0 1.79 124 12:23 26.07.2019
4639 Clouds 28 1014 39 0 2.24 100 11:56 26.07.2019
4640 Clouds 28 1014 40 0 1.79 129 11:37 26.07.2019
4641 Clouds 28 1014 41 0 2.68 83 11:18 26.07.2019
4642 Clouds 28 1014 40 0 1.34 74 10:42 26.07.2019
4643 Clouds 27 1014 36 0 2.68 46 10:24 26.07.2019
4644 Clouds 26 1014 35 0 0.45 77 09:50 26.07.2019
4645 Clouds 26 1015 32 0 0.45 86 09:30 26.07.2019
4646 Clear 23 1015 66 0 3.13 112 08:41 26.07.2019
4647 Clear 23 1015 68 0 1.79 93 08:21 26.07.2019
4648 Clear 21 1015 72 0 1.34 116 07:52 26.07.2019
4649 Clear 20 1015 63 0 0.45 286 07:26 26.07.2019
4650 Clear 19 1015 65 0 0.89 359 06:31 26.07.2019
4651 Clear 20 1015 61 0 2.05 67.494 04:50 26.07.2019
4652 Clear 19 1015 60 0 1.34 47 04:21 26.07.2019
4653 Clouds 22 1015 52 0 1.34 54 02:25 26.07.2019
4654 Clear 24 1015 57 0 2.65 73.761 01:31 26.07.2019
4655 Clear 26 1015 51 0 4.02 85 00:39 26.07.2019
4656 Clouds 25 1015 41 0 0.45 16 23:55 25.07.2019
4657 Clouds 26 1015 41 0 1.34 22 23:23 25.07.2019
4658 Clouds 26 1015 49 0 2.24 115 22:55 25.07.2019
4659 Clouds 27 1015 47 0 3.58 55 22:36 25.07.2019
4660 Clouds 28 1015 46 0 0.45 69 22:18 25.07.2019
4661 Clouds 28 1015 40 0 3.58 103 21:42 25.07.2019
4662 Clouds 29 1015 35 0 0.89 31 21:21 25.07.2019
4663 Clouds 30 1015 31 0 0.45 87 20:47 25.07.2019
4664 Clouds 31 1015 28 0 1.34 74 20:22 25.07.2019
4665 Clouds 32 1014 23 0 1.79 36 19:44 25.07.2019
4666 Clouds 32 1014 23 0 1.79 36 19:44 25.07.2019
4667 Clouds 33 1015 21 0 0.45 28 19:25 25.07.2019
4668 Clouds 33 1015 20 0 1.34 47 18:57 25.07.2019
4669 Clouds 33 1015 17 0 1.79 42 18:38 25.07.2019
4670 Clouds 35 1015 16 0 1.34 59 18:20 25.07.2019
4671 Clouds 35 1015 14 0 1.34 94 17:43 25.07.2019
4672 Clouds 35 1015 14 0 1.34 64 17:24 25.07.2019
4673 Clouds 36 1015 14 0 1.34 320 16:44 25.07.2019
4674 Clouds 36 1015 14 0 0.89 50 16:26 25.07.2019
4675 Clouds 36 1016 14 0 1.79 5 15:56 25.07.2019
4676 Clouds 35 1016 17 0 2.68 47 15:21 25.07.2019
4677 Clouds 35 1016 16 0 1.79 71 14:58 25.07.2019
4678 Clouds 35 1016 16 0 2.8 78.558 14:40 25.07.2019
4679 Clouds 35 1016 17 0 0.45 290 14:20 25.07.2019
4680 Clouds 34 1016 18 0 0.89 336 13:41 25.07.2019
4681 Clouds 34 1017 19 0 1.79 342 13:23 25.07.2019
4682 Clouds 33 1017 24 0 0.45 88 12:39 25.07.2019
4683 Clear 33 1017 24 0 1.79 104 12:21 25.07.2019
4684 Clear 32 1017 29 0 2.38 114.79 11:41 25.07.2019
4685 Clear 32 1017 30 0 1.34 118 11:23 25.07.2019
4686 Clear 31 1017 32 0 0.45 5 10:45 25.07.2019
4687 Clear 31 1017 26 0 0.45 93 10:26 25.07.2019
4688 Clear 29 1018 24 0 2.38 114.79 09:52 25.07.2019
4689 Clear 29 1018 24 0 2.38 114.79 09:34 25.07.2019
4690 Clouds 26 1018 59 0 0.45 70 08:54 25.07.2019
4691 Clouds 25 1018 63 0 0.89 113 08:36 25.07.2019
4692 Clouds 23 1018 35 0 2.46 123.503 07:49 25.07.2019
4693 Clouds 21 1018 58 0 0.45 12 07:26 25.07.2019
4694 Clouds 20 1017 65 0 2.46 123.503 06:40 25.07.2019
4695 Clouds 19 1017 68 0 2.42 123.5 05:37 25.07.2019
4696 Clouds 20 1017 68 0 2.42 123.5 04:55 25.07.2019
4697 Clouds 20 1017 65 0 2.42 123.5 03:32 25.07.2019
4698 Clouds 23 1017 54 0 2.39 119.804 01:27 25.07.2019
4699 Clouds 24 1017 50 0 2.39 119.804 00:42 25.07.2019
4700 Clouds 24 1017 44 0 2.5 101.633 00:19 25.07.2019
4701 Clouds 25 1017 42 0 2.5 101.633 23:44 24.07.2019
4702 Clouds 25 1016 42 0 2.5 101.633 23:25 24.07.2019
4703 Clouds 25 1016 48 0 2.5 101.633 22:47 24.07.2019
4704 Clouds 26 1016 45 0 0.45 105 22:23 24.07.2019
4705 Clouds 26 1015 45 0 2.5 101.633 21:56 24.07.2019
4706 Clouds 29 1016 41 0 0.45 101 21:38 24.07.2019
4707 Clouds 29 1016 31 0 1.34 21 21:20 24.07.2019
4708 Clouds 29 1016 31 0 1.34 21 21:20 24.07.2019
4709 Clouds 30 1015 30 0 0.45 35 20:48 24.07.2019
4710 Clouds 31 1015 27 0 1.34 84 20:29 24.07.2019
4711 Clouds 32 1015 25 0 2.24 33 19:59 24.07.2019
4712 Clouds 32 1015 23 0 1.34 73 19:41 24.07.2019
4713 Clouds 32 1015 23 0 2.24 50 19:20 24.07.2019
4714 Clouds 33 1015 20 0 2.72 96.389 18:44 24.07.2019
4715 Clouds 34 1015 20 0 1.34 22 18:24 24.07.2019
4716 Clouds 34 1015 19 0 1.79 73 17:48 24.07.2019
4717 Clouds 33 1015 19 0 0.45 86 17:24 24.07.2019
4718 Clouds 34 1016 18 0 0.45 7 16:59 24.07.2019
4719 Clouds 33 1016 20 0 2.17 116.258 16:39 24.07.2019
4720 Clouds 34 1016 17 0 1.79 331 16:21 24.07.2019
4721 Clouds 34 1016 20 0 2.17 116.258 15:38 24.07.2019
4722 Clouds 33 1016 20 0 2.24 12 15:20 24.07.2019
4723 Clouds 33 1016 21 0 0.45 7 14:46 24.07.2019
4724 Clouds 33 1016 24 0 2.2 127.783 14:22 24.07.2019
4725 Clouds 33 1017 24 0 1.34 318 13:42 24.07.2019
4726 Clouds 33 1017 27 0 1.34 160 13:24 24.07.2019
4727 Clouds 32 1017 28 0 2.45 126.692 12:55 24.07.2019
4728 Clouds 32 1017 29 0 0.89 200 12:37 24.07.2019
4729 Clouds 32 1017 29 0 0.45 300 12:18 24.07.2019
4730 Clouds 31 1018 35 0 1.34 170 11:37 24.07.2019
4731 Clouds 30 1018 34 0 1.34 78 11:18 24.07.2019
4732 Clouds 30 1018 34 0 1.79 98 10:42 24.07.2019
4733 Clouds 30 1018 26 0 2.62 127.622 10:24 24.07.2019
4734 Clouds 27 1020 56 0 2.62 127.622 09:44 24.07.2019
4735 Clouds 26 1018 56 0 2.55 129.708 09:23 24.07.2019
4736 Clouds 24 1018 61 0 0.45 112 08:53 24.07.2019
4737 Clouds 23 1018 64 0 2.42 120.744 08:27 24.07.2019
4738 Clouds 21 1018 71 0 0.89 108 07:50 24.07.2019
4739 Clouds 20 1018 62 0 2.42 120.744 07:23 24.07.2019
4740 Clouds 19 1018 69 0 2.42 120.744 06:28 24.07.2019
4741 Clouds 17 1018 72 0 2.3 112.334 05:26 24.07.2019
4742 Clouds 19 1019 66 0 2.42 100.691 01:58 24.07.2019
4743 Clouds 20 1019 64 0 2.21 109.499 01:28 24.07.2019
4744 Clouds 21 1019 62 0 2.21 109.499 00:54 24.07.2019
4745 Clear 22 1019 58 0 2.29 90.3 00:22 24.07.2019
4746 Clear 23 1019 55 0 2.29 90.3 23:41 23.07.2019
4747 Clear 24 1019 49 0 2.29 90.3 23:22 23.07.2019
4748 Clear 22 1018 68 0 0.45 315 22:39 23.07.2019
4749 Clear 23 1018 66 0 2.29 90.3 22:19 23.07.2019
4750 Clear 23 1018 61 0 0.45 43 21:58 23.07.2019
4751 Clear 23 1018 61 0 0.45 43 21:58 23.07.2019
4752 Clear 24 1018 59 0 2.29 90.3 21:40 23.07.2019
4753 Clouds 27 1018 39 0 1.06 83.076 21:21 23.07.2019
4754 Clear 29 1018 36 0 1.2 89.427 20:44 23.07.2019
4755 Clear 30 1018 35 0 0.45 311 20:21 23.07.2019
4756 Clear 30 1018 28 0 0.89 313 19:42 23.07.2019
4757 Clear 31 1019 26 0 0.89 304 19:19 23.07.2019
4758 Clear 31 1019 24 0 0.45 331 18:47 23.07.2019
4759 Clear 32 1019 23 0 0.45 338 18:23 23.07.2019
4760 Clear 32 1019 23 0 1.34 307 17:45 23.07.2019
4761 Clear 32 1019 23 0 1.79 23 17:25 23.07.2019
4762 Clear 32 1019 23 0 0.45 16 16:58 23.07.2019
4763 Clear 32 1019 25 0 0.89 324 16:39 23.07.2019
4764 Clear 32 1019 26 0 2.68 318 16:19 23.07.2019
4765 Clear 32 1020 27 0 1.34 331 15:45 23.07.2019
4766 Clear 32 1020 27 0 1.34 331 15:45 23.07.2019
4767 Clear 31 1020 26 0 0.45 97 15:24 23.07.2019
4768 Clear 31 1020 29 0 1.34 313 14:39 23.07.2019
4769 Clear 31 1020 29 0 1.34 325 14:20 23.07.2019
4770 Clear 31 1021 30 0 0.89 301 13:58 23.07.2019
4771 Clear 30 1021 34 0 2.24 315 13:39 23.07.2019
4772 Clear 30 1021 35 0 2.55 310.886 13:20 23.07.2019
4773 Clear 29 1021 38 0 0.45 15 12:48 23.07.2019
4774 Clear 28 1021 42 0 1.34 293 12:25 23.07.2019
4775 Clear 28 1022 44 0 0.45 208 11:49 23.07.2019
4776 Clear 27 1022 48 0 0.45 336 11:31 23.07.2019
4777 Clear 27 1022 48 0 1.79 310 10:57 23.07.2019
4778 Clear 26 1022 43 0 1.34 205 10:38 23.07.2019
4779 Clear 26 1022 40 0 2.46 301.315 10:20 23.07.2019
4780 Clear 24 1023 67 0 0.45 320 09:40 23.07.2019
4781 Clouds 24 1023 67 0 0.45 37 09:19 23.07.2019
4782 Clouds 23 1023 67 0 2.32 277.266 08:42 23.07.2019
4783 Clouds 22 1023 71 0 0.45 39 08:19 23.07.2019
4784 Clouds 21 1023 73 0 2.32 277.266 07:55 23.07.2019
4785 Clouds 20 1022 70 0 2.32 277.266 07:34 23.07.2019
4786 Clouds 18 1022 76 0 2.32 277.266 06:46 23.07.2019
4787 Clouds 18 1022 78 0 2.32 277.266 06:28 23.07.2019
4788 Clouds 18 1022 73 0 1.74 248.327 02:57 23.07.2019
4789 Clouds 19 1022 69 0 2.02 251.529 01:32 23.07.2019
4790 Clouds 19 1022 71 0 2.02 251.529 00:31 23.07.2019
4791 Clouds 21 1022 63 0 2.63 264.074 23:56 22.07.2019
4792 Clouds 21 1022 62 0 2.63 264.074 23:36 22.07.2019
4793 Clouds 21 1021 59 0 0.45 172 23:18 22.07.2019
4794 Clouds 21 1022 60 0 2.63 264.074 22:42 22.07.2019
4795 Clouds 21 1022 72 0 2.63 264.074 22:21 22.07.2019
4796 Clouds 22 1020 74 0 2.63 264.074 21:43 22.07.2019
4797 Clouds 24 1021 49 0 1.81 263.754 21:23 22.07.2019
4798 Clouds 24 1021 44 0 1.57 251.611 20:50 22.07.2019
4799 Clouds 25 1021 43 0 1.57 251.611 20:32 22.07.2019
4800 Clouds 25 1021 41 0 0.45 322 19:57 22.07.2019
4801 Clouds 26 1021 41 0 1.57 251.611 19:37 22.07.2019
4802 Clouds 26 1021 39 0 1.34 304 19:19 22.07.2019
4803 Clouds 26 1021 42 0 0.89 31 18:46 22.07.2019
4804 Clouds 27 1021 34 0 2.24 291 18:27 22.07.2019
4805 Clouds 27 1021 34 0 2.34 247.858 17:55 22.07.2019
4806 Clouds 27 1022 52 0 2.34 247.858 17:37 22.07.2019
4807 Clouds 26 1021 42 0 1.34 305 17:18 22.07.2019
4808 Clouds 26 1022 43 0 0.45 290 16:39 22.07.2019
4809 Clouds 27 1022 42 0 0.89 328 16:20 22.07.2019
4810 Clouds 27 1017 47 0 2.34 247.858 15:44 22.07.2019
4811 Clouds 27 1024 49 0 2.16 271.54 15:20 22.07.2019
4812 Clouds 26 1021 52 0 2.24 0 14:44 22.07.2019
4813 Clouds 26 1017 46 0 2.16 271.54 14:25 22.07.2019
4814 Clouds 27 1022 36 0 1.79 284 13:52 22.07.2019
4815 Clouds 26 1022 36 0 0.45 132 13:32 22.07.2019
4816 Clouds 26 1022 38 0 1.34 249 12:56 22.07.2019
4817 Clouds 25 1023 50 0 1.79 224 12:36 22.07.2019
4818 Clouds 25 1023 50 0 1.34 352 11:57 22.07.2019
4819 Clouds 24 1023 53 0 2.93 265.579 11:39 22.07.2019
4820 Clouds 24 1023 52 0 1.34 265 11:20 22.07.2019
4821 Clouds 24 1022 38 0 0.45 97 10:38 22.07.2019
4822 Clouds 24 1022 39 0 1.34 270 10:20 22.07.2019
4823 Clouds 22 1023 41 0 2.24 221 09:40 22.07.2019
4824 Clouds 21 1023 66 0 0.45 143 09:21 22.07.2019
4825 Clouds 20 1023 68 0 1.34 131 08:43 22.07.2019
4826 Clouds 19 1023 70 0 0.89 154 08:23 22.07.2019
4827 Clouds 18 1018 82 0 1.34 216.665 07:54 22.07.2019
4828 Clouds 17 1023 70 0 1.34 216.665 07:31 22.07.2019
4829 Clouds 15 1023 77 0 1.34 216.665 06:33 22.07.2019
4830 Clouds 15 1023 79 0 0.47 245.302 03:46 22.07.2019
4831 Clouds 17 1022 73 0 1.71 321.617 01:49 22.07.2019
4832 Clouds 17 1018 83 0 1.65 302.687 00:50 22.07.2019
4833 Clouds 18 1022 68 0 0.45 317 00:24 22.07.2019
4834 Clouds 19 1022 65 0 0.45 298 23:54 21.07.2019
4835 Clouds 19 1022 65 0 1.93 281.944 23:26 21.07.2019
4836 Clouds 19 1022 63 0 1.93 281.944 22:41 21.07.2019
4837 Clouds 20 1021 62 0 1.93 281.944 22:21 21.07.2019
4838 Clouds 16 1023 85 0 1.93 281.944 21:56 21.07.2019
4839 Clouds 22 1016 56 0 1.93 281.944 21:37 21.07.2019
4840 Clouds 23 1021 53 0 2.69 309.342 21:18 21.07.2019
4841 Clear 24 1020 49 0 2.7 307.358 20:44 21.07.2019
4842 Clear 24 1020 48 0 2.7 307.358 20:25 21.07.2019
4843 Clear 25 1020 42 0 0.45 210 19:55 21.07.2019
4844 Clear 25 1020 40 0 0.89 212 19:36 21.07.2019
4845 Clear 25 1020 40 0 1.34 322 19:18 21.07.2019
4846 Clear 26 1020 38 0 2.68 210 18:44 21.07.2019
4847 Clear 27 1019 36 0 0.89 314 18:25 21.07.2019
4848 Clear 27 1019 36 0 1.79 332 17:42 21.07.2019
4849 Clear 27 1019 36 0 1.79 284 17:20 21.07.2019
4850 Clear 27 1019 36 0 1.79 284 17:20 21.07.2019
4851 Clear 27 1019 35 0 0.45 256 16:45 21.07.2019
4852 Clear 27 1019 36 0 1.34 176 16:45 21.07.2019
4853 Clear 27 1019 39 0 2.68 322 16:25 21.07.2019
4854 Clear 27 1019 33 0 3.13 238 15:57 21.07.2019
4855 Clear 27 1019 35 0 1.79 318 15:36 21.07.2019
4856 Rain 26 1019 39 0 4.02 219 15:18 21.07.2019
4857 Rain 26 1019 36 0 0.45 111 14:41 21.07.2019
4858 Rain 26 1019 39 0 1.79 322 14:22 21.07.2019
4859 Rain 25 1019 38 0 0.45 256 13:45 21.07.2019
4860 Rain 26 1019 44 0 1.79 290 13:27 21.07.2019
4861 Rain 25 1019 46 0 0.45 296 12:43 21.07.2019
4862 Clear 24 1019 46 0 0.45 225 12:24 21.07.2019
4863 Clear 24 1018 49 0 0.45 148 11:47 21.07.2019
4864 Clear 23 1018 51 0 0.89 298 11:29 21.07.2019
4865 Clear 23 1018 51 0 5.15 268.743 10:56 21.07.2019
4866 Clear 23 1017 46 0 1.34 12 10:38 21.07.2019
4867 Clear 23 1018 45 0 0.45 315 10:19 21.07.2019
4868 Clear 20 1018 81 0 0.89 34 09:38 21.07.2019
4869 Clear 20 1018 81 0 0.89 34 09:38 21.07.2019
4870 Clouds 20 1018 86 0 0.45 288 09:19 21.07.2019
4871 Clouds 19 1017 89 0 0.45 310 08:41 21.07.2019
4872 Clouds 19 1017 91 0 4.44 258.404 08:23 21.07.2019
4873 Clouds 18 1017 93 0 4.44 258.404 07:35 21.07.2019
4874 Clouds 17 1015 90 0 4.44 258.404 06:45 21.07.2019
4875 Clouds 17 1015 91 0 2.47 242.813 05:28 21.07.2019
4876 Clouds 17 1014 90 0 2.07 263.439 02:27 21.07.2019
4877 Rain 18 1013 90 0 3.73 244.996 00:57 21.07.2019
4878 Rain 18 1014 90 0 0.22 310.77 00:24 21.07.2019
4879 Rain 18 1013 90 0 0.22 310.77 23:59 20.07.2019
4880 Rain 18 1013 90 0 0.45 114 23:37 20.07.2019
4881 Rain 18 1013 90 0 0.22 310.77 23:18 20.07.2019
4882 Rain 19 1014 90 0 0.45 87 22:42 20.07.2019
4883 Rain 19 1015 90 0 0.22 310.77 22:21 20.07.2019
4884 Rain 19 1014 90 0 0.45 162 21:45 20.07.2019
4885 Rain 21 1013 88 0 0.45 0 21:25 20.07.2019
4886 Rain 23 1013 87 0 1.79 296 20:56 20.07.2019
4887 Rain 23 1013 78 0 5.81 283 20:38 20.07.2019
4888 Rain 24 1011 53 0 1.34 42 20:18 20.07.2019
4889 Rain 26 1010 42 0 0.45 133 19:42 20.07.2019
4890 Rain 28 1010 39 0 1.34 195 19:19 20.07.2019
4891 Rain 28 1011 39 0 1.34 152 18:40 20.07.2019
4892 Clouds 31 1010 30 0 1.34 195 18:20 20.07.2019
4893 Clouds 31 1010 29 0 1.34 200 17:48 20.07.2019
4894 Clouds 30 1010 33 0 0.89 163 17:20 20.07.2019
4895 Clouds 31 1011 32 0 2.68 169 16:44 20.07.2019
4896 Clouds 31 1011 29 0 2.24 210 16:26 20.07.2019
4897 Clouds 31 1011 26 0 1.34 148 15:57 20.07.2019
4898 Clouds 31 1012 28 0 0.45 146 15:38 20.07.2019
4899 Clouds 30 1010 35 0 1.34 0 15:19 20.07.2019
4900 Clouds 30 1013 41 0 1.34 141 14:47 20.07.2019
4901 Clouds 30 1013 42 0 2.24 224 14:22 20.07.2019
4902 Clouds 30 1012 31 0 1.79 186 13:39 20.07.2019
4903 Clouds 29 1013 34 0 1.34 69 13:20 20.07.2019
4904 Clouds 29 1013 34 0 1.34 69 13:20 20.07.2019
4905 Clouds 29 1013 36 0 0.45 149 12:54 20.07.2019
4906 Clouds 28 1013 40 0 0.89 107 12:24 20.07.2019
4907 Clouds 27 1013 42 0 1.34 153 11:57 20.07.2019
4908 Clouds 27 1013 40 0 3.13 174 11:24 20.07.2019
4909 Clouds 27 1014 41 0 1.34 205 10:58 20.07.2019
4910 Clouds 26 1014 41 0 1.34 105 10:37 20.07.2019
4911 Clouds 26 1014 35 0 1.34 102 10:18 20.07.2019
4912 Clouds 26 1013 40 0 1.34 232 10:18 20.07.2019
4913 Clouds 26 1014 35 0 1.34 102 10:18 20.07.2019
4914 Clouds 24 1015 60 0 1.34 144 09:45 20.07.2019
4915 Clouds 21 1015 69 0 2.69 156.343 09:22 20.07.2019
4916 Clouds 21 1015 70 0 0.89 126 08:46 20.07.2019
4917 Clouds 20 1015 78 0 2.57 152.466 08:20 20.07.2019
4918 Clouds 17 1015 76 0 2.57 152.466 07:21 20.07.2019
4919 Clouds 15 1014 81 0 2.57 152.466 06:42 20.07.2019
4920 Clear 14 1014 84 0 1.65 144.001 04:57 20.07.2019
4921 Clear 14 1015 84 0 1.65 144.001 04:30 20.07.2019
4922 Clouds 16 1015 78 0 1.06 61.109 01:21 20.07.2019
4923 Clouds 16 1015 77 0 1.06 61.109 00:49 20.07.2019
4924 Clouds 17 1015 76 0 1.93 0.356 00:26 20.07.2019
4925 Clouds 18 1014 73 0 1.93 0.356 23:49 19.07.2019
4926 Clouds 19 1014 70 0 1.93 0.356 23:27 19.07.2019
4927 Clouds 19 1014 68 0 1.93 0.356 22:59 19.07.2019
4928 Clouds 18 1015 77 0 1.93 0.356 22:40 19.07.2019
4929 Clouds 19 1014 74 0 1.93 0.356 22:19 19.07.2019
4930 Clouds 19 1014 66 0 1.93 0.356 21:43 19.07.2019
4931 Clouds 22 1014 59 0 2.07 310.709 21:24 19.07.2019
4932 Clouds 22 1014 53 0 2.07 310.709 20:43 19.07.2019
4933 Clouds 24 1013 51 0 2.07 310.709 20:25 19.07.2019
4934 Clouds 24 1013 49 0 2.07 310.709 19:39 19.07.2019
4935 Clouds 25 1013 46 0 2.07 310.709 19:19 19.07.2019
4936 Clouds 25 1013 45 0 0.45 293 18:41 19.07.2019
4937 Rain 25 1013 47 0 2.85 306.27 18:19 19.07.2019
4938 Rain 25 1013 45 0 2.85 306.27 17:46 19.07.2019
4939 Rain 25 1013 42 0 1.34 183 17:25 19.07.2019
4940 Rain 24 1013 42 0 2.68 155 16:48 19.07.2019
4941 Rain 23 1013 45 0 1.34 131 16:25 19.07.2019
4942 Rain 23 1014 46 0 0.89 91 15:49 19.07.2019
4943 Rain 23 1014 47 0 0.45 107 15:30 19.07.2019
4944 Rain 24 1014 52 0 1.34 227 14:56 19.07.2019
4945 Rain 23 1014 52 0 1.79 186 14:56 19.07.2019
4946 Rain 23 1014 55 0 1.79 210 14:38 19.07.2019
4947 Rain 24 1014 53 0 0.45 2 14:19 19.07.2019
4948 Rain 24 1014 48 0 1.34 232 13:43 19.07.2019
4949 Rain 24 1014 48 0 1.34 232 13:43 19.07.2019
4950 Rain 24 1014 60 0 0.45 115 13:23 19.07.2019
4951 Rain 24 1014 56 0 3.3 267.479 12:49 19.07.2019
4952 Rain 23 1014 57 0 1.34 231 12:30 19.07.2019
4953 Rain 23 1014 54 0 0.89 263 11:58 19.07.2019
4954 Rain 23 1014 54 0 2.24 181 11:39 19.07.2019
4955 Rain 23 1014 56 0 3.58 187 11:18 19.07.2019
4956 Rain 23 1014 54 0 1.34 241 10:40 19.07.2019
4957 Rain 22 1014 53 0 0.89 248 10:21 19.07.2019
4958 Rain 22 1014 53 0 0.89 248 10:21 19.07.2019
4959 Rain 21 1014 76 0 0.45 297 09:44 19.07.2019
4960 Clouds 20 1013 78 0 3.01 269.924 09:22 19.07.2019
4961 Clouds 19 1013 81 0 3.01 269.924 08:59 19.07.2019
4962 Rain 20 1013 63 0 2.69 269.894 08:40 19.07.2019
4963 Rain 19 1013 79 0 2.69 269.894 07:48 19.07.2019
4964 Rain 18 1013 79 0 0.45 242 07:26 19.07.2019
4965 Rain 18 1012 80 0 2.78 265.745 05:55 19.07.2019
4966 Clouds 18 1012 68 0 1.59 220.258 02:23 19.07.2019
4967 Clouds 18 1012 65 0 1.82 211.972 00:59 19.07.2019
4968 Clouds 18 1012 64 0 1.82 211.972 00:35 19.07.2019
4969 Clouds 19 1011 64 0 0.7 287.632 23:44 18.07.2019
4970 Clouds 19 1011 63 0 0.7 287.632 23:24 18.07.2019
4971 Clouds 20 1011 62 0 0.7 287.632 22:59 18.07.2019
4972 Clouds 20 1011 61 0 0.45 156 22:40 18.07.2019
4973 Clouds 20 1011 49 0 0.45 249 22:19 18.07.2019
4974 Clouds 21 1009 47 0 0.7 287.632 21:44 18.07.2019
4975 Clouds 23 1011 52 0 0.47 189.908 21:26 18.07.2019
4976 Clouds 24 1011 45 0 1.47 274.835 20:51 18.07.2019
4977 Clouds 25 1011 40 0 1.47 274.835 20:29 18.07.2019
4978 Clouds 25 1010 38 0 1.47 274.835 19:57 18.07.2019
4979 Clouds 26 1010 35 0 1.47 274.835 19:38 18.07.2019
4980 Clouds 26 1010 37 0 1.47 274.835 19:18 18.07.2019
4981 Clouds 26 1010 37 0 1.47 274.835 18:41 18.07.2019
4982 Clouds 27 1010 33 0 0.89 235 18:20 18.07.2019
4983 Clouds 27 1010 33 0 0.45 89 17:43 18.07.2019
4984 Clouds 27 1010 32 0 0.45 282 17:24 18.07.2019
4985 Clouds 27 1010 31 0 0.45 332 16:57 18.07.2019
4986 Clouds 27 1011 29 0 4.47 98 16:39 18.07.2019
4987 Clouds 26 1011 30 0 0.89 105 16:18 18.07.2019
4988 Clouds 27 1010 32 0 0.45 0 15:44 18.07.2019
4989 Clouds 27 1011 32 0 1.79 159 15:25 18.07.2019
4990 Clouds 27 1011 39 0 0.89 274 14:50 18.07.2019
4991 Clouds 27 1011 38 0 0.89 259 14:32 18.07.2019
4992 Clouds 26 1011 32 0 2.24 29 13:50 18.07.2019
4993 Clouds 26 1012 32 0 0.45 126 13:24 18.07.2019
4994 Clouds 26 1012 34 0 1.79 145 12:54 18.07.2019
4995 Clouds 24 1012 42 0 0.89 108 12:36 18.07.2019
4996 Clouds 25 1012 37 0 0.45 100 12:18 18.07.2019
4997 Clouds 25 1012 35 0 0.89 64 11:46 18.07.2019
4998 Clouds 25 1012 41 0 2.68 141 11:22 18.07.2019
4999 Clouds 24 1012 37 0 2.19 153.517 10:51 18.07.2019
5000 Clouds 22 1013 37 0 0.45 84 09:50 18.07.2019
5001 Clear 20 1013 59 0 0.45 112 09:27 18.07.2019
5002 Clear 19 1013 63 0 0.45 121 08:54 18.07.2019
5003 Clear 17 1013 59 0 0.89 31 08:25 18.07.2019
5004 Clear 16 1013 70 0 1.24 143.075 07:58 18.07.2019
5005 Clear 15 1013 76 0 1.24 143.075 07:35 18.07.2019
5006 Clear 14 1013 78 0 1.24 143.075 06:51 18.07.2019
5007 Clear 13 1013 81 0 1.33 118.479 06:26 18.07.2019
5008 Clear 12 1013 83 0 1.33 118.479 03:46 18.07.2019
5009 Clouds 13 1013 82 0 1.31 68.931 02:50 18.07.2019
5010 Clear 14 1013 79 0 0.52 58.088 01:36 18.07.2019
5011 Clear 16 1013 75 0 0.16 346.319 00:23 18.07.2019
5012 Clear 16 1013 71 0 0.16 346.319 23:40 17.07.2019
5013 Clear 17 1013 70 0 0.16 346.319 23:18 17.07.2019
5014 Clear 17 1013 64 0 0.16 346.319 22:41 17.07.2019
5015 Clear 18 1013 62 0 0.16 346.319 22:23 17.07.2019
5016 Clear 18 1013 61 0 0.16 346.319 22:23 17.07.2019
5017 Clear 18 1013 61 0 0.16 346.319 21:58 17.07.2019
5018 Clear 14 1015 83 0 0.16 346.319 21:38 17.07.2019
5019 Clouds 21 1013 53 0 1.23 290.087 21:20 17.07.2019
5020 Clouds 22 1013 48 0 1.23 290.087 20:56 17.07.2019
5021 Clouds 22 1013 44 0 1.23 290.087 20:38 17.07.2019
5022 Clouds 23 1013 41 0 1.23 290.087 20:19 17.07.2019
5023 Clouds 23 1013 40 0 1.23 290.087 19:42 17.07.2019
5024 Clouds 23 1013 34 0 0.45 15 19:20 17.07.2019
5025 Clouds 23 1012 42 0 0.45 0 18:56 17.07.2019
5026 Clouds 23 1012 41 0 0.45 0 18:37 17.07.2019
5027 Clear 24 1013 34 0 1.34 28 18:18 17.07.2019
5028 Clear 25 1013 38 0 0.45 51 17:43 17.07.2019
5029 Clear 25 1013 39 0 0.89 20 17:22 17.07.2019
5030 Clear 25 1014 33 0 2.05 287.576 16:42 17.07.2019
5031 Clear 25 1014 33 0 0.89 341 16:22 17.07.2019
5032 Clear 25 1014 32 0 0.89 273 15:51 17.07.2019
5033 Clouds 24 1014 33 0 1.79 279 15:32 17.07.2019
5034 Clouds 24 1014 36 0 1.34 190 14:58 17.07.2019
5035 Clouds 23 1014 37 0 1.79 348 14:40 17.07.2019
5036 Clouds 23 1015 35 0 1.79 307 14:21 17.07.2019
5037 Clouds 23 1015 36 0 1.34 305 13:56 17.07.2019
5038 Clouds 23 1015 43 0 0.45 31 13:36 17.07.2019
5039 Clouds 23 1015 45 0 0.45 205 13:18 17.07.2019
5040 Clouds 21 1015 47 0 0.89 287 12:39 17.07.2019
5041 Clouds 20 1015 47 0 1.34 345 12:19 17.07.2019
5042 Clouds 20 1015 50 0 2.15 287.584 11:44 17.07.2019
5043 Clouds 19 1015 52 0 1.79 296 11:20 17.07.2019
5044 Clouds 19 1016 51 0 1.79 197 10:50 17.07.2019
5045 Clouds 18 1016 52 0 0.45 217 10:25 17.07.2019
5046 Clouds 18 1016 55 0 2.15 287.584 09:55 17.07.2019
5047 Clouds 17 1016 58 0 1.34 324 09:37 17.07.2019
5048 Clouds 16 1016 74 0 1.34 4 09:18 17.07.2019
5049 Clouds 16 1016 79 0 0.89 338 08:41 17.07.2019
5050 Clouds 16 1016 64 0 0.45 338 08:21 17.07.2019
5051 Clouds 15 1016 67 0 2.46 295.046 07:47 17.07.2019
5052 Clouds 14 1016 91 0 0.45 23 07:23 17.07.2019
5053 Clouds 13 1016 78 0 2.46 295.046 06:46 17.07.2019
5054 Clouds 14 1016 77 0 0.45 284 06:46 17.07.2019
5055 Clouds 13 1016 80 0 2.32 289.778 06:28 17.07.2019
5056 Clouds 12 1011 91 0 2.32 289.778 05:43 17.07.2019
5057 Clouds 12 1016 95 0 2.32 289.778 05:23 17.07.2019
5058 Clouds 12 1016 95 0 0.45 285 04:32 17.07.2019
5059 Clouds 13 1016 89 0 2.3 304.534 02:52 17.07.2019
5060 Clouds 13 1016 88 0 2.3 304.534 01:59 17.07.2019
5061 Clouds 14 1016 88 0 0.45 214 01:25 17.07.2019
5062 Clouds 14 1016 88 0 2.56 286.308 00:47 17.07.2019
5063 Clouds 14 1016 87 0 2.89 285.29 00:24 17.07.2019
5064 Clouds 14 1016 87 0 0.45 217 23:57 16.07.2019
5065 Clouds 15 1016 86 0 1.34 221 23:30 16.07.2019
5066 Clouds 15 1016 85 0 0.45 190 22:59 16.07.2019
5067 Clouds 16 1016 84 0 1.34 256 22:40 16.07.2019
5068 Clouds 16 1016 83 0 2.89 285.29 22:20 16.07.2019
5069 Clouds 17 1016 80 0 2.89 285.29 21:45 16.07.2019
5070 Clouds 17 1016 78 0 3.92 282.854 21:21 16.07.2019
5071 Rain 18 1016 75 0 0.45 259 20:58 16.07.2019
5072 Rain 18 1016 74 0 0.45 256 20:39 16.07.2019
5073 Rain 19 1016 73 0 1.34 180 20:20 16.07.2019
5074 Rain 19 1016 67 0 1.79 273 19:50 16.07.2019
5075 Rain 19 1016 64 0 1.79 208 19:27 16.07.2019
5076 Rain 20 1016 62 0 2.68 315 18:57 16.07.2019
5077 Rain 19 1016 61 0 2.24 231 18:38 16.07.2019
5078 Clouds 20 1016 59 0 5.34 277.751 18:19 16.07.2019
5079 Clouds 20 1016 60 0 0.45 208 17:42 16.07.2019
5080 Clouds 20 1016 59 0 2.24 274 17:21 16.07.2019
5081 Clouds 20 1016 58 0 5.34 277.751 16:45 16.07.2019
5082 Clouds 20 1016 55 0 0.89 262 16:23 16.07.2019
5083 Clouds 20 1016 53 0 0.89 7 15:55 16.07.2019
5084 Clouds 19 1016 52 0 0.45 131 15:37 16.07.2019
5085 Clouds 19 1016 55 0 0.45 46 15:18 16.07.2019
5086 Clouds 19 1016 59 0 0.45 150 14:43 16.07.2019
5087 Clouds 19 1016 60 0 0.89 315 14:24 16.07.2019
5088 Clouds 18 1016 58 0 5.61 270.991 13:46 16.07.2019
5089 Clouds 18 1016 59 0 0.89 300 13:27 16.07.2019
5090 Clouds 18 1016 59 0 1.34 191 12:57 16.07.2019
5091 Clouds 18 1016 56 0 1.34 301 12:38 16.07.2019
5092 Clouds 18 1016 56 0 1.34 301 12:38 16.07.2019
5093 Clouds 18 1016 56 0 1.34 322 12:19 16.07.2019
5094 Clouds 17 1016 56 0 2.68 314 11:44 16.07.2019
5095 Clouds 17 1016 60 0 1.34 219 11:25 16.07.2019
5096 Clouds 16 1016 61 0 0.45 321 10:59 16.07.2019
5097 Clouds 16 1011 73 0 4.92 276.368 10:41 16.07.2019
5098 Clouds 16 1016 66 0 2.24 222 10:19 16.07.2019
5099 Clouds 15 1011 77 0 4.92 276.368 09:43 16.07.2019
5100 Clouds 15 1016 82 0 1.34 41 09:21 16.07.2019
5101 Clouds 15 1011 84 0 4.51 281.85 08:47 16.07.2019
5102 Clouds 14 1011 87 0 4.51 281.85 08:27 16.07.2019
5103 Clouds 14 1011 88 0 4.51 281.85 07:54 16.07.2019
5104 Clouds 14 1016 78 0 0.89 239 07:35 16.07.2019
5105 Clouds 14 1016 77 0 1.34 258 06:58 16.07.2019
5106 Clouds 14 1016 77 0 1.34 322 06:37 16.07.2019
5107 Clouds 14 1016 76 0 0.45 260 05:52 16.07.2019
5108 Clouds 14 1016 75 0 4.35 282.17 05:28 16.07.2019
5109 Clouds 15 1016 74 0 1.34 208 04:36 16.07.2019
5110 Clouds 15 1016 73 0 4.35 282.17 03:43 16.07.2019
5111 Clouds 15 1016 73 0 0.45 227 02:46 16.07.2019
5112 Clouds 15 1016 74 0 0.45 273 02:28 16.07.2019
5113 Clouds 15 1016 72 0 0.45 200 01:36 16.07.2019
5114 Clouds 15 1016 69 0 1.79 249 00:27 16.07.2019
5115 Clouds 16 1016 69 0 1.34 227 23:59 15.07.2019
5116 Clouds 16 1016 69 0 1.79 238 23:39 15.07.2019
5117 Clouds 16 1016 69 0 1.79 238 23:39 15.07.2019
5118 Clouds 16 1016 70 0 1.79 258 23:21 15.07.2019
5119 Clouds 16 1017 69 0 0.45 224 22:46 15.07.2019
5120 Clouds 16 1017 69 0 3.49 278.925 22:21 15.07.2019
5121 Clouds 16 1017 67 0 0.45 236 21:57 15.07.2019
5122 Clouds 16 1017 64 0 0.45 283 21:39 15.07.2019
5123 Clouds 16 1017 65 0 3.79 267.943 21:19 15.07.2019
5124 Clouds 17 1017 63 0 3.79 267.943 20:45 15.07.2019
5125 Clouds 17 1017 63 0 3.79 267.943 20:24 15.07.2019
5126 Clouds 17 1017 62 0 1.34 296 19:58 15.07.2019
5127 Clouds 17 1017 61 0 0.89 231 19:39 15.07.2019
5128 Clouds 17 1017 62 0 3.79 267.943 19:19 15.07.2019
5129 Clouds 18 1017 59 0 0.45 180 18:49 15.07.2019
5130 Clouds 18 1017 58 0 1.34 269 18:23 15.07.2019
5131 Clouds 18 1017 57 0 1.79 225 17:58 15.07.2019
5132 Clouds 19 1017 56 0 0.45 198 17:40 15.07.2019
5133 Clouds 19 1017 54 0 0.45 198 17:22 15.07.2019
5134 Clouds 19 1017 54 0 4.08 288.235 17:22 15.07.2019
5135 Clouds 19 1017 52 0 2.24 301 16:58 15.07.2019
5136 Clouds 19 1017 51 0 1.34 234 16:37 15.07.2019
5137 Clouds 19 1017 53 0 0.45 52 16:19 15.07.2019
5138 Clouds 19 1017 49 0 0.45 214 15:43 15.07.2019
5139 Clouds 19 1017 51 0 0.89 313 15:25 15.07.2019
5140 Clouds 19 1017 52 0 1.79 222 14:59 15.07.2019
5141 Clouds 19 1018 55 0 1.34 215 14:38 15.07.2019
5142 Clouds 19 1018 59 0 1.79 173 14:19 15.07.2019
5143 Clouds 18 1018 59 0 0.45 341 13:48 15.07.2019
5144 Clouds 18 1018 59 0 0.89 242 13:20 15.07.2019
5145 Clouds 17 1018 57 0 0.45 218 12:56 15.07.2019
5146 Clouds 17 1018 56 0 1.34 287 12:37 15.07.2019
5147 Clouds 17 1013 69 0 3.47 269.406 12:18 15.07.2019
5148 Clouds 16 1018 59 0 1.34 272 11:41 15.07.2019
5149 Clouds 16 1018 62 0 0.89 336 11:20 15.07.2019
5150 Clouds 16 1018 63 0 0.89 282 10:43 15.07.2019
5151 Clouds 16 1018 70 0 3.47 269.406 10:24 15.07.2019
5152 Clouds 15 1018 75 0 0.45 332 09:43 15.07.2019
5153 Clouds 15 1018 80 0 1.34 217 09:23 15.07.2019
5154 Clouds 15 1018 73 0 0.45 210 08:47 15.07.2019
5155 Clouds 15 1018 75 0 3.15 284.751 08:27 15.07.2019
5156 Clouds 15 1018 78 0 0.45 346 07:57 15.07.2019
5157 Clouds 15 1018 79 0 2.68 273 07:36 15.07.2019
5158 Clouds 15 1018 77 0 3.15 284.751 06:50 15.07.2019
5159 Clouds 15 1018 77 0 3.15 284.751 06:30 15.07.2019
5160 Clouds 15 1018 78 0 0.45 307 05:43 15.07.2019
5161 Clouds 15 1018 78 0 2.66 284.725 05:19 15.07.2019
5162 Clouds 15 1018 76 0 2.66 284.725 04:41 15.07.2019
5163 Clouds 15 1018 77 0 2.66 284.725 03:30 15.07.2019
5164 Clouds 16 1018 78 0 2.55 296.575 02:30 15.07.2019
5165 Clouds 15 1018 78 0 1.34 318 01:38 15.07.2019
5166 Clouds 16 1018 79 0 2 299.394 01:20 15.07.2019
5167 Clouds 16 1018 77 0 2 299.394 00:46 15.07.2019
5168 Clouds 16 1018 77 0 1.38 306.828 00:19 15.07.2019
5169 Clouds 16 1018 78 0 1.38 306.828 23:41 14.07.2019
5170 Clouds 16 1018 78 0 0.45 308 23:21 14.07.2019
5171 Clouds 17 1018 77 0 1.38 306.828 22:58 14.07.2019
5172 Clouds 17 1018 76 0 1.38 306.828 22:39 14.07.2019
5173 Clouds 17 1018 76 0 1.38 306.828 22:21 14.07.2019
5174 Clouds 17 1018 75 0 1.38 306.828 21:57 14.07.2019
5175 Clouds 17 1018 74 0 1.34 322 21:39 14.07.2019
5176 Clouds 17 1018 74 0 2.55 332.721 21:18 14.07.2019
5177 Clouds 18 1018 73 0 0.45 311 20:39 14.07.2019
5178 Clouds 18 1018 70 0 1.34 308 20:21 14.07.2019
5179 Clouds 18 1018 70 0 1.34 321 19:59 14.07.2019
5180 Clouds 18 1018 70 0 0.89 336 19:39 14.07.2019
5181 Clouds 18 1018 69 0 1.79 269 19:21 14.07.2019
5182 Clouds 19 1018 68 0 3.13 283 18:43 14.07.2019
5183 Clouds 19 1017 64 0 0.45 322 18:25 14.07.2019
5184 Clouds 19 1017 65 0 0.89 19 17:58 14.07.2019
5185 Clouds 19 1018 64 0 0.89 293 17:39 14.07.2019
5186 Clouds 20 1018 65 0 1.34 300 17:18 14.07.2019
5187 Clouds 20 1018 67 0 1.79 305 16:46 14.07.2019
5188 Clouds 20 1018 69 0 1.34 294 16:23 14.07.2019
5189 Clouds 20 1018 69 0 0.45 228 15:49 14.07.2019
5190 Clouds 20 1018 71 0 2.85 307.055 15:27 14.07.2019
5191 Clouds 19 1018 70 0 2.85 307.055 14:48 14.07.2019
5192 Clouds 20 1018 51 0 0.89 359 14:21 14.07.2019
5193 Clouds 19 1018 44 0 2.85 307.055 13:49 14.07.2019
5194 Clouds 18 1018 43 0 0.45 355 13:25 14.07.2019
5195 Clouds 18 1018 40 0 2.85 299.295 12:58 14.07.2019
5196 Clouds 18 1018 33 0 1.34 284 12:40 14.07.2019
5197 Clouds 17 1018 38 0 1.34 318 12:19 14.07.2019
5198 Clouds 17 1018 37 0 0.45 0 11:51 14.07.2019
5199 Clouds 16 1018 39 0 2.36 295.87 11:22 14.07.2019
5200 Clouds 16 1018 35 0 0.89 303 10:49 14.07.2019
5201 Clouds 16 1018 33 0 0.45 19 10:23 14.07.2019
5202 Clouds 15 1018 28 0 2.36 295.87 09:55 14.07.2019
5203 Clouds 15 1018 21 0 0.45 11 09:37 14.07.2019
5204 Clouds 15 1018 20 0 0.89 282 09:18 14.07.2019
5205 Clouds 15 1017 9 0 0.89 277 08:41 14.07.2019
5206 Clouds 15 1017 2 0 2.7 308.378 07:56 14.07.2019
5207 Clouds 14 1017 100 0 2.7 308.378 07:34 14.07.2019
5208 Clouds 14 1017 100 0 2.7 308.378 06:29 14.07.2019
5209 Clouds 15 1017 100 0 3.16 295.204 05:43 14.07.2019
5210 Clouds 15 1017 100 0 3.16 295.204 03:46 14.07.2019
5211 Clouds 15 1017 100 0 3.75 308.321 03:27 14.07.2019
5212 Clouds 16 1017 100 0 1.79 305 02:39 14.07.2019
5213 Clouds 16 1016 100 0 1.79 325 02:20 14.07.2019
5214 Rain 16 1016 83 0 0.45 296 01:31 14.07.2019
5215 Rain 16 1016 76 0 2.68 262 00:55 14.07.2019
5216 Rain 16 1016 74 0 3.58 283 00:37 14.07.2019
5217 Rain 16 1016 71 0 0.89 245 00:19 14.07.2019
5218 Rain 16 1016 67 0 0.45 308 23:43 13.07.2019
5219 Rain 16 1016 64 0 2.68 8 23:23 13.07.2019
5220 Rain 16 1016 54 0 4.31 312.555 22:43 13.07.2019
5221 Rain 17 1016 100 0 4.31 312.555 22:22 13.07.2019
5222 Rain 17 1016 100 0 0.45 181 21:54 13.07.2019
5223 Rain 18 1015 100 0 2.15 325.585 21:23 13.07.2019
5224 Rain 18 1015 100 0 2.15 325.585 21:23 13.07.2019
5225 Rain 18 1015 100 0 1.34 219 20:59 13.07.2019
5226 Rain 19 1015 100 0 2.15 325.585 20:40 13.07.2019
5227 Rain 19 1015 100 0 2.15 325.585 20:21 13.07.2019
5228 Rain 19 1015 100 0 0.45 297 19:43 13.07.2019
5229 Rain 19 1015 11 0 0.45 315 19:23 13.07.2019
5230 Rain 21 1014 65 0 1.34 56 18:41 13.07.2019
5231 Rain 22 1013 61 0 1.89 307.216 18:20 13.07.2019
5232 Rain 22 1014 53 0 0.89 190 17:38 13.07.2019
5233 Rain 22 1014 52 0 1.34 135 17:38 13.07.2019
5234 Rain 22 1013 42 0 0.45 324 17:19 13.07.2019
5235 Rain 23 1013 44 0 2.24 211 16:46 13.07.2019
5236 Rain 24 1014 46 0 1.89 307.216 16:26 13.07.2019
5237 Rain 24 1013 42 0 0.45 146 15:54 13.07.2019
5238 Rain 24 1014 43 0 1.34 243 15:36 13.07.2019
5239 Rain 23 1008 57 0 2.03 336.705 15:18 13.07.2019
5240 Rain 23 1014 49 0 0.89 221 14:41 13.07.2019
5241 Rain 23 1014 51 0 0.45 297 14:20 13.07.2019
5242 Rain 23 1014 53 0 1.34 345 13:44 13.07.2019
5243 Rain 22 1014 56 0 1.34 218 13:23 13.07.2019
5244 Rain 21 1014 69 0 0.45 274 12:42 13.07.2019
5245 Clouds 20 1014 68 0 1.34 331 12:23 13.07.2019
5246 Clouds 20 1014 72 0 1.34 289 11:59 13.07.2019
5247 Clouds 19 1014 76 0 2.2 308.074 11:38 13.07.2019
5248 Clouds 18 1014 79 0 0.89 215 11:19 13.07.2019
5249 Clouds 18 1014 85 0 2.2 308.074 10:42 13.07.2019
5250 Clouds 17 1014 86 0 0.45 277 10:23 13.07.2019
5251 Clouds 17 1013 89 0 2.2 308.074 09:50 13.07.2019
5252 Clouds 17 1013 90 0 0.45 308 09:30 13.07.2019
5253 Clouds 17 1013 90 0 3.36 296.253 08:56 13.07.2019
5254 Clouds 16 1013 89 0 0.45 282 08:28 13.07.2019
5255 Clouds 16 1012 87 0 0.89 149 07:55 13.07.2019
5256 Clouds 16 1012 88 0 3.36 296.253 07:29 13.07.2019
5257 Clouds 16 1012 89 0 0.89 229 06:32 13.07.2019
5258 Clouds 15 1012 89 0 2.86 283.341 05:49 13.07.2019
5259 Clouds 15 1011 94 0 0.45 340 04:42 13.07.2019
5260 Clouds 15 1011 90 0 2.86 283.341 04:21 13.07.2019
5261 Clouds 16 1011 90 0 0.89 311 03:43 13.07.2019
5262 Clouds 15 1011 90 0 0.89 289 03:25 13.07.2019
5263 Clouds 16 1011 89 0 2.46 296.326 01:54 13.07.2019
5264 Clouds 16 1011 88 0 2.54 300.759 01:36 13.07.2019
5265 Clouds 16 1011 87 0 2.54 300.759 01:18 13.07.2019
5266 Clouds 16 1011 84 0 2.54 300.759 00:46 13.07.2019
5267 Clouds 16 1011 85 0 2.02 317.126 00:18 13.07.2019
5268 Clouds 17 1010 86 0 2.02 317.126 23:42 12.07.2019
5269 Clouds 17 1010 86 0 2.02 317.126 23:23 12.07.2019
5270 Clouds 17 1010 87 0 2.02 317.126 22:42 12.07.2019
5271 Clouds 18 1010 87 0 2.02 317.126 22:23 12.07.2019
5272 Clouds 18 1010 87 0 2.02 317.126 21:42 12.07.2019
5273 Rain 18 1010 87 0 0.96 338.409 21:22 12.07.2019
5274 Rain 19 1010 86 0 0.45 7 20:54 12.07.2019
5275 Rain 19 1010 86 0 0.45 7 20:54 12.07.2019
5276 Rain 20 1010 86 0 0.96 338.409 20:24 12.07.2019
5277 Rain 20 1010 72 0 0.89 243 19:45 12.07.2019
5278 Rain 21 1010 65 0 0.45 358 19:27 12.07.2019
5279 Rain 21 1010 55 0 1.34 345 18:59 12.07.2019
5280 Rain 22 1009 49 0 1.34 231 18:39 12.07.2019
5281 Rain 24 1009 43 0 0.45 358 18:20 12.07.2019
5282 Rain 24 1009 47 0 0.45 64 17:48 12.07.2019
5283 Rain 23 1009 41 0 3.21 285.759 17:28 12.07.2019
5284 Rain 24 1009 42 0 0.89 195 16:45 12.07.2019
5285 Rain 24 1009 45 0 3.21 285.759 16:21 12.07.2019
5286 Rain 25 1009 44 0 3.21 285.759 15:41 12.07.2019
5287 Rain 24 1010 54 0 0.45 125 15:22 12.07.2019
5288 Rain 25 1009 55 0 0.89 352 14:57 12.07.2019
5289 Rain 24 1010 58 0 1.34 310 14:38 12.07.2019
5290 Rain 25 1010 58 0 1.34 289 14:20 12.07.2019
5291 Rain 24 1010 48 0 2.63 282.586 13:42 12.07.2019
5292 Rain 24 1010 43 0 1.34 266 13:20 12.07.2019
5293 Rain 23 1010 47 0 0.45 315 12:40 12.07.2019
5294 Clouds 22 1009 72 0 2.41 291.449 12:21 12.07.2019
5295 Clouds 21 1011 50 0 2.41 291.449 11:45 12.07.2019
5296 Clouds 21 1011 72 0 0.89 337 11:23 12.07.2019
5297 Clouds 21 1011 53 0 0.45 289 10:44 12.07.2019
5298 Clouds 20 1011 52 0 0.45 4 10:25 12.07.2019
5299 Clouds 19 1011 78 0 0.45 339 09:55 12.07.2019
5300 Clouds 19 1011 62 0 2.41 291.449 09:36 12.07.2019
5301 Rain 18 1011 68 0 0.45 266 09:18 12.07.2019
5302 Rain 17 1011 93 0 1.83 261.392 08:42 12.07.2019
5303 -273 0 0 0 0 0 08:42 12.07.2019
5304 Rain 17 1011 94 0 1.83 261.392 08:20 12.07.2019
5305 Rain 17 1011 78 0 1.83 261.392 07:47 12.07.2019
5306 Rain 16 1011 81 0 1.83 261.392 07:27 12.07.2019
5307 Rain 16 1011 83 0 1.09 259.87 06:29 12.07.2019
5308 Rain 16 1011 85 0 1.09 259.87 05:50 12.07.2019
5309 Rain 16 1011 85 0 1.34 275.549 03:24 12.07.2019
5310 Rain 17 1012 83 0 1.34 275.549 01:48 12.07.2019
5311 Rain 17 1012 83 0 2.13 248.493 01:28 12.07.2019
5312 Rain 17 1012 80 0 0.45 269 00:34 12.07.2019
5313 Rain 18 1012 75 0 0.45 290 23:54 11.07.2019
5314 Rain 18 1012 73 0 0.89 273 23:36 11.07.2019
5315 Rain 18 1012 73 0 1.34 229 23:36 11.07.2019
5316 Rain 19 1012 68 0 2.52 259.114 23:18 11.07.2019
5317 Rain 19 1007 69 0 2.52 259.114 22:41 11.07.2019
5318 Rain 19 1012 72 0 2.52 259.114 22:22 11.07.2019
5319 Rain 18 1012 68 0 2.52 259.114 21:43 11.07.2019
5320 Rain 20 1012 59 0 1.94 202.324 21:20 11.07.2019
5321 Rain 20 1012 59 0 1.94 202.324 21:20 11.07.2019
5322 Rain 21 1012 59 0 1.94 202.324 21:20 11.07.2019
5323 Rain 21 1012 59 0 1.94 202.324 21:20 11.07.2019
5324 Rain 21 1012 58 0 1.94 202.324 20:58 11.07.2019
5325 Rain 21 1012 55 0 1.94 202.324 20:40 11.07.2019
5326 Rain 21 1012 53 0 1.94 202.324 20:22 11.07.2019
5327 Rain 22 1012 51 0 0.45 162 19:48 11.07.2019
5328 Rain 22 1012 49 0 1.94 202.324 19:30 11.07.2019
5329 Rain 22 1012 48 0 1.94 202.324 18:56 11.07.2019
5330 Rain 23 1012 47 0 0.45 109 18:38 11.07.2019
5331 Clouds 22 1012 49 0 1.58 164.402 18:20 11.07.2019
5332 Clouds 23 1012 49 0 1.58 164.402 17:43 11.07.2019
5333 Clouds 23 1012 48 0 1.58 164.402 17:25 11.07.2019
5334 Clouds 23 1012 45 0 1.58 164.402 16:52 11.07.2019
5335 Clouds 23 1012 42 0 1.34 156 16:24 11.07.2019
5336 Clouds 24 1012 44 0 1.34 234 15:55 11.07.2019
5337 Clouds 24 1013 41 0 0.45 280 15:37 11.07.2019
5338 Clouds 23 1013 40 0 1.34 207 15:18 11.07.2019
5339 Clouds 23 1007 42 0 1.33 150.276 14:43 11.07.2019
5340 Clouds 23 1013 55 0 0.89 193 14:22 11.07.2019
5341 Clouds 23 1008 39 0 1.33 150.276 13:47 11.07.2019
5342 Clouds 23 1008 41 0 1.83 156.286 13:29 11.07.2019
5343 Clouds 22 1013 58 0 1.79 278 12:56 11.07.2019
5344 Clouds 22 1014 59 0 1.79 290 12:37 11.07.2019
5345 Clouds 20 1012 44 0 1.34 0 12:18 11.07.2019
5346 Clouds 20 1014 57 0 1.34 274 12:18 11.07.2019
5347 Clouds 20 1014 55 0 1.34 214 11:41 11.07.2019
5348 Clouds 20 1014 57 0 1.79 278 11:22 11.07.2019
5349 Clouds 21 1014 35 0 1.36 177.938 10:46 11.07.2019
5350 Clouds 20 1014 36 0 1.36 177.938 10:19 11.07.2019
5351 Clouds 19 1009 48 0 1.36 177.938 09:49 11.07.2019
5352 Clouds 18 1014 61 0 0.89 285 09:30 11.07.2019
5353 Rain 17 1014 59 0 0.12 306.964 08:54 11.07.2019
5354 Rain 17 1013 60 0 0.12 306.964 08:28 11.07.2019
5355 Rain 17 1015 49 0 0.12 306.964 07:57 11.07.2019
5356 Rain 17 1015 54 0 0.45 345 07:38 11.07.2019
5357 Rain 15 1015 61 0 0.12 306.964 06:41 11.07.2019
5358 Clouds 15 1015 76 0 0.99 288.854 06:18 11.07.2019
5359 Clouds 14 1015 66 0 0.99 288.854 05:30 11.07.2019
5360 Clouds 14 1015 64 0 0.99 288.854 04:55 11.07.2019
5361 Clouds 14 1016 60 0 1.15 4.433 02:41 11.07.2019
5362 Clouds 14 1016 63 0 1.15 4.433 01:43 11.07.2019
5363 Clouds 14 1016 66 0 1.42 345.513 00:31 11.07.2019
5364 Clouds 15 1017 67 0 2.12 311.524 23:49 10.07.2019
5365 Clouds 15 1017 68 0 2.12 311.524 23:21 10.07.2019
5366 Clouds 16 1017 66 0 2.12 311.524 22:53 10.07.2019
5367 Clouds 16 1017 63 0 2.12 311.524 22:22 10.07.2019
5368 Clouds 17 1017 61 0 2.12 311.524 21:48 10.07.2019
5369 Clouds 17 1017 60 0 2.12 311.524 21:48 10.07.2019
5370 Clouds 19 1017 58 0 2.12 311.524 21:29 10.07.2019
5371 Clouds 20 1017 52 0 2.67 272.422 20:59 10.07.2019
5372 Clouds 20 1017 50 0 2.67 272.422 20:41 10.07.2019
5373 Clouds 20 1017 47 0 2.67 272.422 20:20 10.07.2019
5374 Clouds 21 1017 43 0 0.45 201 19:55 10.07.2019
5375 Clouds 21 1015 41 0 1.34 0 19:36 10.07.2019
5376 Clouds 21 1017 40 0 2.68 256 19:18 10.07.2019
5377 Clouds 22 1017 45 0 0.89 267 18:42 10.07.2019
5378 Clouds 22 1017 38 0 0.45 293 18:22 10.07.2019
5379 Clouds 22 1017 46 0 0.89 297 17:44 10.07.2019
5380 Clouds 22 1015 43 0 1.79 0 17:25 10.07.2019
5381 Clouds 23 1012 40 0 3.54 298.934 16:46 10.07.2019
5382 Clouds 23 1012 44 0 3.54 298.934 16:21 10.07.2019
5383 Clouds 23 1018 36 0 1.34 279 15:47 10.07.2019
5384 Clouds 22 1018 36 0 1.34 174 15:25 10.07.2019
5385 Clouds 22 1018 38 0 1.34 15 14:48 10.07.2019
5386 Clouds 22 1018 38 0 4.02 313 14:29 10.07.2019
5387 Clouds 22 1018 38 0 2.24 296 13:56 10.07.2019
5388 Clouds 22 1019 40 0 0.89 324 13:36 10.07.2019
5389 Clouds 21 1019 41 0 1.34 325 13:18 10.07.2019
5390 Clouds 20 1019 44 0 0.89 181 12:41 10.07.2019
5391 Clouds 20 1019 44 0 1.34 324 12:21 10.07.2019
5392 Clouds 19 1019 54 0 1.34 350 11:49 10.07.2019
5393 Clouds 19 1019 48 0 1.79 301 11:22 10.07.2019
5394 Clouds 18 1019 57 0 0.89 357 10:58 10.07.2019
5395 Clouds 18 1019 46 0 0.45 317 10:58 10.07.2019
5396 Clouds 18 1019 46 0 0.45 317 10:58 10.07.2019
5397 Clouds 17 1019 58 0 1.79 207 10:24 10.07.2019
5398 Clouds 17 1019 45 0 0.45 135 09:57 10.07.2019
5399 Clouds 17 1019 46 0 0.45 214 09:38 10.07.2019
5400 Clear 16 1014 62 0 4.15 292.524 09:19 10.07.2019
5401 Clear 15 1019 69 0 1.79 315 08:49 10.07.2019
5402 Clear 14 1019 72 0 0.89 27 08:24 10.07.2019
5403 Clear 13 1019 78 0 0.45 48 07:51 10.07.2019
5404 Clear 12 1019 77 0 1.34 263 07:23 10.07.2019
5405 Clear 10 1019 81 0 0.45 250 06:39 10.07.2019
5406 Clear 9 1019 84 0 0.89 259 05:42 10.07.2019
5407 Clear 9 1019 83 0 3.55 272.291 04:33 10.07.2019
5408 Clouds 10 1019 79 0 2.72 277.847 02:20 10.07.2019
5409 Clear 12 1014 82 0 2.81 273.227 00:44 10.07.2019
5410 Clouds 13 1019 74 0 3.01 291.218 23:42 09.07.2019
5411 Clouds 13 1019 73 0 3.01 291.218 23:24 09.07.2019
5412 Clouds 13 1019 68 0 0.45 248 22:58 09.07.2019
5413 Clouds 14 1019 70 0 3.01 291.218 22:40 09.07.2019
5414 Clouds 14 1019 67 0 3.01 291.218 22:20 09.07.2019
5415 Clouds 15 1016 60 0 3.01 291.218 21:47 09.07.2019
5416 Rain 16 1018 60 0 3.3 312.273 21:26 09.07.2019
5417 Clouds 16 1018 55 0 0.45 14 20:56 09.07.2019
5418 Clouds 17 1018 54 0 1.34 300 20:36 09.07.2019
5419 Clouds 17 1018 53 0 0.45 322 20:18 09.07.2019
5420 Clouds 17 1018 53 0 0.89 300 19:37 09.07.2019
5421 Clouds 17 1018 54 0 1.34 301 19:19 09.07.2019
5422 Clouds 17 1013 59 0 3.47 285.385 18:39 09.07.2019
5423 Rain 18 1018 47 0 0.45 331 18:19 09.07.2019
5424 Rain 18 1018 51 0 0.89 287 17:44 09.07.2019
5425 Rain 18 1018 50 0 0.45 269 17:22 09.07.2019
5426 Rain 18 1018 50 0 0.89 304 16:59 09.07.2019
5427 Rain 18 1018 47 0 1.34 190 16:41 09.07.2019
5428 Rain 18 1018 47 0 1.34 190 16:22 09.07.2019
5429 Rain 18 1018 53 0 2.24 15 15:44 09.07.2019
5430 Rain 18 1018 43 0 0.89 356 15:25 09.07.2019
5431 Rain 18 1019 44 0 0.89 310 14:45 09.07.2019
5432 Rain 17 1016 53 0 4.96 300.722 14:24 09.07.2019
5433 Rain 17 1014 74 0 4.96 300.722 13:57 09.07.2019
5434 Rain 17 1018 48 0 0.45 355 13:39 09.07.2019
5435 Rain 17 1018 48 0 1.79 325 13:20 09.07.2019
5436 Rain 17 1018 49 0 0.89 279 12:39 09.07.2019
5437 Rain 16 1016 57 0 3.54 295.007 12:19 09.07.2019
5438 Rain 16 1016 62 0 3.54 295.007 11:56 09.07.2019
5439 Rain 16 1014 77 0 3.54 295.007 11:37 09.07.2019
5440 Rain 16 1016 57 0 3.54 295.007 11:19 09.07.2019
5441 Rain 16 1013 61 0 3.54 295.007 10:47 09.07.2019
5442 Rain 16 1018 49 0 1.79 276 10:26 09.07.2019
5443 Rain 15 1018 55 0 1.34 236 09:39 09.07.2019
5444 Rain 14 1018 72 0 1.79 330 09:20 09.07.2019
5445 Rain 14 1013 79 0 3.37 287.29 08:45 09.07.2019
5446 Rain 13 1013 72 0 3.37 287.29 08:21 09.07.2019
5447 Clouds 17 1016 60 0 0.45 187 03:52 05.07.2019
5448 Clouds 17 1016 60 0 0.45 221 03:24 05.07.2019
5449 Clouds 17 1017 60 0 0.89 205 02:59 05.07.2019
5450 Clouds 17 1017 59 0 0.45 274 02:37 05.07.2019
5451 Clouds 17 1017 58 0 0.89 270 01:37 05.07.2019
5452 Clouds 17 1017 58 0 3.73 260.677 00:57 05.07.2019
5453 Clouds 17 1017 58 0 3.73 260.677 00:39 05.07.2019
5454 Clouds 18 1018 55 0 2.99 253.613 23:51 04.07.2019
5455 Clouds 18 1018 54 0 0.89 232 23:21 04.07.2019
5456 Clouds 18 1018 50 0 2.99 253.613 22:44 04.07.2019
5457 Clouds 19 1013 56 0 2.99 253.613 22:24 04.07.2019
5458 Clouds 19 1017 49 0 0.89 0 21:57 04.07.2019
5459 Clouds 20 1013 48 0 2.99 253.613 21:39 04.07.2019
5460 Clouds 20 1019 46 0 3.2 264.519 21:20 04.07.2019
5461 Clouds 21 1019 42 0 3.39 261.779 20:40 04.07.2019
5462 Clouds 22 1019 40 0 2.24 225 20:22 04.07.2019
5463 Clouds 22 1019 37 0 3.39 261.779 19:57 04.07.2019
5464 Clouds 22 1019 35 0 3.39 261.779 19:38 04.07.2019
5465 Clouds 22 1019 34 0 0.45 263 19:20 04.07.2019
5466 Clouds 22 1018 42 0 1.79 0 18:43 04.07.2019
5467 Clouds 23 1020 30 0 2.24 313 18:25 04.07.2019
5468 Clouds 23 1021 29 0 4.27 276.689 17:46 04.07.2019
5469 Clouds 24 1021 29 0 1.34 270 17:19 04.07.2019
5470 Clouds 24 1022 27 0 2.24 313 15:59 04.07.2019
5471 Clouds 24 1022 28 0 1.79 282 15:40 04.07.2019
5472 Clouds 22 1022 28 0 2.24 282 15:22 04.07.2019
5473 Clouds 22 1022 33 0 1.34 337 14:56 04.07.2019
5474 Clouds 23 1022 35 0 1.34 39 14:37 04.07.2019
5475 Clouds 23 1022 33 0 4.33 267.47 14:18 04.07.2019
5476 Clouds 23 1023 36 0 1.34 15 14:18 04.07.2019
5477 Clouds 23 1023 29 0 1.79 231 13:54 04.07.2019
5478 Clouds 22 1023 31 0 1.34 269 13:36 04.07.2019
5479 Clouds 22 1023 32 0 2.24 243 13:18 04.07.2019
5480 Clouds 21 1024 37 0 1.34 231 12:37 04.07.2019
5481 Clouds 19 1024 44 0 0.89 232 12:19 04.07.2019
5482 Clouds 19 1024 41 0 0.89 241 11:40 04.07.2019
5483 Clouds 19 1024 40 0 0.45 170 11:20 04.07.2019
5484 Clouds 19 1025 34 0 0.45 239 10:44 04.07.2019
5485 Clouds 19 1025 28 0 0.45 217 10:25 04.07.2019
5486 Clouds 17 1025 54 0 0.45 331 09:46 04.07.2019
5487 Clouds 15 1025 57 0 0.89 255 09:26 04.07.2019
5488 Clear 15 1025 60 0 0.45 35 08:57 04.07.2019
5489 Clear 15 1025 64 0 0.89 16 08:29 04.07.2019
5490 Clear 13 1020 76 0 3.1 280.578 07:57 04.07.2019
5491 Clear 13 1020 77 0 3.1 280.578 07:37 04.07.2019
5492 Clear 12 1024 66 0 3.1 280.578 07:18 04.07.2019
5493 Clear 12 1024 66 0 3.1 280.578 07:18 04.07.2019
5494 Clear 10 1024 74 0 2.25 274.428 06:20 04.07.2019
5495 Clear 9 1024 76 0 2.25 274.428 05:41 04.07.2019
5496 Clear 9 1020 83 0 2.25 274.428 03:48 04.07.2019
5497 Clear 12 1019 70 0 2.39 307.852 01:48 04.07.2019
5498 Clear 12 1019 68 0 2.44 295.587 01:26 04.07.2019
5499 Clear 12 1019 63 0 2.44 295.587 00:39 04.07.2019
5500 Clear 14 1024 54 0 1.34 284 23:52 03.07.2019
5501 Clear 14 1024 52 0 1.79 303 23:21 03.07.2019
5502 Clear 15 1023 60 0 2.95 298.206 22:56 03.07.2019
5503 Clear 15 1029 56 0 2.95 298.206 22:37 03.07.2019
5504 Clear 15 1018 54 0 2.78 295.051 22:19 03.07.2019
5505 Clear 11 1024 75 0 2.78 295.051 21:54 03.07.2019
5506 Clear 17 1018 51 0 2.78 295.051 21:35 03.07.2019
5507 Clouds 19 1022 42 0 1.34 332 20:48 03.07.2019
5508 Clouds 19 1022 40 0 1.79 336 20:29 03.07.2019
5509 Clouds 20 1022 37 0 1.34 2 19:59 03.07.2019
5510 Clouds 20 1022 42 0 1.34 8 19:40 03.07.2019
5511 Clouds 20 1022 42 0 0.89 32 19:20 03.07.2019
5512 Clouds 20 1022 41 0 2.24 42 18:44 03.07.2019
5513 Rain 21 1023 33 0 1.34 284 18:22 03.07.2019
5514 Rain 21 1023 35 0 0.45 290 17:49 03.07.2019
5515 Rain 21 1023 34 0 2.24 338 17:19 03.07.2019
5516 Rain 21 1023 35 0 0.45 283 16:57 03.07.2019
5517 Rain 21 1023 36 0 1.34 304 16:39 03.07.2019
5518 Rain 22 1023 36 0 1.34 284 16:18 03.07.2019
5519 Rain 21 1023 36 0 1.79 16 15:44 03.07.2019
5520 -273 0 0 0 0 0 15:26 03.07.2019
5521 Rain 21 1023 33 0 1.34 200 14:44 03.07.2019
5522 Rain 21 1023 37 0 3.98 288.18 14:22 03.07.2019
5523 Rain 20 1023 34 0 0.45 139 13:50 03.07.2019
5524 Rain 20 1023 35 0 3.98 281.669 13:31 03.07.2019
5525 Rain 21 1023 34 0 0.45 204 12:52 03.07.2019
5526 Clear 20 1023 44 0 1.34 28 12:20 03.07.2019
5527 Clear 19 1023 44 0 1.34 46 11:57 03.07.2019
5528 Clear 19 1018 43 0 4.33 281.767 11:39 03.07.2019
5529 Clear 19 1018 47 0 4.33 281.767 11:19 03.07.2019
5530 Clear 19 1022 31 0 0.89 222 10:40 03.07.2019
5531 Clear 19 1024 32 0 0.89 324 10:21 03.07.2019
5532 Clear 17 1023 51 0 0.45 164 09:42 03.07.2019
5533 Clear 16 1023 55 0 0.89 328 09:21 03.07.2019
5534 Clear 16 1023 57 0 0.45 23 08:53 03.07.2019
5535 Clear 16 1018 58 0 3.09 276.893 08:32 03.07.2019
5536 Clear 14 1018 70 0 2.84 282.129 07:53 03.07.2019
5537 Clear 13 1018 73 0 2.84 282.129 07:33 03.07.2019
5538 Clear 12 1023 71 0 2.84 282.129 06:48 03.07.2019
5539 Clear 11 1023 76 0 2.17 281.885 05:44 03.07.2019
5540 Clear 10 1023 77 0 2.17 281.885 05:19 03.07.2019
5541 Clear 12 1023 73 0 2.17 281.885 03:30 03.07.2019
5542 Clear 12 1023 70 0 2.12 293.042 02:38 03.07.2019
5543 Clear 12 1017 73 0 2.33 284.656 01:23 03.07.2019
5544 Clear 13 1017 68 0 2.33 284.656 00:57 03.07.2019
5545 Clear 13 1017 67 0 2.33 284.656 00:36 03.07.2019
5546 Clear 15 1022 56 0 0.45 16 23:48 02.07.2019
5547 Clear 15 1022 54 0 1.34 332 23:21 02.07.2019
5548 Clear 14 1028 54 0 2.55 292.357 22:59 02.07.2019
5549 Clear 15 1027 51 0 2.55 292.357 22:41 02.07.2019
5550 Clear 16 1022 50 0 2.55 292.357 22:22 02.07.2019
5551 Clear 12 1022 74 0 2.55 292.357 21:57 02.07.2019
5552 Clear 18 1015 45 0 2.55 292.357 21:38 02.07.2019
5553 Clouds 18 1020 41 0 1.34 287 21:18 02.07.2019
5554 Clear 20 1020 36 0 1.34 328 20:41 02.07.2019
5555 Clear 20 1020 34 0 1.79 310 20:23 02.07.2019
5556 Clear 20 1020 37 0 1.79 51 19:59 02.07.2019
5557 Clear 20 1020 35 0 1.79 60 19:39 02.07.2019
5558 Clear 21 1020 35 0 1.79 357 19:20 02.07.2019
5559 Clear 21 1021 31 0 1.34 242 18:45 02.07.2019
5560 Clear 22 1021 31 0 4.47 304 18:18 02.07.2019
5561 Clear 23 1020 27 0 6.39 301.415 17:41 02.07.2019
5562 Clear 23 1020 25 0 2.24 266 17:21 02.07.2019
5563 Clear 23 1021 25 0 1.34 249 16:49 02.07.2019
5564 Clear 23 1021 27 0 1.34 270 16:31 02.07.2019
5565 Clear 23 1021 25 0 1.34 28 15:45 02.07.2019
5566 Clouds 22 1019 38 0 3.13 0 15:25 02.07.2019
5567 Clouds 22 1019 38 0 3.13 0 15:25 02.07.2019
5568 Clouds 23 1020 26 0 2.68 276 14:54 02.07.2019
5569 Clouds 23 1020 31 0 0.45 11 14:36 02.07.2019
5570 Clouds 22 1015 35 0 6.38 302.477 13:58 02.07.2019
5571 Clouds 22 1020 44 0 2.24 354 13:36 02.07.2019
5572 Clouds 22 1015 36 0 6.32 297.429 13:18 02.07.2019
5573 Clouds 20 1021 41 0 6.32 297.429 12:43 02.07.2019
5574 Rain 20 1020 56 0 1.79 327 12:22 02.07.2019
5575 Rain 20 1015 48 0 5.81 287.712 11:43 02.07.2019
5576 Rain 20 1015 48 0 5.81 287.712 11:43 02.07.2019
5577 Rain 20 1020 62 0 1.79 332 11:23 02.07.2019
5578 Rain 20 1015 49 0 5.81 287.712 10:54 02.07.2019
5579 Rain 20 1020 60 0 1.79 303 10:26 02.07.2019
5580 Rain 19 1021 52 0 5.81 287.712 09:49 02.07.2019
5581 Clouds 19 1021 56 0 5.49 289.342 09:22 02.07.2019
5582 Clouds 18 1020 66 0 2.24 56 08:56 02.07.2019
5583 Clouds 18 1014 62 0 5.33 293.44 08:36 02.07.2019
5584 Clouds 17 1014 67 0 5.33 293.44 07:58 02.07.2019
5585 Clouds 16 1018 63 0 0.45 348 07:21 02.07.2019
5586 Clouds 16 1018 63 0 0.45 348 07:21 02.07.2019
5587 Clouds 16 1018 67 0 0.45 259 06:55 02.07.2019
5588 Clouds 15 1018 70 0 1.34 219 06:36 02.07.2019
5589 Clear 14 1018 72 0 0.45 212 05:26 02.07.2019
5590 Clouds 16 1018 63 0 0.45 201 02:37 02.07.2019
5591 Rain 19 1017 56 0 1.34 315 00:26 02.07.2019
5592 Rain 20 1017 52 0 1.79 336 23:30 01.07.2019
5593 Rain 19 1019 56 0 4.02 291.468 22:54 01.07.2019
5594 Rain 15 1017 79 0 4.02 291.468 22:36 01.07.2019
5595 Rain 15 1017 79 0 4.02 291.468 22:18 01.07.2019
5596 Rain 24 1009 39 0 4.02 291.468 21:43 01.07.2019
5597 Clouds 24 1014 41 0 5.24 290.454 21:24 01.07.2019
5598 Clouds 25 1014 37 0 0.45 227 20:46 01.07.2019
5599 Clouds 26 1014 35 0 0.45 136 20:20 01.07.2019
5600 Clouds 26 1018 34 0 3.58 322 19:55 01.07.2019
5601 Clouds 26 1014 35 0 2.68 256 19:36 01.07.2019
5602 Clouds 27 1013 37 0 5.25 282.219 19:18 01.07.2019
5603 Clouds 27 1013 35 0 2.68 15 18:43 01.07.2019
5604 Clouds 27 1013 27 0 1.34 243 18:25 01.07.2019
5605 Clouds 27 1013 29 0 0.89 70 17:46 01.07.2019
5606 Clouds 28 1013 28 0 0.89 325 17:26 01.07.2019
5607 Clouds 28 1013 28 0 0.89 325 17:26 01.07.2019
5608 Clouds 28 1013 25 0 2.68 201 16:57 01.07.2019
5609 Clouds 28 1013 26 0 2.24 296 16:39 01.07.2019
5610 Clouds 28 1013 28 0 1.34 187 16:21 01.07.2019
5611 Clouds 28 1013 28 0 1.34 188 15:44 01.07.2019
5612 Clear 28 1013 29 0 1.34 305 15:23 01.07.2019
5613 Clear 28 1014 30 0 3.58 248 14:44 01.07.2019
5614 Clear 28 1014 29 0 3.13 331 14:22 01.07.2019
5615 Clear 28 1014 27 0 1.79 305 13:48 01.07.2019
5616 Clear 27 1014 31 0 0.89 297 13:24 01.07.2019
5617 Clear 27 1014 36 0 0.45 322 12:58 01.07.2019
5618 Clear 26 1014 34 0 2.68 228 12:38 01.07.2019
5619 Clear 26 1009 42 0 4.76 250.629 12:20 01.07.2019
5620 Clear 26 1013 35 0 3.58 129 11:47 01.07.2019
5621 Clear 24 1015 56 0 0.89 221 11:28 01.07.2019
5622 Clear 23 1010 51 0 4.76 250.629 10:55 01.07.2019
5623 Clear 23 1015 58 0 0.45 246 10:37 01.07.2019
5624 Clear 23 1010 58 0 4.76 250.629 10:18 01.07.2019
5625 Clear 22 1015 46 0 4.76 250.629 09:41 01.07.2019
5626 Rain 22 1017 51 0 2.32 261.256 09:22 01.07.2019
5627 Clouds 21 1015 59 0 2.79 266.685 08:39 01.07.2019
5628 Clouds 21 1015 54 0 2.79 266.685 08:21 01.07.2019
5629 Clouds 21 1015 44 0 1.34 311 07:33 01.07.2019
5630 Clouds 19 1015 54 0 0.89 352 06:41 01.07.2019
5631 Clear 20 1014 55 0 1.41 241.331 04:31 01.07.2019
5632 Clouds 24 1013 47 0 1.79 20 00:54 01.07.2019
5633 Clouds 23 1013 51 0 2.24 65 00:34 01.07.2019
5634 Clouds 23 1013 51 0 2.24 65 00:34 01.07.2019
5635 Clouds 25 1013 44 0 1.79 324 23:59 30.06.2019
5636 Clouds 27 1013 48 0 1.79 301 23:25 30.06.2019
5637 Clouds 27 1013 48 0 1.79 301 23:25 30.06.2019
5638 Clouds 24 1014 56 0 3.58 295 22:56 30.06.2019
5639 Clouds 19 1014 58 0 3.82 324.193 22:24 30.06.2019
5640 Clouds 19 1014 58 0 3.82 324.193 21:59 30.06.2019
5641 Clouds 30 1006 55 0 3.82 324.193 21:41 30.06.2019
5642 Clouds 32 1010 41 0 0.89 201 21:18 30.06.2019
5643 Clouds 33 1010 38 0 0.45 351 20:41 30.06.2019
5644 Clouds 34 1010 35 0 1.34 258 20:23 30.06.2019
5645 Clouds 34 1010 30 0 1.79 308 19:52 30.06.2019
5646 Clouds 36 1010 31 0 1.34 43 19:26 30.06.2019
5647 Clouds 36 1010 26 0 0.45 293 18:55 30.06.2019
5648 Clear 36 1010 21 0 0.45 205 18:25 30.06.2019
5649 Clear 37 1010 18 0 1.34 276 17:56 30.06.2019
5650 Clear 37 1010 17 0 1.34 201 17:37 30.06.2019
5651 Clear 37 1010 17 0 1.79 245 17:18 30.06.2019
5652 Clear 38 1011 14 0 1.34 284 16:44 30.06.2019
5653 Clear 38 1011 12 0 0.89 290 16:25 30.06.2019
5654 Clear 37 1010 11 0 1.34 208 15:37 30.06.2019
5655 Clear 36 1010 11 0 3.58 236 15:18 30.06.2019
5656 Clear 36 1011 12 0 2.68 256 14:50 30.06.2019
5657 Clear 36 1011 12 0 2.68 256 14:50 30.06.2019
5658 Clear 36 1011 12 0 2.68 148 14:29 30.06.2019
5659 Clear 36 1011 12 0 0.45 215 13:47 30.06.2019
5660 Clear 36 1011 12 0 1.34 184 13:25 30.06.2019
5661 Clear 35 1011 11 0 0.45 183 12:52 30.06.2019
5662 Clear 34 1012 14 0 2.24 207 12:27 30.06.2019
5663 Clear 34 1012 16 0 1.34 90 11:57 30.06.2019
5664 Clear 33 1012 18 0 1.34 215 11:38 30.06.2019
5665 Clear 33 1012 18 0 0.45 162 11:19 30.06.2019
5666 Clear 32 1012 18 0 1.79 159 10:44 30.06.2019
5667 Clear 32 1013 17 0 1.79 200 10:19 30.06.2019
5668 Clear 32 1013 12 0 1.34 173 09:57 30.06.2019
5669 Clear 29 1014 37 0 2.24 283 09:37 30.06.2019
5670 Clear 27 1015 47 0 0.89 301 09:18 30.06.2019
5671 Clear 26 1014 42 0 0.45 256 08:40 30.06.2019
5672 Clear 25 1008 55 0 3.24 186.26 08:20 30.06.2019
5673 Clear 22 1014 55 0 0.89 247 07:41 30.06.2019
5674 Clear 21 1014 54 0 1.79 183 07:22 30.06.2019
5675 Clear 18 1014 63 0 3.24 186.26 06:33 30.06.2019
5676 Clear 16 1015 58 0 3.05 172.018 03:32 30.06.2019
5677 Clear 18 1016 50 0 2.5 161.942 01:52 30.06.2019
5678 Clear 18 1016 49 0 2.42 162.195 00:46 30.06.2019
5679 Clear 20 1016 47 0 0.45 148 00:24 30.06.2019
5680 Clear 21 1016 47 0 1.65 176.521 23:48 29.06.2019
5681 Clear 21 1016 45 0 1.65 176.521 23:22 29.06.2019
5682 Clear 22 1011 55 0 1.65 176.521 22:47 29.06.2019
5683 Clear 22 1011 52 0 1.65 176.521 22:23 29.06.2019
5684 Clear 19 1017 67 0 1.61 168.32 21:55 29.06.2019
5685 Clear 27 1017 31 0 1.75 186.886 21:25 29.06.2019
5686 Clear 29 1017 24 0 1.75 186.886 20:47 29.06.2019
5687 Clear 30 1017 22 0 1.75 186.886 20:29 29.06.2019
5688 Clear 30 1017 19 0 0.45 166 19:59 29.06.2019
5689 Clear 30 1017 18 0 1.75 186.886 19:41 29.06.2019
5690 Clear 30 1017 17 0 0.45 173 19:20 29.06.2019
5691 Clear 29 1016 18 0 0.45 0 19:20 29.06.2019
5692 Clear 29 1016 19 0 0.45 0 18:47 29.06.2019
5693 Clear 30 1016 19 0 0.45 0 18:24 29.06.2019
5694 Clear 29 1017 20 0 0.45 0 17:38 29.06.2019
5695 Clear 30 1018 25 0 1.34 82 17:19 29.06.2019
5696 Clear 31 1018 15 0 0.45 133 16:43 29.06.2019
5697 Clear 31 1019 16 0 0.89 166 16:19 29.06.2019
5698 Clear 31 1019 16 0 1.34 64 15:33 29.06.2019
5699 Clear 28 1020 28 0 1.34 282 14:59 29.06.2019
5700 Clear 29 1020 18 0 1.34 22 14:40 29.06.2019
5701 Clear 29 1020 29 0 0.45 188 14:21 29.06.2019
5702 Clear 29 1021 20 0 0.45 138 13:43 29.06.2019
5703 Clear 29 1021 22 0 1.34 193 13:24 29.06.2019
5704 Clear 28 1021 24 0 0.83 233.917 12:42 29.06.2019
5705 Clear 26 1021 28 0 1.7 243.827 12:23 29.06.2019
5706 Clear 26 1021 30 0 1.34 159 11:48 29.06.2019
5707 Clear 25 1021 30 0 0.45 70 11:28 29.06.2019
5708 Clear 26 1021 31 0 0.45 155 10:52 29.06.2019
5709 Clear 26 1017 27 0 1.34 227 10:26 29.06.2019
5710 Clear 25 1017 37 0 1.7 243.827 09:58 29.06.2019
5711 Clear 22 1023 51 0 0.89 101 09:29 29.06.2019
5712 Clear 21 1017 56 0 1.67 183.542 08:37 29.06.2019
5713 Clear 18 1023 64 0 0.45 233 07:46 29.06.2019
5714 Clear 16 1022 69 0 1.67 183.542 07:19 29.06.2019
5715 Clear 15 1023 74 0 1.67 183.542 06:42 29.06.2019
5716 Clear 13 1023 75 0 0.88 155.674 06:20 29.06.2019
5717 Clear 14 1023 71 0 0.87 141.279 02:26 29.06.2019
5718 Clear 15 1023 68 0 1.27 167.08 00:57 29.06.2019
5719 Clear 17 1023 65 0 0.97 146.787 00:00 29.06.2019
5720 Clear 17 1023 61 0 0.97 146.787 23:24 28.06.2019
5721 Clear 17 1023 65 0 0.97 146.787 22:53 28.06.2019
5722 Clear 19 1023 62 0 0.97 146.787 22:33 28.06.2019
5723 Clear 21 1022 43 0 0.97 146.787 21:47 28.06.2019
5724 Clear 22 1023 49 0 1.88 26.756 21:21 28.06.2019
5725 Clear 23 1023 41 0 1.8 46.617 20:46 28.06.2019
5726 Clear 24 1022 38 0 0.45 263 20:26 28.06.2019
5727 Clear 24 1023 35 0 0.45 14 19:53 28.06.2019
5728 Clear 24 1023 35 0 1.34 322 19:28 28.06.2019
5729 Clear 24 1023 35 0 1.34 4 18:57 28.06.2019
5730 Clear 24 1023 34 0 1.8 46.617 18:38 28.06.2019
5731 Clear 25 1023 34 0 0.89 255 18:20 28.06.2019
5732 Clear 24 1023 32 0 1.79 310 17:30 28.06.2019
5733 Clear 26 1024 32 0 1.79 358 16:51 28.06.2019
5734 Clear 25 1024 33 0 0.45 183 16:27 28.06.2019
5735 Clear 25 1024 33 0 1.79 318 15:48 28.06.2019
5736 Clear 25 1024 34 0 1.34 320 15:48 28.06.2019
5737 Clouds 24 1024 33 0 0.45 250 15:24 28.06.2019
5738 Clouds 24 1024 34 0 1.79 2 14:56 28.06.2019
5739 Clouds 23 1024 37 0 0.89 217 14:37 28.06.2019
5740 Clouds 23 1024 38 0 1.34 21 14:18 28.06.2019
5741 Clouds 23 1025 40 0 1.79 217 13:44 28.06.2019
5742 Clouds 21 1025 41 0 1.79 15 13:21 28.06.2019
5743 Clouds 21 1025 43 0 1.34 28 12:48 28.06.2019
5744 Clouds 19 1025 46 0 0.89 47 11:56 28.06.2019
5745 Clouds 19 1025 46 0 2.73 303.074 11:27 28.06.2019
5746 Clouds 18 1026 43 0 1.34 232 10:46 28.06.2019
5747 Clouds 17 1026 50 0 0.89 217 10:23 28.06.2019
5748 Clouds 17 1026 50 0 0.45 289 10:23 28.06.2019
5749 Clouds 17 1026 52 0 2.73 303.074 09:49 28.06.2019
5750 Clouds 17 1026 52 0 0.45 290 09:30 28.06.2019
5751 Clouds 16 1026 59 0 1.34 139 08:49 28.06.2019
5752 Clouds 16 1026 59 0 0.45 160 08:27 28.06.2019
5753 Clouds 15 1021 63 0 3 307.183 07:58 28.06.2019
5754 Clouds 15 1021 64 0 3 307.183 07:40 28.06.2019
5755 Clouds 14 1025 62 0 3 307.183 06:33 28.06.2019
5756 Clouds 14 1025 64 0 2.4 299.923 02:56 28.06.2019
5757 Clouds 16 1025 66 0 0.45 358 00:45 28.06.2019
5758 Clouds 17 1025 64 0 1.34 298 23:58 27.06.2019
5759 Clouds 17 1025 63 0 1.79 284 23:40 27.06.2019
5760 Clouds 17 1025 62 0 0.89 307 23:21 27.06.2019
5761 Clouds 17 1025 59 0 3.13 267 22:42 27.06.2019
5762 Clouds 17 1020 63 0 2.65 318.415 22:24 27.06.2019
5763 Clouds 17 1023 62 0 1.79 0 21:57 27.06.2019
5764 Clouds 18 1026 58 0 2.65 318.415 21:38 27.06.2019
5765 Clear 20 1024 53 0 1.34 318 21:19 27.06.2019
5766 Clear 22 1024 49 0 1.79 353 20:45 27.06.2019
5767 Clear 23 1024 48 0 1.79 315 20:26 27.06.2019
5768 Clear 23 1023 44 0 1.34 300 19:47 27.06.2019
5769 Clear 24 1023 42 0 1.34 228 19:27 27.06.2019
5770 Clear 24 1022 42 0 2.68 279 18:51 27.06.2019
5771 Clear 24 1023 37 0 3.58 301 18:30 27.06.2019
5772 Clear 26 1022 34 0 1.79 336 17:47 27.06.2019
5773 Clear 26 1023 32 0 4.47 315 17:24 27.06.2019
5774 Clear 26 1023 34 0 0.45 23 16:55 27.06.2019
5775 Clear 26 1023 32 0 0.45 47 16:37 27.06.2019
5776 Clear 26 1023 34 0 2.68 263 16:18 27.06.2019
5777 Clear 26 1024 33 0 0.89 179 15:44 27.06.2019
5778 Clear 24 1023 39 0 2.68 39 15:21 27.06.2019
5779 Clear 25 1024 40 0 2.24 29 14:46 27.06.2019
5780 Clear 25 1024 38 0 5.29 303.909 14:28 27.06.2019
5781 Clear 25 1025 36 0 1.79 287 13:49 27.06.2019
5782 Clear 24 1025 39 0 1.79 283 13:30 27.06.2019
5783 Clear 23 1025 39 0 2.24 305 12:55 27.06.2019
5784 Clear 23 1025 39 0 4.02 291 12:35 27.06.2019
5785 Clear 22 1025 41 0 1.34 303 11:59 27.06.2019
5786 Clear 22 1025 43 0 1.79 267 11:39 27.06.2019
5787 Clear 21 1025 45 0 4.59 296.894 11:20 27.06.2019
5788 Clear 21 1025 40 0 0.45 47 10:45 27.06.2019
5789 Clear 20 1025 38 0 2.68 317 10:22 27.06.2019
5790 Clear 20 1021 48 0 4.59 296.894 09:55 27.06.2019
5791 Clouds 18 1025 63 0 1.79 311 09:22 27.06.2019
5792 Clouds 18 1025 66 0 2.24 11 08:55 27.06.2019
5793 Clouds 18 1021 65 0 4.72 301.209 08:37 27.06.2019
5794 Clouds 17 1025 70 0 1.79 30 08:19 27.06.2019
5795 Clouds 16 1020 73 0 4.72 301.209 07:31 27.06.2019
5796 Clouds 16 1025 66 0 1.79 15 06:53 27.06.2019
5797 Clouds 16 1025 66 0 1.34 267 06:24 27.06.2019
5798 Clear 18 1024 69 0 4.56 314.173 03:21 27.06.2019
5799 Clear 19 1023 68 0 1.34 229 02:30 27.06.2019
5800 Clear 17 1022 73 0 3.58 0 01:18 27.06.2019
5801 Clear 25 1022 69 0 2.68 0 00:42 27.06.2019
5802 Clear 24 1022 53 0 1.34 300 00:19 27.06.2019
5803 Clear 25 1022 53 0 2.24 307 23:42 26.06.2019
5804 Clear 26 1022 52 0 2.68 272 23:22 26.06.2019
5805 Clear 19 1024 73 0 5.21 310.569 22:55 26.06.2019
5806 Clear 19 1024 73 0 5.21 310.569 22:37 26.06.2019
5807 Clear 19 1024 73 0 5.21 310.569 22:18 26.06.2019
5808 Clear 29 1016 51 0 5.21 310.569 21:39 26.06.2019
5809 Clear 29 1016 51 0 5.21 310.569 21:39 26.06.2019
5810 Clear 29 1021 44 0 1.34 310 21:19 26.06.2019
5811 Clear 30 1020 40 0 2.24 336 20:50 26.06.2019
5812 Clear 31 1020 37 0 1.79 22 20:30 26.06.2019
5813 Clear 32 1023 34 0 4.47 288 19:57 26.06.2019
5814 Clear 25 1022 63 0 5.02 311.907 19:38 26.06.2019
5815 Clear 25 1022 63 0 5.02 311.907 19:19 26.06.2019
5816 Clear 25 1022 63 0 5.02 311.907 18:44 26.06.2019
5817 Clear 34 1019 29 0 1.34 204 18:22 26.06.2019
5818 Clear 35 1019 40 0 1.79 340 17:47 26.06.2019
5819 Clear 35 1018 38 0 2.68 0 17:27 26.06.2019
5820 Clear 36 1019 38 0 1.79 15 16:52 26.06.2019
5821 Clear 36 1019 37 0 1.34 324 16:30 26.06.2019
5822 Clear 36 1019 37 0 1.34 324 16:30 26.06.2019
5823 Clear 36 1019 39 0 0.45 291 15:58 26.06.2019
5824 Clear 36 1020 40 0 2.24 358 15:29 26.06.2019
5825 Clear 36 1020 32 0 0.89 313 14:58 26.06.2019
5826 Clear 36 1020 32 0 1.34 304 14:37 26.06.2019
5827 Clear 36 1020 33 0 1.34 279 14:18 26.06.2019
5828 Clear 36 1020 32 0 1.79 252 13:39 26.06.2019
5829 Clear 36 1020 33 0 1.79 277 13:19 26.06.2019
5830 Clear 35 1020 33 0 0.89 219 12:40 26.06.2019
5831 Clouds 35 1019 35 0 0.89 293 12:21 26.06.2019
5832 Clouds 35 1020 36 0 1.79 336 11:42 26.06.2019
5833 Clouds 34 1020 37 0 1.34 341 11:19 26.06.2019
5834 Clouds 34 1020 32 0 0.89 296 10:41 26.06.2019
5835 Clouds 34 1020 30 0 1.79 270 10:21 26.06.2019
5836 Clouds 31 1022 49 0 0.45 191 09:37 26.06.2019
5837 Clouds 30 1020 54 0 0.45 282 09:18 26.06.2019
5838 Clouds 28 1020 59 0 0.45 284 08:39 26.06.2019
5839 Clear 27 1020 61 0 0.89 224 08:19 26.06.2019
5840 Clear 25 1014 65 0 2.91 255.648 07:45 26.06.2019
5841 Clear 23 1019 65 0 2.91 255.648 06:34 26.06.2019
5842 Clouds 21 1019 69 0 0.45 156 05:55 26.06.2019
5843 Clouds 23 1019 57 0 2.2 170.696 00:59 26.06.2019
5844 Clouds 24 1019 55 0 2.21 150.658 00:20 26.06.2019
5845 Clouds 25 1019 53 0 2.21 150.658 23:43 25.06.2019
5846 Clouds 25 1019 52 0 2.21 150.658 23:24 25.06.2019
5847 Clouds 25 1014 58 0 2.21 150.658 22:56 25.06.2019
5848 Clouds 24 1014 58 0 2.21 150.658 22:37 25.06.2019
5849 Clouds 25 1014 58 0 2.21 150.658 22:19 25.06.2019
5850 Clouds 26 1018 66 0 2.21 150.658 21:41 25.06.2019
5851 Clouds 29 1018 37 0 2.05 149.866 21:21 25.06.2019
5852 Clouds 31 1018 32 0 0.45 128 20:44 25.06.2019
5853 Clouds 32 1018 30 0 0.45 98 20:21 25.06.2019
5854 Clouds 32 1019 33 0 1.34 155 19:45 25.06.2019
5855 Clouds 32 1019 33 0 1.34 155 19:45 25.06.2019
5856 Clouds 32 1018 25 0 0.45 142 19:23 25.06.2019
5857 Clouds 33 1019 29 0 1.79 254 18:45 25.06.2019
5858 Clouds 33 1019 29 0 1.79 254 18:45 25.06.2019
5859 Clouds 33 1019 21 0 1.34 142 18:26 25.06.2019
5860 -273 0 0 0 0 0 17:59 25.06.2019
5861 -273 0 0 0 0 0 17:59 25.06.2019
5862 -273 0 0 0 0 0 17:59 25.06.2019
5863 Clouds 34 1019 19 0 1.34 217 17:30 25.06.2019
5864 -273 0 0 0 0 0 17:29 25.06.2019
5865 -273 0 0 0 0 0 17:29 25.06.2019
5866 Clouds 34 1019 20 0 4.03 156.217 16:57 25.06.2019
5867 Clouds 34 1019 18 0 2.24 84 16:39 25.06.2019
5868 Clouds 34 1019 20 0 1.79 84 16:21 25.06.2019
5869 Clouds 34 1019 20 0 1.34 131 15:42 25.06.2019
5870 Clouds 33 1020 29 0 2.68 191 15:24 25.06.2019
5871 Clouds 33 1020 23 0 2.24 125 14:54 25.06.2019
5872 Clouds 33 1020 24 0 4.02 135 14:35 25.06.2019
5873 Clouds 33 1020 28 0 3.13 70 13:47 25.06.2019
5874 Clouds 34 1020 27 0 1.79 107 13:28 25.06.2019
5875 Clouds 33 1021 29 0 3.13 159 12:55 25.06.2019
5876 Clouds 32 1021 30 0 3.13 160 12:36 25.06.2019
5877 Clouds 31 1021 43 0 1.34 169 12:18 25.06.2019
5878 Clouds 31 1023 42 0 1.34 273 11:41 25.06.2019
5879 Clouds 30 1021 45 0 1.34 174 11:20 25.06.2019
5880 Clouds 30 1021 29 0 1.34 207 10:43 25.06.2019
5881 Clouds 30 1021 29 0 3.13 93 10:22 25.06.2019
5882 Clouds 29 1021 31 0 1.79 122 09:55 25.06.2019
5883 Clouds 28 1021 27 0 1.34 145 09:37 25.06.2019
5884 Clouds 26 1020 50 0 0.45 0 09:18 25.06.2019
5885 Clouds 25 1024 57 0 3.36 134.481 08:43 25.06.2019
5886 Clouds 24 1016 56 0 3.55 134.315 08:24 25.06.2019
5887 Clouds 22 1017 61 0 3.55 134.315 07:40 25.06.2019
5888 Clouds 19 1021 61 0 1.34 98 06:58 25.06.2019
5889 Clouds 18 1021 62 0 3.55 134.315 06:40 25.06.2019
5890 Clouds 18 1021 58 0 2.7 116.271 02:48 25.06.2019
5891 Clouds 18 1021 56 0 2.7 116.271 02:23 25.06.2019
5892 Clouds 19 1022 53 0 2.93 116.521 00:38 25.06.2019
5893 Clouds 20 1022 50 0 3.31 85.271 00:18 25.06.2019
5894 Clouds 21 1021 47 0 3.31 85.271 23:42 24.06.2019
5895 Clouds 21 1021 43 0 3.31 85.271 23:23 24.06.2019
5896 Clouds 20 1017 51 0 3.31 85.271 22:44 24.06.2019
5897 Clouds 21 1017 53 0 3.31 85.271 22:19 24.06.2019
5898 Clouds 18 1023 69 0 3.31 85.271 21:42 24.06.2019
5899 Clouds 25 1021 28 0 3.07 100.639 21:19 24.06.2019
5900 Clouds 27 1021 26 0 3.07 100.639 20:59 24.06.2019
5901 Clouds 27 1021 25 0 1.34 83 20:40 24.06.2019
5902 Clouds 28 1021 22 0 0.45 105 20:21 24.06.2019
5903 Clouds 28 1022 27 0 1.34 83 19:46 24.06.2019
5904 Clouds 28 1022 26 0 0.89 63 19:24 24.06.2019
5905 Clouds 28 1021 23 0 0.45 0 18:54 24.06.2019
5906 Clouds 29 1021 20 0 0.45 183 18:30 24.06.2019
5907 Clouds 29 1021 20 0 1.79 150 17:58 24.06.2019
5908 Clouds 29 1021 18 0 3.13 70 17:36 24.06.2019
5909 Clouds 30 1022 17 0 1.34 81 16:56 24.06.2019
5910 Clouds 30 1022 19 0 1.34 139 16:37 24.06.2019
5911 Clouds 29 1022 19 0 0.89 5 16:18 24.06.2019
5912 Clouds 29 1022 22 0 0.45 88 15:39 24.06.2019
5913 Clouds 28 1022 29 0 2.24 143 15:21 24.06.2019
5914 Clouds 29 1022 24 0 1.34 94 14:34 24.06.2019
5915 Clouds 30 1022 24 0 4.02 170 13:56 24.06.2019
5916 Clouds 30 1023 26 0 1.34 80 13:31 24.06.2019
5917 Clouds 29 1023 25 0 2.24 119 12:46 24.06.2019
5918 Clouds 28 1023 37 0 2.24 121 12:26 24.06.2019
5919 Clouds 28 1023 29 0 1.34 355 11:59 24.06.2019
5920 Clouds 27 1025 40 0 0.45 268 11:40 24.06.2019
5921 Clouds 27 1023 33 0 1.34 145 11:21 24.06.2019
5922 Clouds 28 1023 32 0 1.34 93 10:50 24.06.2019
5923 Clouds 27 1023 29 0 1.79 126 10:28 24.06.2019
5924 Clouds 26 1023 24 0 1.34 139 09:49 24.06.2019
5925 Clouds 22 1026 61 0 2.33 108.745 09:23 24.06.2019
5926 Clouds 22 1024 60 0 1.34 125 08:53 24.06.2019
5927 Clouds 21 1019 60 0 2.32 108.419 08:32 24.06.2019
5928 Clouds 19 1019 74 0 2.32 108.419 07:47 24.06.2019
5929 Clouds 19 1019 76 0 2.32 108.419 07:27 24.06.2019
5930 Clouds 17 1024 71 0 2.32 108.419 06:52 24.06.2019
5931 Clouds 16 1023 73 0 2.71 84.683 06:22 24.06.2019
5932 Clouds 16 1023 75 0 2.71 84.683 05:28 24.06.2019
5933 Clouds 16 1023 75 0 2.71 84.683 04:31 24.06.2019
5934 Clouds 17 1023 71 0 0.45 42 03:32 24.06.2019
5935 Clear 18 1023 68 0 1.34 329 02:33 24.06.2019
5936 Clear 19 1023 65 0 2.86 70.183 01:54 24.06.2019
5937 Clear 19 1023 61 0 2.72 75.964 01:28 24.06.2019
5938 Clear 19 1022 55 0 2.72 75.964 00:45 24.06.2019
5939 Clear 20 1022 53 0 0.89 26 00:20 24.06.2019
5940 Clear 20 1022 51 0 1.34 54 23:47 23.06.2019
5941 Clear 20 1022 49 0 1.34 35 23:28 23.06.2019
5942 Clear 21 1022 53 0 4.61 71.871 22:56 23.06.2019
5943 Clear 21 1021 55 0 4.61 71.871 22:38 23.06.2019
5944 Clear 21 1021 53 0 4.61 71.871 22:19 23.06.2019
5945 Clear 22 1016 45 0 4.61 71.871 21:40 23.06.2019
5946 Clear 24 1021 36 0 3.45 48.546 21:21 23.06.2019
5947 Clear 26 1021 31 0 1.34 28 20:49 23.06.2019
5948 Clear 27 1020 29 0 1.34 16 20:29 23.06.2019
5949 Clear 27 1020 36 0 0.89 95 19:46 23.06.2019
5950 Clear 27 1020 36 0 2.24 109 19:23 23.06.2019
5951 Clear 27 1020 33 0 1.79 91 18:55 23.06.2019
5952 Clear 28 1020 22 0 1.79 46 18:36 23.06.2019
5953 Clear 28 1020 20 0 1.34 35 18:18 23.06.2019
5954 Clear 27 1020 33 0 1.34 174 17:39 23.06.2019
5955 Clear 27 1020 32 0 1.79 109 17:21 23.06.2019
5956 Clear 29 1020 19 0 2.68 119 16:43 23.06.2019
5957 Clear 28 1021 20 0 2.24 114 16:24 23.06.2019
5958 Clear 27 1021 21 0 0.89 117 15:42 23.06.2019
5959 Clear 27 1021 35 0 2.24 148 15:23 23.06.2019
5960 Clear 27 1021 35 0 2.24 132 14:59 23.06.2019
5961 Clear 27 1021 23 0 2.24 71 14:37 23.06.2019
5962 Clear 27 1021 22 0 3.58 77 14:19 23.06.2019
5963 Clear 27 1021 23 0 3.13 114 13:42 23.06.2019
5964 Clear 27 1021 23 0 1.34 359 13:20 23.06.2019
5965 Clear 28 1021 28 0 1.79 54 12:56 23.06.2019
5966 Clear 27 1024 40 0 4.06 70.432 12:37 23.06.2019
5967 Clear 26 1022 31 0 2.68 100 12:18 23.06.2019
5968 Clear 26 1022 35 0 1.34 124 11:45 23.06.2019
5969 Clear 26 1021 35 0 0.89 128 11:25 23.06.2019
5970 Clear 25 1022 38 0 2.81 82.141 10:48 23.06.2019
5971 Clear 24 1022 32 0 0.45 22 10:21 23.06.2019
5972 Clear 24 1022 27 0 1.34 105 09:57 23.06.2019
5973 Clouds 21 1022 58 0 1.79 101 09:22 23.06.2019
5974 Clouds 20 1022 62 0 1.79 80 08:46 23.06.2019
5975 Clouds 20 1017 53 0 3.03 75.941 08:27 23.06.2019
5976 Clouds 18 1017 58 0 3.03 75.941 07:56 23.06.2019
5977 Clouds 17 1017 61 0 3.03 75.941 07:38 23.06.2019
5978 Clouds 16 1022 61 0 1.34 28 07:18 23.06.2019
5979 Clouds 16 1022 67 0 3.03 75.941 06:43 23.06.2019
5980 Clouds 15 1021 73 0 0.45 356 04:53 23.06.2019
5981 Clouds 17 1021 69 0 0.45 7 02:32 23.06.2019
5982 Clouds 18 1021 66 0 1.34 56 01:39 23.06.2019
5983 Clouds 19 1021 62 0 0.45 325 00:58 23.06.2019
5984 Clouds 19 1020 60 0 0.89 81 00:27 23.06.2019
5985 Clouds 20 1020 56 0 1.79 14 23:43 22.06.2019
5986 Clouds 20 1020 56 0 0.45 38 23:24 22.06.2019
5987 Clouds 20 1020 53 0 1.79 359 22:46 22.06.2019
5988 Clouds 21 1020 52 0 0.89 36 22:25 22.06.2019
5989 Clouds 22 1019 53 0 0.89 59 21:42 22.06.2019
5990 Clouds 22 1019 47 0 0.45 259 21:20 22.06.2019
5991 Clouds 24 1019 43 0 0.45 86 20:56 22.06.2019
5992 Clouds 24 1019 41 0 3.34 40.588 20:38 22.06.2019
5993 Clouds 25 1019 40 0 0.89 16 20:19 22.06.2019
5994 Clouds 25 1019 46 0 0.89 65 19:40 22.06.2019
5995 Clouds 25 1019 45 0 1.34 59 19:19 22.06.2019
5996 Clouds 25 1019 40 0 0.45 0 18:42 22.06.2019
5997 Clouds 26 1019 37 0 1.34 80 18:22 22.06.2019
5998 Clouds 26 1019 45 0 1.79 44 17:43 22.06.2019
5999 Clouds 25 1019 46 0 1.79 108 17:25 22.06.2019
6000 Clouds 26 1020 35 0 3.58 12 16:42 22.06.2019
6001 Clouds 26 1020 33 0 4.01 64.944 16:22 22.06.2019
6002 Clouds 26 1020 35 0 1.79 5 15:45 22.06.2019
6003 Clouds 25 1020 48 0 1.79 167 15:27 22.06.2019
6004 Clouds 25 1020 48 0 1.79 167 15:27 22.06.2019
6005 Clouds 25 1020 48 0 2.68 120 14:51 22.06.2019
6006 Clouds 25 1020 50 0 1.79 349 14:31 22.06.2019
6007 Clouds 26 1021 49 0 2.24 58 13:57 22.06.2019
6008 Clear 26 1021 35 0 3.13 308 13:39 22.06.2019
6009 Clear 25 1022 37 0 1.79 35 13:18 22.06.2019
6010 Clear 25 1022 38 0 1.79 321 12:43 22.06.2019
6011 Clear 23 1022 55 0 1.79 78 12:20 22.06.2019
6012 Clear 23 1022 44 0 2.24 57 11:41 22.06.2019
6013 Clear 23 1022 60 0 1.79 82 11:19 22.06.2019
6014 Clear 23 1023 45 0 1.34 359 10:22 22.06.2019
6015 Clear 22 1023 38 0 1.79 0 09:58 22.06.2019
6016 Clear 21 1023 40 0 1.79 8 09:36 22.06.2019
6017 Clear 19 1023 56 0 1.34 29 08:50 22.06.2019
6018 Clear 18 1023 51 0 1.34 359 08:31 22.06.2019
6019 Clear 16 1023 64 0 0.45 353 07:52 22.06.2019
6020 Clear 16 1018 79 0 3.44 39.818 07:24 22.06.2019
6021 Clear 15 1022 70 0 1.79 346 06:44 22.06.2019
6022 Clear 14 1022 76 0 0.45 276 04:37 22.06.2019
6023 Clear 15 1021 75 0 0.89 311 02:26 22.06.2019
6024 Clear 17 1021 80 0 2.29 351.686 00:57 22.06.2019
6025 Clear 17 1016 81 0 2.29 351.686 00:31 22.06.2019
6026 Clear 18 1020 74 0 2.06 354.081 23:50 21.06.2019
6027 Clear 18 1020 71 0 2.06 354.081 23:24 21.06.2019
6028 Clear 18 1020 68 0 2.06 354.081 22:58 21.06.2019
6029 Clear 18 1020 67 0 2.06 354.081 22:58 21.06.2019
6030 Clear 19 1020 67 0 2.06 354.081 22:39 21.06.2019
6031 Clear 19 1020 67 0 2.06 354.081 22:20 21.06.2019
6032 Clear 21 1014 58 0 2.06 354.081 21:40 21.06.2019
6033 Clear 21 1019 54 0 2.92 305.172 21:21 21.06.2019
6034 Clear 23 1018 48 0 0.45 338 20:48 21.06.2019
6035 Clear 23 1018 47 0 1.34 300 20:26 21.06.2019
6036 Clear 22 1017 40 0 1.34 0 19:54 21.06.2019
6037 Clear 24 1018 41 0 1.34 1 19:23 21.06.2019
6038 Clear 24 1018 44 0 3.7 351.105 18:43 21.06.2019
6039 Clear 24 1016 40 0 1.34 0 18:25 21.06.2019
6040 Clear 24 1016 42 0 1.34 0 17:41 21.06.2019
6041 Clear 24 1013 43 0 3.83 271.617 17:23 21.06.2019
6042 Clear 25 1017 41 0 0.89 43 16:38 21.06.2019
6043 Clear 24 1017 41 0 0.89 29 16:19 21.06.2019
6044 Clear 24 1016 49 0 2.24 0 15:39 21.06.2019
6045 Clouds 24 1018 43 0 0.89 349 15:18 21.06.2019
6046 Clouds 24 1018 47 0 1.34 39 14:44 21.06.2019
6047 Clouds 24 1018 50 0 0.89 330 14:24 21.06.2019
6048 Clouds 25 1018 39 0 1.79 249 13:44 21.06.2019
6049 Clouds 24 1018 43 0 3.94 279.46 13:25 21.06.2019
6050 Clouds 24 1018 45 0 3.94 279.46 12:54 21.06.2019
6051 Clouds 22 1020 52 0 0.45 28 12:23 21.06.2019
6052 Clouds 22 1018 52 0 3.97 290.251 11:59 21.06.2019
6053 Clouds 22 1018 50 0 0.45 8 11:40 21.06.2019
6054 Clouds 22 1018 65 0 0.89 4 11:22 21.06.2019
6055 Clouds 21 1018 53 0 3.97 290.251 10:47 21.06.2019
6056 Clouds 20 1018 51 0 0.45 215 10:21 21.06.2019
6057 Clouds 21 1018 54 0 0.45 293 10:21 21.06.2019
6058 Clouds 20 1018 55 0 0.45 249 09:55 21.06.2019
6059 Clouds 19 1017 59 0 0.89 342 09:37 21.06.2019
6060 Clouds 18 1019 75 0 0.45 132 09:18 21.06.2019
6061 -273 0 0 0 0 0 08:41 21.06.2019
6062 Clouds 18 1019 80 0 3.3 292.466 08:21 21.06.2019
6063 Clouds 17 1016 87 0 3.3 292.466 07:46 21.06.2019
6064 Clouds 17 1018 85 0 3.3 292.466 07:23 21.06.2019
6065 Clouds 16 1016 89 0 0.45 246 06:42 21.06.2019
6066 Clouds 16 1015 89 0 2.71 282.621 06:18 21.06.2019
6067 Clouds 16 1015 89 0 2.71 282.621 04:57 21.06.2019
6068 Clouds 16 1015 89 0 2.71 282.621 03:53 21.06.2019
6069 Clouds 16 1014 89 0 2.71 282.621 03:32 21.06.2019
6070 Rain 16 1014 89 0 2.33 278.683 02:44 21.06.2019
6071 Rain 17 1014 89 0 1.77 255.517 01:38 21.06.2019
6072 Rain 17 1014 89 0 1.77 255.517 00:52 21.06.2019
6073 Rain 18 1013 89 0 0.45 124 00:18 21.06.2019
6074 Rain 18 1013 89 0 1.09 274.794 23:42 20.06.2019
6075 Rain 18 1013 89 0 0.45 8 23:21 20.06.2019
6076 Rain 19 1013 84 0 1.79 229 22:46 20.06.2019
6077 Rain 20 1013 79 0 0.45 248 22:26 20.06.2019
6078 Rain 21 1013 89 0 0.45 357 21:57 20.06.2019
6079 Rain 23 1007 64 0 1.09 274.794 21:38 20.06.2019
6080 Rain 23 1012 67 0 1.73 275.414 21:19 20.06.2019
6081 Rain 24 1011 64 0 2.4 264.463 20:46 20.06.2019
6082 Rain 24 1011 62 0 1.34 229 20:26 20.06.2019
6083 Rain 24 1011 56 0 2.4 264.463 19:55 20.06.2019
6084 Rain 25 1010 48 0 2.4 264.463 19:37 20.06.2019
6085 Rain 25 1009 47 0 0.89 0 19:18 20.06.2019
6086 Rain 25 1011 60 0 2.4 264.463 18:42 20.06.2019
6087 Rain 27 1013 39 0 0.45 174 18:23 20.06.2019
6088 Rain 26 1010 68 0 3.53 269.155 17:51 20.06.2019
6089 Rain 26 1009 46 0 1.79 0 17:51 20.06.2019
6090 Rain 26 1011 66 0 3.53 269.155 17:32 20.06.2019
6091 Rain 27 1009 47 0 1.79 0 16:55 20.06.2019
6092 Rain 26 1013 44 0 0.89 249 16:36 20.06.2019
6093 Rain 26 1013 43 0 0.89 317 16:18 20.06.2019
6094 Rain 26 1011 44 0 1.34 217 15:41 20.06.2019
6095 Rain 25 1013 47 0 0.45 291 15:22 20.06.2019
6096 Rain 26 1009 53 0 1.79 0 14:46 20.06.2019
6097 Rain 26 1013 52 0 0.45 1 14:23 20.06.2019
6098 Rain 26 1013 52 0 0.45 1 14:23 20.06.2019
6099 Rain 25 1013 57 0 0.45 67 13:41 20.06.2019
6100 Rain 26 1013 56 0 0.45 269 13:21 20.06.2019
6101 Rain 25 1009 63 0 2.24 0 12:50 20.06.2019
6102 Rain 25 1009 63 0 2.24 0 12:50 20.06.2019
6103 Clouds 25 1011 49 0 0.45 287 12:25 20.06.2019
6104 Clouds 25 1010 50 0 1.34 227 11:58 20.06.2019
6105 Clouds 24 1010 52 0 4.53 258.023 11:38 20.06.2019
6106 Clouds 24 1010 51 0 4.53 258.023 11:20 20.06.2019
6107 Clouds 24 1010 51 0 0.45 193 10:41 20.06.2019
6108 Clouds 22 1010 58 0 4.53 258.023 10:22 20.06.2019
6109 Clouds 20 1006 86 0 4.53 258.023 09:40 20.06.2019
6110 Rain 20 1006 86 0 3.07 252.988 09:22 20.06.2019
6111 Rain 19 1010 80 0 2.54 247.297 08:47 20.06.2019
6112 Rain 19 1010 80 0 2.54 247.297 08:28 20.06.2019
6113 Rain 19 1011 79 0 1.34 181 07:55 20.06.2019
6114 Rain 19 1011 80 0 0.45 167 07:31 20.06.2019
6115 Rain 18 1009 81 0 1.34 221 06:46 20.06.2019
6116 Clouds 18 1008 83 0 0.45 173 06:18 20.06.2019
6117 Clouds 18 1009 80 0 1.92 170.051 03:39 20.06.2019
6118 Clouds 19 1007 82 0 1.64 183.457 00:44 20.06.2019
6119 Rain 21 1007 80 0 2.3 213.919 00:25 20.06.2019
6120 Rain 22 1007 75 0 1.34 49 23:42 19.06.2019
6121 Rain 22 1008 81 0 0.89 104 23:24 19.06.2019
6122 Rain 19 1009 81 0 1.34 313 22:48 19.06.2019
6123 Rain 22 1003 83 0 2.3 213.919 22:24 19.06.2019
6124 Rain 18 1007 88 0 2.24 85 21:55 19.06.2019
6125 Rain 18 1007 86 0 1.34 163 21:37 19.06.2019
6126 Rain 18 1007 86 0 1.34 163 21:37 19.06.2019
6127 Clear 26 1007 49 0 0.45 305 21:18 19.06.2019
6128 Clear 28 1007 41 0 0.45 329 20:39 19.06.2019
6129 Clear 29 1006 39 0 0.45 334 20:20 19.06.2019
6130 Clear 30 1007 33 0 0.45 256 19:43 19.06.2019
6131 Clear 28 1006 33 0 1.96 178.155 19:24 19.06.2019
6132 Clear 28 1006 28 0 1.96 178.155 18:55 19.06.2019
6133 Clear 31 1006 22 0 0.45 169 18:23 19.06.2019
6134 Clear 32 1005 24 0 0.89 0 17:43 19.06.2019
6135 Clear 31 1005 26 0 0.89 0 17:24 19.06.2019
6136 Clear 31 1007 35 0 2.77 191.468 16:56 19.06.2019
6137 Clear 30 1005 26 0 1.34 0 16:36 19.06.2019
6138 -273 0 0 0 0 0 16:18 19.06.2019
6139 Clear 32 1008 38 0 2.77 191.468 15:42 19.06.2019
6140 Rain 33 1007 34 0 2.8 175.454 15:20 19.06.2019
6141 Rain 32 1007 30 0 1.79 0 14:43 19.06.2019
6142 Rain 32 1007 32 0 1.79 0 14:23 19.06.2019
6143 Rain 33 1008 25 0 1.34 239 13:44 19.06.2019
6144 Rain 32 1008 27 0 0.45 210 13:25 19.06.2019
6145 Rain 32 1008 27 0 0.45 210 13:25 19.06.2019
6146 Rain 32 1008 29 0 2.68 197 12:48 19.06.2019
6147 Rain 31 1007 37 0 0.45 0 12:22 19.06.2019
6148 Rain 31 1011 42 0 0.45 72 11:58 19.06.2019
6149 Rain 31 1011 45 0 0.45 296 11:39 19.06.2019
6150 Rain 30 1009 37 0 0.45 146 11:20 19.06.2019
6151 Rain 30 1009 33 0 0.45 149 10:47 19.06.2019
6152 Rain 29 1009 28 0 1.34 71 10:28 19.06.2019
6153 Rain 28 1016 58 0 0.45 290 09:55 19.06.2019
6154 Clouds 26 1009 54 0 0.45 0 09:36 19.06.2019
6155 Clouds 26 1009 56 0 0.45 0 09:18 19.06.2019
6156 Clouds 24 1005 67 0 2.08 119.488 08:43 19.06.2019
6157 Clouds 23 1005 67 0 2.08 119.488 08:24 19.06.2019
6158 Clouds 21 1005 75 0 2.08 119.488 07:43 19.06.2019
6159 Clouds 21 1010 62 0 0.45 167 07:23 19.06.2019
6160 Clouds 19 1010 64 0 0.45 112 06:37 19.06.2019
6161 Clouds 19 1010 67 0 1.96 145.84 06:19 19.06.2019
6162 Clouds 18 1011 71 0 0.45 107 05:32 19.06.2019
6163 Clouds 18 1011 71 0 1.96 145.84 03:54 19.06.2019
6164 Clouds 19 1011 68 0 2.13 155.32 02:52 19.06.2019
6165 Clouds 20 1012 64 0 2.13 155.32 01:44 19.06.2019
6166 Clouds 20 1012 62 0 2.35 136.382 00:56 19.06.2019
6167 Clouds 20 1012 62 0 2.35 136.382 00:56 19.06.2019
6168 Clouds 20 1012 57 0 1.77 146.922 00:38 19.06.2019
6169 Clouds 20 1012 56 0 1.77 146.922 00:19 19.06.2019
6170 Clouds 22 1012 52 0 1.77 146.922 23:43 18.06.2019
6171 Clouds 22 1012 49 0 1.77 146.922 23:25 18.06.2019
6172 Clouds 22 1007 68 0 1.77 146.922 22:42 18.06.2019
6173 Clouds 23 1015 43 0 1.77 146.922 22:23 18.06.2019
6174 Clouds 24 1011 46 0 1.77 146.922 21:56 18.06.2019
6175 Clouds 25 1015 39 0 1.77 146.922 21:37 18.06.2019
6176 Rain 26 1012 39 0 2.05 194.28 21:19 18.06.2019
6177 Rain 27 1012 35 0 0.45 138 20:42 18.06.2019
6178 Rain 28 1012 32 0 2.06 198.646 20:23 18.06.2019
6179 Rain 29 1011 28 0 0.45 0 19:41 18.06.2019
6180 Rain 29 1011 27 0 0.45 0 19:23 18.06.2019
6181 Rain 28 1012 28 0 0.89 0 18:56 18.06.2019
6182 Clear 30 1012 27 0 0.89 0 18:26 18.06.2019
6183 Clear 29 1012 27 0 0.89 0 17:59 18.06.2019
6184 Clear 29 1012 27 0 0.89 0 17:38 18.06.2019
6185 Clear 29 1012 24 0 0.89 0 17:19 18.06.2019
6186 Clear 30 1013 27 0 1.34 0 16:42 18.06.2019
6187 Clear 30 1013 27 0 1.79 0 16:22 18.06.2019
6188 Clear 30 1013 26 0 0.45 0 15:43 18.06.2019
6189 Clouds 29 1013 28 0 0.89 0 15:24 18.06.2019
6190 Clouds 30 1015 27 0 2.68 98 14:58 18.06.2019
6191 Clouds 30 1014 27 0 0.45 0 14:40 18.06.2019
6192 Clouds 29 1014 28 0 0.89 0 14:20 18.06.2019
6193 Clouds 30 1015 25 0 1.34 131 13:52 18.06.2019
6194 Clouds 29 1015 29 0 2.68 84 13:31 18.06.2019
6195 Clouds 30 1016 31 0 1.79 160 12:48 18.06.2019
6196 Clouds 29 1015 32 0 0.89 0 12:29 18.06.2019
6197 Clouds 28 1015 36 0 0.89 0 11:58 18.06.2019
6198 Clouds 28 1016 34 0 2.68 121 11:39 18.06.2019
6199 Clouds 28 1018 41 0 0.89 277 11:20 18.06.2019
6200 Clouds 28 1016 34 0 2.68 114 10:55 18.06.2019
6201 Clouds 28 1017 29 0 2.68 145 10:36 18.06.2019
6202 Clouds 27 1017 33 0 1.79 133 10:18 18.06.2019
6203 Clouds 26 1016 53 0 0.89 0 09:36 18.06.2019
6204 Clear 24 1019 57 0 0.45 327 09:18 18.06.2019
6205 Clear 23 1013 65 0 3.44 141.392 08:42 18.06.2019
6206 Clear 22 1013 65 0 3.44 141.392 08:21 18.06.2019
6207 Clear 20 1020 70 0 3.44 141.392 07:37 18.06.2019
6208 Clear 19 1018 67 0 1.34 162 07:18 18.06.2019
6209 Clear 15 1018 77 0 2.09 134.825 05:38 18.06.2019
6210 Clear 15 1018 76 0 2.09 134.825 04:23 18.06.2019
6211 Clear 17 1018 77 0 2.01 122.836 02:52 18.06.2019
6212 Clear 18 1018 74 0 2.01 122.836 01:54 18.06.2019
6213 Clear 18 1019 72 0 1.91 137.757 01:24 18.06.2019
6214 Clear 18 1019 71 0 1.91 137.757 00:54 18.06.2019
6215 Clear 19 1019 69 0 2.06 107.389 00:24 18.06.2019
6216 Clear 20 1019 65 0 2.06 107.389 23:41 17.06.2019
6217 Clear 20 1018 61 0 2.06 107.389 23:19 17.06.2019
6218 Clear 21 1014 70 0 2.06 107.389 22:42 17.06.2019
6219 Clear 22 1021 50 0 2.06 107.389 22:22 17.06.2019
6220 Clear 22 1018 56 0 2.06 107.389 21:59 17.06.2019
6221 Clear 22 1018 55 0 2.06 107.389 21:41 17.06.2019
6222 Rain 24 1018 47 0 1.88 122.422 21:21 17.06.2019
6223 Rain 26 1018 40 0 0.45 159 20:37 17.06.2019
6224 Clouds 26 1018 38 0 0.89 115 20:18 17.06.2019
6225 Clouds 25 1018 39 0 1.62 105.581 19:42 17.06.2019
6226 Clouds 26 1019 44 0 1.34 97 19:23 17.06.2019
6227 Clouds 26 1018 36 0 1.62 105.581 18:58 17.06.2019
6228 Clouds 26 1018 38 0 1.62 105.581 18:38 17.06.2019
6229 Clouds 26 1018 36 0 2.54 67.127 18:18 17.06.2019
6230 Clouds 27 1019 31 0 0.45 83 17:46 17.06.2019
6231 Clouds 27 1018 29 0 2.54 67.127 17:28 17.06.2019
6232 Clouds 26 1019 29 0 2.54 67.127 16:49 17.06.2019
6233 Clouds 26 1019 35 0 2.54 67.127 16:31 17.06.2019
6234 Clouds 27 1019 32 0 0.45 0 15:58 17.06.2019
6235 Clouds 27 1019 33 0 0.45 0 15:39 17.06.2019
6236 Rain 27 1020 41 0 1.78 52.665 15:19 17.06.2019
6237 Rain 27 1020 39 0 1.78 52.665 14:55 17.06.2019
6238 Rain 27 1020 35 0 1.78 52.665 14:34 17.06.2019
6239 Rain 27 1021 34 0 0.89 42 13:57 17.06.2019
6240 Rain 27 1021 34 0 1.34 35 13:39 17.06.2019
6241 Rain 27 1021 34 0 1.52 64.663 13:20 17.06.2019
6242 Rain 27 1022 39 0 0.89 102 12:38 17.06.2019
6243 Clear 25 1022 40 0 0.2 66.727 12:18 17.06.2019
6244 Clear 25 1022 45 0 0.89 311 11:39 17.06.2019
6245 Clear 24 1022 47 0 0.2 66.727 11:20 17.06.2019
6246 Clear 25 1022 47 0 0.45 301 10:46 17.06.2019
6247 Clear 25 1022 47 0 0.45 301 10:46 17.06.2019
6248 Clear 25 1022 46 0 0.2 66.727 10:28 17.06.2019
6249 Clear 25 1022 46 0 0.2 66.727 10:28 17.06.2019
6250 Clear 24 1018 53 0 0.2 66.727 09:56 17.06.2019
6251 Clear 24 1018 53 0 0.2 66.727 09:56 17.06.2019
6252 Clear 24 1018 53 0 0.2 66.727 09:56 17.06.2019
6253 Clear 22 1022 61 0 0.45 62 09:33 17.06.2019
6254 Clear 20 1018 78 0 1.07 292.011 08:48 17.06.2019
6255 Clear 19 1021 77 0 1.07 292.011 08:25 17.06.2019
6256 Clear 19 1018 10 0 1.07 292.011 07:58 17.06.2019
6257 Clear 17 1018 10 0 1.07 292.011 07:32 17.06.2019
6258 Clear 16 1022 88 0 1.07 292.011 06:59 17.06.2019
6259 Clear 15 1022 88 0 1.27 268.741 06:22 17.06.2019
6260 Clear 15 1022 87 0 1.27 268.741 05:29 17.06.2019
6261 Clear 16 1022 87 0 1.27 268.741 04:30 17.06.2019
6262 Clear 16 1022 86 0 1.27 268.741 03:31 17.06.2019
6263 Clouds 17 1022 86 0 1.1 246.451 02:46 17.06.2019
6264 Clouds 17 1022 86 0 1.1 246.451 02:28 17.06.2019
6265 Clouds 17 1022 84 0 1.1 246.451 01:36 17.06.2019
6266 Clear 17 1021 84 0 1.61 223.366 00:58 17.06.2019
6267 Clear 17 1021 84 0 1.61 223.366 00:38 17.06.2019
6268 Clear 18 1021 84 0 1.85 185.421 00:19 17.06.2019
6269 Clear 18 1021 84 0 1.85 185.421 23:39 16.06.2019
6270 Clear 18 1021 84 0 0.45 163 23:20 16.06.2019
6271 Clear 19 1021 83 0 1.85 185.421 22:45 16.06.2019
6272 Clear 19 1021 83 0 1.85 185.421 22:45 16.06.2019
6273 Clear 18 1021 82 0 1.85 185.421 22:21 16.06.2019
6274 Clear 18 1016 99 0 1.85 185.421 21:59 16.06.2019
6275 Clear 19 1016 96 0 1.85 185.421 21:40 16.06.2019
6276 Clouds 19 1021 79 0 1.76 186.636 21:21 16.06.2019
6277 Clouds 20 1021 78 0 1.67 190.514 20:55 16.06.2019
6278 Clouds 21 1021 72 0 1.67 190.514 20:37 16.06.2019
6279 Clouds 21 1021 65 0 1.79 241 20:18 16.06.2019
6280 Clouds 21 1016 67 0 1.67 190.514 19:40 16.06.2019
6281 Clouds 21 1016 67 0 1.67 190.514 19:22 16.06.2019
6282 Clouds 21 1016 63 0 1.67 190.514 18:57 16.06.2019
6283 Clouds 21 1021 55 0 1.67 190.514 18:39 16.06.2019
6284 Rain 23 1021 49 0 2.29 188.084 18:20 16.06.2019
6285 Rain 23 1016 63 0 2.29 188.084 17:46 16.06.2019
6286 Rain 23 1021 56 0 0.89 167 17:22 16.06.2019
6287 Rain 23 1016 70 0 2.29 188.084 16:57 16.06.2019
6288 Rain 23 1016 70 0 2.29 188.084 16:57 16.06.2019
6289 Rain 24 1016 64 0 2.29 188.084 16:38 16.06.2019
6290 Rain 24 1016 64 0 2.29 188.084 16:20 16.06.2019
6291 Rain 24 1021 60 0 2.29 188.084 15:42 16.06.2019
6292 Clouds 23 1021 54 0 1.34 259 15:24 16.06.2019
6293 Clouds 24 1021 50 0 0.82 209.989 14:44 16.06.2019
6294 Clouds 23 1016 49 0 0.82 209.989 14:23 16.06.2019
6295 Clouds 23 1021 49 0 1.34 204 13:52 16.06.2019
6296 Clouds 22 1021 51 0 0.45 204 13:28 16.06.2019
6297 Rain 22 1021 57 0 1.79 166 12:58 16.06.2019
6298 Rain 21 1021 58 0 1.34 191 12:40 16.06.2019
6299 Clouds 21 1015 55 0 2.04 266.683 12:20 16.06.2019
6300 Clouds 20 1020 63 0 2.04 266.683 11:46 16.06.2019
6301 Clouds 20 1020 65 0 0.45 71 11:20 16.06.2019
6302 Clouds 19 1020 70 0 2.04 266.683 10:54 16.06.2019
6303 Clouds 19 1020 67 0 2.04 266.683 10:36 16.06.2019
6304 Clouds 19 1020 64 0 2.04 266.683 10:18 16.06.2019
6305 Clouds 19 1020 54 0 2.04 266.683 09:37 16.06.2019
6306 Clouds 18 1018 70 0 0.89 0 09:19 16.06.2019
6307 Clouds 18 1019 62 0 0.45 177 08:41 16.06.2019
6308 Clouds 17 1020 74 0 1.87 293.568 08:19 16.06.2019
6309 Clouds 16 1014 80 0 1.87 293.568 07:44 16.06.2019
6310 Clouds 16 1018 69 0 1.87 293.568 07:19 16.06.2019
6311 Clouds 15 1018 73 0 1.87 293.568 06:43 16.06.2019
6312 Clouds 15 1018 80 0 2.37 275.641 05:52 16.06.2019
6313 Clouds 14 1017 82 0 2.37 275.641 05:18 16.06.2019
6314 Clouds 15 1017 80 0 2.37 275.641 03:58 16.06.2019
6315 Clouds 15 1017 79 0 1.34 293 03:33 16.06.2019
6316 Clear 16 1017 79 0 3.62 300.926 02:48 16.06.2019
6317 Clear 17 1017 75 0 0.45 314 01:47 16.06.2019
6318 Clear 17 1016 75 0 3.62 300.926 01:28 16.06.2019
6319 Clouds 18 1016 73 0 3.77 288.646 00:42 16.06.2019
6320 Clear 19 1016 71 0 4.35 288.522 00:23 16.06.2019
6321 Clear 19 1016 65 0 0.45 314 23:55 15.06.2019
6322 Clear 19 1016 65 0 1.34 327 23:36 15.06.2019
6323 Clear 20 1015 64 0 0.89 293 23:18 15.06.2019
6324 Clear 19 1016 63 0 0.45 162 22:41 15.06.2019
6325 Clear 19 1013 64 0 2.68 0 22:22 15.06.2019
6326 Clear 19 1014 73 0 0.89 275 21:42 15.06.2019
6327 Clouds 23 1014 60 0 4.95 275.596 21:20 15.06.2019
6328 Clear 24 1013 54 0 1.79 308 20:43 15.06.2019
6329 Clear 25 1013 52 0 1.79 190 20:22 15.06.2019
6330 Clear 26 1012 55 0 0.45 323 19:47 15.06.2019
6331 Clear 20 1013 71 0 5.23 272.72 19:26 15.06.2019
6332 Clear 20 1013 71 0 5.23 272.72 18:42 15.06.2019
6333 Clouds 27 1012 44 0 1.79 332 18:23 15.06.2019
6334 Clouds 28 1011 42 0 0.45 324 17:45 15.06.2019
6335 Clouds 29 1011 42 0 0.45 322 17:27 15.06.2019
6336 Clouds 29 1013 45 0 1.34 18 16:49 15.06.2019
6337 Clouds 29 1010 46 0 6.98 260.303 16:22 15.06.2019
6338 Clouds 28 1009 54 0 4.92 0 15:58 15.06.2019
6339 Clouds 28 1010 45 0 6.98 260.303 15:40 15.06.2019
6340 Rain 30 1011 40 0 0.89 318 15:19 15.06.2019
6341 Rain 30 1010 38 0 0.45 359 14:38 15.06.2019
6342 Rain 31 1010 38 0 1.34 338 14:18 15.06.2019
6343 Rain 31 1009 39 0 1.79 197 13:43 15.06.2019
6344 Rain 31 1009 36 0 2.24 279 13:20 15.06.2019
6345 Rain 30 1008 41 0 0.89 180 12:58 15.06.2019
6346 Rain 30 1008 43 0 1.34 224 12:40 15.06.2019
6347 Rain 31 1006 57 0 0.89 0 12:20 15.06.2019
6348 Rain 29 1008 53 0 4.33 140.315 11:41 15.06.2019
6349 Rain 29 1006 62 0 0.89 0 11:23 15.06.2019
6350 Clouds 28 1003 58 0 3.02 175.751 10:42 15.06.2019
6351 Clouds 27 1003 61 0 3.02 175.751 10:24 15.06.2019
6352 Clouds 25 1007 61 0 2.68 97 09:48 15.06.2019
6353 Rain 25 1007 72 0 0.45 0 09:26 15.06.2019
6354 Rain 25 1008 61 0 3.58 115 08:54 15.06.2019
6355 Rain 25 1008 61 0 1.79 111 08:34 15.06.2019
6356 Rain 25 1008 61 0 1.34 131 08:33 15.06.2019
6357 Rain 24 1007 63 0 0.45 142 07:54 15.06.2019
6358 Rain 24 1008 58 0 2.68 69 07:25 15.06.2019
6359 Rain 24 1008 58 0 1.34 74 07:25 15.06.2019
6360 Rain 23 1008 69 0 0.45 115 06:47 15.06.2019
6361 Rain 22 1008 70 0 1.34 57 06:20 15.06.2019
6362 Rain 22 1009 70 0 1.34 50 05:29 15.06.2019
6363 Rain 21 1009 73 0 2.24 108 04:46 15.06.2019
6364 Rain 21 1010 84 0 6.7 70.943 03:49 15.06.2019
6365 Rain 21 1010 86 0 0.89 25 03:19 15.06.2019
6366 Rain 22 1011 56 0 2.72 79.552 02:23 15.06.2019
6367 Rain 22 1008 76 0 2.72 79.552 01:50 15.06.2019
6368 Rain 22 1008 80 0 2.72 79.552 01:18 15.06.2019
6369 Rain 22 1008 80 0 2.72 79.552 00:40 15.06.2019
6370 Clouds 22 1014 55 0 2.13 160.033 23:55 14.06.2019
6371 Clouds 22 1014 53 0 0.45 344 23:37 14.06.2019
6372 Clouds 23 1014 53 0 2.13 160.033 23:18 14.06.2019
6373 Clouds 23 1014 53 0 2.13 160.033 23:18 14.06.2019
6374 Clouds 23 1014 52 0 2.13 160.033 22:40 14.06.2019
6375 Clouds 23 1015 52 0 2.13 160.033 22:21 14.06.2019
6376 Clouds 24 1014 49 0 2.13 160.033 21:48 14.06.2019
6377 Clouds 25 1014 46 0 2.46 106.904 21:27 14.06.2019
6378 Clouds 26 1014 40 0 2.46 106.904 20:44 14.06.2019
6379 Clouds 27 1014 36 0 0.45 126 20:19 14.06.2019
6380 Clouds 27 1014 34 0 2.46 106.904 19:57 14.06.2019
6381 Clouds 27 1014 32 0 1.34 100 19:37 14.06.2019
6382 Clouds 28 1014 30 0 0.89 98 19:18 14.06.2019
6383 Clouds 29 1016 34 0 2.46 106.904 18:45 14.06.2019
6384 Clouds 29 1015 28 0 1.34 135 18:26 14.06.2019
6385 Clouds 29 1015 28 0 1.34 133 17:58 14.06.2019
6386 Clouds 29 1015 27 0 1.34 136 17:40 14.06.2019
6387 Clouds 30 1015 24 0 1.34 81 17:21 14.06.2019
6388 Clouds 29 1015 25 0 2.68 146 16:48 14.06.2019
6389 Clouds 30 1016 24 0 2.68 142 16:23 14.06.2019
6390 Clouds 30 1016 21 0 1.34 163 15:59 14.06.2019
6391 Clouds 29 1016 21 0 2.68 138 15:39 14.06.2019
6392 Clear 29 1015 26 0 1.34 0 15:19 14.06.2019
6393 Clear 29 1015 23 0 2.24 0 14:43 14.06.2019
6394 Clear 30 1011 26 0 5.38 157.214 14:25 14.06.2019
6395 Clear 29 1017 25 0 1.79 138 13:46 14.06.2019
6396 Clear 29 1017 25 0 1.79 132 13:28 14.06.2019
6397 Clear 29 1017 28 0 1.79 215 12:57 14.06.2019
6398 Clear 29 1017 31 0 1.79 125 12:39 14.06.2019
6399 Clear 28 1017 36 0 2.24 174 12:20 14.06.2019
6400 Clear 27 1018 39 0 2.68 155 11:42 14.06.2019
6401 Clear 27 1018 39 0 2.68 155 11:42 14.06.2019
6402 Clear 26 1018 43 0 1.79 114 11:23 14.06.2019
6403 Clear 27 1018 46 0 1.34 80 10:47 14.06.2019
6404 Clear 27 1018 39 0 1.79 150 10:21 14.06.2019
6405 Clear 25 1018 36 0 2.68 86 09:55 14.06.2019
6406 Clear 24 1018 36 0 0.89 122 09:33 14.06.2019
6407 Clear 22 1013 71 0 3.5 134.352 08:49 14.06.2019
6408 Clear 20 1013 89 0 3.5 134.352 08:21 14.06.2019
6409 Clear 18 1013 98 0 3.5 134.352 07:55 14.06.2019
6410 Clear 16 1018 88 0 0.89 131 07:24 14.06.2019
6411 Clear 15 1018 88 0 0.45 115 06:55 14.06.2019
6412 Clouds 13 1017 88 0 2.4 151.094 06:19 14.06.2019
6413 Clouds 12 1017 88 0 2.4 151.094 05:47 14.06.2019
6414 Clouds 12 1017 88 0 2.4 151.094 04:54 14.06.2019
6415 Clouds 12 1017 87 0 0.45 289 04:27 14.06.2019
6416 Clouds 13 1017 87 0 2.4 151.094 03:39 14.06.2019
6417 Clear 14 1016 87 0 2.37 188.222 03:21 14.06.2019
6418 Clear 15 1017 87 0 2.37 188.222 02:36 14.06.2019
6419 Clear 15 1017 86 0 2.37 188.222 01:51 14.06.2019
6420 Clear 16 1016 86 0 2.37 188.222 00:40 14.06.2019
6421 Clear 16 1016 86 0 2.66 183.018 00:21 14.06.2019
6422 Clear 16 1016 85 0 2.66 183.018 23:50 13.06.2019
6423 Clear 16 1016 85 0 2.66 183.018 23:50 13.06.2019
6424 Clear 16 1016 85 0 2.66 183.018 23:25 13.06.2019
6425 Clear 17 1016 84 0 2.66 183.018 22:57 13.06.2019
6426 Clear 17 1015 83 0 2.66 183.018 22:37 13.06.2019
6427 Clear 18 1015 81 0 1.34 157 22:18 13.06.2019
6428 Clear 17 1015 79 0 0.45 291 21:38 13.06.2019
6429 Clouds 20 1014 77 0 3.05 188.125 21:19 13.06.2019
6430 Clouds 23 1013 49 0 1.79 162 20:45 13.06.2019
6431 Clouds 23 1013 47 0 0.45 195 20:20 13.06.2019
6432 Clouds 21 1013 81 0 0.89 123 19:55 13.06.2019
6433 Clouds 22 1017 44 0 2.68 155 19:36 13.06.2019
6434 Clouds 23 1017 45 0 2.24 143 19:18 13.06.2019
6435 Clouds 24 1012 52 0 3.13 93 18:42 13.06.2019
6436 Rain 25 1017 44 0 2.68 160 18:23 13.06.2019
6437 Rain 25 1012 45 0 2.68 163 17:56 13.06.2019
6438 Rain 25 1012 47 0 1.79 185 17:36 13.06.2019
6439 Rain 25 1012 44 0 0.89 205 17:18 13.06.2019
6440 Rain 25 1013 46 0 2.24 173 16:41 13.06.2019
6441 Rain 26 1013 30 0 0.89 325 16:20 13.06.2019
6442 Rain 25 1018 41 0 1.79 130 15:43 13.06.2019
6443 Clouds 25 1012 30 0 1.79 0 15:24 13.06.2019
6444 Clouds 25 1009 38 0 3.61 194.56 14:56 13.06.2019
6445 Clouds 25 1012 32 0 2.24 0 14:31 13.06.2019
6446 Clouds 26 1009 37 0 3.61 194.56 13:59 13.06.2019
6447 Clouds 26 1009 42 0 3.61 194.56 13:40 13.06.2019
6448 Clouds 26 1009 34 0 3.61 194.56 13:21 13.06.2019
6449 Clouds 24 1014 40 0 3.61 194.56 12:42 13.06.2019
6450 Clouds 23 1013 42 0 0.45 0 12:22 13.06.2019
6451 Clouds 23 1013 42 0 0.89 0 11:56 13.06.2019
6452 Clouds 22 1013 46 0 0.89 0 11:37 13.06.2019
6453 Clouds 23 1010 45 0 2.75 230.563 11:18 13.06.2019
6454 Clouds 23 1014 42 0 0.45 207 10:43 13.06.2019
6455 Clouds 23 1010 48 0 2.75 230.563 10:23 13.06.2019
6456 Clouds 20 1013 62 0 1.34 0 09:43 13.06.2019
6457 Clouds 19 1016 70 0 0.89 301 09:23 13.06.2019
6458 Clouds 19 1016 70 0 0.89 301 09:23 13.06.2019
6459 Clouds 18 1013 73 0 0.89 0 08:44 13.06.2019
6460 Clouds 18 1016 74 0 0.45 304 08:25 13.06.2019
6461 Clouds 17 1013 78 0 0.89 0 07:53 13.06.2019
6462 Clouds 16 1014 80 0 2.29 234.5 07:25 13.06.2019
6463 Clouds 16 1014 83 0 2.29 234.5 06:51 13.06.2019
6464 Clear 16 1013 84 0 2.04 214.4 06:24 13.06.2019
6465 Clear 15 1013 85 0 2.04 214.4 05:56 13.06.2019
6466 Clear 15 1013 85 0 2.04 214.4 05:37 13.06.2019
6467 Clear 15 1014 85 0 2.04 214.4 04:58 13.06.2019
6468 Clouds 15 1013 85 0 1.96 241.226 02:42 13.06.2019
6469 Clouds 15 1013 86 0 1.96 241.226 01:25 13.06.2019
6470 Rain 16 1012 85 0 0.45 204 00:29 13.06.2019
6471 Rain 16 1012 84 0 0.45 259 23:24 12.06.2019
6472 Rain 17 1012 81 0 0.45 248 22:47 12.06.2019
6473 Rain 18 1011 79 0 0.45 218 22:28 12.06.2019
6474 Rain 18 1011 78 0 0.45 179 21:58 12.06.2019
6475 Rain 18 1011 79 0 4.24 267.378 21:40 12.06.2019
6476 Rain 19 1010 82 0 3.31 262.161 21:21 12.06.2019
6477 Rain 19 1010 80 0 3.31 262.161 20:42 12.06.2019
6478 Rain 19 1009 79 0 1.34 265 20:22 12.06.2019
6479 Rain 19 1009 79 0 0.45 234 19:56 12.06.2019
6480 Rain 19 1009 77 0 3.31 262.161 19:37 12.06.2019
6481 Rain 19 1003 92 0 3.31 262.161 19:19 12.06.2019
6482 Rain 19 1009 79 0 0.89 321 18:42 12.06.2019
6483 Rain 19 1009 80 0 1.34 344 18:23 12.06.2019
6484 Rain 20 1009 72 0 2.68 201 17:45 12.06.2019
6485 Rain 22 1009 67 0 1.79 145 17:21 12.06.2019
6486 Rain 24 1007 100 0 1.34 214 16:43 12.06.2019
6487 Rain 25 1008 19 0 1.34 218 16:25 12.06.2019
6488 Rain 27 1006 100 0 5.22 213.084 15:58 12.06.2019
6489 Rain 28 1006 100 0 0.89 211 15:33 12.06.2019
6490 Rain 29 1004 100 0 1.34 243 14:57 12.06.2019
6491 Rain 29 1006 100 0 0.45 331 14:33 12.06.2019
6492 Rain 28 1006 100 0 0.45 94 13:58 12.06.2019
6493 Rain 28 1006 100 0 0.45 94 13:58 12.06.2019
6494 Rain 28 1005 100 0 0.45 119 13:39 12.06.2019
6495 Clouds 28 1006 100 0 4.27 194.759 13:19 12.06.2019
6496 Clouds 26 1007 100 0 0.45 293 12:40 12.06.2019
6497 Clouds 26 1007 100 0 0.45 304 12:21 12.06.2019
6498 Clouds 25 1007 100 0 1.79 344 11:55 12.06.2019
6499 Clouds 25 1007 100 0 2.68 359 11:37 12.06.2019
6500 Clouds 24 1007 100 0 1.34 19 11:19 12.06.2019
6501 Clouds 25 1007 100 0 0.45 25 10:42 12.06.2019
6502 Clouds 24 1007 100 0 1.34 356 10:19 12.06.2019
6503 Clouds 23 1008 100 0 2.11 58.994 09:41 12.06.2019
6504 Clouds 22 1004 82 0 2.7 70.195 09:22 12.06.2019
6505 Clouds 20 1008 100 0 2.7 70.195 08:38 12.06.2019
6506 Clouds 20 1008 100 0 0.45 358 08:19 12.06.2019
6507 Clouds 18 1009 100 0 2.7 70.195 07:26 12.06.2019
6508 Clouds 18 1004 10 0 2.7 70.195 06:41 12.06.2019
6509 Rain 17 1009 100 0 4.6 43.608 05:27 12.06.2019
6510 Rain 17 1009 100 0 4.6 43.608 03:41 12.06.2019
6511 Clouds 18 1011 100 0 1.34 293 01:26 12.06.2019
6512 Rain 19 1010 88 0 3.13 274 00:38 12.06.2019
6513 Rain 20 1009 88 0 2.68 4 23:45 11.06.2019
6514 Rain 21 1009 86 0 1.34 359 23:27 11.06.2019
6515 Rain 22 1004 65 0 1.71 12.536 22:43 11.06.2019
6516 Rain 22 1009 64 0 1.34 64 22:19 11.06.2019
6517 Rain 23 1008 62 0 1.34 272 21:57 11.06.2019
6518 Rain 23 1009 61 0 0.89 0 21:38 11.06.2019
6519 Clouds 24 1010 56 0 1.79 28 21:19 11.06.2019
6520 Clouds 25 1009 54 0 0.45 287 20:48 11.06.2019
6521 Clouds 26 1010 52 0 0.89 359 20:25 11.06.2019
6522 Clouds 26 1010 52 0 0.89 359 20:25 11.06.2019
6523 Clouds 26 1010 49 0 1.34 241 19:54 11.06.2019
6524 Clouds 28 1009 53 0 1.34 22 19:32 11.06.2019
6525 Clouds 27 1010 45 0 1.34 308 18:56 11.06.2019
6526 -273 0 0 0 0 0 18:21 11.06.2019
6527 Clouds 28 1010 43 0 2.24 298 18:21 11.06.2019
6528 Clouds 29 1009 47 0 0.45 82 17:42 11.06.2019
6529 Clouds 29 1009 50 0 0.45 0 17:22 11.06.2019
6530 Clouds 28 1010 43 0 1.34 283 16:56 11.06.2019
6531 Clouds 28 1010 44 0 0.89 359 16:37 11.06.2019
6532 Clouds 28 1010 45 0 0.89 18 16:19 11.06.2019
6533 Clouds 28 1010 45 0 2.26 279.833 15:41 11.06.2019
6534 Clouds 28 1010 50 0 0.89 6 15:21 11.06.2019
6535 Clouds 27 1010 52 0 0.89 295 14:44 11.06.2019
6536 Clouds 28 1006 52 0 2.57 251.523 14:21 11.06.2019
6537 Clouds 27 1010 42 0 2.57 251.523 13:50 11.06.2019
6538 Clouds 27 1011 45 0 0.45 324 13:24 11.06.2019
6539 Clouds 27 1010 46 0 0.45 255 12:44 11.06.2019
6540 Clouds 27 1010 59 0 0.89 25 12:23 11.06.2019
6541 Clouds 26 1005 60 0 4.05 274.053 11:58 11.06.2019
6542 Clouds 26 1010 60 0 0.89 286 11:39 11.06.2019
6543 Clouds 26 1010 62 0 0.89 179 11:19 11.06.2019
6544 Clouds 25 1010 49 0 1.79 267 10:45 11.06.2019
6545 Clouds 24 1005 54 0 4.05 274.053 10:25 11.06.2019
6546 Clouds 23 1005 63 0 4.05 274.053 09:48 11.06.2019
6547 Clouds 22 1010 58 0 2.24 200 09:24 11.06.2019
6548 Clouds 21 1004 71 0 2.22 285.956 08:45 11.06.2019
6549 Clouds 21 1004 69 0 2.22 285.956 08:25 11.06.2019
6550 Clouds 19 1004 80 0 2.22 285.956 07:38 11.06.2019
6551 Rain 19 1009 74 0 2.29 317.282 06:56 11.06.2019
6552 Rain 18 1009 78 0 2.24 310.065 06:30 11.06.2019
6553 Rain 17 1008 82 0 2.24 310.065 04:55 11.06.2019
6554 Rain 19 1009 79 0 2.24 310.065 03:42 11.06.2019
6555 Rain 20 1010 73 0 6.72 77.996 01:40 11.06.2019
6556 Rain 21 1010 72 0 0.89 212 00:47 11.06.2019
6557 Rain 21 1008 74 0 2.13 11.552 23:48 10.06.2019
6558 Rain 21 1008 74 0 2.13 11.552 23:25 10.06.2019
6559 Rain 22 1009 71 0 2.76 40.772 22:56 10.06.2019
6560 Rain 22 1010 81 0 2.76 40.772 22:37 10.06.2019
6561 Rain 23 1010 69 0 2.76 40.772 22:19 10.06.2019
6562 Rain 22 1011 56 0 2.76 40.772 21:41 10.06.2019
6563 Clouds 25 1010 52 0 0.89 160 21:22 10.06.2019
6564 Clouds 26 1010 49 0 1.46 138.252 20:46 10.06.2019
6565 Clouds 26 1010 48 0 1.46 138.252 20:25 10.06.2019
6566 Clouds 27 1010 43 0 0.45 195 19:57 10.06.2019
6567 Clouds 27 1010 43 0 0.89 194 19:38 10.06.2019
6568 Clouds 27 1010 39 0 0.89 172 19:20 10.06.2019
6569 Clouds 27 1009 35 0 2.24 148 18:55 10.06.2019
6570 Clouds 28 1010 35 0 1.34 114 18:37 10.06.2019
6571 Clouds 28 1010 34 0 0.45 166 18:18 10.06.2019
6572 Clouds 27 1010 39 0 1.34 264 17:40 10.06.2019
6573 Clouds 27 1010 39 0 1.34 264 17:40 10.06.2019
6574 Clouds 27 1011 42 0 1.79 255 17:21 10.06.2019
6575 Clouds 28 1011 41 0 0.89 221 16:46 10.06.2019
6576 Clouds 28 1011 39 0 1.34 285 16:28 10.06.2019
6577 Clouds 28 1011 33 0 0.89 31 15:46 10.06.2019
6578 Clouds 27 1011 43 0 1.34 242 15:24 10.06.2019
6579 Clouds 27 1012 34 0 0.45 246 14:59 10.06.2019
6580 Clouds 28 1012 36 0 0.89 181 14:39 10.06.2019
6581 Clouds 28 1012 35 0 1.34 122 14:21 10.06.2019
6582 Clouds 27 1013 34 0 0.45 249 13:43 10.06.2019
6583 Clouds 27 1012 35 0 1.34 187 13:23 10.06.2019
6584 Clouds 26 1013 39 0 1.83 154.274 12:45 10.06.2019
6585 Clouds 25 1013 40 0 1.34 181 12:27 10.06.2019
6586 Clouds 25 1014 48 0 1.32 121.35 11:49 10.06.2019
6587 Clouds 24 1014 48 0 1.34 59 11:30 10.06.2019
6588 Clouds 23 1013 54 0 1.32 121.35 10:58 10.06.2019
6589 Clouds 23 1014 56 0 1.32 121.35 10:38 10.06.2019
6590 Clouds 22 1013 60 0 0.45 143 10:18 10.06.2019
6591 Clouds 21 1014 58 0 0.89 98 09:48 10.06.2019
6592 Clouds 20 1014 58 0 0.89 104 09:29 10.06.2019
6593 Rain 19 1014 58 0 0.89 19 08:48 10.06.2019
6594 Rain 19 1014 57 0 1.86 72.278 08:26 10.06.2019
6595 Rain 18 1014 70 0 2.25 79.882 07:27 10.06.2019
6596 Rain 18 1015 60 0 0.45 243 04:42 10.06.2019
6597 Rain 18 1017 58 0 3.38 51.234 02:29 10.06.2019
6598 Clouds 19 1017 54 0 0.45 63 01:49 10.06.2019
6599 Clouds 20 1017 58 0 3.57 48.98 00:59 10.06.2019
6600 Clouds 20 1018 58 0 3.57 48.98 00:36 10.06.2019
6601 Rain 21 1018 62 0 0.45 2 23:46 09.06.2019
6602 Rain 20 1019 60 0 3.43 37.95 23:21 09.06.2019
6603 Rain 21 1019 58 0 3.43 37.95 22:46 09.06.2019
6604 Rain 21 1019 40 0 0.45 313 22:26 09.06.2019
6605 Rain 21 1014 41 0 3.43 37.95 21:48 09.06.2019
6606 Rain 22 1019 38 0 3.43 37.95 21:29 09.06.2019
6607 Clouds 23 1019 32 0 0.45 9 20:59 09.06.2019
6608 Clouds 23 1020 31 0 0.89 33 20:41 09.06.2019
6609 Clouds 23 1019 31 0 1.34 359 20:21 09.06.2019
6610 Clouds 25 1020 30 0 1.34 8 19:43 09.06.2019
6611 Clouds 25 1020 30 0 1.34 8 19:43 09.06.2019
6612 Clouds 25 1020 27 0 0.89 29 19:18 09.06.2019
6613 Clouds 25 1022 26 0 2.21 38.397 18:43 09.06.2019
6614 Clouds 26 1020 27 0 0.89 307 18:25 09.06.2019
6615 Clouds 24 1020 32 0 0.89 94 17:56 09.06.2019
6616 Clouds 24 1021 30 0 1.34 39 17:30 09.06.2019
6617 Clouds 25 1021 24 0 1.79 307 16:59 09.06.2019
6618 Clouds 25 1020 26 0 0.45 0 16:40 09.06.2019
6619 Clouds 26 1021 23 0 0.45 336 16:20 09.06.2019
6620 Clouds 25 1022 24 0 0.89 328 15:50 09.06.2019
6621 Clear 24 1021 29 0 0.45 0 15:29 09.06.2019
6622 Clear 24 1022 26 0 0.89 69 14:55 09.06.2019
6623 Clear 24 1023 33 0 0.89 230 14:36 09.06.2019
6624 Clear 24 1023 33 0 0.45 122 14:18 09.06.2019
6625 Clear 25 1024 26 0 0.89 160 13:44 09.06.2019
6626 Clouds 25 1024 29 0 1.34 50 12:57 09.06.2019
6627 Clouds 24 1018 31 0 0.45 83 12:35 09.06.2019
6628 Clouds 21 1025 33 0 0.45 111 11:58 09.06.2019
6629 Clouds 21 1025 34 0 0.45 318 11:36 09.06.2019
6630 Clouds 21 1025 34 0 0.45 349 11:18 09.06.2019
6631 Clear 22 1025 29 0 0.45 80 10:43 09.06.2019
6632 Clear 22 1025 32 0 0.45 53 10:43 09.06.2019
6633 Clear 21 1020 37 0 2.14 220.604 10:20 09.06.2019
6634 Clear 20 1026 49 0 0.45 285 09:39 09.06.2019
6635 Clouds 18 1026 57 0 0.89 337 09:20 09.06.2019
6636 Clouds 18 1026 52 0 1.34 286 08:45 09.06.2019
6637 Clouds 17 1021 57 0 2.56 226.933 08:19 09.06.2019
6638 Clouds 13 1025 70 0 0.45 169 06:48 09.06.2019
6639 Clouds 12 1025 71 0 0.45 170 06:29 09.06.2019
6640 Clear 11 1024 76 0 2.77 219.798 03:26 09.06.2019
6641 Clear 12 1023 71 0 2.77 219.798 01:38 09.06.2019
6642 Clear 13 1023 69 0 3.08 213.448 01:19 09.06.2019
6643 Clear 13 1023 67 0 0.89 157 00:45 09.06.2019
6644 Clear 14 1023 65 0 0.45 166 23:43 08.06.2019
6645 Clear 15 1023 63 0 0.45 170 23:24 08.06.2019
6646 Clear 16 1023 61 0 0.45 141 22:56 08.06.2019
6647 Clear 16 1023 59 0 1.34 88 22:38 08.06.2019
6648 Clear 16 1023 58 0 2.79 206.29 22:19 08.06.2019
6649 Clear 17 1022 52 0 2.79 206.29 21:50 08.06.2019
6650 Clouds 18 1022 50 0 3.51 226.04 21:26 08.06.2019
6651 Clouds 19 1022 43 0 3.51 226.04 20:47 08.06.2019
6652 Clouds 20 1021 39 0 1.34 255 20:26 08.06.2019
6653 Clouds 20 1021 38 0 2.24 172 19:59 08.06.2019
6654 Clouds 20 1022 38 0 4.47 321 19:39 08.06.2019
6655 Clear 20 1021 34 0 0.45 222 19:19 08.06.2019
6656 Clear 21 1020 34 0 3.13 258 18:56 08.06.2019
6657 Clear 22 1020 31 0 0.45 197 18:34 08.06.2019
6658 Clear 21 1017 38 0 2.24 234 17:49 08.06.2019
6659 Clear 22 1022 38 0 5.36 224 17:25 08.06.2019
6660 Clear 22 1022 36 0 4.47 296 16:58 08.06.2019
6661 Clear 22 1022 36 0 4.92 259 16:38 08.06.2019
6662 Clear 22 1021 28 0 1.34 293 16:18 08.06.2019
6663 Clear 22 1015 33 0 6.59 240.246 15:37 08.06.2019
6664 Clouds 22 1018 36 0 3.13 0 14:53 08.06.2019
6665 Clouds 22 1021 36 0 6.26 281 14:31 08.06.2019
6666 Clouds 22 1020 30 0 2.24 205 13:56 08.06.2019
6667 Clouds 21 1020 30 0 1.79 253 13:24 08.06.2019
6668 Clouds 20 1020 33 0 1.34 258 12:45 08.06.2019
6669 Clouds 19 1019 43 0 2.24 337 12:20 08.06.2019
6670 Clouds 19 1019 43 0 7.13 223.43 11:43 08.06.2019
6671 Clouds 18 1014 47 0 7.13 223.43 11:22 08.06.2019
6672 Clouds 18 1019 47 0 1.34 180 10:44 08.06.2019
6673 Clouds 17 1018 53 0 1.79 128 10:22 08.06.2019
6674 Clouds 17 1018 60 0 1.79 145 09:48 08.06.2019
6675 Clouds 17 1018 68 0 1.34 169 09:22 08.06.2019
6676 Clouds 16 1017 72 0 4.9 217.043 08:29 08.06.2019
6677 Clouds 16 1017 68 0 1.34 198 07:49 08.06.2019
6678 Clouds 14 1017 81 0 1.79 214 06:50 08.06.2019
6679 Rain 15 1016 85 0 0.89 186 05:47 08.06.2019
6680 Rain 17 1015 85 0 0.45 217 03:30 08.06.2019
6681 Rain 19 1013 83 0 0.45 305 01:27 08.06.2019
6682 Rain 20 1011 64 0 0.45 180 00:25 08.06.2019
6683 Rain 20 1011 62 0 3.41 137.761 23:43 07.06.2019
6684 Rain 21 1010 63 0 0.89 172 23:20 07.06.2019
6685 Rain 21 1010 62 0 1.34 74 22:42 07.06.2019
6686 Rain 22 1010 60 0 0.45 133 22:23 07.06.2019
6687 Rain 22 1010 59 0 2.24 128 21:53 07.06.2019
6688 Rain 23 1010 56 0 2.24 169 21:30 07.06.2019
6689 Clear 24 1010 51 0 2.68 105 20:57 07.06.2019
6690 Clear 24 1010 49 0 1.79 118 20:37 07.06.2019
6691 Clear 25 1010 43 0 1.79 163 19:50 07.06.2019
6692 Clear 25 1010 42 0 2.24 112 19:24 07.06.2019
6693 Clear 26 1011 41 0 2.24 115 18:58 07.06.2019
6694 Clear 26 1011 40 0 2.68 166 18:37 07.06.2019
6695 Clear 25 1011 49 0 2.24 196 18:18 07.06.2019
6696 Clear 25 1012 49 0 2.24 150 17:38 07.06.2019
6697 Clear 26 1012 50 0 2.68 212 17:19 07.06.2019
6698 Clear 26 1012 37 0 1.34 170 16:40 07.06.2019
6699 Clear 26 1012 38 0 2.68 173 15:54 07.06.2019
6700 Clear 24 1013 52 0 1.79 58 15:23 07.06.2019
6701 Clear 24 1013 56 0 1.79 193 14:49 07.06.2019
6702 Clear 23 1014 55 0 1.79 140 14:27 07.06.2019
6703 Clear 25 1014 57 0 1.34 133 13:52 07.06.2019
6704 Clear 24 1009 40 0 2.86 147 13:27 07.06.2019
6705 Clear 23 1014 36 0 1.34 145 12:51 07.06.2019
6706 Clear 22 1015 59 0 1.34 251 12:25 07.06.2019
6707 Clear 21 1015 59 0 1.34 73 11:55 07.06.2019
6708 Clear 20 1015 43 0 0.45 148 11:32 07.06.2019
6709 Clear 22 1015 42 0 1.79 105 10:59 07.06.2019
6710 Clear 21 1015 38 0 1.34 67 10:41 07.06.2019
6711 Clear 21 1011 37 0 1.44 93.352 10:19 07.06.2019
6712 Clear 20 1016 27 0 0.45 91 09:46 07.06.2019
6713 Clear 18 1016 67 0 0.45 39 09:21 07.06.2019
6714 Clear 17 1016 71 0 1.41 13.131 08:45 07.06.2019
6715 Clear 17 1016 47 0 0.45 62 08:26 07.06.2019
6716 Clear 16 1016 55 0 0.45 25 07:48 07.06.2019
6717 Clear 16 1016 64 0 1.41 13.131 07:22 07.06.2019
6718 Clear 14 1016 70 0 1.41 13.131 06:47 07.06.2019
6719 Clear 14 1016 74 0 1.48 327.954 06:23 07.06.2019
6720 Clear 14 1016 74 0 1.48 327.954 06:23 07.06.2019
6721 Clear 13 1015 78 0 1.48 327.954 05:43 07.06.2019
6722 Clouds 15 1015 77 0 1.87 289.499 02:41 07.06.2019
6723 Clouds 15 1015 75 0 1.87 289.499 01:37 07.06.2019
6724 Clouds 15 1015 73 0 1.84 298.586 00:46 07.06.2019
6725 Clouds 16 1015 73 0 0.45 255 23:46 06.06.2019
6726 Clouds 16 1015 73 0 0.45 255 23:46 06.06.2019
6727 Clouds 16 1015 72 0 1.34 250 23:25 06.06.2019
6728 Clouds 16 1015 71 0 1.34 245 22:59 06.06.2019
6729 Clouds 16 1015 71 0 0.89 228 22:37 06.06.2019
6730 Clouds 16 1015 69 0 0.45 255 22:19 06.06.2019
6731 Clouds<